<?xml version="1.0" encoding="UTF-8" standalone="no" ?>
<gpx xmlns="http://www.topografix.com/GPX/1/1" xmlns:xsi="http://www.w3.org/2001/XMLSchema-instance" xsi:schemaLocation="http://www.topografix.com/GPX/1/1 http://www.topografix.com/GPX/1/1/gpx.xsd" version="1.1" creator="VisuGPX - https://www.visugpx.com">
  <metadata>
    <name>le raid tuit_tuit 2013</name>
    <desc><![CDATA[le raid tuit tuit 2013 couru le 15/09/2013, circuit agréable mélangeant sentier, bitume et route forestière. ]]></desc>
  </metadata>
  <trk>
    <name><![CDATA[Raid tuit_tuit]]></name>
    <trkseg>
      <trkpt lat="-20.88418" lon="55.44232">
        <ele>64.9</ele>
        <time>2013-09-15T03:04:57Z</time>
      </trkpt>
      <trkpt lat="-20.88413" lon="55.44225">
        <ele>66.2</ele>
        <time>2013-09-15T03:05:26Z</time>
      </trkpt>
      <trkpt lat="-20.88413" lon="55.44222">
        <ele>66.1</ele>
        <time>2013-09-15T03:05:27Z</time>
      </trkpt>
      <trkpt lat="-20.88416" lon="55.44209">
        <ele>65.5</ele>
        <time>2013-09-15T03:05:32Z</time>
      </trkpt>
      <trkpt lat="-20.88416" lon="55.44201">
        <ele>65.9</ele>
        <time>2013-09-15T03:05:35Z</time>
      </trkpt>
      <trkpt lat="-20.88416" lon="55.44193">
        <ele>66</ele>
        <time>2013-09-15T03:05:38Z</time>
      </trkpt>
      <trkpt lat="-20.88417" lon="55.44184">
        <ele>66</ele>
        <time>2013-09-15T03:05:41Z</time>
      </trkpt>
      <trkpt lat="-20.88418" lon="55.44176">
        <ele>66.3</ele>
        <time>2013-09-15T03:05:44Z</time>
      </trkpt>
      <trkpt lat="-20.8842" lon="55.44168">
        <ele>66.1</ele>
        <time>2013-09-15T03:05:47Z</time>
      </trkpt>
      <trkpt lat="-20.88423" lon="55.44159">
        <ele>65.8</ele>
        <time>2013-09-15T03:05:50Z</time>
      </trkpt>
      <trkpt lat="-20.88428" lon="55.44152">
        <ele>66</ele>
        <time>2013-09-15T03:05:53Z</time>
      </trkpt>
      <trkpt lat="-20.88434" lon="55.44144">
        <ele>66.4</ele>
        <time>2013-09-15T03:05:56Z</time>
      </trkpt>
      <trkpt lat="-20.8844" lon="55.44139">
        <ele>65.8</ele>
        <time>2013-09-15T03:05:59Z</time>
      </trkpt>
      <trkpt lat="-20.88448" lon="55.44136">
        <ele>65.8</ele>
        <time>2013-09-15T03:06:02Z</time>
      </trkpt>
      <trkpt lat="-20.88457" lon="55.44134">
        <ele>65.9</ele>
        <time>2013-09-15T03:06:05Z</time>
      </trkpt>
      <trkpt lat="-20.88465" lon="55.44135">
        <ele>66</ele>
        <time>2013-09-15T03:06:08Z</time>
      </trkpt>
      <trkpt lat="-20.88473" lon="55.44137">
        <ele>66</ele>
        <time>2013-09-15T03:06:11Z</time>
      </trkpt>
      <trkpt lat="-20.88479" lon="55.4414">
        <ele>66.1</ele>
        <time>2013-09-15T03:06:13Z</time>
      </trkpt>
      <trkpt lat="-20.88487" lon="55.44144">
        <ele>66.2</ele>
        <time>2013-09-15T03:06:16Z</time>
      </trkpt>
      <trkpt lat="-20.88492" lon="55.44151">
        <ele>66.3</ele>
        <time>2013-09-15T03:06:19Z</time>
      </trkpt>
      <trkpt lat="-20.88497" lon="55.44157">
        <ele>66.6</ele>
        <time>2013-09-15T03:06:22Z</time>
      </trkpt>
      <trkpt lat="-20.88499" lon="55.44165">
        <ele>66</ele>
        <time>2013-09-15T03:06:25Z</time>
      </trkpt>
      <trkpt lat="-20.885" lon="55.44174">
        <ele>66.5</ele>
        <time>2013-09-15T03:06:28Z</time>
      </trkpt>
      <trkpt lat="-20.885" lon="55.44177">
        <ele>66.6</ele>
        <time>2013-09-15T03:06:29Z</time>
      </trkpt>
      <trkpt lat="-20.885" lon="55.44192">
        <ele>65.9</ele>
        <time>2013-09-15T03:06:34Z</time>
      </trkpt>
      <trkpt lat="-20.88499" lon="55.442">
        <ele>66.3</ele>
        <time>2013-09-15T03:06:37Z</time>
      </trkpt>
      <trkpt lat="-20.88498" lon="55.44209">
        <ele>65.8</ele>
        <time>2013-09-15T03:06:40Z</time>
      </trkpt>
      <trkpt lat="-20.88497" lon="55.44218">
        <ele>65.5</ele>
        <time>2013-09-15T03:06:43Z</time>
      </trkpt>
      <trkpt lat="-20.88497" lon="55.44226">
        <ele>65.4</ele>
        <time>2013-09-15T03:06:46Z</time>
      </trkpt>
      <trkpt lat="-20.88496" lon="55.44235">
        <ele>65.7</ele>
        <time>2013-09-15T03:06:49Z</time>
      </trkpt>
      <trkpt lat="-20.88495" lon="55.44243">
        <ele>65.6</ele>
        <time>2013-09-15T03:06:52Z</time>
      </trkpt>
      <trkpt lat="-20.88494" lon="55.44253">
        <ele>65.3</ele>
        <time>2013-09-15T03:06:55Z</time>
      </trkpt>
      <trkpt lat="-20.88491" lon="55.44261">
        <ele>65.4</ele>
        <time>2013-09-15T03:06:58Z</time>
      </trkpt>
      <trkpt lat="-20.88487" lon="55.44268">
        <ele>65</ele>
        <time>2013-09-15T03:07:01Z</time>
      </trkpt>
      <trkpt lat="-20.8848" lon="55.44273">
        <ele>66</ele>
        <time>2013-09-15T03:07:04Z</time>
      </trkpt>
      <trkpt lat="-20.88473" lon="55.44278">
        <ele>65.6</ele>
        <time>2013-09-15T03:07:07Z</time>
      </trkpt>
      <trkpt lat="-20.88467" lon="55.4428">
        <ele>66.2</ele>
        <time>2013-09-15T03:07:09Z</time>
      </trkpt>
      <trkpt lat="-20.88459" lon="55.44282">
        <ele>66</ele>
        <time>2013-09-15T03:07:12Z</time>
      </trkpt>
      <trkpt lat="-20.8845" lon="55.44282">
        <ele>65.7</ele>
        <time>2013-09-15T03:07:15Z</time>
      </trkpt>
      <trkpt lat="-20.88444" lon="55.4428">
        <ele>65.8</ele>
        <time>2013-09-15T03:07:17Z</time>
      </trkpt>
      <trkpt lat="-20.88436" lon="55.44277">
        <ele>65.9</ele>
        <time>2013-09-15T03:07:20Z</time>
      </trkpt>
      <trkpt lat="-20.88428" lon="55.44274">
        <ele>65.5</ele>
        <time>2013-09-15T03:07:23Z</time>
      </trkpt>
      <trkpt lat="-20.8842" lon="55.44275">
        <ele>65.5</ele>
        <time>2013-09-15T03:07:26Z</time>
      </trkpt>
      <trkpt lat="-20.88416" lon="55.44281">
        <ele>65.9</ele>
        <time>2013-09-15T03:07:29Z</time>
      </trkpt>
      <trkpt lat="-20.88412" lon="55.44288">
        <ele>66</ele>
        <time>2013-09-15T03:07:32Z</time>
      </trkpt>
      <trkpt lat="-20.88411" lon="55.4429">
        <ele>66.2</ele>
        <time>2013-09-15T03:07:33Z</time>
      </trkpt>
      <trkpt lat="-20.88403" lon="55.44302">
        <ele>64.2</ele>
        <time>2013-09-15T03:07:38Z</time>
      </trkpt>
      <trkpt lat="-20.88396" lon="55.44308">
        <ele>64.2</ele>
        <time>2013-09-15T03:07:41Z</time>
      </trkpt>
      <trkpt lat="-20.8839" lon="55.44315">
        <ele>64</ele>
        <time>2013-09-15T03:07:44Z</time>
      </trkpt>
      <trkpt lat="-20.88385" lon="55.4432">
        <ele>64</ele>
        <time>2013-09-15T03:07:46Z</time>
      </trkpt>
      <trkpt lat="-20.88379" lon="55.44327">
        <ele>63.9</ele>
        <time>2013-09-15T03:07:49Z</time>
      </trkpt>
      <trkpt lat="-20.88374" lon="55.44334">
        <ele>63.8</ele>
        <time>2013-09-15T03:07:52Z</time>
      </trkpt>
      <trkpt lat="-20.88368" lon="55.44341">
        <ele>63.6</ele>
        <time>2013-09-15T03:07:55Z</time>
      </trkpt>
      <trkpt lat="-20.88363" lon="55.44347">
        <ele>63.1</ele>
        <time>2013-09-15T03:07:58Z</time>
      </trkpt>
      <trkpt lat="-20.88355" lon="55.4435">
        <ele>62.7</ele>
        <time>2013-09-15T03:08:02Z</time>
      </trkpt>
      <trkpt lat="-20.88348" lon="55.44351">
        <ele>63</ele>
        <time>2013-09-15T03:08:05Z</time>
      </trkpt>
      <trkpt lat="-20.88341" lon="55.44348">
        <ele>63.4</ele>
        <time>2013-09-15T03:08:11Z</time>
      </trkpt>
      <trkpt lat="-20.88341" lon="55.44339">
        <ele>63.5</ele>
        <time>2013-09-15T03:08:15Z</time>
      </trkpt>
      <trkpt lat="-20.88338" lon="55.4433">
        <ele>63.2</ele>
        <time>2013-09-15T03:08:18Z</time>
      </trkpt>
      <trkpt lat="-20.88336" lon="55.44322">
        <ele>63.2</ele>
        <time>2013-09-15T03:08:21Z</time>
      </trkpt>
      <trkpt lat="-20.88336" lon="55.44313">
        <ele>63.4</ele>
        <time>2013-09-15T03:08:24Z</time>
      </trkpt>
      <trkpt lat="-20.88337" lon="55.44305">
        <ele>63.9</ele>
        <time>2013-09-15T03:08:27Z</time>
      </trkpt>
      <trkpt lat="-20.88336" lon="55.44297">
        <ele>63.6</ele>
        <time>2013-09-15T03:08:30Z</time>
      </trkpt>
      <trkpt lat="-20.88337" lon="55.44289">
        <ele>63.5</ele>
        <time>2013-09-15T03:08:33Z</time>
      </trkpt>
      <trkpt lat="-20.88337" lon="55.44286">
        <ele>63.6</ele>
        <time>2013-09-15T03:08:34Z</time>
      </trkpt>
      <trkpt lat="-20.88338" lon="55.44273">
        <ele>64.1</ele>
        <time>2013-09-15T03:08:39Z</time>
      </trkpt>
      <trkpt lat="-20.88339" lon="55.44265">
        <ele>64.2</ele>
        <time>2013-09-15T03:08:42Z</time>
      </trkpt>
      <trkpt lat="-20.88339" lon="55.44256">
        <ele>63.8</ele>
        <time>2013-09-15T03:08:45Z</time>
      </trkpt>
      <trkpt lat="-20.88339" lon="55.44247">
        <ele>63.1</ele>
        <time>2013-09-15T03:08:48Z</time>
      </trkpt>
      <trkpt lat="-20.8834" lon="55.44238">
        <ele>62.9</ele>
        <time>2013-09-15T03:08:51Z</time>
      </trkpt>
      <trkpt lat="-20.88342" lon="55.44229">
        <ele>62.5</ele>
        <time>2013-09-15T03:08:54Z</time>
      </trkpt>
      <trkpt lat="-20.88342" lon="55.4422">
        <ele>63.2</ele>
        <time>2013-09-15T03:08:57Z</time>
      </trkpt>
      <trkpt lat="-20.88343" lon="55.44211">
        <ele>63.2</ele>
        <time>2013-09-15T03:09:00Z</time>
      </trkpt>
      <trkpt lat="-20.88341" lon="55.44201">
        <ele>63.4</ele>
        <time>2013-09-15T03:09:03Z</time>
      </trkpt>
      <trkpt lat="-20.88341" lon="55.44192">
        <ele>64.1</ele>
        <time>2013-09-15T03:09:06Z</time>
      </trkpt>
      <trkpt lat="-20.88341" lon="55.44183">
        <ele>64.3</ele>
        <time>2013-09-15T03:09:09Z</time>
      </trkpt>
      <trkpt lat="-20.88341" lon="55.44176">
        <ele>63.9</ele>
        <time>2013-09-15T03:09:11Z</time>
      </trkpt>
      <trkpt lat="-20.88342" lon="55.44168">
        <ele>63.4</ele>
        <time>2013-09-15T03:09:14Z</time>
      </trkpt>
      <trkpt lat="-20.88343" lon="55.44159">
        <ele>64</ele>
        <time>2013-09-15T03:09:17Z</time>
      </trkpt>
      <trkpt lat="-20.88343" lon="55.44151">
        <ele>63.8</ele>
        <time>2013-09-15T03:09:20Z</time>
      </trkpt>
      <trkpt lat="-20.88347" lon="55.44144">
        <ele>63.5</ele>
        <time>2013-09-15T03:09:23Z</time>
      </trkpt>
      <trkpt lat="-20.88352" lon="55.44137">
        <ele>63.6</ele>
        <time>2013-09-15T03:09:26Z</time>
      </trkpt>
      <trkpt lat="-20.8836" lon="55.44136">
        <ele>64</ele>
        <time>2013-09-15T03:09:29Z</time>
      </trkpt>
      <trkpt lat="-20.88368" lon="55.44135">
        <ele>64.1</ele>
        <time>2013-09-15T03:09:32Z</time>
      </trkpt>
      <trkpt lat="-20.88376" lon="55.44134">
        <ele>63.7</ele>
        <time>2013-09-15T03:09:35Z</time>
      </trkpt>
      <trkpt lat="-20.88378" lon="55.44134">
        <ele>63.4</ele>
        <time>2013-09-15T03:09:36Z</time>
      </trkpt>
      <trkpt lat="-20.88391" lon="55.44134">
        <ele>63.9</ele>
        <time>2013-09-15T03:09:41Z</time>
      </trkpt>
      <trkpt lat="-20.88399" lon="55.44133">
        <ele>63.3</ele>
        <time>2013-09-15T03:09:44Z</time>
      </trkpt>
      <trkpt lat="-20.88407" lon="55.44132">
        <ele>62.9</ele>
        <time>2013-09-15T03:09:47Z</time>
      </trkpt>
      <trkpt lat="-20.88414" lon="55.44131">
        <ele>63.4</ele>
        <time>2013-09-15T03:09:50Z</time>
      </trkpt>
      <trkpt lat="-20.88423" lon="55.44131">
        <ele>64.5</ele>
        <time>2013-09-15T03:09:54Z</time>
      </trkpt>
      <trkpt lat="-20.8843" lon="55.44129">
        <ele>65.3</ele>
        <time>2013-09-15T03:09:58Z</time>
      </trkpt>
      <trkpt lat="-20.88437" lon="55.44126">
        <ele>65.1</ele>
        <time>2013-09-15T03:10:01Z</time>
      </trkpt>
      <trkpt lat="-20.88445" lon="55.44127">
        <ele>66.1</ele>
        <time>2013-09-15T03:10:04Z</time>
      </trkpt>
      <trkpt lat="-20.88454" lon="55.44127">
        <ele>65.1</ele>
        <time>2013-09-15T03:10:07Z</time>
      </trkpt>
      <trkpt lat="-20.88461" lon="55.44127">
        <ele>65.3</ele>
        <time>2013-09-15T03:10:10Z</time>
      </trkpt>
      <trkpt lat="-20.88468" lon="55.44128">
        <ele>66.4</ele>
        <time>2013-09-15T03:10:13Z</time>
      </trkpt>
      <trkpt lat="-20.88477" lon="55.44129">
        <ele>66</ele>
        <time>2013-09-15T03:10:16Z</time>
      </trkpt>
      <trkpt lat="-20.88485" lon="55.4413">
        <ele>66.3</ele>
        <time>2013-09-15T03:10:19Z</time>
      </trkpt>
      <trkpt lat="-20.88493" lon="55.44133">
        <ele>66.7</ele>
        <time>2013-09-15T03:10:22Z</time>
      </trkpt>
      <trkpt lat="-20.88501" lon="55.44136">
        <ele>66.6</ele>
        <time>2013-09-15T03:10:25Z</time>
      </trkpt>
      <trkpt lat="-20.88509" lon="55.44139">
        <ele>66.8</ele>
        <time>2013-09-15T03:10:28Z</time>
      </trkpt>
      <trkpt lat="-20.88512" lon="55.44147">
        <ele>66.6</ele>
        <time>2013-09-15T03:10:33Z</time>
      </trkpt>
      <trkpt lat="-20.88515" lon="55.44156">
        <ele>66.9</ele>
        <time>2013-09-15T03:10:37Z</time>
      </trkpt>
      <trkpt lat="-20.88516" lon="55.44158">
        <ele>66.8</ele>
        <time>2013-09-15T03:10:38Z</time>
      </trkpt>
      <trkpt lat="-20.88523" lon="55.44171">
        <ele>68</ele>
        <time>2013-09-15T03:10:46Z</time>
      </trkpt>
      <trkpt lat="-20.88529" lon="55.44176">
        <ele>68.9</ele>
        <time>2013-09-15T03:10:50Z</time>
      </trkpt>
      <trkpt lat="-20.88529" lon="55.44184">
        <ele>70.5</ele>
        <time>2013-09-15T03:10:56Z</time>
      </trkpt>
      <trkpt lat="-20.88529" lon="55.44193">
        <ele>71.3</ele>
        <time>2013-09-15T03:11:00Z</time>
      </trkpt>
      <trkpt lat="-20.88531" lon="55.44201">
        <ele>71.1</ele>
        <time>2013-09-15T03:11:03Z</time>
      </trkpt>
      <trkpt lat="-20.88531" lon="55.44209">
        <ele>71</ele>
        <time>2013-09-15T03:11:06Z</time>
      </trkpt>
      <trkpt lat="-20.88531" lon="55.44217">
        <ele>70.5</ele>
        <time>2013-09-15T03:11:09Z</time>
      </trkpt>
      <trkpt lat="-20.88532" lon="55.44226">
        <ele>70.7</ele>
        <time>2013-09-15T03:11:13Z</time>
      </trkpt>
      <trkpt lat="-20.8853" lon="55.44233">
        <ele>71.2</ele>
        <time>2013-09-15T03:11:16Z</time>
      </trkpt>
      <trkpt lat="-20.88527" lon="55.4424">
        <ele>70.2</ele>
        <time>2013-09-15T03:11:19Z</time>
      </trkpt>
      <trkpt lat="-20.88524" lon="55.44247">
        <ele>69.9</ele>
        <time>2013-09-15T03:11:21Z</time>
      </trkpt>
      <trkpt lat="-20.8852" lon="55.44255">
        <ele>69.1</ele>
        <time>2013-09-15T03:11:24Z</time>
      </trkpt>
      <trkpt lat="-20.88514" lon="55.44263">
        <ele>68.2</ele>
        <time>2013-09-15T03:11:27Z</time>
      </trkpt>
      <trkpt lat="-20.8851" lon="55.44271">
        <ele>67.9</ele>
        <time>2013-09-15T03:11:30Z</time>
      </trkpt>
      <trkpt lat="-20.88504" lon="55.44278">
        <ele>67.8</ele>
        <time>2013-09-15T03:11:33Z</time>
      </trkpt>
      <trkpt lat="-20.885" lon="55.44282">
        <ele>67.1</ele>
        <time>2013-09-15T03:11:35Z</time>
      </trkpt>
      <trkpt lat="-20.88495" lon="55.44287">
        <ele>66.8</ele>
        <time>2013-09-15T03:11:37Z</time>
      </trkpt>
      <trkpt lat="-20.8849" lon="55.44292">
        <ele>66.9</ele>
        <time>2013-09-15T03:11:39Z</time>
      </trkpt>
      <trkpt lat="-20.88488" lon="55.44294">
        <ele>66.9</ele>
        <time>2013-09-15T03:11:40Z</time>
      </trkpt>
      <trkpt lat="-20.88481" lon="55.44301">
        <ele>66.2</ele>
        <time>2013-09-15T03:11:43Z</time>
      </trkpt>
      <trkpt lat="-20.88476" lon="55.44305">
        <ele>66</ele>
        <time>2013-09-15T03:11:45Z</time>
      </trkpt>
      <trkpt lat="-20.88471" lon="55.4431">
        <ele>65.9</ele>
        <time>2013-09-15T03:11:47Z</time>
      </trkpt>
      <trkpt lat="-20.88464" lon="55.44314">
        <ele>66</ele>
        <time>2013-09-15T03:11:50Z</time>
      </trkpt>
      <trkpt lat="-20.88459" lon="55.44317">
        <ele>65.6</ele>
        <time>2013-09-15T03:11:52Z</time>
      </trkpt>
      <trkpt lat="-20.88452" lon="55.44319">
        <ele>65.6</ele>
        <time>2013-09-15T03:11:54Z</time>
      </trkpt>
      <trkpt lat="-20.88447" lon="55.44323">
        <ele>64.7</ele>
        <time>2013-09-15T03:11:56Z</time>
      </trkpt>
      <trkpt lat="-20.8844" lon="55.44327">
        <ele>65.3</ele>
        <time>2013-09-15T03:11:59Z</time>
      </trkpt>
      <trkpt lat="-20.88434" lon="55.4433">
        <ele>64.6</ele>
        <time>2013-09-15T03:12:01Z</time>
      </trkpt>
      <trkpt lat="-20.88426" lon="55.44333">
        <ele>64</ele>
        <time>2013-09-15T03:12:04Z</time>
      </trkpt>
      <trkpt lat="-20.8842" lon="55.44338">
        <ele>63.6</ele>
        <time>2013-09-15T03:12:07Z</time>
      </trkpt>
      <trkpt lat="-20.88419" lon="55.44346">
        <ele>63.6</ele>
        <time>2013-09-15T03:12:12Z</time>
      </trkpt>
      <trkpt lat="-20.88423" lon="55.44353">
        <ele>63.6</ele>
        <time>2013-09-15T03:12:15Z</time>
      </trkpt>
      <trkpt lat="-20.88426" lon="55.44359">
        <ele>63.5</ele>
        <time>2013-09-15T03:12:17Z</time>
      </trkpt>
      <trkpt lat="-20.88433" lon="55.44365">
        <ele>64.1</ele>
        <time>2013-09-15T03:12:20Z</time>
      </trkpt>
      <trkpt lat="-20.88441" lon="55.44366">
        <ele>64.5</ele>
        <time>2013-09-15T03:12:23Z</time>
      </trkpt>
      <trkpt lat="-20.8845" lon="55.44366">
        <ele>64.8</ele>
        <time>2013-09-15T03:12:26Z</time>
      </trkpt>
      <trkpt lat="-20.88458" lon="55.44364">
        <ele>65.2</ele>
        <time>2013-09-15T03:12:29Z</time>
      </trkpt>
      <trkpt lat="-20.88465" lon="55.44362">
        <ele>65.5</ele>
        <time>2013-09-15T03:12:32Z</time>
      </trkpt>
      <trkpt lat="-20.88473" lon="55.4436">
        <ele>65.2</ele>
        <time>2013-09-15T03:12:36Z</time>
      </trkpt>
      <trkpt lat="-20.88479" lon="55.44355">
        <ele>65.6</ele>
        <time>2013-09-15T03:12:40Z</time>
      </trkpt>
      <trkpt lat="-20.88486" lon="55.44351">
        <ele>66.3</ele>
        <time>2013-09-15T03:12:43Z</time>
      </trkpt>
      <trkpt lat="-20.88488" lon="55.4435">
        <ele>66.5</ele>
        <time>2013-09-15T03:12:44Z</time>
      </trkpt>
      <trkpt lat="-20.88498" lon="55.44342">
        <ele>67.1</ele>
        <time>2013-09-15T03:12:49Z</time>
      </trkpt>
      <trkpt lat="-20.88505" lon="55.44337">
        <ele>67.9</ele>
        <time>2013-09-15T03:12:52Z</time>
      </trkpt>
      <trkpt lat="-20.88511" lon="55.44334">
        <ele>68.6</ele>
        <time>2013-09-15T03:12:55Z</time>
      </trkpt>
      <trkpt lat="-20.88518" lon="55.4433">
        <ele>68.4</ele>
        <time>2013-09-15T03:12:58Z</time>
      </trkpt>
      <trkpt lat="-20.88524" lon="55.44328">
        <ele>68.6</ele>
        <time>2013-09-15T03:13:01Z</time>
      </trkpt>
      <trkpt lat="-20.88533" lon="55.44325">
        <ele>68.9</ele>
        <time>2013-09-15T03:13:05Z</time>
      </trkpt>
      <trkpt lat="-20.88539" lon="55.44321">
        <ele>69.7</ele>
        <time>2013-09-15T03:13:09Z</time>
      </trkpt>
      <trkpt lat="-20.88546" lon="55.44317">
        <ele>70.6</ele>
        <time>2013-09-15T03:13:14Z</time>
      </trkpt>
      <trkpt lat="-20.88554" lon="55.44314">
        <ele>70.8</ele>
        <time>2013-09-15T03:13:18Z</time>
      </trkpt>
      <trkpt lat="-20.88562" lon="55.44309">
        <ele>71.8</ele>
        <time>2013-09-15T03:13:22Z</time>
      </trkpt>
      <trkpt lat="-20.88569" lon="55.44304">
        <ele>71.9</ele>
        <time>2013-09-15T03:13:26Z</time>
      </trkpt>
      <trkpt lat="-20.88575" lon="55.443">
        <ele>72.9</ele>
        <time>2013-09-15T03:13:29Z</time>
      </trkpt>
      <trkpt lat="-20.88581" lon="55.44296">
        <ele>73.1</ele>
        <time>2013-09-15T03:13:32Z</time>
      </trkpt>
      <trkpt lat="-20.88589" lon="55.44291">
        <ele>74</ele>
        <time>2013-09-15T03:13:36Z</time>
      </trkpt>
      <trkpt lat="-20.88595" lon="55.44285">
        <ele>74.9</ele>
        <time>2013-09-15T03:13:40Z</time>
      </trkpt>
      <trkpt lat="-20.88602" lon="55.4428">
        <ele>75.2</ele>
        <time>2013-09-15T03:13:44Z</time>
      </trkpt>
      <trkpt lat="-20.88608" lon="55.44276">
        <ele>75.5</ele>
        <time>2013-09-15T03:13:47Z</time>
      </trkpt>
      <trkpt lat="-20.8861" lon="55.44274">
        <ele>75.5</ele>
        <time>2013-09-15T03:13:48Z</time>
      </trkpt>
      <trkpt lat="-20.88619" lon="55.44265">
        <ele>76.3</ele>
        <time>2013-09-15T03:13:53Z</time>
      </trkpt>
      <trkpt lat="-20.88625" lon="55.4426">
        <ele>76.6</ele>
        <time>2013-09-15T03:13:57Z</time>
      </trkpt>
      <trkpt lat="-20.88633" lon="55.44256">
        <ele>77.4</ele>
        <time>2013-09-15T03:14:01Z</time>
      </trkpt>
      <trkpt lat="-20.8864" lon="55.44251">
        <ele>78</ele>
        <time>2013-09-15T03:14:05Z</time>
      </trkpt>
      <trkpt lat="-20.88646" lon="55.44248">
        <ele>77.8</ele>
        <time>2013-09-15T03:14:09Z</time>
      </trkpt>
      <trkpt lat="-20.88651" lon="55.44242">
        <ele>77.9</ele>
        <time>2013-09-15T03:14:13Z</time>
      </trkpt>
      <trkpt lat="-20.88658" lon="55.44236">
        <ele>78.7</ele>
        <time>2013-09-15T03:14:18Z</time>
      </trkpt>
      <trkpt lat="-20.88665" lon="55.44233">
        <ele>78.8</ele>
        <time>2013-09-15T03:14:22Z</time>
      </trkpt>
      <trkpt lat="-20.88671" lon="55.44227">
        <ele>79.5</ele>
        <time>2013-09-15T03:14:26Z</time>
      </trkpt>
      <trkpt lat="-20.88677" lon="55.44222">
        <ele>80.5</ele>
        <time>2013-09-15T03:14:30Z</time>
      </trkpt>
      <trkpt lat="-20.88685" lon="55.4422">
        <ele>80.7</ele>
        <time>2013-09-15T03:14:34Z</time>
      </trkpt>
      <trkpt lat="-20.88693" lon="55.44218">
        <ele>82</ele>
        <time>2013-09-15T03:14:38Z</time>
      </trkpt>
      <trkpt lat="-20.887" lon="55.44214">
        <ele>82.4</ele>
        <time>2013-09-15T03:14:42Z</time>
      </trkpt>
      <trkpt lat="-20.88707" lon="55.44208">
        <ele>81.8</ele>
        <time>2013-09-15T03:14:47Z</time>
      </trkpt>
      <trkpt lat="-20.88713" lon="55.44202">
        <ele>82.5</ele>
        <time>2013-09-15T03:14:51Z</time>
      </trkpt>
      <trkpt lat="-20.88714" lon="55.44201">
        <ele>83.1</ele>
        <time>2013-09-15T03:14:52Z</time>
      </trkpt>
      <trkpt lat="-20.88726" lon="55.44195">
        <ele>83.1</ele>
        <time>2013-09-15T03:14:59Z</time>
      </trkpt>
      <trkpt lat="-20.88735" lon="55.44192">
        <ele>82.2</ele>
        <time>2013-09-15T03:15:04Z</time>
      </trkpt>
      <trkpt lat="-20.88741" lon="55.44186">
        <ele>80.8</ele>
        <time>2013-09-15T03:15:08Z</time>
      </trkpt>
      <trkpt lat="-20.88748" lon="55.44181">
        <ele>80.9</ele>
        <time>2013-09-15T03:15:13Z</time>
      </trkpt>
      <trkpt lat="-20.88755" lon="55.44177">
        <ele>80.5</ele>
        <time>2013-09-15T03:15:16Z</time>
      </trkpt>
      <trkpt lat="-20.88761" lon="55.4417">
        <ele>81.1</ele>
        <time>2013-09-15T03:15:24Z</time>
      </trkpt>
      <trkpt lat="-20.88761" lon="55.44161">
        <ele>87</ele>
        <time>2013-09-15T03:15:52Z</time>
      </trkpt>
      <trkpt lat="-20.88761" lon="55.4416">
        <ele>87.3</ele>
        <time>2013-09-15T03:15:53Z</time>
      </trkpt>
      <trkpt lat="-20.88767" lon="55.44144">
        <ele>96.2</ele>
        <time>2013-09-15T03:16:30Z</time>
      </trkpt>
      <trkpt lat="-20.88766" lon="55.44135">
        <ele>96.1</ele>
        <time>2013-09-15T03:16:52Z</time>
      </trkpt>
      <trkpt lat="-20.88765" lon="55.44126">
        <ele>97.5</ele>
        <time>2013-09-15T03:17:11Z</time>
      </trkpt>
      <trkpt lat="-20.88764" lon="55.44125">
        <ele>97.8</ele>
        <time>2013-09-15T03:17:12Z</time>
      </trkpt>
      <trkpt lat="-20.88779" lon="55.44125">
        <ele>105.2</ele>
        <time>2013-09-15T03:18:21Z</time>
      </trkpt>
      <trkpt lat="-20.88779" lon="55.44125">
        <ele>105.4</ele>
        <time>2013-09-15T03:18:22Z</time>
      </trkpt>
      <trkpt lat="-20.88795" lon="55.4413">
        <ele>110.1</ele>
        <time>2013-09-15T03:18:39Z</time>
      </trkpt>
      <trkpt lat="-20.88803" lon="55.44132">
        <ele>112.2</ele>
        <time>2013-09-15T03:18:47Z</time>
      </trkpt>
      <trkpt lat="-20.88811" lon="55.4413">
        <ele>113.4</ele>
        <time>2013-09-15T03:18:59Z</time>
      </trkpt>
      <trkpt lat="-20.88815" lon="55.44121">
        <ele>117.4</ele>
        <time>2013-09-15T03:19:28Z</time>
      </trkpt>
      <trkpt lat="-20.88814" lon="55.44121">
        <ele>117.5</ele>
        <time>2013-09-15T03:19:29Z</time>
      </trkpt>
      <trkpt lat="-20.88808" lon="55.44106">
        <ele>122.1</ele>
        <time>2013-09-15T03:20:14Z</time>
      </trkpt>
      <trkpt lat="-20.88808" lon="55.44096">
        <ele>129.9</ele>
        <time>2013-09-15T03:21:04Z</time>
      </trkpt>
      <trkpt lat="-20.88808" lon="55.44095">
        <ele>129.7</ele>
        <time>2013-09-15T03:21:05Z</time>
      </trkpt>
      <trkpt lat="-20.88818" lon="55.44082">
        <ele>139.3</ele>
        <time>2013-09-15T03:21:44Z</time>
      </trkpt>
      <trkpt lat="-20.88822" lon="55.44074">
        <ele>143.5</ele>
        <time>2013-09-15T03:21:59Z</time>
      </trkpt>
      <trkpt lat="-20.88828" lon="55.44067">
        <ele>146.9</ele>
        <time>2013-09-15T03:22:14Z</time>
      </trkpt>
      <trkpt lat="-20.88829" lon="55.44066">
        <ele>147.3</ele>
        <time>2013-09-15T03:22:15Z</time>
      </trkpt>
      <trkpt lat="-20.88834" lon="55.44049">
        <ele>154.2</ele>
        <time>2013-09-15T03:22:56Z</time>
      </trkpt>
      <trkpt lat="-20.88841" lon="55.44043">
        <ele>157.9</ele>
        <time>2013-09-15T03:23:11Z</time>
      </trkpt>
      <trkpt lat="-20.88849" lon="55.44039">
        <ele>160.4</ele>
        <time>2013-09-15T03:23:21Z</time>
      </trkpt>
      <trkpt lat="-20.8885" lon="55.44039">
        <ele>160.5</ele>
        <time>2013-09-15T03:23:22Z</time>
      </trkpt>
      <trkpt lat="-20.88855" lon="55.44023">
        <ele>166.9</ele>
        <time>2013-09-15T03:23:45Z</time>
      </trkpt>
      <trkpt lat="-20.88862" lon="55.44018">
        <ele>168.9</ele>
        <time>2013-09-15T03:23:51Z</time>
      </trkpt>
      <trkpt lat="-20.88868" lon="55.44013">
        <ele>169.5</ele>
        <time>2013-09-15T03:23:57Z</time>
      </trkpt>
      <trkpt lat="-20.88875" lon="55.44007">
        <ele>171.3</ele>
        <time>2013-09-15T03:24:04Z</time>
      </trkpt>
      <trkpt lat="-20.88881" lon="55.44001">
        <ele>172.7</ele>
        <time>2013-09-15T03:24:10Z</time>
      </trkpt>
      <trkpt lat="-20.88887" lon="55.43996">
        <ele>172.3</ele>
        <time>2013-09-15T03:24:13Z</time>
      </trkpt>
      <trkpt lat="-20.88893" lon="55.4399">
        <ele>172.6</ele>
        <time>2013-09-15T03:24:16Z</time>
      </trkpt>
      <trkpt lat="-20.88898" lon="55.43985">
        <ele>173</ele>
        <time>2013-09-15T03:24:19Z</time>
      </trkpt>
      <trkpt lat="-20.88903" lon="55.43978">
        <ele>173.1</ele>
        <time>2013-09-15T03:24:23Z</time>
      </trkpt>
      <trkpt lat="-20.88904" lon="55.43977">
        <ele>172.9</ele>
        <time>2013-09-15T03:24:24Z</time>
      </trkpt>
      <trkpt lat="-20.88915" lon="55.43969">
        <ele>171.8</ele>
        <time>2013-09-15T03:24:29Z</time>
      </trkpt>
      <trkpt lat="-20.88923" lon="55.43965">
        <ele>172</ele>
        <time>2013-09-15T03:24:34Z</time>
      </trkpt>
      <trkpt lat="-20.88929" lon="55.4396">
        <ele>172.4</ele>
        <time>2013-09-15T03:24:38Z</time>
      </trkpt>
      <trkpt lat="-20.88936" lon="55.43956">
        <ele>171.8</ele>
        <time>2013-09-15T03:24:43Z</time>
      </trkpt>
      <trkpt lat="-20.8894" lon="55.4395">
        <ele>170.1</ele>
        <time>2013-09-15T03:24:46Z</time>
      </trkpt>
      <trkpt lat="-20.88946" lon="55.43944">
        <ele>169.7</ele>
        <time>2013-09-15T03:24:50Z</time>
      </trkpt>
      <trkpt lat="-20.8895" lon="55.43936">
        <ele>169.7</ele>
        <time>2013-09-15T03:24:57Z</time>
      </trkpt>
      <trkpt lat="-20.88955" lon="55.43928">
        <ele>170.1</ele>
        <time>2013-09-15T03:25:03Z</time>
      </trkpt>
      <trkpt lat="-20.88962" lon="55.43922">
        <ele>169.5</ele>
        <time>2013-09-15T03:25:10Z</time>
      </trkpt>
      <trkpt lat="-20.88968" lon="55.43918">
        <ele>170.7</ele>
        <time>2013-09-15T03:25:21Z</time>
      </trkpt>
      <trkpt lat="-20.88976" lon="55.43914">
        <ele>172.5</ele>
        <time>2013-09-15T03:25:28Z</time>
      </trkpt>
      <trkpt lat="-20.88977" lon="55.43914">
        <ele>172.6</ele>
        <time>2013-09-15T03:25:29Z</time>
      </trkpt>
      <trkpt lat="-20.8899" lon="55.43907">
        <ele>173.7</ele>
        <time>2013-09-15T03:25:49Z</time>
      </trkpt>
      <trkpt lat="-20.88998" lon="55.43911">
        <ele>175.3</ele>
        <time>2013-09-15T03:25:59Z</time>
      </trkpt>
      <trkpt lat="-20.89005" lon="55.43906">
        <ele>181</ele>
        <time>2013-09-15T03:26:20Z</time>
      </trkpt>
      <trkpt lat="-20.89004" lon="55.43897">
        <ele>183.3</ele>
        <time>2013-09-15T03:26:26Z</time>
      </trkpt>
      <trkpt lat="-20.89" lon="55.43889">
        <ele>184.4</ele>
        <time>2013-09-15T03:26:32Z</time>
      </trkpt>
      <trkpt lat="-20.89" lon="55.43888">
        <ele>184.6</ele>
        <time>2013-09-15T03:26:33Z</time>
      </trkpt>
      <trkpt lat="-20.89014" lon="55.43897">
        <ele>187.3</ele>
        <time>2013-09-15T03:26:55Z</time>
      </trkpt>
      <trkpt lat="-20.89019" lon="55.43903">
        <ele>187.7</ele>
        <time>2013-09-15T03:27:05Z</time>
      </trkpt>
      <trkpt lat="-20.89027" lon="55.43908">
        <ele>187.9</ele>
        <time>2013-09-15T03:27:11Z</time>
      </trkpt>
      <trkpt lat="-20.89034" lon="55.43909">
        <ele>188.2</ele>
        <time>2013-09-15T03:27:15Z</time>
      </trkpt>
      <trkpt lat="-20.89041" lon="55.43904">
        <ele>189.5</ele>
        <time>2013-09-15T03:27:20Z</time>
      </trkpt>
      <trkpt lat="-20.89049" lon="55.43901">
        <ele>192</ele>
        <time>2013-09-15T03:27:30Z</time>
      </trkpt>
      <trkpt lat="-20.89057" lon="55.43901">
        <ele>193.6</ele>
        <time>2013-09-15T03:27:38Z</time>
      </trkpt>
      <trkpt lat="-20.89059" lon="55.43902">
        <ele>193.7</ele>
        <time>2013-09-15T03:27:39Z</time>
      </trkpt>
      <trkpt lat="-20.89073" lon="55.43904">
        <ele>194.6</ele>
        <time>2013-09-15T03:27:49Z</time>
      </trkpt>
      <trkpt lat="-20.89081" lon="55.43899">
        <ele>196</ele>
        <time>2013-09-15T03:27:55Z</time>
      </trkpt>
      <trkpt lat="-20.89087" lon="55.43893">
        <ele>197.6</ele>
        <time>2013-09-15T03:28:00Z</time>
      </trkpt>
      <trkpt lat="-20.89093" lon="55.43887">
        <ele>195.8</ele>
        <time>2013-09-15T03:28:05Z</time>
      </trkpt>
      <trkpt lat="-20.891" lon="55.43882">
        <ele>196.5</ele>
        <time>2013-09-15T03:28:11Z</time>
      </trkpt>
      <trkpt lat="-20.89108" lon="55.43877">
        <ele>196.8</ele>
        <time>2013-09-15T03:28:16Z</time>
      </trkpt>
      <trkpt lat="-20.89115" lon="55.43873">
        <ele>196.3</ele>
        <time>2013-09-15T03:28:22Z</time>
      </trkpt>
      <trkpt lat="-20.89123" lon="55.43871">
        <ele>197.9</ele>
        <time>2013-09-15T03:28:31Z</time>
      </trkpt>
      <trkpt lat="-20.8913" lon="55.43869">
        <ele>197.9</ele>
        <time>2013-09-15T03:28:36Z</time>
      </trkpt>
      <trkpt lat="-20.89138" lon="55.43865">
        <ele>198.3</ele>
        <time>2013-09-15T03:28:44Z</time>
      </trkpt>
      <trkpt lat="-20.89139" lon="55.43865">
        <ele>198.4</ele>
        <time>2013-09-15T03:28:45Z</time>
      </trkpt>
      <trkpt lat="-20.89153" lon="55.43858">
        <ele>198.8</ele>
        <time>2013-09-15T03:28:57Z</time>
      </trkpt>
      <trkpt lat="-20.8916" lon="55.43852">
        <ele>199</ele>
        <time>2013-09-15T03:29:02Z</time>
      </trkpt>
      <trkpt lat="-20.89162" lon="55.43844">
        <ele>198.8</ele>
        <time>2013-09-15T03:29:08Z</time>
      </trkpt>
      <trkpt lat="-20.89161" lon="55.43836">
        <ele>197.5</ele>
        <time>2013-09-15T03:29:14Z</time>
      </trkpt>
      <trkpt lat="-20.89164" lon="55.43827">
        <ele>196.4</ele>
        <time>2013-09-15T03:29:20Z</time>
      </trkpt>
      <trkpt lat="-20.89172" lon="55.43824">
        <ele>195.4</ele>
        <time>2013-09-15T03:29:27Z</time>
      </trkpt>
      <trkpt lat="-20.8918" lon="55.4382">
        <ele>196</ele>
        <time>2013-09-15T03:29:35Z</time>
      </trkpt>
      <trkpt lat="-20.89175" lon="55.43812">
        <ele>201</ele>
        <time>2013-09-15T03:29:58Z</time>
      </trkpt>
      <trkpt lat="-20.89174" lon="55.43812">
        <ele>201.6</ele>
        <time>2013-09-15T03:29:59Z</time>
      </trkpt>
      <trkpt lat="-20.89179" lon="55.43797">
        <ele>214.8</ele>
        <time>2013-09-15T03:30:59Z</time>
      </trkpt>
      <trkpt lat="-20.89179" lon="55.43796">
        <ele>215</ele>
        <time>2013-09-15T03:31:00Z</time>
      </trkpt>
      <trkpt lat="-20.89192" lon="55.43786">
        <ele>220.1</ele>
        <time>2013-09-15T03:31:22Z</time>
      </trkpt>
      <trkpt lat="-20.89197" lon="55.43779">
        <ele>222.5</ele>
        <time>2013-09-15T03:31:36Z</time>
      </trkpt>
      <trkpt lat="-20.89204" lon="55.43774">
        <ele>224.7</ele>
        <time>2013-09-15T03:31:45Z</time>
      </trkpt>
      <trkpt lat="-20.8921" lon="55.43767">
        <ele>227.5</ele>
        <time>2013-09-15T03:31:54Z</time>
      </trkpt>
      <trkpt lat="-20.89214" lon="55.43759">
        <ele>229.3</ele>
        <time>2013-09-15T03:32:02Z</time>
      </trkpt>
      <trkpt lat="-20.89215" lon="55.43759">
        <ele>229.1</ele>
        <time>2013-09-15T03:32:03Z</time>
      </trkpt>
      <trkpt lat="-20.89221" lon="55.43743">
        <ele>231.2</ele>
        <time>2013-09-15T03:32:26Z</time>
      </trkpt>
      <trkpt lat="-20.89227" lon="55.43736">
        <ele>232.2</ele>
        <time>2013-09-15T03:32:32Z</time>
      </trkpt>
      <trkpt lat="-20.89234" lon="55.43733">
        <ele>232.5</ele>
        <time>2013-09-15T03:32:39Z</time>
      </trkpt>
      <trkpt lat="-20.89241" lon="55.43727">
        <ele>232.4</ele>
        <time>2013-09-15T03:32:45Z</time>
      </trkpt>
      <trkpt lat="-20.89245" lon="55.43719">
        <ele>235.1</ele>
        <time>2013-09-15T03:32:53Z</time>
      </trkpt>
      <trkpt lat="-20.89246" lon="55.43709">
        <ele>237.2</ele>
        <time>2013-09-15T03:33:03Z</time>
      </trkpt>
      <trkpt lat="-20.89247" lon="55.43708">
        <ele>237.9</ele>
        <time>2013-09-15T03:33:04Z</time>
      </trkpt>
      <trkpt lat="-20.89255" lon="55.43694">
        <ele>240.8</ele>
        <time>2013-09-15T03:33:17Z</time>
      </trkpt>
      <trkpt lat="-20.8926" lon="55.43687">
        <ele>241.6</ele>
        <time>2013-09-15T03:33:26Z</time>
      </trkpt>
      <trkpt lat="-20.89264" lon="55.43678">
        <ele>244.2</ele>
        <time>2013-09-15T03:33:44Z</time>
      </trkpt>
      <trkpt lat="-20.89263" lon="55.43669">
        <ele>248.6</ele>
        <time>2013-09-15T03:34:06Z</time>
      </trkpt>
      <trkpt lat="-20.89264" lon="55.43668">
        <ele>249.1</ele>
        <time>2013-09-15T03:34:07Z</time>
      </trkpt>
      <trkpt lat="-20.89276" lon="55.43659">
        <ele>249.6</ele>
        <time>2013-09-15T03:34:26Z</time>
      </trkpt>
      <trkpt lat="-20.89285" lon="55.43657">
        <ele>247.1</ele>
        <time>2013-09-15T03:34:40Z</time>
      </trkpt>
      <trkpt lat="-20.8929" lon="55.43665">
        <ele>248.6</ele>
        <time>2013-09-15T03:34:48Z</time>
      </trkpt>
      <trkpt lat="-20.89295" lon="55.43672">
        <ele>250.8</ele>
        <time>2013-09-15T03:34:54Z</time>
      </trkpt>
      <trkpt lat="-20.89304" lon="55.43671">
        <ele>252.3</ele>
        <time>2013-09-15T03:35:08Z</time>
      </trkpt>
      <trkpt lat="-20.89305" lon="55.43671">
        <ele>252.7</ele>
        <time>2013-09-15T03:35:09Z</time>
      </trkpt>
      <trkpt lat="-20.8932" lon="55.43675">
        <ele>254</ele>
        <time>2013-09-15T03:35:30Z</time>
      </trkpt>
      <trkpt lat="-20.89322" lon="55.43666">
        <ele>256.2</ele>
        <time>2013-09-15T03:35:39Z</time>
      </trkpt>
      <trkpt lat="-20.89325" lon="55.43658">
        <ele>258.4</ele>
        <time>2013-09-15T03:35:48Z</time>
      </trkpt>
      <trkpt lat="-20.89326" lon="55.43649">
        <ele>259.7</ele>
        <time>2013-09-15T03:36:00Z</time>
      </trkpt>
      <trkpt lat="-20.89333" lon="55.43655">
        <ele>263</ele>
        <time>2013-09-15T03:36:14Z</time>
      </trkpt>
      <trkpt lat="-20.89333" lon="55.43656">
        <ele>263</ele>
        <time>2013-09-15T03:36:15Z</time>
      </trkpt>
      <trkpt lat="-20.89342" lon="55.43656">
        <ele>270</ele>
        <time>2013-09-15T03:36:49Z</time>
      </trkpt>
      <trkpt lat="-20.89339" lon="55.43647">
        <ele>269.5</ele>
        <time>2013-09-15T03:36:58Z</time>
      </trkpt>
      <trkpt lat="-20.89346" lon="55.4365">
        <ele>272</ele>
        <time>2013-09-15T03:37:15Z</time>
      </trkpt>
      <trkpt lat="-20.89347" lon="55.43651">
        <ele>272.3</ele>
        <time>2013-09-15T03:37:16Z</time>
      </trkpt>
      <trkpt lat="-20.89354" lon="55.43647">
        <ele>276.7</ele>
        <time>2013-09-15T03:37:41Z</time>
      </trkpt>
      <trkpt lat="-20.89362" lon="55.43645">
        <ele>281.3</ele>
        <time>2013-09-15T03:38:02Z</time>
      </trkpt>
      <trkpt lat="-20.89362" lon="55.43636">
        <ele>283.1</ele>
        <time>2013-09-15T03:38:09Z</time>
      </trkpt>
      <trkpt lat="-20.8937" lon="55.43638">
        <ele>288</ele>
        <time>2013-09-15T03:38:31Z</time>
      </trkpt>
      <trkpt lat="-20.89371" lon="55.43639">
        <ele>288.1</ele>
        <time>2013-09-15T03:38:32Z</time>
      </trkpt>
      <trkpt lat="-20.89386" lon="55.43641">
        <ele>293.1</ele>
        <time>2013-09-15T03:38:53Z</time>
      </trkpt>
      <trkpt lat="-20.89392" lon="55.43634">
        <ele>294.8</ele>
        <time>2013-09-15T03:39:09Z</time>
      </trkpt>
      <trkpt lat="-20.8939" lon="55.43625">
        <ele>299.7</ele>
        <time>2013-09-15T03:39:29Z</time>
      </trkpt>
      <trkpt lat="-20.89386" lon="55.43617">
        <ele>302.1</ele>
        <time>2013-09-15T03:39:42Z</time>
      </trkpt>
      <trkpt lat="-20.89385" lon="55.43615">
        <ele>302.5</ele>
        <time>2013-09-15T03:39:43Z</time>
      </trkpt>
      <trkpt lat="-20.89378" lon="55.436">
        <ele>306.7</ele>
        <time>2013-09-15T03:40:05Z</time>
      </trkpt>
      <trkpt lat="-20.89377" lon="55.43592">
        <ele>309.3</ele>
        <time>2013-09-15T03:40:12Z</time>
      </trkpt>
      <trkpt lat="-20.89377" lon="55.43583">
        <ele>310</ele>
        <time>2013-09-15T03:40:18Z</time>
      </trkpt>
      <trkpt lat="-20.8938" lon="55.43574">
        <ele>314.1</ele>
        <time>2013-09-15T03:40:41Z</time>
      </trkpt>
      <trkpt lat="-20.89387" lon="55.43568">
        <ele>320.9</ele>
        <time>2013-09-15T03:41:12Z</time>
      </trkpt>
      <trkpt lat="-20.89387" lon="55.43567">
        <ele>320.8</ele>
        <time>2013-09-15T03:41:13Z</time>
      </trkpt>
      <trkpt lat="-20.89397" lon="55.43565">
        <ele>326.4</ele>
        <time>2013-09-15T03:41:43Z</time>
      </trkpt>
      <trkpt lat="-20.89406" lon="55.43565">
        <ele>334.1</ele>
        <time>2013-09-15T03:42:10Z</time>
      </trkpt>
      <trkpt lat="-20.89411" lon="55.43558">
        <ele>339.9</ele>
        <time>2013-09-15T03:42:33Z</time>
      </trkpt>
      <trkpt lat="-20.89412" lon="55.43558">
        <ele>340.1</ele>
        <time>2013-09-15T03:42:34Z</time>
      </trkpt>
      <trkpt lat="-20.89417" lon="55.43547">
        <ele>346.9</ele>
        <time>2013-09-15T03:43:02Z</time>
      </trkpt>
      <trkpt lat="-20.89414" lon="55.43538">
        <ele>347.7</ele>
        <time>2013-09-15T03:43:13Z</time>
      </trkpt>
      <trkpt lat="-20.89422" lon="55.43542">
        <ele>351</ele>
        <time>2013-09-15T03:43:28Z</time>
      </trkpt>
      <trkpt lat="-20.89431" lon="55.4354">
        <ele>353</ele>
        <time>2013-09-15T03:43:37Z</time>
      </trkpt>
      <trkpt lat="-20.89432" lon="55.4354">
        <ele>353.1</ele>
        <time>2013-09-15T03:43:38Z</time>
      </trkpt>
      <trkpt lat="-20.89431" lon="55.43532">
        <ele>358.2</ele>
        <time>2013-09-15T03:44:06Z</time>
      </trkpt>
      <trkpt lat="-20.89423" lon="55.43527">
        <ele>359.4</ele>
        <time>2013-09-15T03:44:15Z</time>
      </trkpt>
      <trkpt lat="-20.89432" lon="55.43527">
        <ele>363</ele>
        <time>2013-09-15T03:44:39Z</time>
      </trkpt>
      <trkpt lat="-20.89434" lon="55.43527">
        <ele>363.1</ele>
        <time>2013-09-15T03:44:40Z</time>
      </trkpt>
      <trkpt lat="-20.89448" lon="55.4352">
        <ele>366.1</ele>
        <time>2013-09-15T03:44:57Z</time>
      </trkpt>
      <trkpt lat="-20.89457" lon="55.43518">
        <ele>367.9</ele>
        <time>2013-09-15T03:45:08Z</time>
      </trkpt>
      <trkpt lat="-20.89463" lon="55.43511">
        <ele>371</ele>
        <time>2013-09-15T03:45:18Z</time>
      </trkpt>
      <trkpt lat="-20.89463" lon="55.43501">
        <ele>374.9</ele>
        <time>2013-09-15T03:45:40Z</time>
      </trkpt>
      <trkpt lat="-20.89464" lon="55.435">
        <ele>374.8</ele>
        <time>2013-09-15T03:45:41Z</time>
      </trkpt>
      <trkpt lat="-20.89476" lon="55.4349">
        <ele>377.3</ele>
        <time>2013-09-15T03:46:00Z</time>
      </trkpt>
      <trkpt lat="-20.8948" lon="55.43481">
        <ele>378.4</ele>
        <time>2013-09-15T03:46:10Z</time>
      </trkpt>
      <trkpt lat="-20.89481" lon="55.43472">
        <ele>382.1</ele>
        <time>2013-09-15T03:46:26Z</time>
      </trkpt>
      <trkpt lat="-20.89489" lon="55.43472">
        <ele>384.3</ele>
        <time>2013-09-15T03:46:39Z</time>
      </trkpt>
      <trkpt lat="-20.89494" lon="55.43464">
        <ele>386.5</ele>
        <time>2013-09-15T03:46:49Z</time>
      </trkpt>
      <trkpt lat="-20.89495" lon="55.43464">
        <ele>387</ele>
        <time>2013-09-15T03:46:50Z</time>
      </trkpt>
      <trkpt lat="-20.8951" lon="55.43465">
        <ele>389.2</ele>
        <time>2013-09-15T03:47:08Z</time>
      </trkpt>
      <trkpt lat="-20.89517" lon="55.4347">
        <ele>390.1</ele>
        <time>2013-09-15T03:47:16Z</time>
      </trkpt>
      <trkpt lat="-20.89526" lon="55.43473">
        <ele>392.1</ele>
        <time>2013-09-15T03:47:30Z</time>
      </trkpt>
      <trkpt lat="-20.89533" lon="55.43478">
        <ele>396.3</ele>
        <time>2013-09-15T03:47:48Z</time>
      </trkpt>
      <trkpt lat="-20.89541" lon="55.43482">
        <ele>396.7</ele>
        <time>2013-09-15T03:47:56Z</time>
      </trkpt>
      <trkpt lat="-20.89542" lon="55.43482">
        <ele>396.8</ele>
        <time>2013-09-15T03:47:57Z</time>
      </trkpt>
      <trkpt lat="-20.89557" lon="55.4348">
        <ele>404</ele>
        <time>2013-09-15T03:48:32Z</time>
      </trkpt>
      <trkpt lat="-20.89565" lon="55.43477">
        <ele>407.5</ele>
        <time>2013-09-15T03:48:48Z</time>
      </trkpt>
      <trkpt lat="-20.89567" lon="55.43468">
        <ele>411</ele>
        <time>2013-09-15T03:49:04Z</time>
      </trkpt>
      <trkpt lat="-20.89567" lon="55.43467">
        <ele>410.8</ele>
        <time>2013-09-15T03:49:05Z</time>
      </trkpt>
      <trkpt lat="-20.89558" lon="55.43453">
        <ele>411.9</ele>
        <time>2013-09-15T03:49:21Z</time>
      </trkpt>
      <trkpt lat="-20.89553" lon="55.43445">
        <ele>413</ele>
        <time>2013-09-15T03:49:28Z</time>
      </trkpt>
      <trkpt lat="-20.89548" lon="55.43439">
        <ele>413.1</ele>
        <time>2013-09-15T03:49:35Z</time>
      </trkpt>
      <trkpt lat="-20.89541" lon="55.43434">
        <ele>412.2</ele>
        <time>2013-09-15T03:49:41Z</time>
      </trkpt>
      <trkpt lat="-20.89534" lon="55.4343">
        <ele>411.5</ele>
        <time>2013-09-15T03:49:48Z</time>
      </trkpt>
      <trkpt lat="-20.89525" lon="55.43429">
        <ele>410.6</ele>
        <time>2013-09-15T03:49:55Z</time>
      </trkpt>
      <trkpt lat="-20.89518" lon="55.43424">
        <ele>409.5</ele>
        <time>2013-09-15T03:50:00Z</time>
      </trkpt>
      <trkpt lat="-20.8951" lon="55.43422">
        <ele>408.4</ele>
        <time>2013-09-15T03:50:07Z</time>
      </trkpt>
      <trkpt lat="-20.89509" lon="55.43422">
        <ele>408.4</ele>
        <time>2013-09-15T03:50:08Z</time>
      </trkpt>
      <trkpt lat="-20.89493" lon="55.43422">
        <ele>409.7</ele>
        <time>2013-09-15T03:50:25Z</time>
      </trkpt>
      <trkpt lat="-20.89484" lon="55.43424">
        <ele>411.7</ele>
        <time>2013-09-15T03:50:34Z</time>
      </trkpt>
      <trkpt lat="-20.89476" lon="55.43423">
        <ele>412.8</ele>
        <time>2013-09-15T03:50:42Z</time>
      </trkpt>
      <trkpt lat="-20.89472" lon="55.43414">
        <ele>418.5</ele>
        <time>2013-09-15T03:50:58Z</time>
      </trkpt>
      <trkpt lat="-20.8948" lon="55.43411">
        <ele>420.8</ele>
        <time>2013-09-15T03:51:13Z</time>
      </trkpt>
      <trkpt lat="-20.89481" lon="55.43411">
        <ele>420.7</ele>
        <time>2013-09-15T03:51:14Z</time>
      </trkpt>
      <trkpt lat="-20.89497" lon="55.43405">
        <ele>425</ele>
        <time>2013-09-15T03:51:36Z</time>
      </trkpt>
      <trkpt lat="-20.89503" lon="55.43412">
        <ele>428.7</ele>
        <time>2013-09-15T03:51:51Z</time>
      </trkpt>
      <trkpt lat="-20.89511" lon="55.43412">
        <ele>430.9</ele>
        <time>2013-09-15T03:52:02Z</time>
      </trkpt>
      <trkpt lat="-20.8952" lon="55.43414">
        <ele>433.5</ele>
        <time>2013-09-15T03:52:14Z</time>
      </trkpt>
      <trkpt lat="-20.8952" lon="55.43414">
        <ele>433.7</ele>
        <time>2013-09-15T03:52:15Z</time>
      </trkpt>
      <trkpt lat="-20.89536" lon="55.4341">
        <ele>439.1</ele>
        <time>2013-09-15T03:52:47Z</time>
      </trkpt>
      <trkpt lat="-20.89544" lon="55.43408">
        <ele>443.7</ele>
        <time>2013-09-15T03:53:01Z</time>
      </trkpt>
      <trkpt lat="-20.89552" lon="55.43404">
        <ele>446.5</ele>
        <time>2013-09-15T03:53:13Z</time>
      </trkpt>
      <trkpt lat="-20.8956" lon="55.43399">
        <ele>449.5</ele>
        <time>2013-09-15T03:53:25Z</time>
      </trkpt>
      <trkpt lat="-20.89561" lon="55.43399">
        <ele>449.9</ele>
        <time>2013-09-15T03:53:26Z</time>
      </trkpt>
      <trkpt lat="-20.89576" lon="55.43399">
        <ele>452.6</ele>
        <time>2013-09-15T03:53:40Z</time>
      </trkpt>
      <trkpt lat="-20.89584" lon="55.43394">
        <ele>453.2</ele>
        <time>2013-09-15T03:53:46Z</time>
      </trkpt>
      <trkpt lat="-20.8959" lon="55.43387">
        <ele>454.4</ele>
        <time>2013-09-15T03:53:52Z</time>
      </trkpt>
      <trkpt lat="-20.89592" lon="55.43379">
        <ele>455.5</ele>
        <time>2013-09-15T03:53:58Z</time>
      </trkpt>
      <trkpt lat="-20.89594" lon="55.4337">
        <ele>457</ele>
        <time>2013-09-15T03:54:07Z</time>
      </trkpt>
      <trkpt lat="-20.89597" lon="55.43361">
        <ele>458.5</ele>
        <time>2013-09-15T03:54:14Z</time>
      </trkpt>
      <trkpt lat="-20.89599" lon="55.43352">
        <ele>460.8</ele>
        <time>2013-09-15T03:54:24Z</time>
      </trkpt>
      <trkpt lat="-20.89604" lon="55.43344">
        <ele>461.7</ele>
        <time>2013-09-15T03:54:33Z</time>
      </trkpt>
      <trkpt lat="-20.89605" lon="55.43344">
        <ele>461.7</ele>
        <time>2013-09-15T03:54:34Z</time>
      </trkpt>
      <trkpt lat="-20.89603" lon="55.43333">
        <ele>470.4</ele>
        <time>2013-09-15T03:55:18Z</time>
      </trkpt>
      <trkpt lat="-20.89606" lon="55.43325">
        <ele>473.1</ele>
        <time>2013-09-15T03:55:28Z</time>
      </trkpt>
      <trkpt lat="-20.89608" lon="55.43316">
        <ele>473.7</ele>
        <time>2013-09-15T03:55:34Z</time>
      </trkpt>
      <trkpt lat="-20.89609" lon="55.43315">
        <ele>473.6</ele>
        <time>2013-09-15T03:55:35Z</time>
      </trkpt>
      <trkpt lat="-20.8962" lon="55.43304">
        <ele>474.2</ele>
        <time>2013-09-15T03:55:53Z</time>
      </trkpt>
      <trkpt lat="-20.89628" lon="55.433">
        <ele>476.4</ele>
        <time>2013-09-15T03:56:08Z</time>
      </trkpt>
      <trkpt lat="-20.89636" lon="55.433">
        <ele>476.5</ele>
        <time>2013-09-15T03:56:16Z</time>
      </trkpt>
      <trkpt lat="-20.89645" lon="55.43303">
        <ele>474.8</ele>
        <time>2013-09-15T03:56:25Z</time>
      </trkpt>
      <trkpt lat="-20.89653" lon="55.433">
        <ele>478</ele>
        <time>2013-09-15T03:56:44Z</time>
      </trkpt>
      <trkpt lat="-20.89654" lon="55.43299">
        <ele>478.1</ele>
        <time>2013-09-15T03:56:45Z</time>
      </trkpt>
      <trkpt lat="-20.89665" lon="55.43288">
        <ele>481.3</ele>
        <time>2013-09-15T03:57:00Z</time>
      </trkpt>
      <trkpt lat="-20.89673" lon="55.43286">
        <ele>482.6</ele>
        <time>2013-09-15T03:57:09Z</time>
      </trkpt>
      <trkpt lat="-20.89682" lon="55.43289">
        <ele>480.9</ele>
        <time>2013-09-15T03:57:16Z</time>
      </trkpt>
      <trkpt lat="-20.89687" lon="55.43295">
        <ele>481.5</ele>
        <time>2013-09-15T03:57:22Z</time>
      </trkpt>
      <trkpt lat="-20.89691" lon="55.43302">
        <ele>482.7</ele>
        <time>2013-09-15T03:57:27Z</time>
      </trkpt>
      <trkpt lat="-20.89698" lon="55.43306">
        <ele>483.5</ele>
        <time>2013-09-15T03:57:35Z</time>
      </trkpt>
      <trkpt lat="-20.89706" lon="55.43306">
        <ele>481.7</ele>
        <time>2013-09-15T03:57:42Z</time>
      </trkpt>
      <trkpt lat="-20.89713" lon="55.433">
        <ele>480.2</ele>
        <time>2013-09-15T03:57:48Z</time>
      </trkpt>
      <trkpt lat="-20.89714" lon="55.433">
        <ele>479.9</ele>
        <time>2013-09-15T03:57:49Z</time>
      </trkpt>
      <trkpt lat="-20.8973" lon="55.43295">
        <ele>474.6</ele>
        <time>2013-09-15T03:58:06Z</time>
      </trkpt>
      <trkpt lat="-20.89737" lon="55.43292">
        <ele>475</ele>
        <time>2013-09-15T03:58:12Z</time>
      </trkpt>
      <trkpt lat="-20.89745" lon="55.43293">
        <ele>473.7</ele>
        <time>2013-09-15T03:58:19Z</time>
      </trkpt>
      <trkpt lat="-20.89753" lon="55.43291">
        <ele>473.5</ele>
        <time>2013-09-15T03:58:23Z</time>
      </trkpt>
      <trkpt lat="-20.8976" lon="55.4329">
        <ele>473.2</ele>
        <time>2013-09-15T03:58:28Z</time>
      </trkpt>
      <trkpt lat="-20.89767" lon="55.43289">
        <ele>474.6</ele>
        <time>2013-09-15T03:58:32Z</time>
      </trkpt>
      <trkpt lat="-20.89775" lon="55.43288">
        <ele>474.7</ele>
        <time>2013-09-15T03:58:36Z</time>
      </trkpt>
      <trkpt lat="-20.89782" lon="55.43283">
        <ele>474.3</ele>
        <time>2013-09-15T03:58:41Z</time>
      </trkpt>
      <trkpt lat="-20.89788" lon="55.43276">
        <ele>473</ele>
        <time>2013-09-15T03:58:45Z</time>
      </trkpt>
      <trkpt lat="-20.89794" lon="55.43272">
        <ele>471.9</ele>
        <time>2013-09-15T03:58:49Z</time>
      </trkpt>
      <trkpt lat="-20.89796" lon="55.43271">
        <ele>471.6</ele>
        <time>2013-09-15T03:58:50Z</time>
      </trkpt>
      <trkpt lat="-20.89809" lon="55.43275">
        <ele>470.8</ele>
        <time>2013-09-15T03:58:59Z</time>
      </trkpt>
      <trkpt lat="-20.89814" lon="55.43282">
        <ele>471.6</ele>
        <time>2013-09-15T03:59:02Z</time>
      </trkpt>
      <trkpt lat="-20.89822" lon="55.43278">
        <ele>473.6</ele>
        <time>2013-09-15T03:59:13Z</time>
      </trkpt>
      <trkpt lat="-20.8983" lon="55.43282">
        <ele>476.2</ele>
        <time>2013-09-15T03:59:22Z</time>
      </trkpt>
      <trkpt lat="-20.89837" lon="55.43287">
        <ele>478.6</ele>
        <time>2013-09-15T03:59:34Z</time>
      </trkpt>
      <trkpt lat="-20.89843" lon="55.43282">
        <ele>481.7</ele>
        <time>2013-09-15T03:59:48Z</time>
      </trkpt>
      <trkpt lat="-20.89848" lon="55.43274">
        <ele>483.4</ele>
        <time>2013-09-15T03:59:58Z</time>
      </trkpt>
      <trkpt lat="-20.89848" lon="55.43273">
        <ele>483.7</ele>
        <time>2013-09-15T03:59:59Z</time>
      </trkpt>
      <trkpt lat="-20.89863" lon="55.43271">
        <ele>486.5</ele>
        <time>2013-09-15T04:00:13Z</time>
      </trkpt>
      <trkpt lat="-20.89872" lon="55.43273">
        <ele>487.7</ele>
        <time>2013-09-15T04:00:19Z</time>
      </trkpt>
      <trkpt lat="-20.89873" lon="55.43264">
        <ele>489</ele>
        <time>2013-09-15T04:00:25Z</time>
      </trkpt>
      <trkpt lat="-20.89875" lon="55.43256">
        <ele>492.4</ele>
        <time>2013-09-15T04:00:33Z</time>
      </trkpt>
      <trkpt lat="-20.89885" lon="55.43256">
        <ele>494</ele>
        <time>2013-09-15T04:00:46Z</time>
      </trkpt>
      <trkpt lat="-20.89895" lon="55.43258">
        <ele>496.6</ele>
        <time>2013-09-15T04:00:52Z</time>
      </trkpt>
      <trkpt lat="-20.89907" lon="55.43262">
        <ele>498</ele>
        <time>2013-09-15T04:00:57Z</time>
      </trkpt>
      <trkpt lat="-20.89917" lon="55.43266">
        <ele>499</ele>
        <time>2013-09-15T04:01:05Z</time>
      </trkpt>
      <trkpt lat="-20.89919" lon="55.43267">
        <ele>500</ele>
        <time>2013-09-15T04:01:07Z</time>
      </trkpt>
      <trkpt lat="-20.89928" lon="55.43261">
        <ele>504.5</ele>
        <time>2013-09-15T04:01:22Z</time>
      </trkpt>
      <trkpt lat="-20.89929" lon="55.43251">
        <ele>506</ele>
        <time>2013-09-15T04:01:27Z</time>
      </trkpt>
      <trkpt lat="-20.8993" lon="55.43243">
        <ele>506.7</ele>
        <time>2013-09-15T04:01:31Z</time>
      </trkpt>
      <trkpt lat="-20.89935" lon="55.43236">
        <ele>509.7</ele>
        <time>2013-09-15T04:01:41Z</time>
      </trkpt>
      <trkpt lat="-20.89943" lon="55.43235">
        <ele>511.3</ele>
        <time>2013-09-15T04:01:47Z</time>
      </trkpt>
      <trkpt lat="-20.89951" lon="55.43234">
        <ele>512.5</ele>
        <time>2013-09-15T04:01:54Z</time>
      </trkpt>
      <trkpt lat="-20.8996" lon="55.43235">
        <ele>514.8</ele>
        <time>2013-09-15T04:02:07Z</time>
      </trkpt>
      <trkpt lat="-20.8996" lon="55.43234">
        <ele>515.1</ele>
        <time>2013-09-15T04:02:08Z</time>
      </trkpt>
      <trkpt lat="-20.89972" lon="55.43229">
        <ele>523.3</ele>
        <time>2013-09-15T04:02:37Z</time>
      </trkpt>
      <trkpt lat="-20.89976" lon="55.43237">
        <ele>524.8</ele>
        <time>2013-09-15T04:02:42Z</time>
      </trkpt>
      <trkpt lat="-20.89975" lon="55.43229">
        <ele>529</ele>
        <time>2013-09-15T04:02:56Z</time>
      </trkpt>
      <trkpt lat="-20.89982" lon="55.43234">
        <ele>531.2</ele>
        <time>2013-09-15T04:03:05Z</time>
      </trkpt>
      <trkpt lat="-20.89988" lon="55.43228">
        <ele>533.1</ele>
        <time>2013-09-15T04:03:12Z</time>
      </trkpt>
      <trkpt lat="-20.89989" lon="55.43227">
        <ele>533.4</ele>
        <time>2013-09-15T04:03:13Z</time>
      </trkpt>
      <trkpt lat="-20.90004" lon="55.43229">
        <ele>536.3</ele>
        <time>2013-09-15T04:03:22Z</time>
      </trkpt>
      <trkpt lat="-20.90012" lon="55.4323">
        <ele>536.6</ele>
        <time>2013-09-15T04:03:29Z</time>
      </trkpt>
      <trkpt lat="-20.9002" lon="55.4323">
        <ele>540.1</ele>
        <time>2013-09-15T04:03:42Z</time>
      </trkpt>
      <trkpt lat="-20.90028" lon="55.43233">
        <ele>543.3</ele>
        <time>2013-09-15T04:03:55Z</time>
      </trkpt>
      <trkpt lat="-20.90035" lon="55.43228">
        <ele>545.1</ele>
        <time>2013-09-15T04:04:01Z</time>
      </trkpt>
      <trkpt lat="-20.90042" lon="55.43223">
        <ele>546.6</ele>
        <time>2013-09-15T04:04:08Z</time>
      </trkpt>
      <trkpt lat="-20.90048" lon="55.43217">
        <ele>549.2</ele>
        <time>2013-09-15T04:04:15Z</time>
      </trkpt>
      <trkpt lat="-20.90049" lon="55.43216">
        <ele>549.5</ele>
        <time>2013-09-15T04:04:16Z</time>
      </trkpt>
      <trkpt lat="-20.90062" lon="55.43209">
        <ele>551.2</ele>
        <time>2013-09-15T04:04:26Z</time>
      </trkpt>
      <trkpt lat="-20.90066" lon="55.43202">
        <ele>551.8</ele>
        <time>2013-09-15T04:04:30Z</time>
      </trkpt>
      <trkpt lat="-20.90073" lon="55.43196">
        <ele>555.7</ele>
        <time>2013-09-15T04:04:44Z</time>
      </trkpt>
      <trkpt lat="-20.90081" lon="55.43193">
        <ele>558.2</ele>
        <time>2013-09-15T04:05:00Z</time>
      </trkpt>
      <trkpt lat="-20.90089" lon="55.43193">
        <ele>560.9</ele>
        <time>2013-09-15T04:05:11Z</time>
      </trkpt>
      <trkpt lat="-20.90097" lon="55.43191">
        <ele>563.3</ele>
        <time>2013-09-15T04:05:19Z</time>
      </trkpt>
      <trkpt lat="-20.90098" lon="55.43189">
        <ele>563.6</ele>
        <time>2013-09-15T04:05:20Z</time>
      </trkpt>
      <trkpt lat="-20.90113" lon="55.43189">
        <ele>571.2</ele>
        <time>2013-09-15T04:05:51Z</time>
      </trkpt>
      <trkpt lat="-20.90118" lon="55.43182">
        <ele>572.3</ele>
        <time>2013-09-15T04:05:56Z</time>
      </trkpt>
      <trkpt lat="-20.90123" lon="55.43176">
        <ele>572.6</ele>
        <time>2013-09-15T04:06:00Z</time>
      </trkpt>
      <trkpt lat="-20.90129" lon="55.43169">
        <ele>573.7</ele>
        <time>2013-09-15T04:06:06Z</time>
      </trkpt>
      <trkpt lat="-20.90135" lon="55.43163">
        <ele>575.5</ele>
        <time>2013-09-15T04:06:15Z</time>
      </trkpt>
      <trkpt lat="-20.90143" lon="55.4316">
        <ele>579.9</ele>
        <time>2013-09-15T04:06:30Z</time>
      </trkpt>
      <trkpt lat="-20.90144" lon="55.4316">
        <ele>579.9</ele>
        <time>2013-09-15T04:06:31Z</time>
      </trkpt>
      <trkpt lat="-20.90155" lon="55.43149">
        <ele>587.8</ele>
        <time>2013-09-15T04:07:02Z</time>
      </trkpt>
      <trkpt lat="-20.90164" lon="55.43149">
        <ele>593.7</ele>
        <time>2013-09-15T04:07:26Z</time>
      </trkpt>
      <trkpt lat="-20.90172" lon="55.43146">
        <ele>596.1</ele>
        <time>2013-09-15T04:07:35Z</time>
      </trkpt>
      <trkpt lat="-20.90172" lon="55.43146">
        <ele>596.4</ele>
        <time>2013-09-15T04:07:36Z</time>
      </trkpt>
      <trkpt lat="-20.90187" lon="55.4314">
        <ele>599.7</ele>
        <time>2013-09-15T04:07:49Z</time>
      </trkpt>
      <trkpt lat="-20.90191" lon="55.43131">
        <ele>601.7</ele>
        <time>2013-09-15T04:07:57Z</time>
      </trkpt>
      <trkpt lat="-20.90198" lon="55.43127">
        <ele>603.8</ele>
        <time>2013-09-15T04:08:09Z</time>
      </trkpt>
      <trkpt lat="-20.90206" lon="55.43123">
        <ele>605</ele>
        <time>2013-09-15T04:08:19Z</time>
      </trkpt>
      <trkpt lat="-20.90213" lon="55.43118">
        <ele>606.4</ele>
        <time>2013-09-15T04:08:28Z</time>
      </trkpt>
      <trkpt lat="-20.90219" lon="55.43112">
        <ele>608.5</ele>
        <time>2013-09-15T04:08:39Z</time>
      </trkpt>
      <trkpt lat="-20.90219" lon="55.43111">
        <ele>608.6</ele>
        <time>2013-09-15T04:08:40Z</time>
      </trkpt>
      <trkpt lat="-20.9023" lon="55.43099">
        <ele>611.6</ele>
        <time>2013-09-15T04:08:52Z</time>
      </trkpt>
      <trkpt lat="-20.90237" lon="55.43095">
        <ele>614.4</ele>
        <time>2013-09-15T04:09:02Z</time>
      </trkpt>
      <trkpt lat="-20.90235" lon="55.43086">
        <ele>616.3</ele>
        <time>2013-09-15T04:09:10Z</time>
      </trkpt>
      <trkpt lat="-20.90233" lon="55.43077">
        <ele>616.6</ele>
        <time>2013-09-15T04:09:17Z</time>
      </trkpt>
      <trkpt lat="-20.90229" lon="55.4307">
        <ele>618</ele>
        <time>2013-09-15T04:09:24Z</time>
      </trkpt>
      <trkpt lat="-20.90227" lon="55.43062">
        <ele>619.4</ele>
        <time>2013-09-15T04:09:31Z</time>
      </trkpt>
      <trkpt lat="-20.90227" lon="55.43053">
        <ele>620.5</ele>
        <time>2013-09-15T04:09:39Z</time>
      </trkpt>
      <trkpt lat="-20.90228" lon="55.43045">
        <ele>622.1</ele>
        <time>2013-09-15T04:09:44Z</time>
      </trkpt>
      <trkpt lat="-20.90228" lon="55.43043">
        <ele>622.4</ele>
        <time>2013-09-15T04:09:45Z</time>
      </trkpt>
      <trkpt lat="-20.90233" lon="55.43028">
        <ele>623.6</ele>
        <time>2013-09-15T04:09:54Z</time>
      </trkpt>
      <trkpt lat="-20.9024" lon="55.43026">
        <ele>624.9</ele>
        <time>2013-09-15T04:09:59Z</time>
      </trkpt>
      <trkpt lat="-20.90249" lon="55.43026">
        <ele>624.7</ele>
        <time>2013-09-15T04:10:05Z</time>
      </trkpt>
      <trkpt lat="-20.90256" lon="55.43025">
        <ele>625.8</ele>
        <time>2013-09-15T04:10:11Z</time>
      </trkpt>
      <trkpt lat="-20.90265" lon="55.43026">
        <ele>626.3</ele>
        <time>2013-09-15T04:10:16Z</time>
      </trkpt>
      <trkpt lat="-20.90272" lon="55.43029">
        <ele>627.9</ele>
        <time>2013-09-15T04:10:21Z</time>
      </trkpt>
      <trkpt lat="-20.9028" lon="55.4303">
        <ele>627.9</ele>
        <time>2013-09-15T04:10:26Z</time>
      </trkpt>
      <trkpt lat="-20.90287" lon="55.43032">
        <ele>628.4</ele>
        <time>2013-09-15T04:10:31Z</time>
      </trkpt>
      <trkpt lat="-20.90296" lon="55.43035">
        <ele>630.9</ele>
        <time>2013-09-15T04:10:37Z</time>
      </trkpt>
      <trkpt lat="-20.90304" lon="55.43035">
        <ele>632.1</ele>
        <time>2013-09-15T04:10:42Z</time>
      </trkpt>
      <trkpt lat="-20.90312" lon="55.43038">
        <ele>632.6</ele>
        <time>2013-09-15T04:10:48Z</time>
      </trkpt>
      <trkpt lat="-20.90314" lon="55.43038">
        <ele>632.8</ele>
        <time>2013-09-15T04:10:49Z</time>
      </trkpt>
      <trkpt lat="-20.90329" lon="55.43038">
        <ele>634.8</ele>
        <time>2013-09-15T04:10:58Z</time>
      </trkpt>
      <trkpt lat="-20.90336" lon="55.43039">
        <ele>635</ele>
        <time>2013-09-15T04:11:02Z</time>
      </trkpt>
      <trkpt lat="-20.90344" lon="55.43039">
        <ele>635.4</ele>
        <time>2013-09-15T04:11:06Z</time>
      </trkpt>
      <trkpt lat="-20.90351" lon="55.43038">
        <ele>635.7</ele>
        <time>2013-09-15T04:11:10Z</time>
      </trkpt>
      <trkpt lat="-20.90358" lon="55.43033">
        <ele>636.4</ele>
        <time>2013-09-15T04:11:14Z</time>
      </trkpt>
      <trkpt lat="-20.90364" lon="55.43029">
        <ele>636.8</ele>
        <time>2013-09-15T04:11:17Z</time>
      </trkpt>
      <trkpt lat="-20.9037" lon="55.43023">
        <ele>636.6</ele>
        <time>2013-09-15T04:11:20Z</time>
      </trkpt>
      <trkpt lat="-20.90376" lon="55.43019">
        <ele>636.3</ele>
        <time>2013-09-15T04:11:23Z</time>
      </trkpt>
      <trkpt lat="-20.90383" lon="55.43016">
        <ele>635.9</ele>
        <time>2013-09-15T04:11:26Z</time>
      </trkpt>
      <trkpt lat="-20.90391" lon="55.43012">
        <ele>635.5</ele>
        <time>2013-09-15T04:11:29Z</time>
      </trkpt>
      <trkpt lat="-20.90398" lon="55.43009">
        <ele>635.2</ele>
        <time>2013-09-15T04:11:32Z</time>
      </trkpt>
      <trkpt lat="-20.90405" lon="55.43005">
        <ele>635.7</ele>
        <time>2013-09-15T04:11:35Z</time>
      </trkpt>
      <trkpt lat="-20.90411" lon="55.43">
        <ele>635.7</ele>
        <time>2013-09-15T04:11:38Z</time>
      </trkpt>
      <trkpt lat="-20.90416" lon="55.42993">
        <ele>635.4</ele>
        <time>2013-09-15T04:11:42Z</time>
      </trkpt>
      <trkpt lat="-20.90419" lon="55.42985">
        <ele>636.2</ele>
        <time>2013-09-15T04:11:46Z</time>
      </trkpt>
      <trkpt lat="-20.90422" lon="55.42976">
        <ele>636.1</ele>
        <time>2013-09-15T04:11:50Z</time>
      </trkpt>
      <trkpt lat="-20.90422" lon="55.42974">
        <ele>635.9</ele>
        <time>2013-09-15T04:11:51Z</time>
      </trkpt>
      <trkpt lat="-20.90426" lon="55.42958">
        <ele>635.7</ele>
        <time>2013-09-15T04:11:58Z</time>
      </trkpt>
      <trkpt lat="-20.90429" lon="55.4295">
        <ele>636.4</ele>
        <time>2013-09-15T04:12:02Z</time>
      </trkpt>
      <trkpt lat="-20.90432" lon="55.42942">
        <ele>637</ele>
        <time>2013-09-15T04:12:06Z</time>
      </trkpt>
      <trkpt lat="-20.90434" lon="55.42934">
        <ele>637.9</ele>
        <time>2013-09-15T04:12:10Z</time>
      </trkpt>
      <trkpt lat="-20.90436" lon="55.42926">
        <ele>637.3</ele>
        <time>2013-09-15T04:12:14Z</time>
      </trkpt>
      <trkpt lat="-20.90438" lon="55.42917">
        <ele>637.9</ele>
        <time>2013-09-15T04:12:18Z</time>
      </trkpt>
      <trkpt lat="-20.90439" lon="55.4291">
        <ele>638.7</ele>
        <time>2013-09-15T04:12:21Z</time>
      </trkpt>
      <trkpt lat="-20.90439" lon="55.42901">
        <ele>638.1</ele>
        <time>2013-09-15T04:12:25Z</time>
      </trkpt>
      <trkpt lat="-20.90441" lon="55.42893">
        <ele>638.4</ele>
        <time>2013-09-15T04:12:29Z</time>
      </trkpt>
      <trkpt lat="-20.90442" lon="55.42885">
        <ele>639.6</ele>
        <time>2013-09-15T04:12:33Z</time>
      </trkpt>
      <trkpt lat="-20.90443" lon="55.42878">
        <ele>640</ele>
        <time>2013-09-15T04:12:37Z</time>
      </trkpt>
      <trkpt lat="-20.90445" lon="55.4287">
        <ele>640.1</ele>
        <time>2013-09-15T04:12:41Z</time>
      </trkpt>
      <trkpt lat="-20.90447" lon="55.42862">
        <ele>639.9</ele>
        <time>2013-09-15T04:12:45Z</time>
      </trkpt>
      <trkpt lat="-20.90449" lon="55.42854">
        <ele>640.8</ele>
        <time>2013-09-15T04:12:49Z</time>
      </trkpt>
      <trkpt lat="-20.90454" lon="55.42848">
        <ele>641.5</ele>
        <time>2013-09-15T04:12:53Z</time>
      </trkpt>
      <trkpt lat="-20.90455" lon="55.42846">
        <ele>641.6</ele>
        <time>2013-09-15T04:12:54Z</time>
      </trkpt>
      <trkpt lat="-20.90466" lon="55.42836">
        <ele>641.7</ele>
        <time>2013-09-15T04:13:05Z</time>
      </trkpt>
      <trkpt lat="-20.90472" lon="55.42831">
        <ele>643.2</ele>
        <time>2013-09-15T04:13:11Z</time>
      </trkpt>
      <trkpt lat="-20.9048" lon="55.42826">
        <ele>644</ele>
        <time>2013-09-15T04:13:18Z</time>
      </trkpt>
      <trkpt lat="-20.9048" lon="55.42816">
        <ele>648.2</ele>
        <time>2013-09-15T04:13:31Z</time>
      </trkpt>
      <trkpt lat="-20.9048" lon="55.42807">
        <ele>652.6</ele>
        <time>2013-09-15T04:13:45Z</time>
      </trkpt>
      <trkpt lat="-20.90483" lon="55.42799">
        <ele>656</ele>
        <time>2013-09-15T04:13:55Z</time>
      </trkpt>
      <trkpt lat="-20.90483" lon="55.42798">
        <ele>656.3</ele>
        <time>2013-09-15T04:13:56Z</time>
      </trkpt>
      <trkpt lat="-20.90484" lon="55.42781">
        <ele>660.9</ele>
        <time>2013-09-15T04:14:13Z</time>
      </trkpt>
      <trkpt lat="-20.90491" lon="55.42777">
        <ele>662.3</ele>
        <time>2013-09-15T04:14:19Z</time>
      </trkpt>
      <trkpt lat="-20.90499" lon="55.42773">
        <ele>663.3</ele>
        <time>2013-09-15T04:14:24Z</time>
      </trkpt>
      <trkpt lat="-20.90503" lon="55.42766">
        <ele>664.5</ele>
        <time>2013-09-15T04:14:30Z</time>
      </trkpt>
      <trkpt lat="-20.90508" lon="55.4276">
        <ele>664.1</ele>
        <time>2013-09-15T04:14:35Z</time>
      </trkpt>
      <trkpt lat="-20.90511" lon="55.42752">
        <ele>664.8</ele>
        <time>2013-09-15T04:14:40Z</time>
      </trkpt>
      <trkpt lat="-20.90516" lon="55.42745">
        <ele>666.3</ele>
        <time>2013-09-15T04:14:45Z</time>
      </trkpt>
      <trkpt lat="-20.90521" lon="55.42738">
        <ele>667.1</ele>
        <time>2013-09-15T04:14:50Z</time>
      </trkpt>
      <trkpt lat="-20.90526" lon="55.42731">
        <ele>668.1</ele>
        <time>2013-09-15T04:14:57Z</time>
      </trkpt>
      <trkpt lat="-20.90527" lon="55.4273">
        <ele>668.2</ele>
        <time>2013-09-15T04:14:58Z</time>
      </trkpt>
      <trkpt lat="-20.90537" lon="55.42717">
        <ele>669.5</ele>
        <time>2013-09-15T04:15:10Z</time>
      </trkpt>
      <trkpt lat="-20.90543" lon="55.42711">
        <ele>669.8</ele>
        <time>2013-09-15T04:15:15Z</time>
      </trkpt>
      <trkpt lat="-20.90548" lon="55.42703">
        <ele>670.4</ele>
        <time>2013-09-15T04:15:19Z</time>
      </trkpt>
      <trkpt lat="-20.90554" lon="55.42696">
        <ele>670.3</ele>
        <time>2013-09-15T04:15:23Z</time>
      </trkpt>
      <trkpt lat="-20.90558" lon="55.42691">
        <ele>670.6</ele>
        <time>2013-09-15T04:15:26Z</time>
      </trkpt>
      <trkpt lat="-20.90563" lon="55.42683">
        <ele>671</ele>
        <time>2013-09-15T04:15:30Z</time>
      </trkpt>
      <trkpt lat="-20.90565" lon="55.42675">
        <ele>671</ele>
        <time>2013-09-15T04:15:34Z</time>
      </trkpt>
      <trkpt lat="-20.90565" lon="55.42667">
        <ele>670.3</ele>
        <time>2013-09-15T04:15:37Z</time>
      </trkpt>
      <trkpt lat="-20.90565" lon="55.4266">
        <ele>670.5</ele>
        <time>2013-09-15T04:15:40Z</time>
      </trkpt>
      <trkpt lat="-20.90562" lon="55.42651">
        <ele>670.3</ele>
        <time>2013-09-15T04:15:44Z</time>
      </trkpt>
      <trkpt lat="-20.90558" lon="55.42644">
        <ele>670.3</ele>
        <time>2013-09-15T04:15:47Z</time>
      </trkpt>
      <trkpt lat="-20.90555" lon="55.42638">
        <ele>670.8</ele>
        <time>2013-09-15T04:15:50Z</time>
      </trkpt>
      <trkpt lat="-20.9055" lon="55.42631">
        <ele>670.7</ele>
        <time>2013-09-15T04:15:53Z</time>
      </trkpt>
      <trkpt lat="-20.90547" lon="55.42625">
        <ele>670.8</ele>
        <time>2013-09-15T04:15:56Z</time>
      </trkpt>
      <trkpt lat="-20.90543" lon="55.42618">
        <ele>670.7</ele>
        <time>2013-09-15T04:15:59Z</time>
      </trkpt>
      <trkpt lat="-20.90542" lon="55.42616">
        <ele>670.6</ele>
        <time>2013-09-15T04:16:00Z</time>
      </trkpt>
      <trkpt lat="-20.9054" lon="55.42603">
        <ele>669.6</ele>
        <time>2013-09-15T04:16:05Z</time>
      </trkpt>
      <trkpt lat="-20.90543" lon="55.42596">
        <ele>669.1</ele>
        <time>2013-09-15T04:16:08Z</time>
      </trkpt>
      <trkpt lat="-20.90549" lon="55.4259">
        <ele>668.3</ele>
        <time>2013-09-15T04:16:11Z</time>
      </trkpt>
      <trkpt lat="-20.90556" lon="55.42585">
        <ele>668.2</ele>
        <time>2013-09-15T04:16:14Z</time>
      </trkpt>
      <trkpt lat="-20.90563" lon="55.42582">
        <ele>667.8</ele>
        <time>2013-09-15T04:16:17Z</time>
      </trkpt>
      <trkpt lat="-20.9057" lon="55.42578">
        <ele>667.2</ele>
        <time>2013-09-15T04:16:20Z</time>
      </trkpt>
      <trkpt lat="-20.90577" lon="55.42574">
        <ele>666.9</ele>
        <time>2013-09-15T04:16:23Z</time>
      </trkpt>
      <trkpt lat="-20.90585" lon="55.4257">
        <ele>666</ele>
        <time>2013-09-15T04:16:26Z</time>
      </trkpt>
      <trkpt lat="-20.90591" lon="55.42566">
        <ele>665.2</ele>
        <time>2013-09-15T04:16:29Z</time>
      </trkpt>
      <trkpt lat="-20.90597" lon="55.42561">
        <ele>664.5</ele>
        <time>2013-09-15T04:16:32Z</time>
      </trkpt>
      <trkpt lat="-20.90602" lon="55.42556">
        <ele>664.8</ele>
        <time>2013-09-15T04:16:35Z</time>
      </trkpt>
      <trkpt lat="-20.90608" lon="55.42549">
        <ele>664.2</ele>
        <time>2013-09-15T04:16:38Z</time>
      </trkpt>
      <trkpt lat="-20.90613" lon="55.42543">
        <ele>663.9</ele>
        <time>2013-09-15T04:16:41Z</time>
      </trkpt>
      <trkpt lat="-20.90618" lon="55.42537">
        <ele>663.2</ele>
        <time>2013-09-15T04:16:44Z</time>
      </trkpt>
      <trkpt lat="-20.90624" lon="55.4253">
        <ele>663.4</ele>
        <time>2013-09-15T04:16:48Z</time>
      </trkpt>
      <trkpt lat="-20.90625" lon="55.42523">
        <ele>663.2</ele>
        <time>2013-09-15T04:16:51Z</time>
      </trkpt>
      <trkpt lat="-20.90626" lon="55.42514">
        <ele>664.2</ele>
        <time>2013-09-15T04:16:55Z</time>
      </trkpt>
      <trkpt lat="-20.90629" lon="55.42507">
        <ele>664.8</ele>
        <time>2013-09-15T04:16:58Z</time>
      </trkpt>
      <trkpt lat="-20.90634" lon="55.42499">
        <ele>665.6</ele>
        <time>2013-09-15T04:17:02Z</time>
      </trkpt>
      <trkpt lat="-20.90636" lon="55.42498">
        <ele>665.3</ele>
        <time>2013-09-15T04:17:03Z</time>
      </trkpt>
      <trkpt lat="-20.90645" lon="55.4249">
        <ele>664</ele>
        <time>2013-09-15T04:17:09Z</time>
      </trkpt>
      <trkpt lat="-20.90652" lon="55.42488">
        <ele>663.2</ele>
        <time>2013-09-15T04:17:12Z</time>
      </trkpt>
      <trkpt lat="-20.9066" lon="55.42484">
        <ele>662.7</ele>
        <time>2013-09-15T04:17:16Z</time>
      </trkpt>
      <trkpt lat="-20.90667" lon="55.42479">
        <ele>663.3</ele>
        <time>2013-09-15T04:17:21Z</time>
      </trkpt>
      <trkpt lat="-20.90672" lon="55.42472">
        <ele>663.9</ele>
        <time>2013-09-15T04:17:26Z</time>
      </trkpt>
      <trkpt lat="-20.90677" lon="55.42465">
        <ele>664.2</ele>
        <time>2013-09-15T04:17:31Z</time>
      </trkpt>
      <trkpt lat="-20.90684" lon="55.42459">
        <ele>665.1</ele>
        <time>2013-09-15T04:17:37Z</time>
      </trkpt>
      <trkpt lat="-20.9069" lon="55.42453">
        <ele>666.1</ele>
        <time>2013-09-15T04:17:42Z</time>
      </trkpt>
      <trkpt lat="-20.90697" lon="55.42448">
        <ele>667.1</ele>
        <time>2013-09-15T04:17:48Z</time>
      </trkpt>
      <trkpt lat="-20.90704" lon="55.42444">
        <ele>667.5</ele>
        <time>2013-09-15T04:17:53Z</time>
      </trkpt>
      <trkpt lat="-20.90711" lon="55.4244">
        <ele>669.2</ele>
        <time>2013-09-15T04:17:58Z</time>
      </trkpt>
      <trkpt lat="-20.90718" lon="55.42434">
        <ele>669.3</ele>
        <time>2013-09-15T04:18:03Z</time>
      </trkpt>
      <trkpt lat="-20.90719" lon="55.42433">
        <ele>669.5</ele>
        <time>2013-09-15T04:18:04Z</time>
      </trkpt>
      <trkpt lat="-20.90732" lon="55.42424">
        <ele>670.1</ele>
        <time>2013-09-15T04:18:13Z</time>
      </trkpt>
      <trkpt lat="-20.90739" lon="55.42418">
        <ele>671.3</ele>
        <time>2013-09-15T04:18:18Z</time>
      </trkpt>
      <trkpt lat="-20.90746" lon="55.42413">
        <ele>671.5</ele>
        <time>2013-09-15T04:18:23Z</time>
      </trkpt>
      <trkpt lat="-20.90752" lon="55.42408">
        <ele>672.4</ele>
        <time>2013-09-15T04:18:28Z</time>
      </trkpt>
      <trkpt lat="-20.90759" lon="55.42402">
        <ele>672.8</ele>
        <time>2013-09-15T04:18:33Z</time>
      </trkpt>
      <trkpt lat="-20.90766" lon="55.42398">
        <ele>673.5</ele>
        <time>2013-09-15T04:18:38Z</time>
      </trkpt>
      <trkpt lat="-20.90772" lon="55.42393">
        <ele>674.4</ele>
        <time>2013-09-15T04:18:43Z</time>
      </trkpt>
      <trkpt lat="-20.90779" lon="55.42388">
        <ele>674.5</ele>
        <time>2013-09-15T04:18:48Z</time>
      </trkpt>
      <trkpt lat="-20.90785" lon="55.42383">
        <ele>674.2</ele>
        <time>2013-09-15T04:18:53Z</time>
      </trkpt>
      <trkpt lat="-20.90791" lon="55.42376">
        <ele>675.4</ele>
        <time>2013-09-15T04:18:58Z</time>
      </trkpt>
      <trkpt lat="-20.90796" lon="55.4237">
        <ele>675.4</ele>
        <time>2013-09-15T04:19:02Z</time>
      </trkpt>
      <trkpt lat="-20.90804" lon="55.42366">
        <ele>675.8</ele>
        <time>2013-09-15T04:19:06Z</time>
      </trkpt>
      <trkpt lat="-20.90807" lon="55.42366">
        <ele>675.9</ele>
        <time>2013-09-15T04:19:07Z</time>
      </trkpt>
      <trkpt lat="-20.9082" lon="55.4236">
        <ele>674.9</ele>
        <time>2013-09-15T04:19:14Z</time>
      </trkpt>
      <trkpt lat="-20.90828" lon="55.42358">
        <ele>674.4</ele>
        <time>2013-09-15T04:19:18Z</time>
      </trkpt>
      <trkpt lat="-20.90836" lon="55.42355">
        <ele>674</ele>
        <time>2013-09-15T04:19:24Z</time>
      </trkpt>
      <trkpt lat="-20.90845" lon="55.42355">
        <ele>675.5</ele>
        <time>2013-09-15T04:19:37Z</time>
      </trkpt>
      <trkpt lat="-20.90853" lon="55.42352">
        <ele>675.7</ele>
        <time>2013-09-15T04:19:43Z</time>
      </trkpt>
      <trkpt lat="-20.90861" lon="55.42349">
        <ele>676.4</ele>
        <time>2013-09-15T04:19:49Z</time>
      </trkpt>
      <trkpt lat="-20.90868" lon="55.42346">
        <ele>677.5</ele>
        <time>2013-09-15T04:19:54Z</time>
      </trkpt>
      <trkpt lat="-20.90876" lon="55.42342">
        <ele>679.1</ele>
        <time>2013-09-15T04:20:00Z</time>
      </trkpt>
      <trkpt lat="-20.90883" lon="55.4234">
        <ele>679.2</ele>
        <time>2013-09-15T04:20:05Z</time>
      </trkpt>
      <trkpt lat="-20.90891" lon="55.42335">
        <ele>679.8</ele>
        <time>2013-09-15T04:20:11Z</time>
      </trkpt>
      <trkpt lat="-20.90893" lon="55.42335">
        <ele>679.9</ele>
        <time>2013-09-15T04:20:12Z</time>
      </trkpt>
      <trkpt lat="-20.90906" lon="55.42329">
        <ele>682.1</ele>
        <time>2013-09-15T04:20:22Z</time>
      </trkpt>
      <trkpt lat="-20.90914" lon="55.42325">
        <ele>682.5</ele>
        <time>2013-09-15T04:20:28Z</time>
      </trkpt>
      <trkpt lat="-20.90921" lon="55.42323">
        <ele>683.7</ele>
        <time>2013-09-15T04:20:33Z</time>
      </trkpt>
      <trkpt lat="-20.90929" lon="55.4232">
        <ele>684.8</ele>
        <time>2013-09-15T04:20:39Z</time>
      </trkpt>
      <trkpt lat="-20.90937" lon="55.42315">
        <ele>685.9</ele>
        <time>2013-09-15T04:20:46Z</time>
      </trkpt>
      <trkpt lat="-20.90943" lon="55.4231">
        <ele>688</ele>
        <time>2013-09-15T04:20:52Z</time>
      </trkpt>
      <trkpt lat="-20.90951" lon="55.42305">
        <ele>688.9</ele>
        <time>2013-09-15T04:20:59Z</time>
      </trkpt>
      <trkpt lat="-20.90958" lon="55.42302">
        <ele>690.2</ele>
        <time>2013-09-15T04:21:05Z</time>
      </trkpt>
      <trkpt lat="-20.90966" lon="55.42299">
        <ele>692.1</ele>
        <time>2013-09-15T04:21:11Z</time>
      </trkpt>
      <trkpt lat="-20.90973" lon="55.42296">
        <ele>694.1</ele>
        <time>2013-09-15T04:21:17Z</time>
      </trkpt>
      <trkpt lat="-20.90974" lon="55.42295">
        <ele>694.6</ele>
        <time>2013-09-15T04:21:18Z</time>
      </trkpt>
      <trkpt lat="-20.90989" lon="55.42291">
        <ele>695.1</ele>
        <time>2013-09-15T04:21:29Z</time>
      </trkpt>
      <trkpt lat="-20.90997" lon="55.42288">
        <ele>695.3</ele>
        <time>2013-09-15T04:21:34Z</time>
      </trkpt>
      <trkpt lat="-20.91004" lon="55.42285">
        <ele>695.3</ele>
        <time>2013-09-15T04:21:39Z</time>
      </trkpt>
      <trkpt lat="-20.91012" lon="55.42284">
        <ele>695.6</ele>
        <time>2013-09-15T04:21:44Z</time>
      </trkpt>
      <trkpt lat="-20.9102" lon="55.42282">
        <ele>696.5</ele>
        <time>2013-09-15T04:21:49Z</time>
      </trkpt>
      <trkpt lat="-20.91027" lon="55.4228">
        <ele>696.6</ele>
        <time>2013-09-15T04:21:54Z</time>
      </trkpt>
      <trkpt lat="-20.91036" lon="55.42278">
        <ele>696.9</ele>
        <time>2013-09-15T04:22:00Z</time>
      </trkpt>
      <trkpt lat="-20.91044" lon="55.42277">
        <ele>697.9</ele>
        <time>2013-09-15T04:22:06Z</time>
      </trkpt>
      <trkpt lat="-20.91052" lon="55.42275">
        <ele>699.4</ele>
        <time>2013-09-15T04:22:12Z</time>
      </trkpt>
      <trkpt lat="-20.9106" lon="55.42272">
        <ele>700.8</ele>
        <time>2013-09-15T04:22:18Z</time>
      </trkpt>
      <trkpt lat="-20.91062" lon="55.42272">
        <ele>701</ele>
        <time>2013-09-15T04:22:19Z</time>
      </trkpt>
      <trkpt lat="-20.91075" lon="55.42267">
        <ele>701.6</ele>
        <time>2013-09-15T04:22:29Z</time>
      </trkpt>
      <trkpt lat="-20.91083" lon="55.42264">
        <ele>702.1</ele>
        <time>2013-09-15T04:22:35Z</time>
      </trkpt>
      <trkpt lat="-20.91091" lon="55.4226">
        <ele>703.5</ele>
        <time>2013-09-15T04:22:42Z</time>
      </trkpt>
      <trkpt lat="-20.91097" lon="55.42253">
        <ele>706.1</ele>
        <time>2013-09-15T04:22:50Z</time>
      </trkpt>
      <trkpt lat="-20.91101" lon="55.42245">
        <ele>707.6</ele>
        <time>2013-09-15T04:22:57Z</time>
      </trkpt>
      <trkpt lat="-20.91103" lon="55.42236">
        <ele>708.7</ele>
        <time>2013-09-15T04:23:04Z</time>
      </trkpt>
      <trkpt lat="-20.91106" lon="55.42228">
        <ele>710.8</ele>
        <time>2013-09-15T04:23:11Z</time>
      </trkpt>
      <trkpt lat="-20.9111" lon="55.42221">
        <ele>711.3</ele>
        <time>2013-09-15T04:23:17Z</time>
      </trkpt>
      <trkpt lat="-20.91113" lon="55.42213">
        <ele>712.9</ele>
        <time>2013-09-15T04:23:22Z</time>
      </trkpt>
      <trkpt lat="-20.91114" lon="55.42212">
        <ele>713.3</ele>
        <time>2013-09-15T04:23:23Z</time>
      </trkpt>
      <trkpt lat="-20.91117" lon="55.42198">
        <ele>713.8</ele>
        <time>2013-09-15T04:23:31Z</time>
      </trkpt>
      <trkpt lat="-20.91118" lon="55.42188">
        <ele>713.6</ele>
        <time>2013-09-15T04:23:35Z</time>
      </trkpt>
      <trkpt lat="-20.9112" lon="55.42179">
        <ele>714.1</ele>
        <time>2013-09-15T04:23:39Z</time>
      </trkpt>
      <trkpt lat="-20.91119" lon="55.42172">
        <ele>714.1</ele>
        <time>2013-09-15T04:23:42Z</time>
      </trkpt>
      <trkpt lat="-20.91119" lon="55.42163">
        <ele>713.3</ele>
        <time>2013-09-15T04:23:45Z</time>
      </trkpt>
      <trkpt lat="-20.91117" lon="55.42154">
        <ele>713.5</ele>
        <time>2013-09-15T04:23:48Z</time>
      </trkpt>
      <trkpt lat="-20.9112" lon="55.42146">
        <ele>712.2</ele>
        <time>2013-09-15T04:23:52Z</time>
      </trkpt>
      <trkpt lat="-20.91126" lon="55.42139">
        <ele>712.2</ele>
        <time>2013-09-15T04:23:56Z</time>
      </trkpt>
      <trkpt lat="-20.91134" lon="55.42138">
        <ele>711.3</ele>
        <time>2013-09-15T04:24:00Z</time>
      </trkpt>
      <trkpt lat="-20.9114" lon="55.42141">
        <ele>711.4</ele>
        <time>2013-09-15T04:24:03Z</time>
      </trkpt>
      <trkpt lat="-20.91147" lon="55.42143">
        <ele>711.6</ele>
        <time>2013-09-15T04:24:06Z</time>
      </trkpt>
      <trkpt lat="-20.91155" lon="55.42145">
        <ele>711.5</ele>
        <time>2013-09-15T04:24:10Z</time>
      </trkpt>
      <trkpt lat="-20.91161" lon="55.42148">
        <ele>711.9</ele>
        <time>2013-09-15T04:24:13Z</time>
      </trkpt>
      <trkpt lat="-20.91168" lon="55.4215">
        <ele>712</ele>
        <time>2013-09-15T04:24:16Z</time>
      </trkpt>
      <trkpt lat="-20.91176" lon="55.4215">
        <ele>711.8</ele>
        <time>2013-09-15T04:24:19Z</time>
      </trkpt>
      <trkpt lat="-20.91184" lon="55.42149">
        <ele>711.8</ele>
        <time>2013-09-15T04:24:22Z</time>
      </trkpt>
      <trkpt lat="-20.91193" lon="55.42148">
        <ele>712.4</ele>
        <time>2013-09-15T04:24:25Z</time>
      </trkpt>
      <trkpt lat="-20.91196" lon="55.42147">
        <ele>712.6</ele>
        <time>2013-09-15T04:24:26Z</time>
      </trkpt>
      <trkpt lat="-20.91208" lon="55.42142">
        <ele>712.6</ele>
        <time>2013-09-15T04:24:31Z</time>
      </trkpt>
      <trkpt lat="-20.91213" lon="55.42135">
        <ele>712.5</ele>
        <time>2013-09-15T04:24:34Z</time>
      </trkpt>
      <trkpt lat="-20.91217" lon="55.42127">
        <ele>712</ele>
        <time>2013-09-15T04:24:37Z</time>
      </trkpt>
      <trkpt lat="-20.9122" lon="55.42121">
        <ele>711.8</ele>
        <time>2013-09-15T04:24:39Z</time>
      </trkpt>
      <trkpt lat="-20.91222" lon="55.42114">
        <ele>711.5</ele>
        <time>2013-09-15T04:24:41Z</time>
      </trkpt>
      <trkpt lat="-20.91226" lon="55.42106">
        <ele>711.6</ele>
        <time>2013-09-15T04:24:44Z</time>
      </trkpt>
      <trkpt lat="-20.91229" lon="55.42097">
        <ele>711.5</ele>
        <time>2013-09-15T04:24:47Z</time>
      </trkpt>
      <trkpt lat="-20.91231" lon="55.42091">
        <ele>711</ele>
        <time>2013-09-15T04:24:49Z</time>
      </trkpt>
      <trkpt lat="-20.91234" lon="55.42082">
        <ele>710.2</ele>
        <time>2013-09-15T04:24:52Z</time>
      </trkpt>
      <trkpt lat="-20.91237" lon="55.42074">
        <ele>708.7</ele>
        <time>2013-09-15T04:24:55Z</time>
      </trkpt>
      <trkpt lat="-20.91241" lon="55.42066">
        <ele>708</ele>
        <time>2013-09-15T04:25:00Z</time>
      </trkpt>
      <trkpt lat="-20.91244" lon="55.42059">
        <ele>707.3</ele>
        <time>2013-09-15T04:25:05Z</time>
      </trkpt>
      <trkpt lat="-20.91246" lon="55.4205">
        <ele>707.3</ele>
        <time>2013-09-15T04:25:09Z</time>
      </trkpt>
      <trkpt lat="-20.91248" lon="55.42043">
        <ele>707.1</ele>
        <time>2013-09-15T04:25:12Z</time>
      </trkpt>
      <trkpt lat="-20.91251" lon="55.42035">
        <ele>707.2</ele>
        <time>2013-09-15T04:25:15Z</time>
      </trkpt>
      <trkpt lat="-20.91254" lon="55.42029">
        <ele>707.8</ele>
        <time>2013-09-15T04:25:18Z</time>
      </trkpt>
      <trkpt lat="-20.91261" lon="55.42023">
        <ele>708.4</ele>
        <time>2013-09-15T04:25:22Z</time>
      </trkpt>
      <trkpt lat="-20.91268" lon="55.42022">
        <ele>709.1</ele>
        <time>2013-09-15T04:25:25Z</time>
      </trkpt>
      <trkpt lat="-20.91275" lon="55.42022">
        <ele>709.6</ele>
        <time>2013-09-15T04:25:28Z</time>
      </trkpt>
      <trkpt lat="-20.91277" lon="55.42022">
        <ele>709.9</ele>
        <time>2013-09-15T04:25:29Z</time>
      </trkpt>
      <trkpt lat="-20.91291" lon="55.42022">
        <ele>708.4</ele>
        <time>2013-09-15T04:25:35Z</time>
      </trkpt>
      <trkpt lat="-20.91299" lon="55.42019">
        <ele>707.3</ele>
        <time>2013-09-15T04:25:39Z</time>
      </trkpt>
      <trkpt lat="-20.91305" lon="55.42013">
        <ele>707</ele>
        <time>2013-09-15T04:25:42Z</time>
      </trkpt>
      <trkpt lat="-20.91309" lon="55.42006">
        <ele>706.4</ele>
        <time>2013-09-15T04:25:45Z</time>
      </trkpt>
      <trkpt lat="-20.91312" lon="55.41999">
        <ele>706.5</ele>
        <time>2013-09-15T04:25:48Z</time>
      </trkpt>
      <trkpt lat="-20.91315" lon="55.41991">
        <ele>706.9</ele>
        <time>2013-09-15T04:25:51Z</time>
      </trkpt>
      <trkpt lat="-20.91319" lon="55.41983">
        <ele>706.6</ele>
        <time>2013-09-15T04:25:55Z</time>
      </trkpt>
      <trkpt lat="-20.91323" lon="55.41974">
        <ele>707.3</ele>
        <time>2013-09-15T04:25:59Z</time>
      </trkpt>
      <trkpt lat="-20.91328" lon="55.41969">
        <ele>707.1</ele>
        <time>2013-09-15T04:26:02Z</time>
      </trkpt>
      <trkpt lat="-20.91337" lon="55.41965">
        <ele>706.7</ele>
        <time>2013-09-15T04:26:06Z</time>
      </trkpt>
      <trkpt lat="-20.91344" lon="55.41963">
        <ele>706.2</ele>
        <time>2013-09-15T04:26:10Z</time>
      </trkpt>
      <trkpt lat="-20.91352" lon="55.41959">
        <ele>703.6</ele>
        <time>2013-09-15T04:26:14Z</time>
      </trkpt>
      <trkpt lat="-20.91357" lon="55.41955">
        <ele>702.6</ele>
        <time>2013-09-15T04:26:17Z</time>
      </trkpt>
      <trkpt lat="-20.91363" lon="55.4195">
        <ele>700.7</ele>
        <time>2013-09-15T04:26:20Z</time>
      </trkpt>
      <trkpt lat="-20.91368" lon="55.41942">
        <ele>699.1</ele>
        <time>2013-09-15T04:26:23Z</time>
      </trkpt>
      <trkpt lat="-20.91372" lon="55.41934">
        <ele>697.7</ele>
        <time>2013-09-15T04:26:26Z</time>
      </trkpt>
      <trkpt lat="-20.91375" lon="55.41925">
        <ele>697.2</ele>
        <time>2013-09-15T04:26:29Z</time>
      </trkpt>
      <trkpt lat="-20.91376" lon="55.41922">
        <ele>697.4</ele>
        <time>2013-09-15T04:26:30Z</time>
      </trkpt>
      <trkpt lat="-20.91377" lon="55.41909">
        <ele>697.3</ele>
        <time>2013-09-15T04:26:35Z</time>
      </trkpt>
      <trkpt lat="-20.91378" lon="55.41901">
        <ele>697.6</ele>
        <time>2013-09-15T04:26:38Z</time>
      </trkpt>
      <trkpt lat="-20.9138" lon="55.41894">
        <ele>697.2</ele>
        <time>2013-09-15T04:26:41Z</time>
      </trkpt>
      <trkpt lat="-20.91382" lon="55.41887">
        <ele>697.1</ele>
        <time>2013-09-15T04:26:44Z</time>
      </trkpt>
      <trkpt lat="-20.91385" lon="55.4188">
        <ele>696.4</ele>
        <time>2013-09-15T04:26:47Z</time>
      </trkpt>
      <trkpt lat="-20.9139" lon="55.41872">
        <ele>697.5</ele>
        <time>2013-09-15T04:26:51Z</time>
      </trkpt>
      <trkpt lat="-20.91395" lon="55.41865">
        <ele>698.5</ele>
        <time>2013-09-15T04:26:55Z</time>
      </trkpt>
      <trkpt lat="-20.91399" lon="55.41857">
        <ele>699.2</ele>
        <time>2013-09-15T04:27:00Z</time>
      </trkpt>
      <trkpt lat="-20.91402" lon="55.4185">
        <ele>699.3</ele>
        <time>2013-09-15T04:27:04Z</time>
      </trkpt>
      <trkpt lat="-20.91405" lon="55.41841">
        <ele>700.1</ele>
        <time>2013-09-15T04:27:09Z</time>
      </trkpt>
      <trkpt lat="-20.91411" lon="55.41835">
        <ele>701.2</ele>
        <time>2013-09-15T04:27:15Z</time>
      </trkpt>
      <trkpt lat="-20.91412" lon="55.41827">
        <ele>701.8</ele>
        <time>2013-09-15T04:27:20Z</time>
      </trkpt>
      <trkpt lat="-20.91411" lon="55.41819">
        <ele>702.4</ele>
        <time>2013-09-15T04:27:23Z</time>
      </trkpt>
      <trkpt lat="-20.9141" lon="55.4181">
        <ele>703.2</ele>
        <time>2013-09-15T04:27:27Z</time>
      </trkpt>
      <trkpt lat="-20.91411" lon="55.41802">
        <ele>703.2</ele>
        <time>2013-09-15T04:27:30Z</time>
      </trkpt>
      <trkpt lat="-20.91411" lon="55.41799">
        <ele>703.1</ele>
        <time>2013-09-15T04:27:31Z</time>
      </trkpt>
      <trkpt lat="-20.91403" lon="55.41788">
        <ele>702.4</ele>
        <time>2013-09-15T04:27:36Z</time>
      </trkpt>
      <trkpt lat="-20.91397" lon="55.41783">
        <ele>701.4</ele>
        <time>2013-09-15T04:27:39Z</time>
      </trkpt>
      <trkpt lat="-20.91392" lon="55.41777">
        <ele>700.3</ele>
        <time>2013-09-15T04:27:42Z</time>
      </trkpt>
      <trkpt lat="-20.91387" lon="55.41772">
        <ele>699.8</ele>
        <time>2013-09-15T04:27:45Z</time>
      </trkpt>
      <trkpt lat="-20.91379" lon="55.41766">
        <ele>698.2</ele>
        <time>2013-09-15T04:27:49Z</time>
      </trkpt>
      <trkpt lat="-20.91373" lon="55.41761">
        <ele>698</ele>
        <time>2013-09-15T04:27:53Z</time>
      </trkpt>
      <trkpt lat="-20.91367" lon="55.41758">
        <ele>696.9</ele>
        <time>2013-09-15T04:27:56Z</time>
      </trkpt>
      <trkpt lat="-20.9136" lon="55.41753">
        <ele>696.1</ele>
        <time>2013-09-15T04:27:59Z</time>
      </trkpt>
      <trkpt lat="-20.91354" lon="55.41749">
        <ele>695</ele>
        <time>2013-09-15T04:28:02Z</time>
      </trkpt>
      <trkpt lat="-20.91348" lon="55.41744">
        <ele>694.5</ele>
        <time>2013-09-15T04:28:05Z</time>
      </trkpt>
      <trkpt lat="-20.91343" lon="55.4174">
        <ele>694</ele>
        <time>2013-09-15T04:28:08Z</time>
      </trkpt>
      <trkpt lat="-20.91337" lon="55.41735">
        <ele>693.7</ele>
        <time>2013-09-15T04:28:11Z</time>
      </trkpt>
      <trkpt lat="-20.91331" lon="55.41731">
        <ele>692.7</ele>
        <time>2013-09-15T04:28:14Z</time>
      </trkpt>
      <trkpt lat="-20.91325" lon="55.41725">
        <ele>692.3</ele>
        <time>2013-09-15T04:28:18Z</time>
      </trkpt>
      <trkpt lat="-20.91318" lon="55.41721">
        <ele>691.3</ele>
        <time>2013-09-15T04:28:22Z</time>
      </trkpt>
      <trkpt lat="-20.91309" lon="55.41719">
        <ele>689.8</ele>
        <time>2013-09-15T04:28:27Z</time>
      </trkpt>
      <trkpt lat="-20.91302" lon="55.41717">
        <ele>687.8</ele>
        <time>2013-09-15T04:28:32Z</time>
      </trkpt>
      <trkpt lat="-20.913" lon="55.41717">
        <ele>687.4</ele>
        <time>2013-09-15T04:28:33Z</time>
      </trkpt>
      <trkpt lat="-20.91285" lon="55.41718">
        <ele>683.9</ele>
        <time>2013-09-15T04:28:41Z</time>
      </trkpt>
      <trkpt lat="-20.91277" lon="55.41716">
        <ele>681.3</ele>
        <time>2013-09-15T04:28:46Z</time>
      </trkpt>
      <trkpt lat="-20.9127" lon="55.41713">
        <ele>678.5</ele>
        <time>2013-09-15T04:28:50Z</time>
      </trkpt>
      <trkpt lat="-20.91261" lon="55.41711">
        <ele>676.3</ele>
        <time>2013-09-15T04:28:54Z</time>
      </trkpt>
      <trkpt lat="-20.91255" lon="55.41708">
        <ele>674.4</ele>
        <time>2013-09-15T04:28:57Z</time>
      </trkpt>
      <trkpt lat="-20.9125" lon="55.41703">
        <ele>672.3</ele>
        <time>2013-09-15T04:29:00Z</time>
      </trkpt>
      <trkpt lat="-20.91242" lon="55.41701">
        <ele>669</ele>
        <time>2013-09-15T04:29:07Z</time>
      </trkpt>
      <trkpt lat="-20.91234" lon="55.41699">
        <ele>668.3</ele>
        <time>2013-09-15T04:29:12Z</time>
      </trkpt>
      <trkpt lat="-20.91228" lon="55.41696">
        <ele>667.5</ele>
        <time>2013-09-15T04:29:16Z</time>
      </trkpt>
      <trkpt lat="-20.91222" lon="55.41688">
        <ele>665.4</ele>
        <time>2013-09-15T04:29:21Z</time>
      </trkpt>
      <trkpt lat="-20.91214" lon="55.41686">
        <ele>662.5</ele>
        <time>2013-09-15T04:29:25Z</time>
      </trkpt>
      <trkpt lat="-20.91206" lon="55.41687">
        <ele>661</ele>
        <time>2013-09-15T04:29:29Z</time>
      </trkpt>
      <trkpt lat="-20.91199" lon="55.41684">
        <ele>659.5</ele>
        <time>2013-09-15T04:29:33Z</time>
      </trkpt>
      <trkpt lat="-20.91198" lon="55.41683">
        <ele>659.2</ele>
        <time>2013-09-15T04:29:34Z</time>
      </trkpt>
      <trkpt lat="-20.91188" lon="55.41671">
        <ele>654.4</ele>
        <time>2013-09-15T04:29:40Z</time>
      </trkpt>
      <trkpt lat="-20.91184" lon="55.41664">
        <ele>652.9</ele>
        <time>2013-09-15T04:29:43Z</time>
      </trkpt>
      <trkpt lat="-20.91177" lon="55.41658">
        <ele>651.1</ele>
        <time>2013-09-15T04:29:47Z</time>
      </trkpt>
      <trkpt lat="-20.91176" lon="55.41648">
        <ele>650.5</ele>
        <time>2013-09-15T04:29:51Z</time>
      </trkpt>
      <trkpt lat="-20.91173" lon="55.41641">
        <ele>647.7</ele>
        <time>2013-09-15T04:29:56Z</time>
      </trkpt>
      <trkpt lat="-20.91167" lon="55.41634">
        <ele>645.8</ele>
        <time>2013-09-15T04:30:00Z</time>
      </trkpt>
      <trkpt lat="-20.91159" lon="55.41632">
        <ele>644.4</ele>
        <time>2013-09-15T04:30:04Z</time>
      </trkpt>
      <trkpt lat="-20.91151" lon="55.41631">
        <ele>642.9</ele>
        <time>2013-09-15T04:30:08Z</time>
      </trkpt>
      <trkpt lat="-20.91146" lon="55.41624">
        <ele>641.2</ele>
        <time>2013-09-15T04:30:12Z</time>
      </trkpt>
      <trkpt lat="-20.91144" lon="55.41616">
        <ele>640.3</ele>
        <time>2013-09-15T04:30:15Z</time>
      </trkpt>
      <trkpt lat="-20.91139" lon="55.41609">
        <ele>639.2</ele>
        <time>2013-09-15T04:30:18Z</time>
      </trkpt>
      <trkpt lat="-20.91131" lon="55.41605">
        <ele>637.4</ele>
        <time>2013-09-15T04:30:22Z</time>
      </trkpt>
      <trkpt lat="-20.91128" lon="55.41598">
        <ele>636.1</ele>
        <time>2013-09-15T04:30:25Z</time>
      </trkpt>
      <trkpt lat="-20.91124" lon="55.41591">
        <ele>634.6</ele>
        <time>2013-09-15T04:30:28Z</time>
      </trkpt>
      <trkpt lat="-20.9112" lon="55.41584">
        <ele>633.6</ele>
        <time>2013-09-15T04:30:31Z</time>
      </trkpt>
      <trkpt lat="-20.91119" lon="55.41577">
        <ele>631.8</ele>
        <time>2013-09-15T04:30:34Z</time>
      </trkpt>
      <trkpt lat="-20.91117" lon="55.41574">
        <ele>631.4</ele>
        <time>2013-09-15T04:30:35Z</time>
      </trkpt>
      <trkpt lat="-20.91105" lon="55.41566">
        <ele>628.8</ele>
        <time>2013-09-15T04:30:42Z</time>
      </trkpt>
      <trkpt lat="-20.91096" lon="55.41565">
        <ele>627.1</ele>
        <time>2013-09-15T04:30:46Z</time>
      </trkpt>
      <trkpt lat="-20.91089" lon="55.41564">
        <ele>625.6</ele>
        <time>2013-09-15T04:30:49Z</time>
      </trkpt>
      <trkpt lat="-20.91081" lon="55.41564">
        <ele>623.8</ele>
        <time>2013-09-15T04:30:52Z</time>
      </trkpt>
      <trkpt lat="-20.91073" lon="55.41564">
        <ele>620.8</ele>
        <time>2013-09-15T04:30:56Z</time>
      </trkpt>
      <trkpt lat="-20.91066" lon="55.41562">
        <ele>619.4</ele>
        <time>2013-09-15T04:30:59Z</time>
      </trkpt>
      <trkpt lat="-20.91057" lon="55.4156">
        <ele>616.9</ele>
        <time>2013-09-15T04:31:03Z</time>
      </trkpt>
      <trkpt lat="-20.9105" lon="55.41559">
        <ele>616</ele>
        <time>2013-09-15T04:31:06Z</time>
      </trkpt>
      <trkpt lat="-20.91043" lon="55.4156">
        <ele>615</ele>
        <time>2013-09-15T04:31:09Z</time>
      </trkpt>
      <trkpt lat="-20.91035" lon="55.41559">
        <ele>613.9</ele>
        <time>2013-09-15T04:31:12Z</time>
      </trkpt>
      <trkpt lat="-20.91027" lon="55.41556">
        <ele>612.5</ele>
        <time>2013-09-15T04:31:15Z</time>
      </trkpt>
      <trkpt lat="-20.91019" lon="55.41552">
        <ele>612</ele>
        <time>2013-09-15T04:31:18Z</time>
      </trkpt>
      <trkpt lat="-20.91012" lon="55.4155">
        <ele>611.1</ele>
        <time>2013-09-15T04:31:21Z</time>
      </trkpt>
      <trkpt lat="-20.91005" lon="55.41546">
        <ele>611</ele>
        <time>2013-09-15T04:31:24Z</time>
      </trkpt>
      <trkpt lat="-20.90997" lon="55.41547">
        <ele>610.9</ele>
        <time>2013-09-15T04:31:27Z</time>
      </trkpt>
      <trkpt lat="-20.9099" lon="55.41549">
        <ele>610</ele>
        <time>2013-09-15T04:31:30Z</time>
      </trkpt>
      <trkpt lat="-20.90984" lon="55.41551">
        <ele>609.8</ele>
        <time>2013-09-15T04:31:33Z</time>
      </trkpt>
      <trkpt lat="-20.90977" lon="55.41555">
        <ele>607.8</ele>
        <time>2013-09-15T04:31:36Z</time>
      </trkpt>
      <trkpt lat="-20.90975" lon="55.41556">
        <ele>607.4</ele>
        <time>2013-09-15T04:31:37Z</time>
      </trkpt>
      <trkpt lat="-20.90963" lon="55.41565">
        <ele>605</ele>
        <time>2013-09-15T04:31:44Z</time>
      </trkpt>
      <trkpt lat="-20.9096" lon="55.41573">
        <ele>602.8</ele>
        <time>2013-09-15T04:31:48Z</time>
      </trkpt>
      <trkpt lat="-20.90954" lon="55.4158">
        <ele>601.1</ele>
        <time>2013-09-15T04:31:52Z</time>
      </trkpt>
      <trkpt lat="-20.90948" lon="55.41586">
        <ele>599.3</ele>
        <time>2013-09-15T04:31:56Z</time>
      </trkpt>
      <trkpt lat="-20.90944" lon="55.41594">
        <ele>596.4</ele>
        <time>2013-09-15T04:32:00Z</time>
      </trkpt>
      <trkpt lat="-20.90944" lon="55.41603">
        <ele>593.5</ele>
        <time>2013-09-15T04:32:05Z</time>
      </trkpt>
      <trkpt lat="-20.90942" lon="55.41613">
        <ele>590.9</ele>
        <time>2013-09-15T04:32:10Z</time>
      </trkpt>
      <trkpt lat="-20.90937" lon="55.4162">
        <ele>586.7</ele>
        <time>2013-09-15T04:32:16Z</time>
      </trkpt>
      <trkpt lat="-20.90931" lon="55.41625">
        <ele>584.4</ele>
        <time>2013-09-15T04:32:21Z</time>
      </trkpt>
      <trkpt lat="-20.90923" lon="55.4163">
        <ele>581.3</ele>
        <time>2013-09-15T04:32:25Z</time>
      </trkpt>
      <trkpt lat="-20.90916" lon="55.41633">
        <ele>579</ele>
        <time>2013-09-15T04:32:29Z</time>
      </trkpt>
      <trkpt lat="-20.90908" lon="55.41632">
        <ele>577.6</ele>
        <time>2013-09-15T04:32:33Z</time>
      </trkpt>
      <trkpt lat="-20.90902" lon="55.41628">
        <ele>575.5</ele>
        <time>2013-09-15T04:32:37Z</time>
      </trkpt>
      <trkpt lat="-20.909" lon="55.41627">
        <ele>574.7</ele>
        <time>2013-09-15T04:32:38Z</time>
      </trkpt>
      <trkpt lat="-20.90889" lon="55.41619">
        <ele>569.6</ele>
        <time>2013-09-15T04:32:47Z</time>
      </trkpt>
      <trkpt lat="-20.90881" lon="55.41616">
        <ele>566.7</ele>
        <time>2013-09-15T04:32:52Z</time>
      </trkpt>
      <trkpt lat="-20.90873" lon="55.41613">
        <ele>564.6</ele>
        <time>2013-09-15T04:32:57Z</time>
      </trkpt>
      <trkpt lat="-20.90865" lon="55.4161">
        <ele>562.2</ele>
        <time>2013-09-15T04:33:03Z</time>
      </trkpt>
      <trkpt lat="-20.90858" lon="55.41608">
        <ele>558.9</ele>
        <time>2013-09-15T04:33:08Z</time>
      </trkpt>
      <trkpt lat="-20.90849" lon="55.4161">
        <ele>555.6</ele>
        <time>2013-09-15T04:33:15Z</time>
      </trkpt>
      <trkpt lat="-20.90843" lon="55.41606">
        <ele>556.1</ele>
        <time>2013-09-15T04:33:18Z</time>
      </trkpt>
      <trkpt lat="-20.9084" lon="55.41597">
        <ele>556.4</ele>
        <time>2013-09-15T04:33:22Z</time>
      </trkpt>
      <trkpt lat="-20.9084" lon="55.41588">
        <ele>556.4</ele>
        <time>2013-09-15T04:33:26Z</time>
      </trkpt>
      <trkpt lat="-20.90843" lon="55.4158">
        <ele>556.8</ele>
        <time>2013-09-15T04:33:30Z</time>
      </trkpt>
      <trkpt lat="-20.90847" lon="55.41573">
        <ele>557.1</ele>
        <time>2013-09-15T04:33:34Z</time>
      </trkpt>
      <trkpt lat="-20.90849" lon="55.41565">
        <ele>557.5</ele>
        <time>2013-09-15T04:33:38Z</time>
      </trkpt>
      <trkpt lat="-20.90849" lon="55.41563">
        <ele>557.8</ele>
        <time>2013-09-15T04:33:39Z</time>
      </trkpt>
      <trkpt lat="-20.90856" lon="55.4155">
        <ele>558.2</ele>
        <time>2013-09-15T04:33:46Z</time>
      </trkpt>
      <trkpt lat="-20.90861" lon="55.41542">
        <ele>558.7</ele>
        <time>2013-09-15T04:33:51Z</time>
      </trkpt>
      <trkpt lat="-20.90865" lon="55.41536">
        <ele>559.4</ele>
        <time>2013-09-15T04:33:55Z</time>
      </trkpt>
      <trkpt lat="-20.9087" lon="55.41528">
        <ele>560.3</ele>
        <time>2013-09-15T04:34:00Z</time>
      </trkpt>
      <trkpt lat="-20.90874" lon="55.41521">
        <ele>561.2</ele>
        <time>2013-09-15T04:34:04Z</time>
      </trkpt>
      <trkpt lat="-20.90877" lon="55.41513">
        <ele>562.5</ele>
        <time>2013-09-15T04:34:09Z</time>
      </trkpt>
      <trkpt lat="-20.9088" lon="55.41504">
        <ele>562.4</ele>
        <time>2013-09-15T04:34:14Z</time>
      </trkpt>
      <trkpt lat="-20.90881" lon="55.41496">
        <ele>562.7</ele>
        <time>2013-09-15T04:34:18Z</time>
      </trkpt>
      <trkpt lat="-20.90882" lon="55.41488">
        <ele>563</ele>
        <time>2013-09-15T04:34:22Z</time>
      </trkpt>
      <trkpt lat="-20.90881" lon="55.41479">
        <ele>564.1</ele>
        <time>2013-09-15T04:34:28Z</time>
      </trkpt>
      <trkpt lat="-20.90881" lon="55.4147">
        <ele>564.6</ele>
        <time>2013-09-15T04:34:36Z</time>
      </trkpt>
      <trkpt lat="-20.90881" lon="55.4146">
        <ele>565.1</ele>
        <time>2013-09-15T04:34:42Z</time>
      </trkpt>
      <trkpt lat="-20.90881" lon="55.41459">
        <ele>565.2</ele>
        <time>2013-09-15T04:34:43Z</time>
      </trkpt>
      <trkpt lat="-20.90882" lon="55.41443">
        <ele>565.8</ele>
        <time>2013-09-15T04:34:51Z</time>
      </trkpt>
      <trkpt lat="-20.90882" lon="55.41434">
        <ele>565.8</ele>
        <time>2013-09-15T04:34:56Z</time>
      </trkpt>
      <trkpt lat="-20.90882" lon="55.41425">
        <ele>566.2</ele>
        <time>2013-09-15T04:35:01Z</time>
      </trkpt>
      <trkpt lat="-20.90881" lon="55.41416">
        <ele>567.5</ele>
        <time>2013-09-15T04:35:07Z</time>
      </trkpt>
      <trkpt lat="-20.90879" lon="55.41407">
        <ele>567.6</ele>
        <time>2013-09-15T04:35:12Z</time>
      </trkpt>
      <trkpt lat="-20.90877" lon="55.41398">
        <ele>567.5</ele>
        <time>2013-09-15T04:35:17Z</time>
      </trkpt>
      <trkpt lat="-20.90874" lon="55.4139">
        <ele>567.8</ele>
        <time>2013-09-15T04:35:23Z</time>
      </trkpt>
      <trkpt lat="-20.90874" lon="55.41382">
        <ele>567.8</ele>
        <time>2013-09-15T04:35:28Z</time>
      </trkpt>
      <trkpt lat="-20.90873" lon="55.41373">
        <ele>567.7</ele>
        <time>2013-09-15T04:35:33Z</time>
      </trkpt>
      <trkpt lat="-20.90869" lon="55.41366">
        <ele>568.5</ele>
        <time>2013-09-15T04:35:37Z</time>
      </trkpt>
      <trkpt lat="-20.90864" lon="55.41361">
        <ele>567.3</ele>
        <time>2013-09-15T04:35:40Z</time>
      </trkpt>
      <trkpt lat="-20.90857" lon="55.41356">
        <ele>566.8</ele>
        <time>2013-09-15T04:35:43Z</time>
      </trkpt>
      <trkpt lat="-20.90855" lon="55.41354">
        <ele>566.8</ele>
        <time>2013-09-15T04:35:44Z</time>
      </trkpt>
      <trkpt lat="-20.90844" lon="55.41347">
        <ele>565.1</ele>
        <time>2013-09-15T04:35:49Z</time>
      </trkpt>
      <trkpt lat="-20.90838" lon="55.41341">
        <ele>563.6</ele>
        <time>2013-09-15T04:35:52Z</time>
      </trkpt>
      <trkpt lat="-20.90832" lon="55.41335">
        <ele>562.6</ele>
        <time>2013-09-15T04:35:55Z</time>
      </trkpt>
      <trkpt lat="-20.90826" lon="55.4133">
        <ele>562.7</ele>
        <time>2013-09-15T04:35:58Z</time>
      </trkpt>
      <trkpt lat="-20.9082" lon="55.41324">
        <ele>561.6</ele>
        <time>2013-09-15T04:36:01Z</time>
      </trkpt>
      <trkpt lat="-20.90814" lon="55.41318">
        <ele>560.4</ele>
        <time>2013-09-15T04:36:04Z</time>
      </trkpt>
      <trkpt lat="-20.90808" lon="55.41314">
        <ele>559.8</ele>
        <time>2013-09-15T04:36:07Z</time>
      </trkpt>
      <trkpt lat="-20.90802" lon="55.4131">
        <ele>558.9</ele>
        <time>2013-09-15T04:36:10Z</time>
      </trkpt>
      <trkpt lat="-20.90796" lon="55.41306">
        <ele>558.2</ele>
        <time>2013-09-15T04:36:13Z</time>
      </trkpt>
      <trkpt lat="-20.90789" lon="55.41301">
        <ele>557.4</ele>
        <time>2013-09-15T04:36:16Z</time>
      </trkpt>
      <trkpt lat="-20.90783" lon="55.41297">
        <ele>556.4</ele>
        <time>2013-09-15T04:36:19Z</time>
      </trkpt>
      <trkpt lat="-20.90776" lon="55.41292">
        <ele>555.3</ele>
        <time>2013-09-15T04:36:23Z</time>
      </trkpt>
      <trkpt lat="-20.90768" lon="55.41287">
        <ele>554.7</ele>
        <time>2013-09-15T04:36:27Z</time>
      </trkpt>
      <trkpt lat="-20.90763" lon="55.41283">
        <ele>553.2</ele>
        <time>2013-09-15T04:36:30Z</time>
      </trkpt>
      <trkpt lat="-20.90757" lon="55.41277">
        <ele>552.7</ele>
        <time>2013-09-15T04:36:33Z</time>
      </trkpt>
      <trkpt lat="-20.90751" lon="55.41271">
        <ele>552.2</ele>
        <time>2013-09-15T04:36:36Z</time>
      </trkpt>
      <trkpt lat="-20.90745" lon="55.41266">
        <ele>551</ele>
        <time>2013-09-15T04:36:39Z</time>
      </trkpt>
      <trkpt lat="-20.90739" lon="55.41259">
        <ele>550.7</ele>
        <time>2013-09-15T04:36:42Z</time>
      </trkpt>
      <trkpt lat="-20.90736" lon="55.41253">
        <ele>550.4</ele>
        <time>2013-09-15T04:36:45Z</time>
      </trkpt>
      <trkpt lat="-20.90735" lon="55.4125">
        <ele>550.1</ele>
        <time>2013-09-15T04:36:46Z</time>
      </trkpt>
      <trkpt lat="-20.90733" lon="55.41237">
        <ele>549.3</ele>
        <time>2013-09-15T04:36:51Z</time>
      </trkpt>
      <trkpt lat="-20.90726" lon="55.41232">
        <ele>547.5</ele>
        <time>2013-09-15T04:36:56Z</time>
      </trkpt>
      <trkpt lat="-20.90718" lon="55.4123">
        <ele>545</ele>
        <time>2013-09-15T04:37:01Z</time>
      </trkpt>
      <trkpt lat="-20.90714" lon="55.41223">
        <ele>542.4</ele>
        <time>2013-09-15T04:37:05Z</time>
      </trkpt>
      <trkpt lat="-20.90708" lon="55.41218">
        <ele>538.2</ele>
        <time>2013-09-15T04:37:10Z</time>
      </trkpt>
      <trkpt lat="-20.90703" lon="55.41214">
        <ele>536.3</ele>
        <time>2013-09-15T04:37:14Z</time>
      </trkpt>
      <trkpt lat="-20.90696" lon="55.4121">
        <ele>534.4</ele>
        <time>2013-09-15T04:37:18Z</time>
      </trkpt>
      <trkpt lat="-20.90689" lon="55.41207">
        <ele>531.2</ele>
        <time>2013-09-15T04:37:23Z</time>
      </trkpt>
      <trkpt lat="-20.90684" lon="55.412">
        <ele>528.3</ele>
        <time>2013-09-15T04:37:27Z</time>
      </trkpt>
      <trkpt lat="-20.9068" lon="55.41193">
        <ele>526.6</ele>
        <time>2013-09-15T04:37:31Z</time>
      </trkpt>
      <trkpt lat="-20.90676" lon="55.41186">
        <ele>525.6</ele>
        <time>2013-09-15T04:37:34Z</time>
      </trkpt>
      <trkpt lat="-20.90673" lon="55.41179">
        <ele>524.4</ele>
        <time>2013-09-15T04:37:37Z</time>
      </trkpt>
      <trkpt lat="-20.90669" lon="55.41172">
        <ele>523.5</ele>
        <time>2013-09-15T04:37:40Z</time>
      </trkpt>
      <trkpt lat="-20.90664" lon="55.41166">
        <ele>523.4</ele>
        <time>2013-09-15T04:37:44Z</time>
      </trkpt>
      <trkpt lat="-20.90657" lon="55.41163">
        <ele>522.8</ele>
        <time>2013-09-15T04:37:48Z</time>
      </trkpt>
      <trkpt lat="-20.90655" lon="55.41163">
        <ele>522.1</ele>
        <time>2013-09-15T04:37:49Z</time>
      </trkpt>
      <trkpt lat="-20.90643" lon="55.41154">
        <ele>517.2</ele>
        <time>2013-09-15T04:37:59Z</time>
      </trkpt>
      <trkpt lat="-20.90636" lon="55.41149">
        <ele>514.2</ele>
        <time>2013-09-15T04:38:04Z</time>
      </trkpt>
      <trkpt lat="-20.9063" lon="55.41143">
        <ele>511</ele>
        <time>2013-09-15T04:38:09Z</time>
      </trkpt>
      <trkpt lat="-20.90621" lon="55.41141">
        <ele>508.1</ele>
        <time>2013-09-15T04:38:15Z</time>
      </trkpt>
      <trkpt lat="-20.90613" lon="55.41144">
        <ele>505.2</ele>
        <time>2013-09-15T04:38:21Z</time>
      </trkpt>
      <trkpt lat="-20.90605" lon="55.41146">
        <ele>503.2</ele>
        <time>2013-09-15T04:38:24Z</time>
      </trkpt>
      <trkpt lat="-20.90599" lon="55.41141">
        <ele>501.3</ele>
        <time>2013-09-15T04:38:29Z</time>
      </trkpt>
      <trkpt lat="-20.90594" lon="55.41134">
        <ele>497.7</ele>
        <time>2013-09-15T04:38:34Z</time>
      </trkpt>
      <trkpt lat="-20.90588" lon="55.41128">
        <ele>495.8</ele>
        <time>2013-09-15T04:38:37Z</time>
      </trkpt>
      <trkpt lat="-20.90585" lon="55.41119">
        <ele>494</ele>
        <time>2013-09-15T04:38:41Z</time>
      </trkpt>
      <trkpt lat="-20.90579" lon="55.41113">
        <ele>493</ele>
        <time>2013-09-15T04:38:45Z</time>
      </trkpt>
      <trkpt lat="-20.90572" lon="55.41109">
        <ele>491.1</ele>
        <time>2013-09-15T04:38:48Z</time>
      </trkpt>
      <trkpt lat="-20.90564" lon="55.41106">
        <ele>489.3</ele>
        <time>2013-09-15T04:38:52Z</time>
      </trkpt>
      <trkpt lat="-20.90561" lon="55.41106">
        <ele>489.2</ele>
        <time>2013-09-15T04:38:53Z</time>
      </trkpt>
      <trkpt lat="-20.9055" lon="55.41106">
        <ele>487.4</ele>
        <time>2013-09-15T04:38:58Z</time>
      </trkpt>
      <trkpt lat="-20.90543" lon="55.41108">
        <ele>487</ele>
        <time>2013-09-15T04:39:01Z</time>
      </trkpt>
      <trkpt lat="-20.90536" lon="55.41109">
        <ele>486</ele>
        <time>2013-09-15T04:39:04Z</time>
      </trkpt>
      <trkpt lat="-20.90528" lon="55.41106">
        <ele>485.2</ele>
        <time>2013-09-15T04:39:08Z</time>
      </trkpt>
      <trkpt lat="-20.90523" lon="55.41099">
        <ele>484.1</ele>
        <time>2013-09-15T04:39:12Z</time>
      </trkpt>
      <trkpt lat="-20.90519" lon="55.41091">
        <ele>482.7</ele>
        <time>2013-09-15T04:39:16Z</time>
      </trkpt>
      <trkpt lat="-20.90515" lon="55.41083">
        <ele>481.4</ele>
        <time>2013-09-15T04:39:20Z</time>
      </trkpt>
      <trkpt lat="-20.90507" lon="55.41083">
        <ele>478.7</ele>
        <time>2013-09-15T04:39:24Z</time>
      </trkpt>
      <trkpt lat="-20.90498" lon="55.41083">
        <ele>477.5</ele>
        <time>2013-09-15T04:39:27Z</time>
      </trkpt>
      <trkpt lat="-20.90492" lon="55.4108">
        <ele>476</ele>
        <time>2013-09-15T04:39:30Z</time>
      </trkpt>
      <trkpt lat="-20.90484" lon="55.41078">
        <ele>475.9</ele>
        <time>2013-09-15T04:39:33Z</time>
      </trkpt>
      <trkpt lat="-20.90478" lon="55.41083">
        <ele>475.5</ele>
        <time>2013-09-15T04:39:37Z</time>
      </trkpt>
      <trkpt lat="-20.90471" lon="55.4109">
        <ele>473.7</ele>
        <time>2013-09-15T04:39:45Z</time>
      </trkpt>
      <trkpt lat="-20.90463" lon="55.41088">
        <ele>471.8</ele>
        <time>2013-09-15T04:39:51Z</time>
      </trkpt>
      <trkpt lat="-20.90456" lon="55.41087">
        <ele>469.7</ele>
        <time>2013-09-15T04:39:54Z</time>
      </trkpt>
      <trkpt lat="-20.90453" lon="55.41086">
        <ele>469.1</ele>
        <time>2013-09-15T04:39:55Z</time>
      </trkpt>
      <trkpt lat="-20.90441" lon="55.41086">
        <ele>465</ele>
        <time>2013-09-15T04:40:02Z</time>
      </trkpt>
      <trkpt lat="-20.90435" lon="55.41082">
        <ele>463.1</ele>
        <time>2013-09-15T04:40:06Z</time>
      </trkpt>
      <trkpt lat="-20.90428" lon="55.41077">
        <ele>459.6</ele>
        <time>2013-09-15T04:40:12Z</time>
      </trkpt>
      <trkpt lat="-20.90423" lon="55.4107">
        <ele>457.6</ele>
        <time>2013-09-15T04:40:16Z</time>
      </trkpt>
      <trkpt lat="-20.90416" lon="55.41064">
        <ele>455.4</ele>
        <time>2013-09-15T04:40:20Z</time>
      </trkpt>
      <trkpt lat="-20.90407" lon="55.41063">
        <ele>454.8</ele>
        <time>2013-09-15T04:40:24Z</time>
      </trkpt>
      <trkpt lat="-20.904" lon="55.4106">
        <ele>454.3</ele>
        <time>2013-09-15T04:40:28Z</time>
      </trkpt>
      <trkpt lat="-20.90393" lon="55.41057">
        <ele>453.7</ele>
        <time>2013-09-15T04:40:31Z</time>
      </trkpt>
      <trkpt lat="-20.90384" lon="55.4106">
        <ele>451.8</ele>
        <time>2013-09-15T04:40:36Z</time>
      </trkpt>
      <trkpt lat="-20.90377" lon="55.41062">
        <ele>450.4</ele>
        <time>2013-09-15T04:40:40Z</time>
      </trkpt>
      <trkpt lat="-20.9037" lon="55.41064">
        <ele>447.4</ele>
        <time>2013-09-15T04:40:44Z</time>
      </trkpt>
      <trkpt lat="-20.90363" lon="55.41066">
        <ele>445.8</ele>
        <time>2013-09-15T04:40:48Z</time>
      </trkpt>
      <trkpt lat="-20.90355" lon="55.41065">
        <ele>444.2</ele>
        <time>2013-09-15T04:40:52Z</time>
      </trkpt>
      <trkpt lat="-20.90349" lon="55.41062">
        <ele>442.7</ele>
        <time>2013-09-15T04:40:55Z</time>
      </trkpt>
      <trkpt lat="-20.90347" lon="55.41061">
        <ele>442.4</ele>
        <time>2013-09-15T04:40:56Z</time>
      </trkpt>
      <trkpt lat="-20.90333" lon="55.41063">
        <ele>438.7</ele>
        <time>2013-09-15T04:41:04Z</time>
      </trkpt>
      <trkpt lat="-20.90326" lon="55.41066">
        <ele>437.5</ele>
        <time>2013-09-15T04:41:07Z</time>
      </trkpt>
      <trkpt lat="-20.9032" lon="55.41072">
        <ele>435.3</ele>
        <time>2013-09-15T04:41:13Z</time>
      </trkpt>
      <trkpt lat="-20.90315" lon="55.41078">
        <ele>432.9</ele>
        <time>2013-09-15T04:41:17Z</time>
      </trkpt>
      <trkpt lat="-20.90312" lon="55.41086">
        <ele>430.4</ele>
        <time>2013-09-15T04:41:22Z</time>
      </trkpt>
      <trkpt lat="-20.90309" lon="55.41095">
        <ele>427.8</ele>
        <time>2013-09-15T04:41:26Z</time>
      </trkpt>
      <trkpt lat="-20.90305" lon="55.41101">
        <ele>425.6</ele>
        <time>2013-09-15T04:41:30Z</time>
      </trkpt>
      <trkpt lat="-20.90297" lon="55.41101">
        <ele>422.2</ele>
        <time>2013-09-15T04:41:35Z</time>
      </trkpt>
      <trkpt lat="-20.90289" lon="55.411">
        <ele>420.3</ele>
        <time>2013-09-15T04:41:39Z</time>
      </trkpt>
      <trkpt lat="-20.90281" lon="55.41102">
        <ele>419.5</ele>
        <time>2013-09-15T04:41:44Z</time>
      </trkpt>
      <trkpt lat="-20.90274" lon="55.41098">
        <ele>418.2</ele>
        <time>2013-09-15T04:41:48Z</time>
      </trkpt>
      <trkpt lat="-20.90265" lon="55.41097">
        <ele>416.7</ele>
        <time>2013-09-15T04:41:53Z</time>
      </trkpt>
      <trkpt lat="-20.90261" lon="55.41105">
        <ele>416</ele>
        <time>2013-09-15T04:41:59Z</time>
      </trkpt>
      <trkpt lat="-20.90261" lon="55.41107">
        <ele>416.2</ele>
        <time>2013-09-15T04:42:00Z</time>
      </trkpt>
      <trkpt lat="-20.90255" lon="55.41121">
        <ele>414.3</ele>
        <time>2013-09-15T04:42:07Z</time>
      </trkpt>
      <trkpt lat="-20.90248" lon="55.41127">
        <ele>412.6</ele>
        <time>2013-09-15T04:42:11Z</time>
      </trkpt>
      <trkpt lat="-20.90243" lon="55.41132">
        <ele>412.3</ele>
        <time>2013-09-15T04:42:14Z</time>
      </trkpt>
      <trkpt lat="-20.90234" lon="55.41135">
        <ele>409.8</ele>
        <time>2013-09-15T04:42:19Z</time>
      </trkpt>
      <trkpt lat="-20.90232" lon="55.41126">
        <ele>409.8</ele>
        <time>2013-09-15T04:42:25Z</time>
      </trkpt>
      <trkpt lat="-20.9023" lon="55.41119">
        <ele>409.8</ele>
        <time>2013-09-15T04:42:29Z</time>
      </trkpt>
      <trkpt lat="-20.90229" lon="55.41111">
        <ele>409.8</ele>
        <time>2013-09-15T04:42:33Z</time>
      </trkpt>
      <trkpt lat="-20.90225" lon="55.41103">
        <ele>410.4</ele>
        <time>2013-09-15T04:42:38Z</time>
      </trkpt>
      <trkpt lat="-20.90218" lon="55.41099">
        <ele>411.2</ele>
        <time>2013-09-15T04:42:42Z</time>
      </trkpt>
      <trkpt lat="-20.90211" lon="55.41096">
        <ele>410.9</ele>
        <time>2013-09-15T04:42:46Z</time>
      </trkpt>
      <trkpt lat="-20.90205" lon="55.41091">
        <ele>409.1</ele>
        <time>2013-09-15T04:42:51Z</time>
      </trkpt>
      <trkpt lat="-20.90199" lon="55.41085">
        <ele>407.5</ele>
        <time>2013-09-15T04:42:55Z</time>
      </trkpt>
      <trkpt lat="-20.90193" lon="55.41079">
        <ele>405.8</ele>
        <time>2013-09-15T04:42:59Z</time>
      </trkpt>
      <trkpt lat="-20.90188" lon="55.41074">
        <ele>404</ele>
        <time>2013-09-15T04:43:02Z</time>
      </trkpt>
      <trkpt lat="-20.90186" lon="55.41072">
        <ele>403.3</ele>
        <time>2013-09-15T04:43:03Z</time>
      </trkpt>
      <trkpt lat="-20.90178" lon="55.41064">
        <ele>401.4</ele>
        <time>2013-09-15T04:43:08Z</time>
      </trkpt>
      <trkpt lat="-20.90172" lon="55.41058">
        <ele>400.3</ele>
        <time>2013-09-15T04:43:12Z</time>
      </trkpt>
      <trkpt lat="-20.90165" lon="55.41056">
        <ele>399.8</ele>
        <time>2013-09-15T04:43:16Z</time>
      </trkpt>
      <trkpt lat="-20.90158" lon="55.41052">
        <ele>398.6</ele>
        <time>2013-09-15T04:43:21Z</time>
      </trkpt>
      <trkpt lat="-20.90156" lon="55.41043">
        <ele>396.7</ele>
        <time>2013-09-15T04:43:25Z</time>
      </trkpt>
      <trkpt lat="-20.90154" lon="55.41035">
        <ele>394</ele>
        <time>2013-09-15T04:43:29Z</time>
      </trkpt>
      <trkpt lat="-20.90151" lon="55.41028">
        <ele>392.6</ele>
        <time>2013-09-15T04:43:33Z</time>
      </trkpt>
      <trkpt lat="-20.90146" lon="55.41022">
        <ele>390.5</ele>
        <time>2013-09-15T04:43:37Z</time>
      </trkpt>
      <trkpt lat="-20.90138" lon="55.41017">
        <ele>389.8</ele>
        <time>2013-09-15T04:43:41Z</time>
      </trkpt>
      <trkpt lat="-20.90132" lon="55.41011">
        <ele>388.4</ele>
        <time>2013-09-15T04:43:45Z</time>
      </trkpt>
      <trkpt lat="-20.90126" lon="55.41006">
        <ele>387.2</ele>
        <time>2013-09-15T04:43:48Z</time>
      </trkpt>
      <trkpt lat="-20.90122" lon="55.41">
        <ele>386.8</ele>
        <time>2013-09-15T04:43:51Z</time>
      </trkpt>
      <trkpt lat="-20.90117" lon="55.40995">
        <ele>385.3</ele>
        <time>2013-09-15T04:43:54Z</time>
      </trkpt>
      <trkpt lat="-20.90113" lon="55.4099">
        <ele>384.4</ele>
        <time>2013-09-15T04:43:57Z</time>
      </trkpt>
      <trkpt lat="-20.90111" lon="55.40982">
        <ele>383.6</ele>
        <time>2013-09-15T04:44:00Z</time>
      </trkpt>
      <trkpt lat="-20.90112" lon="55.40975">
        <ele>382.7</ele>
        <time>2013-09-15T04:44:03Z</time>
      </trkpt>
      <trkpt lat="-20.90113" lon="55.40972">
        <ele>382.2</ele>
        <time>2013-09-15T04:44:04Z</time>
      </trkpt>
      <trkpt lat="-20.90115" lon="55.4096">
        <ele>380.8</ele>
        <time>2013-09-15T04:44:09Z</time>
      </trkpt>
      <trkpt lat="-20.90115" lon="55.40952">
        <ele>380.6</ele>
        <time>2013-09-15T04:44:12Z</time>
      </trkpt>
      <trkpt lat="-20.90115" lon="55.40944">
        <ele>379.7</ele>
        <time>2013-09-15T04:44:15Z</time>
      </trkpt>
      <trkpt lat="-20.90116" lon="55.40935">
        <ele>378.3</ele>
        <time>2013-09-15T04:44:19Z</time>
      </trkpt>
      <trkpt lat="-20.90121" lon="55.40928">
        <ele>377.7</ele>
        <time>2013-09-15T04:44:23Z</time>
      </trkpt>
      <trkpt lat="-20.90128" lon="55.40923">
        <ele>378.8</ele>
        <time>2013-09-15T04:44:27Z</time>
      </trkpt>
      <trkpt lat="-20.90134" lon="55.40919">
        <ele>379.2</ele>
        <time>2013-09-15T04:44:30Z</time>
      </trkpt>
      <trkpt lat="-20.90138" lon="55.40913">
        <ele>379.3</ele>
        <time>2013-09-15T04:44:33Z</time>
      </trkpt>
      <trkpt lat="-20.90142" lon="55.40905">
        <ele>379.8</ele>
        <time>2013-09-15T04:44:37Z</time>
      </trkpt>
      <trkpt lat="-20.90145" lon="55.40898">
        <ele>379.9</ele>
        <time>2013-09-15T04:44:40Z</time>
      </trkpt>
      <trkpt lat="-20.90147" lon="55.40889">
        <ele>380.4</ele>
        <time>2013-09-15T04:44:44Z</time>
      </trkpt>
      <trkpt lat="-20.90149" lon="55.40881">
        <ele>380.3</ele>
        <time>2013-09-15T04:44:48Z</time>
      </trkpt>
      <trkpt lat="-20.90151" lon="55.40873">
        <ele>381.1</ele>
        <time>2013-09-15T04:44:52Z</time>
      </trkpt>
      <trkpt lat="-20.90153" lon="55.40865">
        <ele>381.5</ele>
        <time>2013-09-15T04:44:56Z</time>
      </trkpt>
      <trkpt lat="-20.90156" lon="55.40856">
        <ele>380.8</ele>
        <time>2013-09-15T04:45:02Z</time>
      </trkpt>
      <trkpt lat="-20.90157" lon="55.40847">
        <ele>382.1</ele>
        <time>2013-09-15T04:45:08Z</time>
      </trkpt>
      <trkpt lat="-20.90157" lon="55.40845">
        <ele>382.1</ele>
        <time>2013-09-15T04:45:09Z</time>
      </trkpt>
      <trkpt lat="-20.90159" lon="55.40831">
        <ele>382.8</ele>
        <time>2013-09-15T04:45:17Z</time>
      </trkpt>
      <trkpt lat="-20.90161" lon="55.40822">
        <ele>383.2</ele>
        <time>2013-09-15T04:45:21Z</time>
      </trkpt>
      <trkpt lat="-20.90162" lon="55.40814">
        <ele>382.9</ele>
        <time>2013-09-15T04:45:25Z</time>
      </trkpt>
      <trkpt lat="-20.90165" lon="55.40805">
        <ele>383</ele>
        <time>2013-09-15T04:45:29Z</time>
      </trkpt>
      <trkpt lat="-20.90167" lon="55.40798">
        <ele>383</ele>
        <time>2013-09-15T04:45:32Z</time>
      </trkpt>
      <trkpt lat="-20.90169" lon="55.4079">
        <ele>383.7</ele>
        <time>2013-09-15T04:45:36Z</time>
      </trkpt>
      <trkpt lat="-20.90171" lon="55.40781">
        <ele>385.1</ele>
        <time>2013-09-15T04:45:40Z</time>
      </trkpt>
      <trkpt lat="-20.90175" lon="55.40774">
        <ele>384.3</ele>
        <time>2013-09-15T04:45:43Z</time>
      </trkpt>
      <trkpt lat="-20.90179" lon="55.40767">
        <ele>384.2</ele>
        <time>2013-09-15T04:45:46Z</time>
      </trkpt>
      <trkpt lat="-20.90182" lon="55.40761">
        <ele>384.3</ele>
        <time>2013-09-15T04:45:49Z</time>
      </trkpt>
      <trkpt lat="-20.90187" lon="55.40754">
        <ele>383.5</ele>
        <time>2013-09-15T04:45:52Z</time>
      </trkpt>
      <trkpt lat="-20.9019" lon="55.40747">
        <ele>382.1</ele>
        <time>2013-09-15T04:45:55Z</time>
      </trkpt>
      <trkpt lat="-20.90193" lon="55.4074">
        <ele>380.5</ele>
        <time>2013-09-15T04:45:58Z</time>
      </trkpt>
      <trkpt lat="-20.90196" lon="55.40734">
        <ele>379.7</ele>
        <time>2013-09-15T04:46:01Z</time>
      </trkpt>
      <trkpt lat="-20.902" lon="55.40726">
        <ele>379.2</ele>
        <time>2013-09-15T04:46:05Z</time>
      </trkpt>
      <trkpt lat="-20.90205" lon="55.4072">
        <ele>378.1</ele>
        <time>2013-09-15T04:46:09Z</time>
      </trkpt>
      <trkpt lat="-20.90206" lon="55.40718">
        <ele>377.8</ele>
        <time>2013-09-15T04:46:10Z</time>
      </trkpt>
      <trkpt lat="-20.9021" lon="55.40704">
        <ele>374.5</ele>
        <time>2013-09-15T04:46:19Z</time>
      </trkpt>
      <trkpt lat="-20.90211" lon="55.40696">
        <ele>371.6</ele>
        <time>2013-09-15T04:46:26Z</time>
      </trkpt>
      <trkpt lat="-20.90213" lon="55.40688">
        <ele>368.8</ele>
        <time>2013-09-15T04:46:32Z</time>
      </trkpt>
      <trkpt lat="-20.9022" lon="55.40685">
        <ele>367.1</ele>
        <time>2013-09-15T04:46:37Z</time>
      </trkpt>
      <trkpt lat="-20.90227" lon="55.40682">
        <ele>365</ele>
        <time>2013-09-15T04:46:43Z</time>
      </trkpt>
      <trkpt lat="-20.90233" lon="55.40676">
        <ele>364.6</ele>
        <time>2013-09-15T04:46:49Z</time>
      </trkpt>
      <trkpt lat="-20.90235" lon="55.40667">
        <ele>366.6</ele>
        <time>2013-09-15T04:47:01Z</time>
      </trkpt>
      <trkpt lat="-20.90234" lon="55.40658">
        <ele>370.5</ele>
        <time>2013-09-15T04:47:18Z</time>
      </trkpt>
      <trkpt lat="-20.90234" lon="55.40656">
        <ele>370.5</ele>
        <time>2013-09-15T04:47:19Z</time>
      </trkpt>
      <trkpt lat="-20.90238" lon="55.40641">
        <ele>374.2</ele>
        <time>2013-09-15T04:47:34Z</time>
      </trkpt>
      <trkpt lat="-20.90245" lon="55.40635">
        <ele>375.7</ele>
        <time>2013-09-15T04:47:43Z</time>
      </trkpt>
      <trkpt lat="-20.90253" lon="55.40634">
        <ele>378</ele>
        <time>2013-09-15T04:47:50Z</time>
      </trkpt>
      <trkpt lat="-20.90261" lon="55.4063">
        <ele>380.9</ele>
        <time>2013-09-15T04:47:59Z</time>
      </trkpt>
      <trkpt lat="-20.90269" lon="55.40626">
        <ele>382</ele>
        <time>2013-09-15T04:48:06Z</time>
      </trkpt>
      <trkpt lat="-20.90274" lon="55.40618">
        <ele>383</ele>
        <time>2013-09-15T04:48:12Z</time>
      </trkpt>
      <trkpt lat="-20.90282" lon="55.40614">
        <ele>385.2</ele>
        <time>2013-09-15T04:48:21Z</time>
      </trkpt>
      <trkpt lat="-20.90283" lon="55.40614">
        <ele>385.2</ele>
        <time>2013-09-15T04:48:22Z</time>
      </trkpt>
      <trkpt lat="-20.90298" lon="55.40611">
        <ele>387.9</ele>
        <time>2013-09-15T04:48:37Z</time>
      </trkpt>
      <trkpt lat="-20.90301" lon="55.40602">
        <ele>388.8</ele>
        <time>2013-09-15T04:48:42Z</time>
      </trkpt>
      <trkpt lat="-20.90308" lon="55.40597">
        <ele>389.9</ele>
        <time>2013-09-15T04:48:49Z</time>
      </trkpt>
      <trkpt lat="-20.90316" lon="55.40595">
        <ele>391.4</ele>
        <time>2013-09-15T04:48:56Z</time>
      </trkpt>
      <trkpt lat="-20.90317" lon="55.40586">
        <ele>394.4</ele>
        <time>2013-09-15T04:49:09Z</time>
      </trkpt>
      <trkpt lat="-20.90311" lon="55.4058">
        <ele>395</ele>
        <time>2013-09-15T04:49:16Z</time>
      </trkpt>
      <trkpt lat="-20.90303" lon="55.40578">
        <ele>396.8</ele>
        <time>2013-09-15T04:49:25Z</time>
      </trkpt>
      <trkpt lat="-20.90302" lon="55.40578">
        <ele>396.9</ele>
        <time>2013-09-15T04:49:26Z</time>
      </trkpt>
      <trkpt lat="-20.90287" lon="55.40582">
        <ele>400.4</ele>
        <time>2013-09-15T04:49:47Z</time>
      </trkpt>
      <trkpt lat="-20.9028" lon="55.40582">
        <ele>401.2</ele>
        <time>2013-09-15T04:49:51Z</time>
      </trkpt>
      <trkpt lat="-20.90272" lon="55.40579">
        <ele>401.8</ele>
        <time>2013-09-15T04:49:56Z</time>
      </trkpt>
      <trkpt lat="-20.90266" lon="55.40573">
        <ele>403.6</ele>
        <time>2013-09-15T04:50:05Z</time>
      </trkpt>
      <trkpt lat="-20.90258" lon="55.40569">
        <ele>405.6</ele>
        <time>2013-09-15T04:50:17Z</time>
      </trkpt>
      <trkpt lat="-20.90257" lon="55.4056">
        <ele>413</ele>
        <time>2013-09-15T04:50:48Z</time>
      </trkpt>
      <trkpt lat="-20.90257" lon="55.40559">
        <ele>413.1</ele>
        <time>2013-09-15T04:50:49Z</time>
      </trkpt>
      <trkpt lat="-20.90269" lon="55.40549">
        <ele>419.4</ele>
        <time>2013-09-15T04:51:18Z</time>
      </trkpt>
      <trkpt lat="-20.90277" lon="55.40546">
        <ele>420.1</ele>
        <time>2013-09-15T04:51:25Z</time>
      </trkpt>
      <trkpt lat="-20.90285" lon="55.40543">
        <ele>421.5</ele>
        <time>2013-09-15T04:51:32Z</time>
      </trkpt>
      <trkpt lat="-20.90293" lon="55.4054">
        <ele>423.2</ele>
        <time>2013-09-15T04:51:39Z</time>
      </trkpt>
      <trkpt lat="-20.90299" lon="55.40534">
        <ele>423.5</ele>
        <time>2013-09-15T04:51:47Z</time>
      </trkpt>
      <trkpt lat="-20.90303" lon="55.40526">
        <ele>425.9</ele>
        <time>2013-09-15T04:51:54Z</time>
      </trkpt>
      <trkpt lat="-20.90303" lon="55.40524">
        <ele>426.1</ele>
        <time>2013-09-15T04:51:55Z</time>
      </trkpt>
      <trkpt lat="-20.90293" lon="55.40514">
        <ele>427.5</ele>
        <time>2013-09-15T04:52:08Z</time>
      </trkpt>
      <trkpt lat="-20.90284" lon="55.40513">
        <ele>429</ele>
        <time>2013-09-15T04:52:15Z</time>
      </trkpt>
      <trkpt lat="-20.90276" lon="55.40511">
        <ele>429.9</ele>
        <time>2013-09-15T04:52:21Z</time>
      </trkpt>
      <trkpt lat="-20.90268" lon="55.40513">
        <ele>430.7</ele>
        <time>2013-09-15T04:52:29Z</time>
      </trkpt>
      <trkpt lat="-20.9026" lon="55.40512">
        <ele>433</ele>
        <time>2013-09-15T04:52:35Z</time>
      </trkpt>
      <trkpt lat="-20.90252" lon="55.40511">
        <ele>434</ele>
        <time>2013-09-15T04:52:41Z</time>
      </trkpt>
      <trkpt lat="-20.90244" lon="55.40508">
        <ele>435.6</ele>
        <time>2013-09-15T04:52:47Z</time>
      </trkpt>
      <trkpt lat="-20.90237" lon="55.40505">
        <ele>437.1</ele>
        <time>2013-09-15T04:52:53Z</time>
      </trkpt>
      <trkpt lat="-20.90229" lon="55.40502">
        <ele>438.2</ele>
        <time>2013-09-15T04:52:59Z</time>
      </trkpt>
      <trkpt lat="-20.90228" lon="55.40502">
        <ele>438.2</ele>
        <time>2013-09-15T04:53:00Z</time>
      </trkpt>
      <trkpt lat="-20.90213" lon="55.40496">
        <ele>439.1</ele>
        <time>2013-09-15T04:53:12Z</time>
      </trkpt>
      <trkpt lat="-20.90205" lon="55.40491">
        <ele>440.5</ele>
        <time>2013-09-15T04:53:19Z</time>
      </trkpt>
      <trkpt lat="-20.90201" lon="55.40483">
        <ele>442.1</ele>
        <time>2013-09-15T04:53:27Z</time>
      </trkpt>
      <trkpt lat="-20.90204" lon="55.40474">
        <ele>443.2</ele>
        <time>2013-09-15T04:53:35Z</time>
      </trkpt>
      <trkpt lat="-20.9021" lon="55.40467">
        <ele>445.5</ele>
        <time>2013-09-15T04:53:42Z</time>
      </trkpt>
      <trkpt lat="-20.90215" lon="55.4046">
        <ele>447.3</ele>
        <time>2013-09-15T04:53:49Z</time>
      </trkpt>
      <trkpt lat="-20.90217" lon="55.40452">
        <ele>448.3</ele>
        <time>2013-09-15T04:53:55Z</time>
      </trkpt>
      <trkpt lat="-20.90215" lon="55.40444">
        <ele>449.7</ele>
        <time>2013-09-15T04:54:03Z</time>
      </trkpt>
      <trkpt lat="-20.90215" lon="55.40442">
        <ele>449.7</ele>
        <time>2013-09-15T04:54:04Z</time>
      </trkpt>
      <trkpt lat="-20.90209" lon="55.40428">
        <ele>452.9</ele>
        <time>2013-09-15T04:54:17Z</time>
      </trkpt>
      <trkpt lat="-20.90208" lon="55.40418">
        <ele>453.8</ele>
        <time>2013-09-15T04:54:24Z</time>
      </trkpt>
      <trkpt lat="-20.90208" lon="55.4041">
        <ele>454.9</ele>
        <time>2013-09-15T04:54:30Z</time>
      </trkpt>
      <trkpt lat="-20.90208" lon="55.40401">
        <ele>456.3</ele>
        <time>2013-09-15T04:54:36Z</time>
      </trkpt>
      <trkpt lat="-20.90208" lon="55.40392">
        <ele>455.8</ele>
        <time>2013-09-15T04:54:42Z</time>
      </trkpt>
      <trkpt lat="-20.90207" lon="55.40384">
        <ele>456.7</ele>
        <time>2013-09-15T04:54:47Z</time>
      </trkpt>
      <trkpt lat="-20.90207" lon="55.40374">
        <ele>457.5</ele>
        <time>2013-09-15T04:54:54Z</time>
      </trkpt>
      <trkpt lat="-20.90205" lon="55.40365">
        <ele>457.9</ele>
        <time>2013-09-15T04:55:00Z</time>
      </trkpt>
      <trkpt lat="-20.90204" lon="55.40356">
        <ele>459.1</ele>
        <time>2013-09-15T04:55:07Z</time>
      </trkpt>
      <trkpt lat="-20.90204" lon="55.40355">
        <ele>459.5</ele>
        <time>2013-09-15T04:55:08Z</time>
      </trkpt>
      <trkpt lat="-20.90198" lon="55.4034">
        <ele>461</ele>
        <time>2013-09-15T04:55:21Z</time>
      </trkpt>
      <trkpt lat="-20.90194" lon="55.40331">
        <ele>461.6</ele>
        <time>2013-09-15T04:55:36Z</time>
      </trkpt>
      <trkpt lat="-20.90189" lon="55.40324">
        <ele>461.1</ele>
        <time>2013-09-15T04:56:05Z</time>
      </trkpt>
      <trkpt lat="-20.90188" lon="55.40315">
        <ele>461.6</ele>
        <time>2013-09-15T04:56:15Z</time>
      </trkpt>
      <trkpt lat="-20.90187" lon="55.40314">
        <ele>461.5</ele>
        <time>2013-09-15T04:56:16Z</time>
      </trkpt>
      <trkpt lat="-20.90185" lon="55.40297">
        <ele>462.3</ele>
        <time>2013-09-15T04:56:30Z</time>
      </trkpt>
      <trkpt lat="-20.90182" lon="55.40289">
        <ele>461.2</ele>
        <time>2013-09-15T04:56:37Z</time>
      </trkpt>
      <trkpt lat="-20.90179" lon="55.40281">
        <ele>460.6</ele>
        <time>2013-09-15T04:56:43Z</time>
      </trkpt>
      <trkpt lat="-20.90179" lon="55.40271">
        <ele>461.1</ele>
        <time>2013-09-15T04:56:49Z</time>
      </trkpt>
      <trkpt lat="-20.90178" lon="55.40262">
        <ele>460.7</ele>
        <time>2013-09-15T04:56:56Z</time>
      </trkpt>
      <trkpt lat="-20.90176" lon="55.40253">
        <ele>460.6</ele>
        <time>2013-09-15T04:57:02Z</time>
      </trkpt>
      <trkpt lat="-20.90174" lon="55.40244">
        <ele>461.5</ele>
        <time>2013-09-15T04:57:08Z</time>
      </trkpt>
      <trkpt lat="-20.90173" lon="55.40235">
        <ele>461.3</ele>
        <time>2013-09-15T04:57:14Z</time>
      </trkpt>
      <trkpt lat="-20.90173" lon="55.40225">
        <ele>461.1</ele>
        <time>2013-09-15T04:57:20Z</time>
      </trkpt>
      <trkpt lat="-20.90173" lon="55.40223">
        <ele>461</ele>
        <time>2013-09-15T04:57:21Z</time>
      </trkpt>
      <trkpt lat="-20.90172" lon="55.40208">
        <ele>459.5</ele>
        <time>2013-09-15T04:57:27Z</time>
      </trkpt>
      <trkpt lat="-20.90172" lon="55.402">
        <ele>458.8</ele>
        <time>2013-09-15T04:57:30Z</time>
      </trkpt>
      <trkpt lat="-20.90172" lon="55.40192">
        <ele>458.5</ele>
        <time>2013-09-15T04:57:33Z</time>
      </trkpt>
      <trkpt lat="-20.90172" lon="55.40183">
        <ele>458.3</ele>
        <time>2013-09-15T04:57:36Z</time>
      </trkpt>
      <trkpt lat="-20.90173" lon="55.40175">
        <ele>458.7</ele>
        <time>2013-09-15T04:57:39Z</time>
      </trkpt>
      <trkpt lat="-20.90173" lon="55.40167">
        <ele>458.8</ele>
        <time>2013-09-15T04:57:42Z</time>
      </trkpt>
      <trkpt lat="-20.90173" lon="55.40159">
        <ele>458.8</ele>
        <time>2013-09-15T04:57:45Z</time>
      </trkpt>
      <trkpt lat="-20.90173" lon="55.40152">
        <ele>458.6</ele>
        <time>2013-09-15T04:57:48Z</time>
      </trkpt>
      <trkpt lat="-20.90174" lon="55.40144">
        <ele>458.2</ele>
        <time>2013-09-15T04:57:51Z</time>
      </trkpt>
      <trkpt lat="-20.90174" lon="55.40136">
        <ele>458.4</ele>
        <time>2013-09-15T04:57:54Z</time>
      </trkpt>
      <trkpt lat="-20.90175" lon="55.40129">
        <ele>458.3</ele>
        <time>2013-09-15T04:57:57Z</time>
      </trkpt>
      <trkpt lat="-20.90175" lon="55.40121">
        <ele>458.8</ele>
        <time>2013-09-15T04:58:00Z</time>
      </trkpt>
      <trkpt lat="-20.90176" lon="55.40114">
        <ele>458.5</ele>
        <time>2013-09-15T04:58:03Z</time>
      </trkpt>
      <trkpt lat="-20.90176" lon="55.40106">
        <ele>458.5</ele>
        <time>2013-09-15T04:58:06Z</time>
      </trkpt>
      <trkpt lat="-20.90177" lon="55.40099">
        <ele>458.5</ele>
        <time>2013-09-15T04:58:09Z</time>
      </trkpt>
      <trkpt lat="-20.90177" lon="55.4009">
        <ele>458.8</ele>
        <time>2013-09-15T04:58:13Z</time>
      </trkpt>
      <trkpt lat="-20.90177" lon="55.40081">
        <ele>459.2</ele>
        <time>2013-09-15T04:58:17Z</time>
      </trkpt>
      <trkpt lat="-20.90177" lon="55.40072">
        <ele>459.5</ele>
        <time>2013-09-15T04:58:21Z</time>
      </trkpt>
      <trkpt lat="-20.90177" lon="55.4007">
        <ele>459.6</ele>
        <time>2013-09-15T04:58:22Z</time>
      </trkpt>
      <trkpt lat="-20.90177" lon="55.40055">
        <ele>459.9</ele>
        <time>2013-09-15T04:58:29Z</time>
      </trkpt>
      <trkpt lat="-20.90176" lon="55.40046">
        <ele>459.9</ele>
        <time>2013-09-15T04:58:33Z</time>
      </trkpt>
      <trkpt lat="-20.90176" lon="55.40038">
        <ele>459.7</ele>
        <time>2013-09-15T04:58:37Z</time>
      </trkpt>
      <trkpt lat="-20.90176" lon="55.40028">
        <ele>460.2</ele>
        <time>2013-09-15T04:58:41Z</time>
      </trkpt>
      <trkpt lat="-20.90177" lon="55.40019">
        <ele>460.1</ele>
        <time>2013-09-15T04:58:45Z</time>
      </trkpt>
      <trkpt lat="-20.90179" lon="55.4001">
        <ele>459.8</ele>
        <time>2013-09-15T04:58:49Z</time>
      </trkpt>
      <trkpt lat="-20.9018" lon="55.40001">
        <ele>459.5</ele>
        <time>2013-09-15T04:58:53Z</time>
      </trkpt>
      <trkpt lat="-20.90181" lon="55.39994">
        <ele>459.8</ele>
        <time>2013-09-15T04:58:56Z</time>
      </trkpt>
      <trkpt lat="-20.90183" lon="55.39985">
        <ele>459.5</ele>
        <time>2013-09-15T04:59:00Z</time>
      </trkpt>
      <trkpt lat="-20.90185" lon="55.39976">
        <ele>459.6</ele>
        <time>2013-09-15T04:59:04Z</time>
      </trkpt>
      <trkpt lat="-20.90186" lon="55.39967">
        <ele>459.6</ele>
        <time>2013-09-15T04:59:08Z</time>
      </trkpt>
      <trkpt lat="-20.90187" lon="55.39959">
        <ele>458.9</ele>
        <time>2013-09-15T04:59:11Z</time>
      </trkpt>
      <trkpt lat="-20.90189" lon="55.39951">
        <ele>458.2</ele>
        <time>2013-09-15T04:59:14Z</time>
      </trkpt>
      <trkpt lat="-20.90192" lon="55.39944">
        <ele>457.2</ele>
        <time>2013-09-15T04:59:17Z</time>
      </trkpt>
      <trkpt lat="-20.90195" lon="55.39936">
        <ele>456.8</ele>
        <time>2013-09-15T04:59:20Z</time>
      </trkpt>
      <trkpt lat="-20.90197" lon="55.39928">
        <ele>456.8</ele>
        <time>2013-09-15T04:59:23Z</time>
      </trkpt>
      <trkpt lat="-20.90198" lon="55.39926">
        <ele>456.2</ele>
        <time>2013-09-15T04:59:24Z</time>
      </trkpt>
      <trkpt lat="-20.90202" lon="55.39913">
        <ele>455.9</ele>
        <time>2013-09-15T04:59:29Z</time>
      </trkpt>
      <trkpt lat="-20.90206" lon="55.39906">
        <ele>455</ele>
        <time>2013-09-15T04:59:32Z</time>
      </trkpt>
      <trkpt lat="-20.90209" lon="55.39899">
        <ele>453.9</ele>
        <time>2013-09-15T04:59:35Z</time>
      </trkpt>
      <trkpt lat="-20.90213" lon="55.39892">
        <ele>453.4</ele>
        <time>2013-09-15T04:59:38Z</time>
      </trkpt>
      <trkpt lat="-20.90217" lon="55.39885">
        <ele>452.8</ele>
        <time>2013-09-15T04:59:41Z</time>
      </trkpt>
      <trkpt lat="-20.90221" lon="55.39879">
        <ele>451.9</ele>
        <time>2013-09-15T04:59:44Z</time>
      </trkpt>
      <trkpt lat="-20.90226" lon="55.39873">
        <ele>451.7</ele>
        <time>2013-09-15T04:59:47Z</time>
      </trkpt>
      <trkpt lat="-20.9023" lon="55.39866">
        <ele>451</ele>
        <time>2013-09-15T04:59:50Z</time>
      </trkpt>
      <trkpt lat="-20.90235" lon="55.39861">
        <ele>450.6</ele>
        <time>2013-09-15T04:59:53Z</time>
      </trkpt>
      <trkpt lat="-20.90241" lon="55.39858">
        <ele>449.9</ele>
        <time>2013-09-15T04:59:56Z</time>
      </trkpt>
      <trkpt lat="-20.90247" lon="55.39854">
        <ele>449.3</ele>
        <time>2013-09-15T04:59:59Z</time>
      </trkpt>
      <trkpt lat="-20.90254" lon="55.39851">
        <ele>448.2</ele>
        <time>2013-09-15T05:00:02Z</time>
      </trkpt>
      <trkpt lat="-20.9026" lon="55.39848">
        <ele>446.7</ele>
        <time>2013-09-15T05:00:05Z</time>
      </trkpt>
      <trkpt lat="-20.90267" lon="55.39842">
        <ele>445.8</ele>
        <time>2013-09-15T05:00:09Z</time>
      </trkpt>
      <trkpt lat="-20.90273" lon="55.39837">
        <ele>445.3</ele>
        <time>2013-09-15T05:00:12Z</time>
      </trkpt>
      <trkpt lat="-20.90279" lon="55.39832">
        <ele>444.7</ele>
        <time>2013-09-15T05:00:15Z</time>
      </trkpt>
      <trkpt lat="-20.90286" lon="55.39827">
        <ele>442.7</ele>
        <time>2013-09-15T05:00:19Z</time>
      </trkpt>
      <trkpt lat="-20.90293" lon="55.39823">
        <ele>440.8</ele>
        <time>2013-09-15T05:00:24Z</time>
      </trkpt>
      <trkpt lat="-20.90296" lon="55.39822">
        <ele>440.6</ele>
        <time>2013-09-15T05:00:25Z</time>
      </trkpt>
      <trkpt lat="-20.90308" lon="55.39823">
        <ele>437.9</ele>
        <time>2013-09-15T05:00:30Z</time>
      </trkpt>
      <trkpt lat="-20.90314" lon="55.39826">
        <ele>437.1</ele>
        <time>2013-09-15T05:00:33Z</time>
      </trkpt>
      <trkpt lat="-20.90321" lon="55.3983">
        <ele>436.7</ele>
        <time>2013-09-15T05:00:36Z</time>
      </trkpt>
      <trkpt lat="-20.90327" lon="55.39834">
        <ele>436.7</ele>
        <time>2013-09-15T05:00:39Z</time>
      </trkpt>
      <trkpt lat="-20.90333" lon="55.39837">
        <ele>435.4</ele>
        <time>2013-09-15T05:00:42Z</time>
      </trkpt>
      <trkpt lat="-20.9034" lon="55.39841">
        <ele>434.8</ele>
        <time>2013-09-15T05:00:45Z</time>
      </trkpt>
      <trkpt lat="-20.90346" lon="55.39845">
        <ele>435</ele>
        <time>2013-09-15T05:00:48Z</time>
      </trkpt>
      <trkpt lat="-20.90352" lon="55.3985">
        <ele>434.8</ele>
        <time>2013-09-15T05:00:51Z</time>
      </trkpt>
      <trkpt lat="-20.90358" lon="55.39857">
        <ele>434.6</ele>
        <time>2013-09-15T05:00:55Z</time>
      </trkpt>
      <trkpt lat="-20.90362" lon="55.39864">
        <ele>434.2</ele>
        <time>2013-09-15T05:00:58Z</time>
      </trkpt>
      <trkpt lat="-20.90367" lon="55.3987">
        <ele>433.5</ele>
        <time>2013-09-15T05:01:01Z</time>
      </trkpt>
      <trkpt lat="-20.90372" lon="55.39877">
        <ele>433.5</ele>
        <time>2013-09-15T05:01:04Z</time>
      </trkpt>
      <trkpt lat="-20.90377" lon="55.39882">
        <ele>433.3</ele>
        <time>2013-09-15T05:01:07Z</time>
      </trkpt>
      <trkpt lat="-20.90383" lon="55.39888">
        <ele>433.3</ele>
        <time>2013-09-15T05:01:10Z</time>
      </trkpt>
      <trkpt lat="-20.90388" lon="55.39894">
        <ele>433</ele>
        <time>2013-09-15T05:01:13Z</time>
      </trkpt>
      <trkpt lat="-20.90394" lon="55.39899">
        <ele>432.2</ele>
        <time>2013-09-15T05:01:17Z</time>
      </trkpt>
      <trkpt lat="-20.90401" lon="55.39902">
        <ele>432.2</ele>
        <time>2013-09-15T05:01:20Z</time>
      </trkpt>
      <trkpt lat="-20.90407" lon="55.39905">
        <ele>431.9</ele>
        <time>2013-09-15T05:01:23Z</time>
      </trkpt>
      <trkpt lat="-20.90416" lon="55.39904">
        <ele>432.8</ele>
        <time>2013-09-15T05:01:27Z</time>
      </trkpt>
      <trkpt lat="-20.90418" lon="55.39904">
        <ele>432.6</ele>
        <time>2013-09-15T05:01:28Z</time>
      </trkpt>
      <trkpt lat="-20.90432" lon="55.39904">
        <ele>432.5</ele>
        <time>2013-09-15T05:01:36Z</time>
      </trkpt>
      <trkpt lat="-20.9044" lon="55.39903">
        <ele>433</ele>
        <time>2013-09-15T05:01:41Z</time>
      </trkpt>
      <trkpt lat="-20.90448" lon="55.39903">
        <ele>433.5</ele>
        <time>2013-09-15T05:01:46Z</time>
      </trkpt>
      <trkpt lat="-20.90456" lon="55.39904">
        <ele>433.5</ele>
        <time>2013-09-15T05:01:52Z</time>
      </trkpt>
      <trkpt lat="-20.90465" lon="55.39905">
        <ele>433.3</ele>
        <time>2013-09-15T05:01:58Z</time>
      </trkpt>
      <trkpt lat="-20.90473" lon="55.39907">
        <ele>433.6</ele>
        <time>2013-09-15T05:02:04Z</time>
      </trkpt>
      <trkpt lat="-20.90481" lon="55.3991">
        <ele>435.1</ele>
        <time>2013-09-15T05:02:11Z</time>
      </trkpt>
      <trkpt lat="-20.90489" lon="55.39914">
        <ele>435.4</ele>
        <time>2013-09-15T05:02:17Z</time>
      </trkpt>
      <trkpt lat="-20.90495" lon="55.39919">
        <ele>436.4</ele>
        <time>2013-09-15T05:02:23Z</time>
      </trkpt>
      <trkpt lat="-20.90501" lon="55.39925">
        <ele>435.9</ele>
        <time>2013-09-15T05:02:28Z</time>
      </trkpt>
      <trkpt lat="-20.90502" lon="55.39926">
        <ele>436.2</ele>
        <time>2013-09-15T05:02:29Z</time>
      </trkpt>
      <trkpt lat="-20.90511" lon="55.39938">
        <ele>437.5</ele>
        <time>2013-09-15T05:02:39Z</time>
      </trkpt>
      <trkpt lat="-20.90516" lon="55.39945">
        <ele>437.3</ele>
        <time>2013-09-15T05:02:44Z</time>
      </trkpt>
      <trkpt lat="-20.90518" lon="55.39954">
        <ele>437.3</ele>
        <time>2013-09-15T05:02:49Z</time>
      </trkpt>
      <trkpt lat="-20.9052" lon="55.39963">
        <ele>438.7</ele>
        <time>2013-09-15T05:02:55Z</time>
      </trkpt>
      <trkpt lat="-20.90522" lon="55.39971">
        <ele>439.4</ele>
        <time>2013-09-15T05:03:00Z</time>
      </trkpt>
      <trkpt lat="-20.90522" lon="55.3998">
        <ele>439.7</ele>
        <time>2013-09-15T05:03:05Z</time>
      </trkpt>
      <trkpt lat="-20.90524" lon="55.39989">
        <ele>439.4</ele>
        <time>2013-09-15T05:03:10Z</time>
      </trkpt>
      <trkpt lat="-20.90526" lon="55.39996">
        <ele>440.4</ele>
        <time>2013-09-15T05:03:15Z</time>
      </trkpt>
      <trkpt lat="-20.90527" lon="55.40004">
        <ele>441.1</ele>
        <time>2013-09-15T05:03:20Z</time>
      </trkpt>
      <trkpt lat="-20.90528" lon="55.40013">
        <ele>441.6</ele>
        <time>2013-09-15T05:03:25Z</time>
      </trkpt>
      <trkpt lat="-20.90529" lon="55.40022">
        <ele>441.9</ele>
        <time>2013-09-15T05:03:30Z</time>
      </trkpt>
      <trkpt lat="-20.9053" lon="55.40023">
        <ele>441.8</ele>
        <time>2013-09-15T05:03:31Z</time>
      </trkpt>
      <trkpt lat="-20.90529" lon="55.4004">
        <ele>442.4</ele>
        <time>2013-09-15T05:03:41Z</time>
      </trkpt>
      <trkpt lat="-20.90528" lon="55.40048">
        <ele>443.2</ele>
        <time>2013-09-15T05:03:46Z</time>
      </trkpt>
      <trkpt lat="-20.90529" lon="55.40057">
        <ele>443</ele>
        <time>2013-09-15T05:03:51Z</time>
      </trkpt>
      <trkpt lat="-20.90529" lon="55.40065">
        <ele>443</ele>
        <time>2013-09-15T05:03:55Z</time>
      </trkpt>
      <trkpt lat="-20.9053" lon="55.40074">
        <ele>443.5</ele>
        <time>2013-09-15T05:03:59Z</time>
      </trkpt>
      <trkpt lat="-20.90532" lon="55.40082">
        <ele>444.3</ele>
        <time>2013-09-15T05:04:04Z</time>
      </trkpt>
      <trkpt lat="-20.90535" lon="55.40089">
        <ele>443.3</ele>
        <time>2013-09-15T05:04:09Z</time>
      </trkpt>
      <trkpt lat="-20.90539" lon="55.40097">
        <ele>443.8</ele>
        <time>2013-09-15T05:04:14Z</time>
      </trkpt>
      <trkpt lat="-20.90545" lon="55.40103">
        <ele>444.2</ele>
        <time>2013-09-15T05:04:19Z</time>
      </trkpt>
      <trkpt lat="-20.90551" lon="55.40108">
        <ele>444.9</ele>
        <time>2013-09-15T05:04:24Z</time>
      </trkpt>
      <trkpt lat="-20.90559" lon="55.40112">
        <ele>445.5</ele>
        <time>2013-09-15T05:04:30Z</time>
      </trkpt>
      <trkpt lat="-20.90567" lon="55.40113">
        <ele>445.8</ele>
        <time>2013-09-15T05:04:36Z</time>
      </trkpt>
      <trkpt lat="-20.90569" lon="55.40113">
        <ele>445.7</ele>
        <time>2013-09-15T05:04:37Z</time>
      </trkpt>
      <trkpt lat="-20.90585" lon="55.40113">
        <ele>446.5</ele>
        <time>2013-09-15T05:04:47Z</time>
      </trkpt>
      <trkpt lat="-20.90594" lon="55.40112">
        <ele>446.7</ele>
        <time>2013-09-15T05:04:53Z</time>
      </trkpt>
      <trkpt lat="-20.90602" lon="55.40109">
        <ele>446.5</ele>
        <time>2013-09-15T05:04:59Z</time>
      </trkpt>
      <trkpt lat="-20.90609" lon="55.40104">
        <ele>446.6</ele>
        <time>2013-09-15T05:05:06Z</time>
      </trkpt>
      <trkpt lat="-20.90617" lon="55.40101">
        <ele>446.4</ele>
        <time>2013-09-15T05:05:13Z</time>
      </trkpt>
      <trkpt lat="-20.90625" lon="55.40099">
        <ele>447.7</ele>
        <time>2013-09-15T05:05:18Z</time>
      </trkpt>
      <trkpt lat="-20.90634" lon="55.40095">
        <ele>447.9</ele>
        <time>2013-09-15T05:05:23Z</time>
      </trkpt>
      <trkpt lat="-20.90642" lon="55.40093">
        <ele>447.4</ele>
        <time>2013-09-15T05:05:27Z</time>
      </trkpt>
      <trkpt lat="-20.90649" lon="55.40091">
        <ele>448</ele>
        <time>2013-09-15T05:05:32Z</time>
      </trkpt>
      <trkpt lat="-20.90657" lon="55.40089">
        <ele>447.6</ele>
        <time>2013-09-15T05:05:38Z</time>
      </trkpt>
      <trkpt lat="-20.90659" lon="55.40089">
        <ele>447.6</ele>
        <time>2013-09-15T05:05:39Z</time>
      </trkpt>
      <trkpt lat="-20.90673" lon="55.40093">
        <ele>447.8</ele>
        <time>2013-09-15T05:05:48Z</time>
      </trkpt>
      <trkpt lat="-20.90682" lon="55.40096">
        <ele>447.8</ele>
        <time>2013-09-15T05:05:53Z</time>
      </trkpt>
      <trkpt lat="-20.90689" lon="55.40099">
        <ele>447.6</ele>
        <time>2013-09-15T05:05:57Z</time>
      </trkpt>
      <trkpt lat="-20.90696" lon="55.40103">
        <ele>448.7</ele>
        <time>2013-09-15T05:06:02Z</time>
      </trkpt>
      <trkpt lat="-20.90703" lon="55.40106">
        <ele>448.4</ele>
        <time>2013-09-15T05:06:07Z</time>
      </trkpt>
      <trkpt lat="-20.9071" lon="55.40107">
        <ele>448.4</ele>
        <time>2013-09-15T05:06:11Z</time>
      </trkpt>
      <trkpt lat="-20.90717" lon="55.40103">
        <ele>449.1</ele>
        <time>2013-09-15T05:06:15Z</time>
      </trkpt>
      <trkpt lat="-20.90724" lon="55.40098">
        <ele>448.8</ele>
        <time>2013-09-15T05:06:19Z</time>
      </trkpt>
      <trkpt lat="-20.90732" lon="55.40096">
        <ele>447.8</ele>
        <time>2013-09-15T05:06:23Z</time>
      </trkpt>
      <trkpt lat="-20.90739" lon="55.40092">
        <ele>448.3</ele>
        <time>2013-09-15T05:06:27Z</time>
      </trkpt>
      <trkpt lat="-20.90747" lon="55.40088">
        <ele>448.9</ele>
        <time>2013-09-15T05:06:31Z</time>
      </trkpt>
      <trkpt lat="-20.90756" lon="55.40085">
        <ele>449.2</ele>
        <time>2013-09-15T05:06:36Z</time>
      </trkpt>
      <trkpt lat="-20.90763" lon="55.40087">
        <ele>449.3</ele>
        <time>2013-09-15T05:06:41Z</time>
      </trkpt>
      <trkpt lat="-20.90765" lon="55.40086">
        <ele>449.4</ele>
        <time>2013-09-15T05:06:42Z</time>
      </trkpt>
      <trkpt lat="-20.9078" lon="55.40086">
        <ele>449.1</ele>
        <time>2013-09-15T05:06:50Z</time>
      </trkpt>
      <trkpt lat="-20.90788" lon="55.40085">
        <ele>449.2</ele>
        <time>2013-09-15T05:06:54Z</time>
      </trkpt>
      <trkpt lat="-20.90796" lon="55.40086">
        <ele>450</ele>
        <time>2013-09-15T05:06:58Z</time>
      </trkpt>
      <trkpt lat="-20.90803" lon="55.40087">
        <ele>450.5</ele>
        <time>2013-09-15T05:07:01Z</time>
      </trkpt>
      <trkpt lat="-20.90812" lon="55.4009">
        <ele>450.2</ele>
        <time>2013-09-15T05:07:06Z</time>
      </trkpt>
      <trkpt lat="-20.9082" lon="55.40092">
        <ele>449.6</ele>
        <time>2013-09-15T05:07:12Z</time>
      </trkpt>
      <trkpt lat="-20.90827" lon="55.40096">
        <ele>450.7</ele>
        <time>2013-09-15T05:07:19Z</time>
      </trkpt>
      <trkpt lat="-20.90833" lon="55.40102">
        <ele>450.6</ele>
        <time>2013-09-15T05:07:24Z</time>
      </trkpt>
      <trkpt lat="-20.90841" lon="55.40105">
        <ele>452</ele>
        <time>2013-09-15T05:07:31Z</time>
      </trkpt>
      <trkpt lat="-20.90848" lon="55.40114">
        <ele>455</ele>
        <time>2013-09-15T05:07:41Z</time>
      </trkpt>
      <trkpt lat="-20.90849" lon="55.40115">
        <ele>455.7</ele>
        <time>2013-09-15T05:07:43Z</time>
      </trkpt>
      <trkpt lat="-20.90864" lon="55.40116">
        <ele>460.3</ele>
        <time>2013-09-15T05:08:02Z</time>
      </trkpt>
      <trkpt lat="-20.90871" lon="55.40118">
        <ele>462</ele>
        <time>2013-09-15T05:08:09Z</time>
      </trkpt>
      <trkpt lat="-20.9088" lon="55.40116">
        <ele>463.9</ele>
        <time>2013-09-15T05:08:16Z</time>
      </trkpt>
      <trkpt lat="-20.90889" lon="55.40114">
        <ele>467.8</ele>
        <time>2013-09-15T05:08:28Z</time>
      </trkpt>
      <trkpt lat="-20.90897" lon="55.40111">
        <ele>470.1</ele>
        <time>2013-09-15T05:08:37Z</time>
      </trkpt>
      <trkpt lat="-20.90904" lon="55.40109">
        <ele>470.8</ele>
        <time>2013-09-15T05:08:45Z</time>
      </trkpt>
      <trkpt lat="-20.90906" lon="55.4011">
        <ele>471</ele>
        <time>2013-09-15T05:08:46Z</time>
      </trkpt>
      <trkpt lat="-20.90921" lon="55.40112">
        <ele>474.7</ele>
        <time>2013-09-15T05:09:01Z</time>
      </trkpt>
      <trkpt lat="-20.90928" lon="55.40116">
        <ele>476.9</ele>
        <time>2013-09-15T05:09:08Z</time>
      </trkpt>
      <trkpt lat="-20.90936" lon="55.40113">
        <ele>479.3</ele>
        <time>2013-09-15T05:09:16Z</time>
      </trkpt>
      <trkpt lat="-20.90942" lon="55.4011">
        <ele>480.1</ele>
        <time>2013-09-15T05:09:22Z</time>
      </trkpt>
      <trkpt lat="-20.90948" lon="55.40105">
        <ele>480.3</ele>
        <time>2013-09-15T05:09:25Z</time>
      </trkpt>
      <trkpt lat="-20.90955" lon="55.40111">
        <ele>483.9</ele>
        <time>2013-09-15T05:09:37Z</time>
      </trkpt>
      <trkpt lat="-20.90963" lon="55.40117">
        <ele>485.2</ele>
        <time>2013-09-15T05:09:44Z</time>
      </trkpt>
      <trkpt lat="-20.90971" lon="55.40118">
        <ele>487</ele>
        <time>2013-09-15T05:09:52Z</time>
      </trkpt>
      <trkpt lat="-20.90972" lon="55.40118">
        <ele>487.6</ele>
        <time>2013-09-15T05:09:53Z</time>
      </trkpt>
      <trkpt lat="-20.9098" lon="55.40131">
        <ele>489.9</ele>
        <time>2013-09-15T05:10:05Z</time>
      </trkpt>
      <trkpt lat="-20.90984" lon="55.40139">
        <ele>490.6</ele>
        <time>2013-09-15T05:10:12Z</time>
      </trkpt>
      <trkpt lat="-20.90989" lon="55.40147">
        <ele>491.1</ele>
        <time>2013-09-15T05:10:19Z</time>
      </trkpt>
      <trkpt lat="-20.9099" lon="55.40156">
        <ele>493</ele>
        <time>2013-09-15T05:10:26Z</time>
      </trkpt>
      <trkpt lat="-20.90991" lon="55.40165">
        <ele>496.1</ele>
        <time>2013-09-15T05:10:37Z</time>
      </trkpt>
      <trkpt lat="-20.90996" lon="55.40172">
        <ele>498.6</ele>
        <time>2013-09-15T05:10:47Z</time>
      </trkpt>
      <trkpt lat="-20.90998" lon="55.4018">
        <ele>500.9</ele>
        <time>2013-09-15T05:10:55Z</time>
      </trkpt>
      <trkpt lat="-20.90997" lon="55.40183">
        <ele>501.3</ele>
        <time>2013-09-15T05:10:56Z</time>
      </trkpt>
      <trkpt lat="-20.91002" lon="55.40195">
        <ele>501.4</ele>
        <time>2013-09-15T05:11:03Z</time>
      </trkpt>
      <trkpt lat="-20.91008" lon="55.40201">
        <ele>502.3</ele>
        <time>2013-09-15T05:11:09Z</time>
      </trkpt>
      <trkpt lat="-20.91014" lon="55.40207">
        <ele>503</ele>
        <time>2013-09-15T05:11:15Z</time>
      </trkpt>
      <trkpt lat="-20.91021" lon="55.40213">
        <ele>504.2</ele>
        <time>2013-09-15T05:11:21Z</time>
      </trkpt>
      <trkpt lat="-20.91028" lon="55.40216">
        <ele>505.2</ele>
        <time>2013-09-15T05:11:27Z</time>
      </trkpt>
      <trkpt lat="-20.91036" lon="55.40218">
        <ele>505.3</ele>
        <time>2013-09-15T05:11:32Z</time>
      </trkpt>
      <trkpt lat="-20.91045" lon="55.4022">
        <ele>505.9</ele>
        <time>2013-09-15T05:11:37Z</time>
      </trkpt>
      <trkpt lat="-20.91053" lon="55.40222">
        <ele>506.5</ele>
        <time>2013-09-15T05:11:42Z</time>
      </trkpt>
      <trkpt lat="-20.9106" lon="55.40225">
        <ele>507.2</ele>
        <time>2013-09-15T05:11:48Z</time>
      </trkpt>
      <trkpt lat="-20.91067" lon="55.4023">
        <ele>508.5</ele>
        <time>2013-09-15T05:11:55Z</time>
      </trkpt>
      <trkpt lat="-20.91073" lon="55.40237">
        <ele>509</ele>
        <time>2013-09-15T05:12:01Z</time>
      </trkpt>
      <trkpt lat="-20.91074" lon="55.40238">
        <ele>509.1</ele>
        <time>2013-09-15T05:12:02Z</time>
      </trkpt>
      <trkpt lat="-20.91081" lon="55.40252">
        <ele>510.6</ele>
        <time>2013-09-15T05:12:11Z</time>
      </trkpt>
      <trkpt lat="-20.91081" lon="55.4026">
        <ele>511.4</ele>
        <time>2013-09-15T05:12:16Z</time>
      </trkpt>
      <trkpt lat="-20.9108" lon="55.40269">
        <ele>511</ele>
        <time>2013-09-15T05:12:21Z</time>
      </trkpt>
      <trkpt lat="-20.91076" lon="55.40277">
        <ele>512</ele>
        <time>2013-09-15T05:12:26Z</time>
      </trkpt>
      <trkpt lat="-20.91074" lon="55.40286">
        <ele>511.8</ele>
        <time>2013-09-15T05:12:32Z</time>
      </trkpt>
      <trkpt lat="-20.91071" lon="55.40295">
        <ele>513.1</ele>
        <time>2013-09-15T05:12:40Z</time>
      </trkpt>
      <trkpt lat="-20.91069" lon="55.40304">
        <ele>514.8</ele>
        <time>2013-09-15T05:12:48Z</time>
      </trkpt>
      <trkpt lat="-20.91066" lon="55.40311">
        <ele>515.1</ele>
        <time>2013-09-15T05:12:55Z</time>
      </trkpt>
      <trkpt lat="-20.91059" lon="55.40316">
        <ele>517.5</ele>
        <time>2013-09-15T05:13:02Z</time>
      </trkpt>
      <trkpt lat="-20.91058" lon="55.40316">
        <ele>517.4</ele>
        <time>2013-09-15T05:13:03Z</time>
      </trkpt>
      <trkpt lat="-20.91043" lon="55.40324">
        <ele>518.1</ele>
        <time>2013-09-15T05:13:15Z</time>
      </trkpt>
      <trkpt lat="-20.91034" lon="55.40326">
        <ele>519.1</ele>
        <time>2013-09-15T05:13:21Z</time>
      </trkpt>
      <trkpt lat="-20.91027" lon="55.40326">
        <ele>519.7</ele>
        <time>2013-09-15T05:13:26Z</time>
      </trkpt>
      <trkpt lat="-20.91019" lon="55.40325">
        <ele>520.2</ele>
        <time>2013-09-15T05:13:31Z</time>
      </trkpt>
      <trkpt lat="-20.91012" lon="55.40326">
        <ele>520.5</ele>
        <time>2013-09-15T05:13:35Z</time>
      </trkpt>
      <trkpt lat="-20.91004" lon="55.40329">
        <ele>520.5</ele>
        <time>2013-09-15T05:13:40Z</time>
      </trkpt>
      <trkpt lat="-20.90997" lon="55.40333">
        <ele>521</ele>
        <time>2013-09-15T05:13:45Z</time>
      </trkpt>
      <trkpt lat="-20.90988" lon="55.40335">
        <ele>522.1</ele>
        <time>2013-09-15T05:13:50Z</time>
      </trkpt>
      <trkpt lat="-20.9098" lon="55.40338">
        <ele>522.7</ele>
        <time>2013-09-15T05:13:56Z</time>
      </trkpt>
      <trkpt lat="-20.90972" lon="55.40338">
        <ele>523.1</ele>
        <time>2013-09-15T05:14:03Z</time>
      </trkpt>
      <trkpt lat="-20.90971" lon="55.40337">
        <ele>523.4</ele>
        <time>2013-09-15T05:14:04Z</time>
      </trkpt>
      <trkpt lat="-20.90957" lon="55.40333">
        <ele>525.7</ele>
        <time>2013-09-15T05:14:15Z</time>
      </trkpt>
      <trkpt lat="-20.90949" lon="55.40337">
        <ele>526.1</ele>
        <time>2013-09-15T05:14:21Z</time>
      </trkpt>
      <trkpt lat="-20.90945" lon="55.40344">
        <ele>526.7</ele>
        <time>2013-09-15T05:14:26Z</time>
      </trkpt>
      <trkpt lat="-20.90942" lon="55.40351">
        <ele>526.8</ele>
        <time>2013-09-15T05:14:30Z</time>
      </trkpt>
      <trkpt lat="-20.9094" lon="55.4036">
        <ele>528.6</ele>
        <time>2013-09-15T05:14:35Z</time>
      </trkpt>
      <trkpt lat="-20.90938" lon="55.40369">
        <ele>529</ele>
        <time>2013-09-15T05:14:40Z</time>
      </trkpt>
      <trkpt lat="-20.90939" lon="55.40378">
        <ele>530.5</ele>
        <time>2013-09-15T05:14:46Z</time>
      </trkpt>
      <trkpt lat="-20.90945" lon="55.40382">
        <ele>531.3</ele>
        <time>2013-09-15T05:14:52Z</time>
      </trkpt>
      <trkpt lat="-20.90953" lon="55.40386">
        <ele>532.3</ele>
        <time>2013-09-15T05:14:58Z</time>
      </trkpt>
      <trkpt lat="-20.9096" lon="55.40387">
        <ele>534.4</ele>
        <time>2013-09-15T05:15:04Z</time>
      </trkpt>
      <trkpt lat="-20.90969" lon="55.40385">
        <ele>535.8</ele>
        <time>2013-09-15T05:15:12Z</time>
      </trkpt>
      <trkpt lat="-20.9097" lon="55.40385">
        <ele>536.3</ele>
        <time>2013-09-15T05:15:13Z</time>
      </trkpt>
      <trkpt lat="-20.90983" lon="55.40383">
        <ele>536.8</ele>
        <time>2013-09-15T05:15:22Z</time>
      </trkpt>
      <trkpt lat="-20.90992" lon="55.40383">
        <ele>537.1</ele>
        <time>2013-09-15T05:15:28Z</time>
      </trkpt>
      <trkpt lat="-20.91" lon="55.40383">
        <ele>537.8</ele>
        <time>2013-09-15T05:15:34Z</time>
      </trkpt>
      <trkpt lat="-20.91009" lon="55.40384">
        <ele>539.6</ele>
        <time>2013-09-15T05:15:39Z</time>
      </trkpt>
      <trkpt lat="-20.91017" lon="55.40383">
        <ele>540.4</ele>
        <time>2013-09-15T05:15:45Z</time>
      </trkpt>
      <trkpt lat="-20.91026" lon="55.40383">
        <ele>540.9</ele>
        <time>2013-09-15T05:15:51Z</time>
      </trkpt>
      <trkpt lat="-20.91034" lon="55.40384">
        <ele>541.5</ele>
        <time>2013-09-15T05:15:56Z</time>
      </trkpt>
      <trkpt lat="-20.91043" lon="55.40384">
        <ele>542</ele>
        <time>2013-09-15T05:16:03Z</time>
      </trkpt>
      <trkpt lat="-20.9105" lon="55.40388">
        <ele>542.5</ele>
        <time>2013-09-15T05:16:10Z</time>
      </trkpt>
      <trkpt lat="-20.91055" lon="55.40394">
        <ele>541.5</ele>
        <time>2013-09-15T05:16:14Z</time>
      </trkpt>
      <trkpt lat="-20.91057" lon="55.40395">
        <ele>542.6</ele>
        <time>2013-09-15T05:16:15Z</time>
      </trkpt>
      <trkpt lat="-20.91072" lon="55.40393">
        <ele>547.6</ele>
        <time>2013-09-15T05:16:34Z</time>
      </trkpt>
      <trkpt lat="-20.9108" lon="55.40397">
        <ele>549.5</ele>
        <time>2013-09-15T05:16:42Z</time>
      </trkpt>
      <trkpt lat="-20.91088" lon="55.40401">
        <ele>551.9</ele>
        <time>2013-09-15T05:16:48Z</time>
      </trkpt>
      <trkpt lat="-20.91096" lon="55.40404">
        <ele>553.1</ele>
        <time>2013-09-15T05:16:52Z</time>
      </trkpt>
      <trkpt lat="-20.91103" lon="55.40408">
        <ele>553.5</ele>
        <time>2013-09-15T05:16:58Z</time>
      </trkpt>
      <trkpt lat="-20.91108" lon="55.40416">
        <ele>554.2</ele>
        <time>2013-09-15T05:17:04Z</time>
      </trkpt>
      <trkpt lat="-20.91114" lon="55.40422">
        <ele>556.3</ele>
        <time>2013-09-15T05:17:16Z</time>
      </trkpt>
      <trkpt lat="-20.91114" lon="55.40423">
        <ele>556.3</ele>
        <time>2013-09-15T05:17:17Z</time>
      </trkpt>
      <trkpt lat="-20.91125" lon="55.40435">
        <ele>559.2</ele>
        <time>2013-09-15T05:17:31Z</time>
      </trkpt>
      <trkpt lat="-20.91133" lon="55.40431">
        <ele>560.9</ele>
        <time>2013-09-15T05:17:40Z</time>
      </trkpt>
      <trkpt lat="-20.91136" lon="55.40422">
        <ele>563.1</ele>
        <time>2013-09-15T05:17:50Z</time>
      </trkpt>
      <trkpt lat="-20.91138" lon="55.40414">
        <ele>564.3</ele>
        <time>2013-09-15T05:17:57Z</time>
      </trkpt>
      <trkpt lat="-20.91144" lon="55.40406">
        <ele>566.5</ele>
        <time>2013-09-15T05:18:05Z</time>
      </trkpt>
      <trkpt lat="-20.9115" lon="55.404">
        <ele>567.7</ele>
        <time>2013-09-15T05:18:13Z</time>
      </trkpt>
      <trkpt lat="-20.91158" lon="55.40396">
        <ele>570.2</ele>
        <time>2013-09-15T05:18:21Z</time>
      </trkpt>
      <trkpt lat="-20.91159" lon="55.40396">
        <ele>570.4</ele>
        <time>2013-09-15T05:18:22Z</time>
      </trkpt>
      <trkpt lat="-20.91172" lon="55.40387">
        <ele>573.7</ele>
        <time>2013-09-15T05:18:36Z</time>
      </trkpt>
      <trkpt lat="-20.9118" lon="55.40382">
        <ele>576.4</ele>
        <time>2013-09-15T05:18:44Z</time>
      </trkpt>
      <trkpt lat="-20.91188" lon="55.40381">
        <ele>576.9</ele>
        <time>2013-09-15T05:18:52Z</time>
      </trkpt>
      <trkpt lat="-20.91196" lon="55.4038">
        <ele>577.5</ele>
        <time>2013-09-15T05:18:56Z</time>
      </trkpt>
      <trkpt lat="-20.91204" lon="55.40379">
        <ele>578.4</ele>
        <time>2013-09-15T05:19:00Z</time>
      </trkpt>
      <trkpt lat="-20.91212" lon="55.40375">
        <ele>579.9</ele>
        <time>2013-09-15T05:19:08Z</time>
      </trkpt>
      <trkpt lat="-20.91217" lon="55.40368">
        <ele>581</ele>
        <time>2013-09-15T05:19:15Z</time>
      </trkpt>
      <trkpt lat="-20.91225" lon="55.40363">
        <ele>582.4</ele>
        <time>2013-09-15T05:19:21Z</time>
      </trkpt>
      <trkpt lat="-20.91232" lon="55.40358">
        <ele>582.7</ele>
        <time>2013-09-15T05:19:29Z</time>
      </trkpt>
      <trkpt lat="-20.91233" lon="55.40358">
        <ele>582.7</ele>
        <time>2013-09-15T05:19:30Z</time>
      </trkpt>
      <trkpt lat="-20.91248" lon="55.40353">
        <ele>584.4</ele>
        <time>2013-09-15T05:19:42Z</time>
      </trkpt>
      <trkpt lat="-20.91256" lon="55.40349">
        <ele>585.7</ele>
        <time>2013-09-15T05:19:49Z</time>
      </trkpt>
      <trkpt lat="-20.91264" lon="55.40346">
        <ele>585.5</ele>
        <time>2013-09-15T05:19:55Z</time>
      </trkpt>
      <trkpt lat="-20.91272" lon="55.40344">
        <ele>587.3</ele>
        <time>2013-09-15T05:20:02Z</time>
      </trkpt>
      <trkpt lat="-20.91279" lon="55.40341">
        <ele>588.4</ele>
        <time>2013-09-15T05:20:09Z</time>
      </trkpt>
      <trkpt lat="-20.91288" lon="55.40338">
        <ele>590.4</ele>
        <time>2013-09-15T05:20:17Z</time>
      </trkpt>
      <trkpt lat="-20.91296" lon="55.40335">
        <ele>591.9</ele>
        <time>2013-09-15T05:20:24Z</time>
      </trkpt>
      <trkpt lat="-20.91304" lon="55.40332">
        <ele>592.9</ele>
        <time>2013-09-15T05:20:30Z</time>
      </trkpt>
      <trkpt lat="-20.91305" lon="55.40332">
        <ele>592.9</ele>
        <time>2013-09-15T05:20:31Z</time>
      </trkpt>
      <trkpt lat="-20.91321" lon="55.40333">
        <ele>592.8</ele>
        <time>2013-09-15T05:20:43Z</time>
      </trkpt>
      <trkpt lat="-20.91328" lon="55.40329">
        <ele>592.7</ele>
        <time>2013-09-15T05:20:47Z</time>
      </trkpt>
      <trkpt lat="-20.91335" lon="55.40325">
        <ele>592.2</ele>
        <time>2013-09-15T05:20:51Z</time>
      </trkpt>
      <trkpt lat="-20.91341" lon="55.40322">
        <ele>591.7</ele>
        <time>2013-09-15T05:20:54Z</time>
      </trkpt>
      <trkpt lat="-20.91348" lon="55.40317">
        <ele>591</ele>
        <time>2013-09-15T05:20:58Z</time>
      </trkpt>
      <trkpt lat="-20.91354" lon="55.40312">
        <ele>590.9</ele>
        <time>2013-09-15T05:21:01Z</time>
      </trkpt>
      <trkpt lat="-20.91361" lon="55.40307">
        <ele>590.2</ele>
        <time>2013-09-15T05:21:05Z</time>
      </trkpt>
      <trkpt lat="-20.91368" lon="55.40306">
        <ele>589.4</ele>
        <time>2013-09-15T05:21:09Z</time>
      </trkpt>
      <trkpt lat="-20.91376" lon="55.40305">
        <ele>589</ele>
        <time>2013-09-15T05:21:13Z</time>
      </trkpt>
      <trkpt lat="-20.91385" lon="55.40303">
        <ele>588.5</ele>
        <time>2013-09-15T05:21:18Z</time>
      </trkpt>
      <trkpt lat="-20.91392" lon="55.40303">
        <ele>588.6</ele>
        <time>2013-09-15T05:21:21Z</time>
      </trkpt>
      <trkpt lat="-20.91399" lon="55.40302">
        <ele>588.2</ele>
        <time>2013-09-15T05:21:24Z</time>
      </trkpt>
      <trkpt lat="-20.91407" lon="55.40303">
        <ele>587.9</ele>
        <time>2013-09-15T05:21:28Z</time>
      </trkpt>
      <trkpt lat="-20.91415" lon="55.40305">
        <ele>588.5</ele>
        <time>2013-09-15T05:21:33Z</time>
      </trkpt>
      <trkpt lat="-20.91416" lon="55.40307">
        <ele>588.7</ele>
        <time>2013-09-15T05:21:34Z</time>
      </trkpt>
      <trkpt lat="-20.91425" lon="55.40318">
        <ele>589.1</ele>
        <time>2013-09-15T05:21:41Z</time>
      </trkpt>
      <trkpt lat="-20.91431" lon="55.40322">
        <ele>590.1</ele>
        <time>2013-09-15T05:21:47Z</time>
      </trkpt>
      <trkpt lat="-20.91439" lon="55.40323">
        <ele>591.5</ele>
        <time>2013-09-15T05:21:55Z</time>
      </trkpt>
      <trkpt lat="-20.91447" lon="55.40321">
        <ele>591.8</ele>
        <time>2013-09-15T05:22:00Z</time>
      </trkpt>
      <trkpt lat="-20.91453" lon="55.40314">
        <ele>593.8</ele>
        <time>2013-09-15T05:22:06Z</time>
      </trkpt>
      <trkpt lat="-20.91461" lon="55.40311">
        <ele>594.7</ele>
        <time>2013-09-15T05:22:12Z</time>
      </trkpt>
      <trkpt lat="-20.9147" lon="55.40308">
        <ele>596.8</ele>
        <time>2013-09-15T05:22:19Z</time>
      </trkpt>
      <trkpt lat="-20.91478" lon="55.40308">
        <ele>597.9</ele>
        <time>2013-09-15T05:22:28Z</time>
      </trkpt>
      <trkpt lat="-20.91486" lon="55.40308">
        <ele>599.9</ele>
        <time>2013-09-15T05:22:37Z</time>
      </trkpt>
      <trkpt lat="-20.91487" lon="55.40308">
        <ele>600.2</ele>
        <time>2013-09-15T05:22:38Z</time>
      </trkpt>
      <trkpt lat="-20.91503" lon="55.40309">
        <ele>606.1</ele>
        <time>2013-09-15T05:22:54Z</time>
      </trkpt>
      <trkpt lat="-20.91512" lon="55.40311">
        <ele>608.2</ele>
        <time>2013-09-15T05:23:01Z</time>
      </trkpt>
      <trkpt lat="-20.9152" lon="55.40313">
        <ele>608.5</ele>
        <time>2013-09-15T05:23:06Z</time>
      </trkpt>
      <trkpt lat="-20.91527" lon="55.40316">
        <ele>608</ele>
        <time>2013-09-15T05:23:10Z</time>
      </trkpt>
      <trkpt lat="-20.91533" lon="55.40321">
        <ele>608.5</ele>
        <time>2013-09-15T05:23:16Z</time>
      </trkpt>
      <trkpt lat="-20.91539" lon="55.40327">
        <ele>609</ele>
        <time>2013-09-15T05:23:22Z</time>
      </trkpt>
      <trkpt lat="-20.91544" lon="55.40334">
        <ele>609.3</ele>
        <time>2013-09-15T05:23:27Z</time>
      </trkpt>
      <trkpt lat="-20.9155" lon="55.40341">
        <ele>608.3</ele>
        <time>2013-09-15T05:23:31Z</time>
      </trkpt>
      <trkpt lat="-20.91555" lon="55.40346">
        <ele>608.3</ele>
        <time>2013-09-15T05:23:34Z</time>
      </trkpt>
      <trkpt lat="-20.9156" lon="55.40351">
        <ele>608.2</ele>
        <time>2013-09-15T05:23:37Z</time>
      </trkpt>
      <trkpt lat="-20.91566" lon="55.40355">
        <ele>608.6</ele>
        <time>2013-09-15T05:23:40Z</time>
      </trkpt>
      <trkpt lat="-20.91567" lon="55.40357">
        <ele>608.2</ele>
        <time>2013-09-15T05:23:41Z</time>
      </trkpt>
      <trkpt lat="-20.91579" lon="55.40367">
        <ele>606.9</ele>
        <time>2013-09-15T05:23:48Z</time>
      </trkpt>
      <trkpt lat="-20.91584" lon="55.40373">
        <ele>606.2</ele>
        <time>2013-09-15T05:23:52Z</time>
      </trkpt>
      <trkpt lat="-20.91589" lon="55.40381">
        <ele>603.2</ele>
        <time>2013-09-15T05:23:56Z</time>
      </trkpt>
      <trkpt lat="-20.91594" lon="55.40388">
        <ele>601.6</ele>
        <time>2013-09-15T05:24:00Z</time>
      </trkpt>
      <trkpt lat="-20.91598" lon="55.40396">
        <ele>600.6</ele>
        <time>2013-09-15T05:24:04Z</time>
      </trkpt>
      <trkpt lat="-20.91605" lon="55.40402">
        <ele>598.6</ele>
        <time>2013-09-15T05:24:08Z</time>
      </trkpt>
      <trkpt lat="-20.91611" lon="55.40407">
        <ele>597.7</ele>
        <time>2013-09-15T05:24:12Z</time>
      </trkpt>
      <trkpt lat="-20.91617" lon="55.40412">
        <ele>597.7</ele>
        <time>2013-09-15T05:24:16Z</time>
      </trkpt>
      <trkpt lat="-20.91622" lon="55.40418">
        <ele>597.4</ele>
        <time>2013-09-15T05:24:19Z</time>
      </trkpt>
      <trkpt lat="-20.91626" lon="55.40424">
        <ele>597.7</ele>
        <time>2013-09-15T05:24:22Z</time>
      </trkpt>
      <trkpt lat="-20.9163" lon="55.40432">
        <ele>597.7</ele>
        <time>2013-09-15T05:24:26Z</time>
      </trkpt>
      <trkpt lat="-20.91634" lon="55.4044">
        <ele>597.5</ele>
        <time>2013-09-15T05:24:30Z</time>
      </trkpt>
      <trkpt lat="-20.91636" lon="55.40448">
        <ele>595.7</ele>
        <time>2013-09-15T05:24:33Z</time>
      </trkpt>
      <trkpt lat="-20.91639" lon="55.40455">
        <ele>595.1</ele>
        <time>2013-09-15T05:24:36Z</time>
      </trkpt>
      <trkpt lat="-20.91643" lon="55.40464">
        <ele>594.7</ele>
        <time>2013-09-15T05:24:40Z</time>
      </trkpt>
      <trkpt lat="-20.91644" lon="55.40472">
        <ele>594.7</ele>
        <time>2013-09-15T05:24:45Z</time>
      </trkpt>
      <trkpt lat="-20.91645" lon="55.40474">
        <ele>594.8</ele>
        <time>2013-09-15T05:24:46Z</time>
      </trkpt>
      <trkpt lat="-20.91645" lon="55.40489">
        <ele>596.5</ele>
        <time>2013-09-15T05:24:55Z</time>
      </trkpt>
      <trkpt lat="-20.91646" lon="55.40497">
        <ele>596.3</ele>
        <time>2013-09-15T05:25:00Z</time>
      </trkpt>
      <trkpt lat="-20.91649" lon="55.40505">
        <ele>596.8</ele>
        <time>2013-09-15T05:25:05Z</time>
      </trkpt>
      <trkpt lat="-20.91653" lon="55.40513">
        <ele>596.7</ele>
        <time>2013-09-15T05:25:10Z</time>
      </trkpt>
      <trkpt lat="-20.91656" lon="55.4052">
        <ele>597.9</ele>
        <time>2013-09-15T05:25:16Z</time>
      </trkpt>
      <trkpt lat="-20.91661" lon="55.40528">
        <ele>598</ele>
        <time>2013-09-15T05:25:22Z</time>
      </trkpt>
      <trkpt lat="-20.91669" lon="55.4053">
        <ele>599</ele>
        <time>2013-09-15T05:25:28Z</time>
      </trkpt>
      <trkpt lat="-20.91677" lon="55.40532">
        <ele>599.4</ele>
        <time>2013-09-15T05:25:35Z</time>
      </trkpt>
      <trkpt lat="-20.91684" lon="55.40531">
        <ele>599.9</ele>
        <time>2013-09-15T05:25:44Z</time>
      </trkpt>
      <trkpt lat="-20.91693" lon="55.40533">
        <ele>600.8</ele>
        <time>2013-09-15T05:25:51Z</time>
      </trkpt>
      <trkpt lat="-20.91694" lon="55.40533">
        <ele>600.9</ele>
        <time>2013-09-15T05:25:52Z</time>
      </trkpt>
      <trkpt lat="-20.91702" lon="55.40546">
        <ele>603.1</ele>
        <time>2013-09-15T05:26:03Z</time>
      </trkpt>
      <trkpt lat="-20.91698" lon="55.40554">
        <ele>603.6</ele>
        <time>2013-09-15T05:26:11Z</time>
      </trkpt>
      <trkpt lat="-20.91695" lon="55.40563">
        <ele>604</ele>
        <time>2013-09-15T05:26:18Z</time>
      </trkpt>
      <trkpt lat="-20.9169" lon="55.40569">
        <ele>604.3</ele>
        <time>2013-09-15T05:26:23Z</time>
      </trkpt>
      <trkpt lat="-20.91686" lon="55.40577">
        <ele>604.2</ele>
        <time>2013-09-15T05:26:28Z</time>
      </trkpt>
      <trkpt lat="-20.91682" lon="55.40585">
        <ele>606.1</ele>
        <time>2013-09-15T05:26:34Z</time>
      </trkpt>
      <trkpt lat="-20.91678" lon="55.40593">
        <ele>606.2</ele>
        <time>2013-09-15T05:26:39Z</time>
      </trkpt>
      <trkpt lat="-20.91674" lon="55.40599">
        <ele>606.2</ele>
        <time>2013-09-15T05:26:44Z</time>
      </trkpt>
      <trkpt lat="-20.91667" lon="55.40605">
        <ele>606.7</ele>
        <time>2013-09-15T05:26:49Z</time>
      </trkpt>
      <trkpt lat="-20.91665" lon="55.40613">
        <ele>606.7</ele>
        <time>2013-09-15T05:26:53Z</time>
      </trkpt>
      <trkpt lat="-20.91664" lon="55.40614">
        <ele>606.7</ele>
        <time>2013-09-15T05:26:54Z</time>
      </trkpt>
      <trkpt lat="-20.91667" lon="55.4063">
        <ele>608.7</ele>
        <time>2013-09-15T05:27:04Z</time>
      </trkpt>
      <trkpt lat="-20.9167" lon="55.40638">
        <ele>609.1</ele>
        <time>2013-09-15T05:27:10Z</time>
      </trkpt>
      <trkpt lat="-20.91672" lon="55.40647">
        <ele>610.2</ele>
        <time>2013-09-15T05:27:16Z</time>
      </trkpt>
      <trkpt lat="-20.91672" lon="55.40655">
        <ele>611</ele>
        <time>2013-09-15T05:27:22Z</time>
      </trkpt>
      <trkpt lat="-20.91669" lon="55.40664">
        <ele>612.4</ele>
        <time>2013-09-15T05:27:29Z</time>
      </trkpt>
      <trkpt lat="-20.91663" lon="55.40671">
        <ele>612.9</ele>
        <time>2013-09-15T05:27:34Z</time>
      </trkpt>
      <trkpt lat="-20.91658" lon="55.40679">
        <ele>613</ele>
        <time>2013-09-15T05:27:40Z</time>
      </trkpt>
      <trkpt lat="-20.91654" lon="55.40686">
        <ele>613.3</ele>
        <time>2013-09-15T05:27:45Z</time>
      </trkpt>
      <trkpt lat="-20.91651" lon="55.40694">
        <ele>613.5</ele>
        <time>2013-09-15T05:27:50Z</time>
      </trkpt>
      <trkpt lat="-20.91649" lon="55.40702">
        <ele>613.5</ele>
        <time>2013-09-15T05:27:55Z</time>
      </trkpt>
      <trkpt lat="-20.91649" lon="55.40704">
        <ele>613.6</ele>
        <time>2013-09-15T05:27:56Z</time>
      </trkpt>
      <trkpt lat="-20.91645" lon="55.40719">
        <ele>614.4</ele>
        <time>2013-09-15T05:28:06Z</time>
      </trkpt>
      <trkpt lat="-20.91645" lon="55.40728">
        <ele>614.8</ele>
        <time>2013-09-15T05:28:11Z</time>
      </trkpt>
      <trkpt lat="-20.91646" lon="55.40738">
        <ele>615.3</ele>
        <time>2013-09-15T05:28:17Z</time>
      </trkpt>
      <trkpt lat="-20.91645" lon="55.40746">
        <ele>616.7</ele>
        <time>2013-09-15T05:28:22Z</time>
      </trkpt>
      <trkpt lat="-20.91646" lon="55.40755">
        <ele>617.4</ele>
        <time>2013-09-15T05:28:27Z</time>
      </trkpt>
      <trkpt lat="-20.91647" lon="55.40764">
        <ele>617.7</ele>
        <time>2013-09-15T05:28:32Z</time>
      </trkpt>
      <trkpt lat="-20.9165" lon="55.40771">
        <ele>617.6</ele>
        <time>2013-09-15T05:28:36Z</time>
      </trkpt>
      <trkpt lat="-20.91653" lon="55.4078">
        <ele>618.2</ele>
        <time>2013-09-15T05:28:41Z</time>
      </trkpt>
      <trkpt lat="-20.91655" lon="55.40788">
        <ele>618.7</ele>
        <time>2013-09-15T05:28:46Z</time>
      </trkpt>
      <trkpt lat="-20.91654" lon="55.40796">
        <ele>619.4</ele>
        <time>2013-09-15T05:28:51Z</time>
      </trkpt>
      <trkpt lat="-20.91653" lon="55.40805">
        <ele>620.5</ele>
        <time>2013-09-15T05:28:56Z</time>
      </trkpt>
      <trkpt lat="-20.91653" lon="55.40806">
        <ele>620.1</ele>
        <time>2013-09-15T05:28:57Z</time>
      </trkpt>
      <trkpt lat="-20.91655" lon="55.40822">
        <ele>621</ele>
        <time>2013-09-15T05:29:06Z</time>
      </trkpt>
      <trkpt lat="-20.91655" lon="55.40831">
        <ele>620.6</ele>
        <time>2013-09-15T05:29:12Z</time>
      </trkpt>
      <trkpt lat="-20.91653" lon="55.40839">
        <ele>620.8</ele>
        <time>2013-09-15T05:29:18Z</time>
      </trkpt>
      <trkpt lat="-20.91653" lon="55.40848">
        <ele>621</ele>
        <time>2013-09-15T05:29:23Z</time>
      </trkpt>
      <trkpt lat="-20.91655" lon="55.40855">
        <ele>620.5</ele>
        <time>2013-09-15T05:29:28Z</time>
      </trkpt>
      <trkpt lat="-20.91658" lon="55.40864">
        <ele>622.1</ele>
        <time>2013-09-15T05:29:34Z</time>
      </trkpt>
      <trkpt lat="-20.91666" lon="55.40862">
        <ele>620.4</ele>
        <time>2013-09-15T05:29:54Z</time>
      </trkpt>
      <trkpt lat="-20.91671" lon="55.40869">
        <ele>621.3</ele>
        <time>2013-09-15T05:30:31Z</time>
      </trkpt>
      <trkpt lat="-20.91672" lon="55.4087">
        <ele>621.2</ele>
        <time>2013-09-15T05:30:32Z</time>
      </trkpt>
      <trkpt lat="-20.91685" lon="55.40878">
        <ele>621.1</ele>
        <time>2013-09-15T05:30:42Z</time>
      </trkpt>
      <trkpt lat="-20.91689" lon="55.40885">
        <ele>621.3</ele>
        <time>2013-09-15T05:30:47Z</time>
      </trkpt>
      <trkpt lat="-20.91692" lon="55.40892">
        <ele>620.4</ele>
        <time>2013-09-15T05:30:51Z</time>
      </trkpt>
      <trkpt lat="-20.91696" lon="55.40899">
        <ele>620.1</ele>
        <time>2013-09-15T05:30:55Z</time>
      </trkpt>
      <trkpt lat="-20.91699" lon="55.40908">
        <ele>620.1</ele>
        <time>2013-09-15T05:30:59Z</time>
      </trkpt>
      <trkpt lat="-20.91698" lon="55.40916">
        <ele>619.4</ele>
        <time>2013-09-15T05:31:05Z</time>
      </trkpt>
      <trkpt lat="-20.91693" lon="55.40923">
        <ele>619.1</ele>
        <time>2013-09-15T05:31:12Z</time>
      </trkpt>
      <trkpt lat="-20.91687" lon="55.4093">
        <ele>618.1</ele>
        <time>2013-09-15T05:31:28Z</time>
      </trkpt>
      <trkpt lat="-20.9169" lon="55.40937">
        <ele>620.8</ele>
        <time>2013-09-15T05:31:44Z</time>
      </trkpt>
      <trkpt lat="-20.91692" lon="55.40938">
        <ele>620.7</ele>
        <time>2013-09-15T05:31:45Z</time>
      </trkpt>
      <trkpt lat="-20.91704" lon="55.40944">
        <ele>620.8</ele>
        <time>2013-09-15T05:31:50Z</time>
      </trkpt>
      <trkpt lat="-20.91718" lon="55.40951">
        <ele>623</ele>
        <time>2013-09-15T05:31:56Z</time>
      </trkpt>
      <trkpt lat="-20.91722" lon="55.40965">
        <ele>624</ele>
        <time>2013-09-15T05:32:04Z</time>
      </trkpt>
      <trkpt lat="-20.9173" lon="55.40976">
        <ele>628</ele>
        <time>2013-09-15T05:32:22Z</time>
      </trkpt>
      <trkpt lat="-20.91708" lon="55.40988">
        <ele>630</ele>
        <time>2013-09-15T05:32:33Z</time>
      </trkpt>
      <trkpt lat="-20.91736" lon="55.40992">
        <ele>633</ele>
        <time>2013-09-15T05:32:50Z</time>
      </trkpt>
      <trkpt lat="-20.91798" lon="55.41007">
        <ele>636.1</ele>
        <time>2013-09-15T05:32:59Z</time>
      </trkpt>
      <trkpt lat="-20.91738" lon="55.40998">
        <ele>641</ele>
        <time>2013-09-15T05:33:45Z</time>
      </trkpt>
      <trkpt lat="-20.9176" lon="55.41014">
        <ele>643</ele>
        <time>2013-09-15T05:33:57Z</time>
      </trkpt>
      <trkpt lat="-20.91772" lon="55.41015">
        <ele>644</ele>
        <time>2013-09-15T05:34:01Z</time>
      </trkpt>
      <trkpt lat="-20.91776" lon="55.41014">
        <ele>645.2</ele>
        <time>2013-09-15T05:34:03Z</time>
      </trkpt>
      <trkpt lat="-20.91786" lon="55.41025">
        <ele>649</ele>
        <time>2013-09-15T05:34:30Z</time>
      </trkpt>
      <trkpt lat="-20.9179" lon="55.41031">
        <ele>649.4</ele>
        <time>2013-09-15T05:34:35Z</time>
      </trkpt>
      <trkpt lat="-20.91809" lon="55.41043">
        <ele>653.2</ele>
        <time>2013-09-15T05:35:02Z</time>
      </trkpt>
      <trkpt lat="-20.91803" lon="55.41038">
        <ele>653.6</ele>
        <time>2013-09-15T05:35:05Z</time>
      </trkpt>
      <trkpt lat="-20.91805" lon="55.41035">
        <ele>653.6</ele>
        <time>2013-09-15T05:35:06Z</time>
      </trkpt>
      <trkpt lat="-20.91809" lon="55.41024">
        <ele>655.4</ele>
        <time>2013-09-15T05:35:15Z</time>
      </trkpt>
      <trkpt lat="-20.91803" lon="55.41021">
        <ele>655.7</ele>
        <time>2013-09-15T05:35:18Z</time>
      </trkpt>
      <trkpt lat="-20.9181" lon="55.41015">
        <ele>657.8</ele>
        <time>2013-09-15T05:35:29Z</time>
      </trkpt>
      <trkpt lat="-20.91814" lon="55.41024">
        <ele>659.8</ele>
        <time>2013-09-15T05:35:42Z</time>
      </trkpt>
      <trkpt lat="-20.91824" lon="55.41027">
        <ele>661</ele>
        <time>2013-09-15T05:35:49Z</time>
      </trkpt>
      <trkpt lat="-20.91837" lon="55.41031">
        <ele>661</ele>
        <time>2013-09-15T05:35:57Z</time>
      </trkpt>
      <trkpt lat="-20.91901" lon="55.41071">
        <ele>674</ele>
        <time>2013-09-15T05:37:20Z</time>
      </trkpt>
      <trkpt lat="-20.91896" lon="55.41077">
        <ele>684.1</ele>
        <time>2013-09-15T05:37:54Z</time>
      </trkpt>
      <trkpt lat="-20.91938" lon="55.41049">
        <ele>687.1</ele>
        <time>2013-09-15T05:38:09Z</time>
      </trkpt>
      <trkpt lat="-20.91947" lon="55.41044">
        <ele>688</ele>
        <time>2013-09-15T05:38:18Z</time>
      </trkpt>
      <trkpt lat="-20.91955" lon="55.4105">
        <ele>691.3</ele>
        <time>2013-09-15T05:38:35Z</time>
      </trkpt>
      <trkpt lat="-20.91955" lon="55.41058">
        <ele>692.8</ele>
        <time>2013-09-15T05:38:40Z</time>
      </trkpt>
      <trkpt lat="-20.91957" lon="55.41064">
        <ele>693.1</ele>
        <time>2013-09-15T05:38:42Z</time>
      </trkpt>
      <trkpt lat="-20.91958" lon="55.41076">
        <ele>693</ele>
        <time>2013-09-15T05:38:46Z</time>
      </trkpt>
      <trkpt lat="-20.91966" lon="55.41076">
        <ele>696.1</ele>
        <time>2013-09-15T05:39:00Z</time>
      </trkpt>
      <trkpt lat="-20.91969" lon="55.41079">
        <ele>696.1</ele>
        <time>2013-09-15T05:39:01Z</time>
      </trkpt>
      <trkpt lat="-20.91979" lon="55.41087">
        <ele>696.2</ele>
        <time>2013-09-15T05:39:04Z</time>
      </trkpt>
      <trkpt lat="-20.91977" lon="55.41074">
        <ele>698</ele>
        <time>2013-09-15T05:39:18Z</time>
      </trkpt>
      <trkpt lat="-20.91991" lon="55.41055">
        <ele>701</ele>
        <time>2013-09-15T05:39:31Z</time>
      </trkpt>
      <trkpt lat="-20.92022" lon="55.411">
        <ele>705</ele>
        <time>2013-09-15T05:39:53Z</time>
      </trkpt>
      <trkpt lat="-20.92033" lon="55.41135">
        <ele>708</ele>
        <time>2013-09-15T05:40:01Z</time>
      </trkpt>
      <trkpt lat="-20.9203" lon="55.41119">
        <ele>709</ele>
        <time>2013-09-15T05:40:08Z</time>
      </trkpt>
      <trkpt lat="-20.92043" lon="55.4112">
        <ele>710</ele>
        <time>2013-09-15T05:40:12Z</time>
      </trkpt>
      <trkpt lat="-20.92076" lon="55.41124">
        <ele>711</ele>
        <time>2013-09-15T05:40:25Z</time>
      </trkpt>
      <trkpt lat="-20.92086" lon="55.41116">
        <ele>713</ele>
        <time>2013-09-15T05:40:38Z</time>
      </trkpt>
      <trkpt lat="-20.92064" lon="55.41096">
        <ele>716</ele>
        <time>2013-09-15T05:40:54Z</time>
      </trkpt>
      <trkpt lat="-20.92046" lon="55.41092">
        <ele>717</ele>
        <time>2013-09-15T05:41:02Z</time>
      </trkpt>
      <trkpt lat="-20.92046" lon="55.41096">
        <ele>718.3</ele>
        <time>2013-09-15T05:41:05Z</time>
      </trkpt>
      <trkpt lat="-20.92072" lon="55.41091">
        <ele>719</ele>
        <time>2013-09-15T05:41:18Z</time>
      </trkpt>
      <trkpt lat="-20.92078" lon="55.41077">
        <ele>720</ele>
        <time>2013-09-15T05:41:26Z</time>
      </trkpt>
      <trkpt lat="-20.9211" lon="55.41109">
        <ele>724</ele>
        <time>2013-09-15T05:41:47Z</time>
      </trkpt>
      <trkpt lat="-20.92136" lon="55.4117">
        <ele>729</ele>
        <time>2013-09-15T05:42:11Z</time>
      </trkpt>
      <trkpt lat="-20.92151" lon="55.41167">
        <ele>731.4</ele>
        <time>2013-09-15T05:42:18Z</time>
      </trkpt>
      <trkpt lat="-20.92211" lon="55.41178">
        <ele>740.7</ele>
        <time>2013-09-15T05:43:11Z</time>
      </trkpt>
      <trkpt lat="-20.92209" lon="55.41189">
        <ele>742</ele>
        <time>2013-09-15T05:43:22Z</time>
      </trkpt>
      <trkpt lat="-20.92206" lon="55.4119">
        <ele>743.3</ele>
        <time>2013-09-15T05:43:24Z</time>
      </trkpt>
      <trkpt lat="-20.92202" lon="55.41189">
        <ele>744</ele>
        <time>2013-09-15T05:43:36Z</time>
      </trkpt>
      <trkpt lat="-20.92213" lon="55.41186">
        <ele>746</ele>
        <time>2013-09-15T05:43:43Z</time>
      </trkpt>
      <trkpt lat="-20.92277" lon="55.41199">
        <ele>756</ele>
        <time>2013-09-15T05:44:57Z</time>
      </trkpt>
      <trkpt lat="-20.9235" lon="55.41223">
        <ele>765</ele>
        <time>2013-09-15T05:45:49Z</time>
      </trkpt>
      <trkpt lat="-20.92344" lon="55.41217">
        <ele>769.4</ele>
        <time>2013-09-15T05:45:55Z</time>
      </trkpt>
      <trkpt lat="-20.92336" lon="55.41218">
        <ele>769.9</ele>
        <time>2013-09-15T05:45:59Z</time>
      </trkpt>
      <trkpt lat="-20.92334" lon="55.41226">
        <ele>772.8</ele>
        <time>2013-09-15T05:46:10Z</time>
      </trkpt>
      <trkpt lat="-20.9233" lon="55.41233">
        <ele>774.5</ele>
        <time>2013-09-15T05:46:15Z</time>
      </trkpt>
      <trkpt lat="-20.92335" lon="55.4124">
        <ele>773.8</ele>
        <time>2013-09-15T05:46:20Z</time>
      </trkpt>
      <trkpt lat="-20.9234" lon="55.41248">
        <ele>773.6</ele>
        <time>2013-09-15T05:46:29Z</time>
      </trkpt>
      <trkpt lat="-20.92346" lon="55.41254">
        <ele>782.2</ele>
        <time>2013-09-15T05:47:04Z</time>
      </trkpt>
      <trkpt lat="-20.92348" lon="55.41255">
        <ele>782.5</ele>
        <time>2013-09-15T05:47:05Z</time>
      </trkpt>
      <trkpt lat="-20.92361" lon="55.41259">
        <ele>783.4</ele>
        <time>2013-09-15T05:47:13Z</time>
      </trkpt>
      <trkpt lat="-20.9237" lon="55.41257">
        <ele>784.5</ele>
        <time>2013-09-15T05:47:18Z</time>
      </trkpt>
      <trkpt lat="-20.92376" lon="55.41252">
        <ele>787.3</ele>
        <time>2013-09-15T05:47:31Z</time>
      </trkpt>
      <trkpt lat="-20.92384" lon="55.41252">
        <ele>788.5</ele>
        <time>2013-09-15T05:47:36Z</time>
      </trkpt>
      <trkpt lat="-20.92392" lon="55.41248">
        <ele>793.2</ele>
        <time>2013-09-15T05:47:58Z</time>
      </trkpt>
      <trkpt lat="-20.92405" lon="55.4125">
        <ele>795</ele>
        <time>2013-09-15T05:48:16Z</time>
      </trkpt>
      <trkpt lat="-20.92409" lon="55.4125">
        <ele>796.3</ele>
        <time>2013-09-15T05:48:18Z</time>
      </trkpt>
      <trkpt lat="-20.92417" lon="55.41241">
        <ele>798.2</ele>
        <time>2013-09-15T05:48:24Z</time>
      </trkpt>
      <trkpt lat="-20.9242" lon="55.41234">
        <ele>798.6</ele>
        <time>2013-09-15T05:48:28Z</time>
      </trkpt>
      <trkpt lat="-20.92427" lon="55.41229">
        <ele>800</ele>
        <time>2013-09-15T05:48:36Z</time>
      </trkpt>
      <trkpt lat="-20.92429" lon="55.41221">
        <ele>801</ele>
        <time>2013-09-15T05:48:43Z</time>
      </trkpt>
      <trkpt lat="-20.92428" lon="55.41212">
        <ele>801.4</ele>
        <time>2013-09-15T05:48:50Z</time>
      </trkpt>
      <trkpt lat="-20.9243" lon="55.41203">
        <ele>804.4</ele>
        <time>2013-09-15T05:49:01Z</time>
      </trkpt>
      <trkpt lat="-20.92434" lon="55.41195">
        <ele>805.1</ele>
        <time>2013-09-15T05:49:09Z</time>
      </trkpt>
      <trkpt lat="-20.92433" lon="55.41186">
        <ele>806.3</ele>
        <time>2013-09-15T05:49:17Z</time>
      </trkpt>
      <trkpt lat="-20.92438" lon="55.41179">
        <ele>807.6</ele>
        <time>2013-09-15T05:49:23Z</time>
      </trkpt>
      <trkpt lat="-20.92439" lon="55.41177">
        <ele>808</ele>
        <time>2013-09-15T05:49:24Z</time>
      </trkpt>
      <trkpt lat="-20.9245" lon="55.41166">
        <ele>811.9</ele>
        <time>2013-09-15T05:49:41Z</time>
      </trkpt>
      <trkpt lat="-20.92451" lon="55.41157">
        <ele>813.5</ele>
        <time>2013-09-15T05:49:53Z</time>
      </trkpt>
      <trkpt lat="-20.92459" lon="55.41153">
        <ele>816.2</ele>
        <time>2013-09-15T05:50:03Z</time>
      </trkpt>
      <trkpt lat="-20.92466" lon="55.41148">
        <ele>817.4</ele>
        <time>2013-09-15T05:50:10Z</time>
      </trkpt>
      <trkpt lat="-20.92472" lon="55.41142">
        <ele>819.3</ele>
        <time>2013-09-15T05:50:20Z</time>
      </trkpt>
      <trkpt lat="-20.9248" lon="55.41146">
        <ele>820.8</ele>
        <time>2013-09-15T05:50:26Z</time>
      </trkpt>
      <trkpt lat="-20.92481" lon="55.41147">
        <ele>821.2</ele>
        <time>2013-09-15T05:50:27Z</time>
      </trkpt>
      <trkpt lat="-20.92496" lon="55.41144">
        <ele>825.8</ele>
        <time>2013-09-15T05:50:49Z</time>
      </trkpt>
      <trkpt lat="-20.92504" lon="55.41146">
        <ele>827.8</ele>
        <time>2013-09-15T05:50:57Z</time>
      </trkpt>
      <trkpt lat="-20.92509" lon="55.41139">
        <ele>829.8</ele>
        <time>2013-09-15T05:51:06Z</time>
      </trkpt>
      <trkpt lat="-20.92517" lon="55.4114">
        <ele>830.6</ele>
        <time>2013-09-15T05:51:12Z</time>
      </trkpt>
      <trkpt lat="-20.92525" lon="55.4114">
        <ele>830.9</ele>
        <time>2013-09-15T05:51:17Z</time>
      </trkpt>
      <trkpt lat="-20.92532" lon="55.41145">
        <ele>832.4</ele>
        <time>2013-09-15T05:51:27Z</time>
      </trkpt>
      <trkpt lat="-20.92533" lon="55.41145">
        <ele>832.7</ele>
        <time>2013-09-15T05:51:28Z</time>
      </trkpt>
      <trkpt lat="-20.92547" lon="55.41139">
        <ele>836.9</ele>
        <time>2013-09-15T05:51:43Z</time>
      </trkpt>
      <trkpt lat="-20.92552" lon="55.41132">
        <ele>838.4</ele>
        <time>2013-09-15T05:51:50Z</time>
      </trkpt>
      <trkpt lat="-20.92549" lon="55.41124">
        <ele>839.2</ele>
        <time>2013-09-15T05:51:54Z</time>
      </trkpt>
      <trkpt lat="-20.92548" lon="55.41115">
        <ele>840.3</ele>
        <time>2013-09-15T05:51:59Z</time>
      </trkpt>
      <trkpt lat="-20.92554" lon="55.41108">
        <ele>841.6</ele>
        <time>2013-09-15T05:52:03Z</time>
      </trkpt>
      <trkpt lat="-20.92546" lon="55.41103">
        <ele>849.3</ele>
        <time>2013-09-15T05:52:38Z</time>
      </trkpt>
      <trkpt lat="-20.92544" lon="55.41103">
        <ele>849.7</ele>
        <time>2013-09-15T05:52:39Z</time>
      </trkpt>
      <trkpt lat="-20.92563" lon="55.41108">
        <ele>854.6</ele>
        <time>2013-09-15T05:53:02Z</time>
      </trkpt>
      <trkpt lat="-20.92571" lon="55.41111">
        <ele>855.9</ele>
        <time>2013-09-15T05:53:14Z</time>
      </trkpt>
      <trkpt lat="-20.92579" lon="55.41113">
        <ele>854.9</ele>
        <time>2013-09-15T05:53:20Z</time>
      </trkpt>
      <trkpt lat="-20.92587" lon="55.41115">
        <ele>854.8</ele>
        <time>2013-09-15T05:53:26Z</time>
      </trkpt>
      <trkpt lat="-20.92595" lon="55.41117">
        <ele>855.1</ele>
        <time>2013-09-15T05:53:31Z</time>
      </trkpt>
      <trkpt lat="-20.92603" lon="55.41115">
        <ele>855.8</ele>
        <time>2013-09-15T05:53:41Z</time>
      </trkpt>
      <trkpt lat="-20.92604" lon="55.41112">
        <ele>856</ele>
        <time>2013-09-15T05:53:42Z</time>
      </trkpt>
      <trkpt lat="-20.92614" lon="55.41105">
        <ele>860.1</ele>
        <time>2013-09-15T05:53:56Z</time>
      </trkpt>
      <trkpt lat="-20.92623" lon="55.41105">
        <ele>863.3</ele>
        <time>2013-09-15T05:54:09Z</time>
      </trkpt>
      <trkpt lat="-20.92631" lon="55.41104">
        <ele>864.8</ele>
        <time>2013-09-15T05:54:17Z</time>
      </trkpt>
      <trkpt lat="-20.92639" lon="55.41108">
        <ele>862.6</ele>
        <time>2013-09-15T05:54:25Z</time>
      </trkpt>
      <trkpt lat="-20.92647" lon="55.41112">
        <ele>860.5</ele>
        <time>2013-09-15T05:54:31Z</time>
      </trkpt>
      <trkpt lat="-20.92656" lon="55.4111">
        <ele>857.8</ele>
        <time>2013-09-15T05:54:38Z</time>
      </trkpt>
      <trkpt lat="-20.92663" lon="55.41111">
        <ele>854.4</ele>
        <time>2013-09-15T05:54:45Z</time>
      </trkpt>
      <trkpt lat="-20.92665" lon="55.41112">
        <ele>854.2</ele>
        <time>2013-09-15T05:54:46Z</time>
      </trkpt>
      <trkpt lat="-20.9268" lon="55.4111">
        <ele>854.3</ele>
        <time>2013-09-15T05:54:58Z</time>
      </trkpt>
      <trkpt lat="-20.92687" lon="55.41114">
        <ele>855.9</ele>
        <time>2013-09-15T05:55:05Z</time>
      </trkpt>
      <trkpt lat="-20.92695" lon="55.41117">
        <ele>860</ele>
        <time>2013-09-15T05:55:21Z</time>
      </trkpt>
      <trkpt lat="-20.927" lon="55.41109">
        <ele>864.4</ele>
        <time>2013-09-15T05:55:40Z</time>
      </trkpt>
      <trkpt lat="-20.92708" lon="55.41107">
        <ele>865.3</ele>
        <time>2013-09-15T05:55:46Z</time>
      </trkpt>
      <trkpt lat="-20.92716" lon="55.41103">
        <ele>867.9</ele>
        <time>2013-09-15T05:56:03Z</time>
      </trkpt>
      <trkpt lat="-20.92717" lon="55.41103">
        <ele>867.9</ele>
        <time>2013-09-15T05:56:04Z</time>
      </trkpt>
      <trkpt lat="-20.92731" lon="55.41097">
        <ele>868.8</ele>
        <time>2013-09-15T05:56:18Z</time>
      </trkpt>
      <trkpt lat="-20.92738" lon="55.41095">
        <ele>869.1</ele>
        <time>2013-09-15T05:56:22Z</time>
      </trkpt>
      <trkpt lat="-20.92747" lon="55.41096">
        <ele>871</ele>
        <time>2013-09-15T05:56:31Z</time>
      </trkpt>
      <trkpt lat="-20.92755" lon="55.41092">
        <ele>871.7</ele>
        <time>2013-09-15T05:56:37Z</time>
      </trkpt>
      <trkpt lat="-20.92763" lon="55.41091">
        <ele>875.3</ele>
        <time>2013-09-15T05:56:50Z</time>
      </trkpt>
      <trkpt lat="-20.92772" lon="55.41089">
        <ele>876.5</ele>
        <time>2013-09-15T05:56:56Z</time>
      </trkpt>
      <trkpt lat="-20.92779" lon="55.41086">
        <ele>876.2</ele>
        <time>2013-09-15T05:57:01Z</time>
      </trkpt>
      <trkpt lat="-20.92786" lon="55.41085">
        <ele>876.4</ele>
        <time>2013-09-15T05:57:05Z</time>
      </trkpt>
      <trkpt lat="-20.92788" lon="55.41085">
        <ele>875.8</ele>
        <time>2013-09-15T05:57:06Z</time>
      </trkpt>
      <trkpt lat="-20.92802" lon="55.41088">
        <ele>874.1</ele>
        <time>2013-09-15T05:57:16Z</time>
      </trkpt>
      <trkpt lat="-20.92808" lon="55.41092">
        <ele>874.5</ele>
        <time>2013-09-15T05:57:19Z</time>
      </trkpt>
      <trkpt lat="-20.92815" lon="55.41098">
        <ele>876.2</ele>
        <time>2013-09-15T05:57:26Z</time>
      </trkpt>
      <trkpt lat="-20.92822" lon="55.41093">
        <ele>878.6</ele>
        <time>2013-09-15T05:57:38Z</time>
      </trkpt>
      <trkpt lat="-20.92827" lon="55.41085">
        <ele>880.1</ele>
        <time>2013-09-15T05:57:46Z</time>
      </trkpt>
      <trkpt lat="-20.92829" lon="55.41076">
        <ele>883.4</ele>
        <time>2013-09-15T05:57:58Z</time>
      </trkpt>
      <trkpt lat="-20.92838" lon="55.41076">
        <ele>885.6</ele>
        <time>2013-09-15T05:58:10Z</time>
      </trkpt>
      <trkpt lat="-20.9284" lon="55.41075">
        <ele>885.6</ele>
        <time>2013-09-15T05:58:11Z</time>
      </trkpt>
      <trkpt lat="-20.92853" lon="55.41073">
        <ele>888.6</ele>
        <time>2013-09-15T05:58:26Z</time>
      </trkpt>
      <trkpt lat="-20.92859" lon="55.41066">
        <ele>891.2</ele>
        <time>2013-09-15T05:58:35Z</time>
      </trkpt>
      <trkpt lat="-20.92862" lon="55.4106">
        <ele>891.8</ele>
        <time>2013-09-15T05:58:37Z</time>
      </trkpt>
      <trkpt lat="-20.92871" lon="55.41057">
        <ele>893.5</ele>
        <time>2013-09-15T05:58:45Z</time>
      </trkpt>
      <trkpt lat="-20.92879" lon="55.41057">
        <ele>894.6</ele>
        <time>2013-09-15T05:58:57Z</time>
      </trkpt>
      <trkpt lat="-20.92884" lon="55.41064">
        <ele>897.3</ele>
        <time>2013-09-15T05:59:08Z</time>
      </trkpt>
      <trkpt lat="-20.92887" lon="55.41056">
        <ele>902.4</ele>
        <time>2013-09-15T05:59:30Z</time>
      </trkpt>
      <trkpt lat="-20.92889" lon="55.41055">
        <ele>902.3</ele>
        <time>2013-09-15T05:59:31Z</time>
      </trkpt>
      <trkpt lat="-20.92904" lon="55.41058">
        <ele>903.9</ele>
        <time>2013-09-15T05:59:54Z</time>
      </trkpt>
      <trkpt lat="-20.92911" lon="55.41064">
        <ele>901.6</ele>
        <time>2013-09-15T06:00:02Z</time>
      </trkpt>
      <trkpt lat="-20.92919" lon="55.41065">
        <ele>896.7</ele>
        <time>2013-09-15T06:00:12Z</time>
      </trkpt>
      <trkpt lat="-20.92928" lon="55.41065">
        <ele>894.3</ele>
        <time>2013-09-15T06:00:20Z</time>
      </trkpt>
      <trkpt lat="-20.92936" lon="55.41064">
        <ele>892.1</ele>
        <time>2013-09-15T06:00:26Z</time>
      </trkpt>
      <trkpt lat="-20.92943" lon="55.41061">
        <ele>890.6</ele>
        <time>2013-09-15T06:00:30Z</time>
      </trkpt>
      <trkpt lat="-20.92952" lon="55.41059">
        <ele>890.9</ele>
        <time>2013-09-15T06:00:37Z</time>
      </trkpt>
      <trkpt lat="-20.92953" lon="55.41059">
        <ele>890.7</ele>
        <time>2013-09-15T06:00:38Z</time>
      </trkpt>
      <trkpt lat="-20.92965" lon="55.41052">
        <ele>892.6</ele>
        <time>2013-09-15T06:00:48Z</time>
      </trkpt>
      <trkpt lat="-20.92974" lon="55.41049">
        <ele>895.6</ele>
        <time>2013-09-15T06:01:01Z</time>
      </trkpt>
      <trkpt lat="-20.92981" lon="55.41044">
        <ele>898.9</ele>
        <time>2013-09-15T06:01:11Z</time>
      </trkpt>
      <trkpt lat="-20.92984" lon="55.41036">
        <ele>901.8</ele>
        <time>2013-09-15T06:01:27Z</time>
      </trkpt>
      <trkpt lat="-20.9299" lon="55.41029">
        <ele>905.1</ele>
        <time>2013-09-15T06:01:48Z</time>
      </trkpt>
      <trkpt lat="-20.92991" lon="55.41028">
        <ele>905.4</ele>
        <time>2013-09-15T06:01:49Z</time>
      </trkpt>
      <trkpt lat="-20.93005" lon="55.41024">
        <ele>906.6</ele>
        <time>2013-09-15T06:02:11Z</time>
      </trkpt>
      <trkpt lat="-20.93013" lon="55.41024">
        <ele>907.9</ele>
        <time>2013-09-15T06:02:16Z</time>
      </trkpt>
      <trkpt lat="-20.93019" lon="55.41023">
        <ele>908</ele>
        <time>2013-09-15T06:02:18Z</time>
      </trkpt>
      <trkpt lat="-20.93027" lon="55.4102">
        <ele>908.8</ele>
        <time>2013-09-15T06:02:20Z</time>
      </trkpt>
      <trkpt lat="-20.93032" lon="55.41013">
        <ele>910.9</ele>
        <time>2013-09-15T06:02:30Z</time>
      </trkpt>
      <trkpt lat="-20.9304" lon="55.41011">
        <ele>912.2</ele>
        <time>2013-09-15T06:02:38Z</time>
      </trkpt>
      <trkpt lat="-20.93047" lon="55.41013">
        <ele>912.7</ele>
        <time>2013-09-15T06:02:42Z</time>
      </trkpt>
      <trkpt lat="-20.93054" lon="55.41018">
        <ele>912.7</ele>
        <time>2013-09-15T06:02:46Z</time>
      </trkpt>
      <trkpt lat="-20.93062" lon="55.41021">
        <ele>914.1</ele>
        <time>2013-09-15T06:02:52Z</time>
      </trkpt>
      <trkpt lat="-20.93063" lon="55.41022">
        <ele>914.3</ele>
        <time>2013-09-15T06:02:53Z</time>
      </trkpt>
      <trkpt lat="-20.93078" lon="55.41026">
        <ele>912.8</ele>
        <time>2013-09-15T06:03:08Z</time>
      </trkpt>
      <trkpt lat="-20.93085" lon="55.41024">
        <ele>910.2</ele>
        <time>2013-09-15T06:03:14Z</time>
      </trkpt>
      <trkpt lat="-20.93093" lon="55.41021">
        <ele>907.1</ele>
        <time>2013-09-15T06:03:20Z</time>
      </trkpt>
      <trkpt lat="-20.93098" lon="55.41014">
        <ele>907.8</ele>
        <time>2013-09-15T06:03:25Z</time>
      </trkpt>
      <trkpt lat="-20.93099" lon="55.41006">
        <ele>907.9</ele>
        <time>2013-09-15T06:03:29Z</time>
      </trkpt>
      <trkpt lat="-20.93095" lon="55.40998">
        <ele>908.7</ele>
        <time>2013-09-15T06:03:33Z</time>
      </trkpt>
      <trkpt lat="-20.93104" lon="55.41">
        <ele>911.9</ele>
        <time>2013-09-15T06:03:45Z</time>
      </trkpt>
      <trkpt lat="-20.93112" lon="55.41003">
        <ele>914.9</ele>
        <time>2013-09-15T06:03:52Z</time>
      </trkpt>
      <trkpt lat="-20.93119" lon="55.40998">
        <ele>920.8</ele>
        <time>2013-09-15T06:04:23Z</time>
      </trkpt>
      <trkpt lat="-20.9312" lon="55.40998">
        <ele>921</ele>
        <time>2013-09-15T06:04:24Z</time>
      </trkpt>
      <trkpt lat="-20.93133" lon="55.41008">
        <ele>925.7</ele>
        <time>2013-09-15T06:04:43Z</time>
      </trkpt>
      <trkpt lat="-20.93137" lon="55.41015">
        <ele>926.1</ele>
        <time>2013-09-15T06:04:49Z</time>
      </trkpt>
      <trkpt lat="-20.93144" lon="55.41021">
        <ele>927.4</ele>
        <time>2013-09-15T06:04:57Z</time>
      </trkpt>
      <trkpt lat="-20.93152" lon="55.4102">
        <ele>927.6</ele>
        <time>2013-09-15T06:05:04Z</time>
      </trkpt>
      <trkpt lat="-20.93159" lon="55.41015">
        <ele>927.6</ele>
        <time>2013-09-15T06:05:10Z</time>
      </trkpt>
      <trkpt lat="-20.93166" lon="55.41011">
        <ele>927.6</ele>
        <time>2013-09-15T06:05:14Z</time>
      </trkpt>
      <trkpt lat="-20.93174" lon="55.41013">
        <ele>925.9</ele>
        <time>2013-09-15T06:05:21Z</time>
      </trkpt>
      <trkpt lat="-20.93183" lon="55.41014">
        <ele>924.7</ele>
        <time>2013-09-15T06:05:27Z</time>
      </trkpt>
      <trkpt lat="-20.93185" lon="55.41014">
        <ele>924.5</ele>
        <time>2013-09-15T06:05:28Z</time>
      </trkpt>
      <trkpt lat="-20.932" lon="55.41011">
        <ele>921</ele>
        <time>2013-09-15T06:05:38Z</time>
      </trkpt>
      <trkpt lat="-20.93208" lon="55.41009">
        <ele>920.6</ele>
        <time>2013-09-15T06:05:42Z</time>
      </trkpt>
      <trkpt lat="-20.93215" lon="55.41008">
        <ele>919.9</ele>
        <time>2013-09-15T06:05:45Z</time>
      </trkpt>
      <trkpt lat="-20.93222" lon="55.41007">
        <ele>919.2</ele>
        <time>2013-09-15T06:05:48Z</time>
      </trkpt>
      <trkpt lat="-20.93227" lon="55.41">
        <ele>918.9</ele>
        <time>2013-09-15T06:05:53Z</time>
      </trkpt>
      <trkpt lat="-20.93232" lon="55.40993">
        <ele>919.4</ele>
        <time>2013-09-15T06:05:58Z</time>
      </trkpt>
      <trkpt lat="-20.93236" lon="55.40986">
        <ele>919</ele>
        <time>2013-09-15T06:06:03Z</time>
      </trkpt>
      <trkpt lat="-20.93241" lon="55.40978">
        <ele>919</ele>
        <time>2013-09-15T06:06:09Z</time>
      </trkpt>
      <trkpt lat="-20.93244" lon="55.4097">
        <ele>919.3</ele>
        <time>2013-09-15T06:06:14Z</time>
      </trkpt>
      <trkpt lat="-20.93246" lon="55.40962">
        <ele>920</ele>
        <time>2013-09-15T06:06:17Z</time>
      </trkpt>
      <trkpt lat="-20.93248" lon="55.40955">
        <ele>919.8</ele>
        <time>2013-09-15T06:06:21Z</time>
      </trkpt>
      <trkpt lat="-20.93252" lon="55.40947">
        <ele>919.5</ele>
        <time>2013-09-15T06:06:26Z</time>
      </trkpt>
      <trkpt lat="-20.93251" lon="55.40939">
        <ele>919.6</ele>
        <time>2013-09-15T06:06:29Z</time>
      </trkpt>
      <trkpt lat="-20.9325" lon="55.40937">
        <ele>919.8</ele>
        <time>2013-09-15T06:06:30Z</time>
      </trkpt>
      <trkpt lat="-20.93251" lon="55.40921">
        <ele>920.1</ele>
        <time>2013-09-15T06:06:37Z</time>
      </trkpt>
      <trkpt lat="-20.93255" lon="55.40913">
        <ele>924.9</ele>
        <time>2013-09-15T06:06:53Z</time>
      </trkpt>
      <trkpt lat="-20.93253" lon="55.40904">
        <ele>925.6</ele>
        <time>2013-09-15T06:06:59Z</time>
      </trkpt>
      <trkpt lat="-20.93261" lon="55.409">
        <ele>928.1</ele>
        <time>2013-09-15T06:07:09Z</time>
      </trkpt>
      <trkpt lat="-20.93268" lon="55.40903">
        <ele>930.8</ele>
        <time>2013-09-15T06:07:21Z</time>
      </trkpt>
      <trkpt lat="-20.93276" lon="55.40905">
        <ele>933.3</ele>
        <time>2013-09-15T06:07:34Z</time>
      </trkpt>
      <trkpt lat="-20.93278" lon="55.40904">
        <ele>933.4</ele>
        <time>2013-09-15T06:07:35Z</time>
      </trkpt>
      <trkpt lat="-20.93291" lon="55.40913">
        <ele>937.4</ele>
        <time>2013-09-15T06:07:52Z</time>
      </trkpt>
      <trkpt lat="-20.93298" lon="55.40918">
        <ele>937.8</ele>
        <time>2013-09-15T06:08:01Z</time>
      </trkpt>
      <trkpt lat="-20.93298" lon="55.40928">
        <ele>940</ele>
        <time>2013-09-15T06:08:14Z</time>
      </trkpt>
      <trkpt lat="-20.93308" lon="55.40926">
        <ele>941.3</ele>
        <time>2013-09-15T06:08:24Z</time>
      </trkpt>
      <trkpt lat="-20.93315" lon="55.4093">
        <ele>943</ele>
        <time>2013-09-15T06:08:28Z</time>
      </trkpt>
      <trkpt lat="-20.9332" lon="55.40926">
        <ele>945.2</ele>
        <time>2013-09-15T06:08:37Z</time>
      </trkpt>
      <trkpt lat="-20.93322" lon="55.40923">
        <ele>945.4</ele>
        <time>2013-09-15T06:08:38Z</time>
      </trkpt>
      <trkpt lat="-20.93331" lon="55.40935">
        <ele>947.2</ele>
        <time>2013-09-15T06:08:47Z</time>
      </trkpt>
      <trkpt lat="-20.93336" lon="55.40928">
        <ele>948.8</ele>
        <time>2013-09-15T06:08:55Z</time>
      </trkpt>
      <trkpt lat="-20.93343" lon="55.40922">
        <ele>949.4</ele>
        <time>2013-09-15T06:09:03Z</time>
      </trkpt>
      <trkpt lat="-20.93351" lon="55.40917">
        <ele>955.6</ele>
        <time>2013-09-15T06:09:34Z</time>
      </trkpt>
      <trkpt lat="-20.93356" lon="55.4091">
        <ele>957.2</ele>
        <time>2013-09-15T06:09:46Z</time>
      </trkpt>
      <trkpt lat="-20.93358" lon="55.40909">
        <ele>957.3</ele>
        <time>2013-09-15T06:09:47Z</time>
      </trkpt>
      <trkpt lat="-20.93368" lon="55.40898">
        <ele>959.9</ele>
        <time>2013-09-15T06:10:02Z</time>
      </trkpt>
      <trkpt lat="-20.93361" lon="55.40895">
        <ele>963.4</ele>
        <time>2013-09-15T06:10:17Z</time>
      </trkpt>
      <trkpt lat="-20.93366" lon="55.40889">
        <ele>965.6</ele>
        <time>2013-09-15T06:10:29Z</time>
      </trkpt>
      <trkpt lat="-20.93373" lon="55.40893">
        <ele>967.4</ele>
        <time>2013-09-15T06:10:36Z</time>
      </trkpt>
      <trkpt lat="-20.93378" lon="55.40898">
        <ele>967.2</ele>
        <time>2013-09-15T06:10:39Z</time>
      </trkpt>
      <trkpt lat="-20.93386" lon="55.40899">
        <ele>967.3</ele>
        <time>2013-09-15T06:10:41Z</time>
      </trkpt>
      <trkpt lat="-20.93394" lon="55.40898">
        <ele>967.4</ele>
        <time>2013-09-15T06:10:43Z</time>
      </trkpt>
      <trkpt lat="-20.93401" lon="55.40894">
        <ele>968.9</ele>
        <time>2013-09-15T06:10:48Z</time>
      </trkpt>
      <trkpt lat="-20.93402" lon="55.40894">
        <ele>969.3</ele>
        <time>2013-09-15T06:10:49Z</time>
      </trkpt>
      <trkpt lat="-20.93399" lon="55.40877">
        <ele>974.3</ele>
        <time>2013-09-15T06:11:18Z</time>
      </trkpt>
      <trkpt lat="-20.93412" lon="55.4088">
        <ele>976.7</ele>
        <time>2013-09-15T06:11:32Z</time>
      </trkpt>
      <trkpt lat="-20.93419" lon="55.40874">
        <ele>982.5</ele>
        <time>2013-09-15T06:11:55Z</time>
      </trkpt>
      <trkpt lat="-20.9342" lon="55.40874">
        <ele>982.5</ele>
        <time>2013-09-15T06:11:56Z</time>
      </trkpt>
      <trkpt lat="-20.93435" lon="55.40878">
        <ele>990</ele>
        <time>2013-09-15T06:12:37Z</time>
      </trkpt>
      <trkpt lat="-20.93443" lon="55.40878">
        <ele>992.7</ele>
        <time>2013-09-15T06:12:53Z</time>
      </trkpt>
      <trkpt lat="-20.93452" lon="55.40878">
        <ele>995.4</ele>
        <time>2013-09-15T06:13:06Z</time>
      </trkpt>
      <trkpt lat="-20.93452" lon="55.40877">
        <ele>995.6</ele>
        <time>2013-09-15T06:13:07Z</time>
      </trkpt>
      <trkpt lat="-20.93447" lon="55.40857">
        <ele>998</ele>
        <time>2013-09-15T06:13:27Z</time>
      </trkpt>
      <trkpt lat="-20.93452" lon="55.40849">
        <ele>1000.1</ele>
        <time>2013-09-15T06:13:34Z</time>
      </trkpt>
      <trkpt lat="-20.9346" lon="55.40848">
        <ele>1001.8</ele>
        <time>2013-09-15T06:13:41Z</time>
      </trkpt>
      <trkpt lat="-20.93468" lon="55.40847">
        <ele>1003.8</ele>
        <time>2013-09-15T06:13:48Z</time>
      </trkpt>
      <trkpt lat="-20.93477" lon="55.40847">
        <ele>1006</ele>
        <time>2013-09-15T06:13:55Z</time>
      </trkpt>
      <trkpt lat="-20.93485" lon="55.40848">
        <ele>1004.9</ele>
        <time>2013-09-15T06:14:03Z</time>
      </trkpt>
      <trkpt lat="-20.93493" lon="55.40845">
        <ele>1005.3</ele>
        <time>2013-09-15T06:14:13Z</time>
      </trkpt>
      <trkpt lat="-20.93494" lon="55.40845">
        <ele>1005.8</ele>
        <time>2013-09-15T06:14:14Z</time>
      </trkpt>
      <trkpt lat="-20.93507" lon="55.40834">
        <ele>1008.5</ele>
        <time>2013-09-15T06:14:32Z</time>
      </trkpt>
      <trkpt lat="-20.93513" lon="55.40829">
        <ele>1010.3</ele>
        <time>2013-09-15T06:14:40Z</time>
      </trkpt>
      <trkpt lat="-20.9352" lon="55.40824">
        <ele>1013</ele>
        <time>2013-09-15T06:14:47Z</time>
      </trkpt>
      <trkpt lat="-20.93528" lon="55.40821">
        <ele>1013.5</ele>
        <time>2013-09-15T06:14:55Z</time>
      </trkpt>
      <trkpt lat="-20.93535" lon="55.40817">
        <ele>1013.5</ele>
        <time>2013-09-15T06:15:02Z</time>
      </trkpt>
      <trkpt lat="-20.93543" lon="55.40812">
        <ele>1013.7</ele>
        <time>2013-09-15T06:15:11Z</time>
      </trkpt>
      <trkpt lat="-20.93549" lon="55.40806">
        <ele>1016.6</ele>
        <time>2013-09-15T06:15:26Z</time>
      </trkpt>
      <trkpt lat="-20.93549" lon="55.40805">
        <ele>1016.9</ele>
        <time>2013-09-15T06:15:27Z</time>
      </trkpt>
      <trkpt lat="-20.9356" lon="55.40792">
        <ele>1021.3</ele>
        <time>2013-09-15T06:15:48Z</time>
      </trkpt>
      <trkpt lat="-20.93569" lon="55.40791">
        <ele>1021</ele>
        <time>2013-09-15T06:15:55Z</time>
      </trkpt>
      <trkpt lat="-20.93577" lon="55.4079">
        <ele>1020.1</ele>
        <time>2013-09-15T06:15:59Z</time>
      </trkpt>
      <trkpt lat="-20.93584" lon="55.40785">
        <ele>1018.5</ele>
        <time>2013-09-15T06:16:03Z</time>
      </trkpt>
      <trkpt lat="-20.93592" lon="55.40781">
        <ele>1016.9</ele>
        <time>2013-09-15T06:16:07Z</time>
      </trkpt>
      <trkpt lat="-20.936" lon="55.40777">
        <ele>1016.5</ele>
        <time>2013-09-15T06:16:12Z</time>
      </trkpt>
      <trkpt lat="-20.93607" lon="55.40771">
        <ele>1015.3</ele>
        <time>2013-09-15T06:16:19Z</time>
      </trkpt>
      <trkpt lat="-20.93614" lon="55.40767">
        <ele>1012.4</ele>
        <time>2013-09-15T06:16:24Z</time>
      </trkpt>
      <trkpt lat="-20.93621" lon="55.40762">
        <ele>1010.1</ele>
        <time>2013-09-15T06:16:28Z</time>
      </trkpt>
      <trkpt lat="-20.93622" lon="55.40761">
        <ele>1009.8</ele>
        <time>2013-09-15T06:16:29Z</time>
      </trkpt>
      <trkpt lat="-20.93637" lon="55.40763">
        <ele>1004.6</ele>
        <time>2013-09-15T06:16:43Z</time>
      </trkpt>
      <trkpt lat="-20.93645" lon="55.4076">
        <ele>1003.3</ele>
        <time>2013-09-15T06:16:51Z</time>
      </trkpt>
      <trkpt lat="-20.93652" lon="55.40764">
        <ele>1000.6</ele>
        <time>2013-09-15T06:17:02Z</time>
      </trkpt>
      <trkpt lat="-20.9366" lon="55.40766">
        <ele>998</ele>
        <time>2013-09-15T06:17:09Z</time>
      </trkpt>
      <trkpt lat="-20.93668" lon="55.40764">
        <ele>996.1</ele>
        <time>2013-09-15T06:17:15Z</time>
      </trkpt>
      <trkpt lat="-20.93676" lon="55.40766">
        <ele>992.9</ele>
        <time>2013-09-15T06:17:21Z</time>
      </trkpt>
      <trkpt lat="-20.93684" lon="55.40767">
        <ele>990.5</ele>
        <time>2013-09-15T06:17:26Z</time>
      </trkpt>
      <trkpt lat="-20.9369" lon="55.40767">
        <ele>989.1</ele>
        <time>2013-09-15T06:17:29Z</time>
      </trkpt>
      <trkpt lat="-20.93698" lon="55.40765">
        <ele>988.3</ele>
        <time>2013-09-15T06:17:32Z</time>
      </trkpt>
      <trkpt lat="-20.937" lon="55.40765">
        <ele>988.5</ele>
        <time>2013-09-15T06:17:33Z</time>
      </trkpt>
      <trkpt lat="-20.93714" lon="55.40766">
        <ele>987.3</ele>
        <time>2013-09-15T06:17:40Z</time>
      </trkpt>
      <trkpt lat="-20.93722" lon="55.40763">
        <ele>987.2</ele>
        <time>2013-09-15T06:17:47Z</time>
      </trkpt>
      <trkpt lat="-20.93731" lon="55.40764">
        <ele>988.7</ele>
        <time>2013-09-15T06:17:57Z</time>
      </trkpt>
      <trkpt lat="-20.9374" lon="55.40766">
        <ele>989.8</ele>
        <time>2013-09-15T06:18:03Z</time>
      </trkpt>
      <trkpt lat="-20.93746" lon="55.4077">
        <ele>990.6</ele>
        <time>2013-09-15T06:18:10Z</time>
      </trkpt>
      <trkpt lat="-20.9375" lon="55.40775">
        <ele>991</ele>
        <time>2013-09-15T06:18:12Z</time>
      </trkpt>
      <trkpt lat="-20.93758" lon="55.4078">
        <ele>991.5</ele>
        <time>2013-09-15T06:18:14Z</time>
      </trkpt>
      <trkpt lat="-20.93765" lon="55.40785">
        <ele>992</ele>
        <time>2013-09-15T06:18:16Z</time>
      </trkpt>
      <trkpt lat="-20.9377" lon="55.4079">
        <ele>992.5</ele>
        <time>2013-09-15T06:18:18Z</time>
      </trkpt>
      <trkpt lat="-20.93772" lon="55.40781">
        <ele>994</ele>
        <time>2013-09-15T06:18:28Z</time>
      </trkpt>
      <trkpt lat="-20.93769" lon="55.40771">
        <ele>994</ele>
        <time>2013-09-15T06:18:31Z</time>
      </trkpt>
      <trkpt lat="-20.93767" lon="55.40765">
        <ele>994.9</ele>
        <time>2013-09-15T06:18:33Z</time>
      </trkpt>
      <trkpt lat="-20.93765" lon="55.40758">
        <ele>994.5</ele>
        <time>2013-09-15T06:18:35Z</time>
      </trkpt>
      <trkpt lat="-20.93764" lon="55.40754">
        <ele>994.3</ele>
        <time>2013-09-15T06:18:36Z</time>
      </trkpt>
      <trkpt lat="-20.93764" lon="55.40745">
        <ele>994.2</ele>
        <time>2013-09-15T06:18:39Z</time>
      </trkpt>
      <trkpt lat="-20.93764" lon="55.40736">
        <ele>995.2</ele>
        <time>2013-09-15T06:18:42Z</time>
      </trkpt>
      <trkpt lat="-20.93765" lon="55.40728">
        <ele>995.1</ele>
        <time>2013-09-15T06:18:46Z</time>
      </trkpt>
      <trkpt lat="-20.93769" lon="55.40721">
        <ele>994.5</ele>
        <time>2013-09-15T06:18:50Z</time>
      </trkpt>
      <trkpt lat="-20.93769" lon="55.40714">
        <ele>994.6</ele>
        <time>2013-09-15T06:18:53Z</time>
      </trkpt>
      <trkpt lat="-20.93767" lon="55.40706">
        <ele>995.3</ele>
        <time>2013-09-15T06:18:56Z</time>
      </trkpt>
      <trkpt lat="-20.93766" lon="55.40698">
        <ele>996</ele>
        <time>2013-09-15T06:18:59Z</time>
      </trkpt>
      <trkpt lat="-20.93765" lon="55.4069">
        <ele>996.3</ele>
        <time>2013-09-15T06:19:03Z</time>
      </trkpt>
      <trkpt lat="-20.93767" lon="55.40681">
        <ele>996.5</ele>
        <time>2013-09-15T06:19:10Z</time>
      </trkpt>
      <trkpt lat="-20.93776" lon="55.4068">
        <ele>998.8</ele>
        <time>2013-09-15T06:19:23Z</time>
      </trkpt>
      <trkpt lat="-20.93784" lon="55.40677">
        <ele>1001.2</ele>
        <time>2013-09-15T06:19:34Z</time>
      </trkpt>
      <trkpt lat="-20.93791" lon="55.40676">
        <ele>1003.3</ele>
        <time>2013-09-15T06:19:46Z</time>
      </trkpt>
      <trkpt lat="-20.93794" lon="55.40675">
        <ele>1003.7</ele>
        <time>2013-09-15T06:19:47Z</time>
      </trkpt>
      <trkpt lat="-20.93822" lon="55.40717">
        <ele>1007</ele>
        <time>2013-09-15T06:20:11Z</time>
      </trkpt>
      <trkpt lat="-20.93841" lon="55.40718">
        <ele>1009</ele>
        <time>2013-09-15T06:20:21Z</time>
      </trkpt>
      <trkpt lat="-20.93844" lon="55.40708">
        <ele>1010</ele>
        <time>2013-09-15T06:20:25Z</time>
      </trkpt>
      <trkpt lat="-20.9384" lon="55.40701">
        <ele>1010.9</ele>
        <time>2013-09-15T06:20:28Z</time>
      </trkpt>
      <trkpt lat="-20.93835" lon="55.40693">
        <ele>1010.9</ele>
        <time>2013-09-15T06:20:34Z</time>
      </trkpt>
      <trkpt lat="-20.93832" lon="55.40685">
        <ele>1010.2</ele>
        <time>2013-09-15T06:21:08Z</time>
      </trkpt>
      <trkpt lat="-20.93831" lon="55.40683">
        <ele>1010.2</ele>
        <time>2013-09-15T06:21:09Z</time>
      </trkpt>
      <trkpt lat="-20.93829" lon="55.40668">
        <ele>1007.9</ele>
        <time>2013-09-15T06:21:21Z</time>
      </trkpt>
      <trkpt lat="-20.93829" lon="55.40659">
        <ele>1008.3</ele>
        <time>2013-09-15T06:21:27Z</time>
      </trkpt>
      <trkpt lat="-20.93825" lon="55.40651">
        <ele>1008.1</ele>
        <time>2013-09-15T06:21:33Z</time>
      </trkpt>
      <trkpt lat="-20.93823" lon="55.40643">
        <ele>1006.3</ele>
        <time>2013-09-15T06:21:38Z</time>
      </trkpt>
      <trkpt lat="-20.93821" lon="55.40634">
        <ele>1006.9</ele>
        <time>2013-09-15T06:21:43Z</time>
      </trkpt>
      <trkpt lat="-20.93821" lon="55.40626">
        <ele>1005.5</ele>
        <time>2013-09-15T06:21:48Z</time>
      </trkpt>
      <trkpt lat="-20.93821" lon="55.40618">
        <ele>1005.2</ele>
        <time>2013-09-15T06:21:53Z</time>
      </trkpt>
      <trkpt lat="-20.93819" lon="55.4061">
        <ele>1005.6</ele>
        <time>2013-09-15T06:21:59Z</time>
      </trkpt>
      <trkpt lat="-20.93814" lon="55.40603">
        <ele>1005.5</ele>
        <time>2013-09-15T06:22:04Z</time>
      </trkpt>
      <trkpt lat="-20.9381" lon="55.40596">
        <ele>1004.1</ele>
        <time>2013-09-15T06:22:09Z</time>
      </trkpt>
      <trkpt lat="-20.93807" lon="55.40587">
        <ele>1003.2</ele>
        <time>2013-09-15T06:22:14Z</time>
      </trkpt>
      <trkpt lat="-20.93806" lon="55.40585">
        <ele>1003.6</ele>
        <time>2013-09-15T06:22:15Z</time>
      </trkpt>
      <trkpt lat="-20.93813" lon="55.40573">
        <ele>1003.3</ele>
        <time>2013-09-15T06:22:25Z</time>
      </trkpt>
      <trkpt lat="-20.93821" lon="55.40573">
        <ele>1003</ele>
        <time>2013-09-15T06:22:29Z</time>
      </trkpt>
      <trkpt lat="-20.93828" lon="55.40575">
        <ele>1002.8</ele>
        <time>2013-09-15T06:22:32Z</time>
      </trkpt>
      <trkpt lat="-20.93836" lon="55.4058">
        <ele>1002.8</ele>
        <time>2013-09-15T06:22:36Z</time>
      </trkpt>
      <trkpt lat="-20.93842" lon="55.40585">
        <ele>1003.1</ele>
        <time>2013-09-15T06:22:39Z</time>
      </trkpt>
      <trkpt lat="-20.93847" lon="55.40592">
        <ele>1002.1</ele>
        <time>2013-09-15T06:22:43Z</time>
      </trkpt>
      <trkpt lat="-20.93852" lon="55.40598">
        <ele>1002.1</ele>
        <time>2013-09-15T06:22:46Z</time>
      </trkpt>
      <trkpt lat="-20.93857" lon="55.40603">
        <ele>1001.7</ele>
        <time>2013-09-15T06:22:49Z</time>
      </trkpt>
      <trkpt lat="-20.93864" lon="55.40607">
        <ele>1002.4</ele>
        <time>2013-09-15T06:22:52Z</time>
      </trkpt>
      <trkpt lat="-20.93872" lon="55.4061">
        <ele>1002.1</ele>
        <time>2013-09-15T06:22:56Z</time>
      </trkpt>
      <trkpt lat="-20.93879" lon="55.40613">
        <ele>1001.3</ele>
        <time>2013-09-15T06:22:59Z</time>
      </trkpt>
      <trkpt lat="-20.93887" lon="55.40614">
        <ele>1001.2</ele>
        <time>2013-09-15T06:23:03Z</time>
      </trkpt>
      <trkpt lat="-20.93894" lon="55.40612">
        <ele>1000.7</ele>
        <time>2013-09-15T06:23:06Z</time>
      </trkpt>
      <trkpt lat="-20.939" lon="55.40607">
        <ele>999.9</ele>
        <time>2013-09-15T06:23:09Z</time>
      </trkpt>
      <trkpt lat="-20.93904" lon="55.40602">
        <ele>999.9</ele>
        <time>2013-09-15T06:23:12Z</time>
      </trkpt>
      <trkpt lat="-20.93908" lon="55.40594">
        <ele>1000.4</ele>
        <time>2013-09-15T06:23:15Z</time>
      </trkpt>
      <trkpt lat="-20.93909" lon="55.40591">
        <ele>1000.5</ele>
        <time>2013-09-15T06:23:16Z</time>
      </trkpt>
      <trkpt lat="-20.93911" lon="55.40579">
        <ele>999.7</ele>
        <time>2013-09-15T06:23:20Z</time>
      </trkpt>
      <trkpt lat="-20.93911" lon="55.4057">
        <ele>999.4</ele>
        <time>2013-09-15T06:23:23Z</time>
      </trkpt>
      <trkpt lat="-20.93911" lon="55.40564">
        <ele>999.1</ele>
        <time>2013-09-15T06:23:25Z</time>
      </trkpt>
      <trkpt lat="-20.93911" lon="55.40557">
        <ele>998.8</ele>
        <time>2013-09-15T06:23:27Z</time>
      </trkpt>
      <trkpt lat="-20.93912" lon="55.40548">
        <ele>998.2</ele>
        <time>2013-09-15T06:23:30Z</time>
      </trkpt>
      <trkpt lat="-20.93911" lon="55.40539">
        <ele>998</ele>
        <time>2013-09-15T06:23:33Z</time>
      </trkpt>
      <trkpt lat="-20.93911" lon="55.40531">
        <ele>997.3</ele>
        <time>2013-09-15T06:23:36Z</time>
      </trkpt>
      <trkpt lat="-20.93909" lon="55.40523">
        <ele>997.1</ele>
        <time>2013-09-15T06:23:39Z</time>
      </trkpt>
      <trkpt lat="-20.93906" lon="55.40515">
        <ele>995.3</ele>
        <time>2013-09-15T06:23:42Z</time>
      </trkpt>
      <trkpt lat="-20.93901" lon="55.40509">
        <ele>995.6</ele>
        <time>2013-09-15T06:23:45Z</time>
      </trkpt>
      <trkpt lat="-20.93895" lon="55.40503">
        <ele>995.1</ele>
        <time>2013-09-15T06:23:49Z</time>
      </trkpt>
      <trkpt lat="-20.93888" lon="55.40501">
        <ele>994.4</ele>
        <time>2013-09-15T06:23:52Z</time>
      </trkpt>
      <trkpt lat="-20.93881" lon="55.40498">
        <ele>994.3</ele>
        <time>2013-09-15T06:23:55Z</time>
      </trkpt>
      <trkpt lat="-20.93874" lon="55.40496">
        <ele>995.1</ele>
        <time>2013-09-15T06:23:58Z</time>
      </trkpt>
      <trkpt lat="-20.93868" lon="55.40491">
        <ele>994.1</ele>
        <time>2013-09-15T06:24:01Z</time>
      </trkpt>
      <trkpt lat="-20.93865" lon="55.40485">
        <ele>993.4</ele>
        <time>2013-09-15T06:24:04Z</time>
      </trkpt>
      <trkpt lat="-20.93862" lon="55.40478">
        <ele>992.8</ele>
        <time>2013-09-15T06:24:07Z</time>
      </trkpt>
      <trkpt lat="-20.9386" lon="55.40471">
        <ele>992.5</ele>
        <time>2013-09-15T06:24:10Z</time>
      </trkpt>
      <trkpt lat="-20.93858" lon="55.40462">
        <ele>991.9</ele>
        <time>2013-09-15T06:24:13Z</time>
      </trkpt>
      <trkpt lat="-20.93855" lon="55.40454">
        <ele>991.6</ele>
        <time>2013-09-15T06:24:16Z</time>
      </trkpt>
      <trkpt lat="-20.93853" lon="55.40446">
        <ele>991.1</ele>
        <time>2013-09-15T06:24:19Z</time>
      </trkpt>
      <trkpt lat="-20.93852" lon="55.40444">
        <ele>990.9</ele>
        <time>2013-09-15T06:24:20Z</time>
      </trkpt>
      <trkpt lat="-20.93846" lon="55.40431">
        <ele>990.9</ele>
        <time>2013-09-15T06:24:25Z</time>
      </trkpt>
      <trkpt lat="-20.93842" lon="55.40425">
        <ele>990.3</ele>
        <time>2013-09-15T06:24:28Z</time>
      </trkpt>
      <trkpt lat="-20.93836" lon="55.40419">
        <ele>989.6</ele>
        <time>2013-09-15T06:24:31Z</time>
      </trkpt>
      <trkpt lat="-20.93832" lon="55.40413">
        <ele>989.1</ele>
        <time>2013-09-15T06:24:34Z</time>
      </trkpt>
      <trkpt lat="-20.93827" lon="55.40407">
        <ele>988.6</ele>
        <time>2013-09-15T06:24:37Z</time>
      </trkpt>
      <trkpt lat="-20.93822" lon="55.40402">
        <ele>988.4</ele>
        <time>2013-09-15T06:24:40Z</time>
      </trkpt>
      <trkpt lat="-20.93818" lon="55.40396">
        <ele>988.2</ele>
        <time>2013-09-15T06:24:43Z</time>
      </trkpt>
      <trkpt lat="-20.93814" lon="55.40389">
        <ele>987.4</ele>
        <time>2013-09-15T06:24:46Z</time>
      </trkpt>
      <trkpt lat="-20.93816" lon="55.4038">
        <ele>987.4</ele>
        <time>2013-09-15T06:24:50Z</time>
      </trkpt>
      <trkpt lat="-20.93817" lon="55.40373">
        <ele>987.2</ele>
        <time>2013-09-15T06:24:53Z</time>
      </trkpt>
      <trkpt lat="-20.93818" lon="55.40366">
        <ele>986.1</ele>
        <time>2013-09-15T06:24:56Z</time>
      </trkpt>
      <trkpt lat="-20.93819" lon="55.40357">
        <ele>985.9</ele>
        <time>2013-09-15T06:24:59Z</time>
      </trkpt>
      <trkpt lat="-20.93817" lon="55.4035">
        <ele>986.1</ele>
        <time>2013-09-15T06:25:02Z</time>
      </trkpt>
      <trkpt lat="-20.93817" lon="55.40342">
        <ele>985.5</ele>
        <time>2013-09-15T06:25:05Z</time>
      </trkpt>
      <trkpt lat="-20.93818" lon="55.40334">
        <ele>984.9</ele>
        <time>2013-09-15T06:25:08Z</time>
      </trkpt>
      <trkpt lat="-20.93821" lon="55.40326">
        <ele>985.1</ele>
        <time>2013-09-15T06:25:12Z</time>
      </trkpt>
      <trkpt lat="-20.93827" lon="55.40321">
        <ele>983.8</ele>
        <time>2013-09-15T06:25:16Z</time>
      </trkpt>
      <trkpt lat="-20.93834" lon="55.40318">
        <ele>983.4</ele>
        <time>2013-09-15T06:25:19Z</time>
      </trkpt>
      <trkpt lat="-20.93841" lon="55.40316">
        <ele>983.6</ele>
        <time>2013-09-15T06:25:22Z</time>
      </trkpt>
      <trkpt lat="-20.93843" lon="55.40317">
        <ele>983.7</ele>
        <time>2013-09-15T06:25:23Z</time>
      </trkpt>
      <trkpt lat="-20.93855" lon="55.4032">
        <ele>984.1</ele>
        <time>2013-09-15T06:25:28Z</time>
      </trkpt>
      <trkpt lat="-20.93861" lon="55.40326">
        <ele>983.5</ele>
        <time>2013-09-15T06:25:32Z</time>
      </trkpt>
      <trkpt lat="-20.93866" lon="55.40331">
        <ele>982.9</ele>
        <time>2013-09-15T06:25:35Z</time>
      </trkpt>
      <trkpt lat="-20.93872" lon="55.40336">
        <ele>982.2</ele>
        <time>2013-09-15T06:25:38Z</time>
      </trkpt>
      <trkpt lat="-20.93879" lon="55.40342">
        <ele>981.5</ele>
        <time>2013-09-15T06:25:41Z</time>
      </trkpt>
      <trkpt lat="-20.93885" lon="55.40345">
        <ele>981.4</ele>
        <time>2013-09-15T06:25:44Z</time>
      </trkpt>
      <trkpt lat="-20.93892" lon="55.40348">
        <ele>981.5</ele>
        <time>2013-09-15T06:25:47Z</time>
      </trkpt>
      <trkpt lat="-20.939" lon="55.4035">
        <ele>981.5</ele>
        <time>2013-09-15T06:25:51Z</time>
      </trkpt>
      <trkpt lat="-20.93908" lon="55.40349">
        <ele>981.5</ele>
        <time>2013-09-15T06:25:54Z</time>
      </trkpt>
      <trkpt lat="-20.93916" lon="55.40351">
        <ele>981.3</ele>
        <time>2013-09-15T06:25:57Z</time>
      </trkpt>
      <trkpt lat="-20.93923" lon="55.40351">
        <ele>980.7</ele>
        <time>2013-09-15T06:26:00Z</time>
      </trkpt>
      <trkpt lat="-20.93931" lon="55.4035">
        <ele>980.1</ele>
        <time>2013-09-15T06:26:03Z</time>
      </trkpt>
      <trkpt lat="-20.93938" lon="55.40348">
        <ele>979.8</ele>
        <time>2013-09-15T06:26:06Z</time>
      </trkpt>
      <trkpt lat="-20.93946" lon="55.40344">
        <ele>979.1</ele>
        <time>2013-09-15T06:26:10Z</time>
      </trkpt>
      <trkpt lat="-20.93953" lon="55.40341">
        <ele>978</ele>
        <time>2013-09-15T06:26:13Z</time>
      </trkpt>
      <trkpt lat="-20.9396" lon="55.40338">
        <ele>977.8</ele>
        <time>2013-09-15T06:26:16Z</time>
      </trkpt>
      <trkpt lat="-20.93967" lon="55.40335">
        <ele>978.2</ele>
        <time>2013-09-15T06:26:19Z</time>
      </trkpt>
      <trkpt lat="-20.93973" lon="55.40332">
        <ele>977.8</ele>
        <time>2013-09-15T06:26:22Z</time>
      </trkpt>
      <trkpt lat="-20.93979" lon="55.40327">
        <ele>978.5</ele>
        <time>2013-09-15T06:26:25Z</time>
      </trkpt>
      <trkpt lat="-20.9398" lon="55.40325">
        <ele>978.7</ele>
        <time>2013-09-15T06:26:26Z</time>
      </trkpt>
      <trkpt lat="-20.93981" lon="55.40312">
        <ele>977.4</ele>
        <time>2013-09-15T06:26:31Z</time>
      </trkpt>
      <trkpt lat="-20.93978" lon="55.40305">
        <ele>977.1</ele>
        <time>2013-09-15T06:26:34Z</time>
      </trkpt>
      <trkpt lat="-20.93974" lon="55.40297">
        <ele>976.8</ele>
        <time>2013-09-15T06:26:37Z</time>
      </trkpt>
      <trkpt lat="-20.93969" lon="55.4029">
        <ele>977.1</ele>
        <time>2013-09-15T06:26:40Z</time>
      </trkpt>
      <trkpt lat="-20.93965" lon="55.40284">
        <ele>976.4</ele>
        <time>2013-09-15T06:26:43Z</time>
      </trkpt>
      <trkpt lat="-20.9396" lon="55.40278">
        <ele>975.8</ele>
        <time>2013-09-15T06:26:46Z</time>
      </trkpt>
      <trkpt lat="-20.93956" lon="55.40272">
        <ele>975.4</ele>
        <time>2013-09-15T06:26:49Z</time>
      </trkpt>
      <trkpt lat="-20.9395" lon="55.40267">
        <ele>975</ele>
        <time>2013-09-15T06:26:52Z</time>
      </trkpt>
      <trkpt lat="-20.93944" lon="55.40261">
        <ele>975</ele>
        <time>2013-09-15T06:26:55Z</time>
      </trkpt>
      <trkpt lat="-20.93939" lon="55.40255">
        <ele>975</ele>
        <time>2013-09-15T06:26:58Z</time>
      </trkpt>
      <trkpt lat="-20.93935" lon="55.40247">
        <ele>974.4</ele>
        <time>2013-09-15T06:27:04Z</time>
      </trkpt>
      <trkpt lat="-20.93931" lon="55.40239">
        <ele>973.7</ele>
        <time>2013-09-15T06:27:10Z</time>
      </trkpt>
      <trkpt lat="-20.93928" lon="55.4023">
        <ele>973.3</ele>
        <time>2013-09-15T06:27:16Z</time>
      </trkpt>
      <trkpt lat="-20.9392" lon="55.40227">
        <ele>971.1</ele>
        <time>2013-09-15T06:27:40Z</time>
      </trkpt>
      <trkpt lat="-20.9392" lon="55.40226">
        <ele>971.3</ele>
        <time>2013-09-15T06:27:41Z</time>
      </trkpt>
      <trkpt lat="-20.93916" lon="55.40211">
        <ele>971.8</ele>
        <time>2013-09-15T06:28:03Z</time>
      </trkpt>
      <trkpt lat="-20.93914" lon="55.40203">
        <ele>972.2</ele>
        <time>2013-09-15T06:28:06Z</time>
      </trkpt>
      <trkpt lat="-20.93913" lon="55.40194">
        <ele>971.6</ele>
        <time>2013-09-15T06:28:09Z</time>
      </trkpt>
      <trkpt lat="-20.9391" lon="55.40186">
        <ele>971.6</ele>
        <time>2013-09-15T06:28:12Z</time>
      </trkpt>
      <trkpt lat="-20.93906" lon="55.40179">
        <ele>971.1</ele>
        <time>2013-09-15T06:28:15Z</time>
      </trkpt>
      <trkpt lat="-20.939" lon="55.40175">
        <ele>970.2</ele>
        <time>2013-09-15T06:28:18Z</time>
      </trkpt>
      <trkpt lat="-20.93894" lon="55.40172">
        <ele>969.5</ele>
        <time>2013-09-15T06:28:21Z</time>
      </trkpt>
      <trkpt lat="-20.93887" lon="55.40168">
        <ele>969</ele>
        <time>2013-09-15T06:28:24Z</time>
      </trkpt>
      <trkpt lat="-20.93883" lon="55.40162">
        <ele>968.1</ele>
        <time>2013-09-15T06:28:27Z</time>
      </trkpt>
      <trkpt lat="-20.93881" lon="55.40153">
        <ele>968.3</ele>
        <time>2013-09-15T06:28:30Z</time>
      </trkpt>
      <trkpt lat="-20.93882" lon="55.40145">
        <ele>967.1</ele>
        <time>2013-09-15T06:28:33Z</time>
      </trkpt>
      <trkpt lat="-20.93884" lon="55.40138">
        <ele>966.7</ele>
        <time>2013-09-15T06:28:35Z</time>
      </trkpt>
      <trkpt lat="-20.93887" lon="55.40131">
        <ele>966.7</ele>
        <time>2013-09-15T06:28:38Z</time>
      </trkpt>
      <trkpt lat="-20.93891" lon="55.40124">
        <ele>965.9</ele>
        <time>2013-09-15T06:28:41Z</time>
      </trkpt>
      <trkpt lat="-20.93892" lon="55.40122">
        <ele>965.9</ele>
        <time>2013-09-15T06:28:42Z</time>
      </trkpt>
      <trkpt lat="-20.93897" lon="55.40109">
        <ele>965.4</ele>
        <time>2013-09-15T06:28:47Z</time>
      </trkpt>
      <trkpt lat="-20.93897" lon="55.40102">
        <ele>964.6</ele>
        <time>2013-09-15T06:28:50Z</time>
      </trkpt>
      <trkpt lat="-20.93892" lon="55.40096">
        <ele>964.5</ele>
        <time>2013-09-15T06:28:53Z</time>
      </trkpt>
      <trkpt lat="-20.93885" lon="55.40091">
        <ele>963.7</ele>
        <time>2013-09-15T06:28:56Z</time>
      </trkpt>
      <trkpt lat="-20.93879" lon="55.40087">
        <ele>963.4</ele>
        <time>2013-09-15T06:28:59Z</time>
      </trkpt>
      <trkpt lat="-20.93872" lon="55.40084">
        <ele>962.4</ele>
        <time>2013-09-15T06:29:02Z</time>
      </trkpt>
      <trkpt lat="-20.93865" lon="55.40081">
        <ele>962.4</ele>
        <time>2013-09-15T06:29:05Z</time>
      </trkpt>
      <trkpt lat="-20.93859" lon="55.40076">
        <ele>961.7</ele>
        <time>2013-09-15T06:29:08Z</time>
      </trkpt>
      <trkpt lat="-20.93854" lon="55.4007">
        <ele>960.9</ele>
        <time>2013-09-15T06:29:11Z</time>
      </trkpt>
      <trkpt lat="-20.93849" lon="55.40064">
        <ele>960.2</ele>
        <time>2013-09-15T06:29:14Z</time>
      </trkpt>
      <trkpt lat="-20.93844" lon="55.4006">
        <ele>960</ele>
        <time>2013-09-15T06:29:17Z</time>
      </trkpt>
      <trkpt lat="-20.93837" lon="55.40055">
        <ele>959.8</ele>
        <time>2013-09-15T06:29:20Z</time>
      </trkpt>
      <trkpt lat="-20.93829" lon="55.40051">
        <ele>959</ele>
        <time>2013-09-15T06:29:24Z</time>
      </trkpt>
      <trkpt lat="-20.93822" lon="55.40047">
        <ele>958.3</ele>
        <time>2013-09-15T06:29:27Z</time>
      </trkpt>
      <trkpt lat="-20.93816" lon="55.40043">
        <ele>958.7</ele>
        <time>2013-09-15T06:29:30Z</time>
      </trkpt>
      <trkpt lat="-20.93808" lon="55.40041">
        <ele>958</ele>
        <time>2013-09-15T06:29:33Z</time>
      </trkpt>
      <trkpt lat="-20.938" lon="55.40038">
        <ele>957.7</ele>
        <time>2013-09-15T06:29:36Z</time>
      </trkpt>
      <trkpt lat="-20.93793" lon="55.40037">
        <ele>957.8</ele>
        <time>2013-09-15T06:29:39Z</time>
      </trkpt>
      <trkpt lat="-20.93786" lon="55.40035">
        <ele>956.2</ele>
        <time>2013-09-15T06:29:42Z</time>
      </trkpt>
      <trkpt lat="-20.93784" lon="55.40034">
        <ele>955.8</ele>
        <time>2013-09-15T06:29:43Z</time>
      </trkpt>
      <trkpt lat="-20.93774" lon="55.40027">
        <ele>955</ele>
        <time>2013-09-15T06:29:48Z</time>
      </trkpt>
      <trkpt lat="-20.93772" lon="55.4002">
        <ele>954.9</ele>
        <time>2013-09-15T06:29:51Z</time>
      </trkpt>
      <trkpt lat="-20.93771" lon="55.40011">
        <ele>954.2</ele>
        <time>2013-09-15T06:29:54Z</time>
      </trkpt>
      <trkpt lat="-20.93773" lon="55.40003">
        <ele>953.4</ele>
        <time>2013-09-15T06:29:57Z</time>
      </trkpt>
      <trkpt lat="-20.93777" lon="55.39996">
        <ele>952.9</ele>
        <time>2013-09-15T06:30:00Z</time>
      </trkpt>
      <trkpt lat="-20.93781" lon="55.3999">
        <ele>953.2</ele>
        <time>2013-09-15T06:30:03Z</time>
      </trkpt>
      <trkpt lat="-20.93786" lon="55.39982">
        <ele>952.3</ele>
        <time>2013-09-15T06:30:07Z</time>
      </trkpt>
      <trkpt lat="-20.9379" lon="55.39976">
        <ele>952.4</ele>
        <time>2013-09-15T06:30:10Z</time>
      </trkpt>
      <trkpt lat="-20.93791" lon="55.39968">
        <ele>952.2</ele>
        <time>2013-09-15T06:30:13Z</time>
      </trkpt>
      <trkpt lat="-20.93793" lon="55.3996">
        <ele>951.5</ele>
        <time>2013-09-15T06:30:16Z</time>
      </trkpt>
      <trkpt lat="-20.93793" lon="55.39953">
        <ele>951</ele>
        <time>2013-09-15T06:30:19Z</time>
      </trkpt>
      <trkpt lat="-20.93796" lon="55.39945">
        <ele>951.2</ele>
        <time>2013-09-15T06:30:22Z</time>
      </trkpt>
      <trkpt lat="-20.93799" lon="55.39938">
        <ele>951.4</ele>
        <time>2013-09-15T06:30:25Z</time>
      </trkpt>
      <trkpt lat="-20.93799" lon="55.39929">
        <ele>950.5</ele>
        <time>2013-09-15T06:30:28Z</time>
      </trkpt>
      <trkpt lat="-20.93797" lon="55.39921">
        <ele>950.1</ele>
        <time>2013-09-15T06:30:31Z</time>
      </trkpt>
      <trkpt lat="-20.93795" lon="55.39914">
        <ele>949.9</ele>
        <time>2013-09-15T06:30:34Z</time>
      </trkpt>
      <trkpt lat="-20.93791" lon="55.39907">
        <ele>950.2</ele>
        <time>2013-09-15T06:30:37Z</time>
      </trkpt>
      <trkpt lat="-20.93786" lon="55.399">
        <ele>949</ele>
        <time>2013-09-15T06:30:40Z</time>
      </trkpt>
      <trkpt lat="-20.93781" lon="55.39893">
        <ele>948.6</ele>
        <time>2013-09-15T06:30:43Z</time>
      </trkpt>
      <trkpt lat="-20.9378" lon="55.39891">
        <ele>948.3</ele>
        <time>2013-09-15T06:30:44Z</time>
      </trkpt>
      <trkpt lat="-20.93771" lon="55.3988">
        <ele>946.8</ele>
        <time>2013-09-15T06:30:49Z</time>
      </trkpt>
      <trkpt lat="-20.93766" lon="55.39874">
        <ele>946.9</ele>
        <time>2013-09-15T06:30:52Z</time>
      </trkpt>
      <trkpt lat="-20.93762" lon="55.39868">
        <ele>947.2</ele>
        <time>2013-09-15T06:30:55Z</time>
      </trkpt>
      <trkpt lat="-20.93757" lon="55.39861">
        <ele>946.7</ele>
        <time>2013-09-15T06:30:58Z</time>
      </trkpt>
      <trkpt lat="-20.93751" lon="55.39854">
        <ele>944.5</ele>
        <time>2013-09-15T06:31:02Z</time>
      </trkpt>
      <trkpt lat="-20.93745" lon="55.39849">
        <ele>944.3</ele>
        <time>2013-09-15T06:31:05Z</time>
      </trkpt>
      <trkpt lat="-20.93738" lon="55.39849">
        <ele>945.1</ele>
        <time>2013-09-15T06:31:08Z</time>
      </trkpt>
      <trkpt lat="-20.93732" lon="55.39853">
        <ele>944.8</ele>
        <time>2013-09-15T06:31:11Z</time>
      </trkpt>
      <trkpt lat="-20.9373" lon="55.39862">
        <ele>944.4</ele>
        <time>2013-09-15T06:31:15Z</time>
      </trkpt>
      <trkpt lat="-20.93731" lon="55.39871">
        <ele>943.3</ele>
        <time>2013-09-15T06:31:19Z</time>
      </trkpt>
      <trkpt lat="-20.93733" lon="55.39878">
        <ele>942.9</ele>
        <time>2013-09-15T06:31:22Z</time>
      </trkpt>
      <trkpt lat="-20.93735" lon="55.39886">
        <ele>942.9</ele>
        <time>2013-09-15T06:31:25Z</time>
      </trkpt>
      <trkpt lat="-20.93738" lon="55.39894">
        <ele>942.1</ele>
        <time>2013-09-15T06:31:28Z</time>
      </trkpt>
      <trkpt lat="-20.93741" lon="55.39902">
        <ele>941.3</ele>
        <time>2013-09-15T06:31:31Z</time>
      </trkpt>
      <trkpt lat="-20.93744" lon="55.39909">
        <ele>941</ele>
        <time>2013-09-15T06:31:34Z</time>
      </trkpt>
      <trkpt lat="-20.93748" lon="55.39915">
        <ele>940.7</ele>
        <time>2013-09-15T06:31:37Z</time>
      </trkpt>
      <trkpt lat="-20.93752" lon="55.39922">
        <ele>940.3</ele>
        <time>2013-09-15T06:31:40Z</time>
      </trkpt>
      <trkpt lat="-20.93756" lon="55.39929">
        <ele>939.8</ele>
        <time>2013-09-15T06:31:43Z</time>
      </trkpt>
      <trkpt lat="-20.9376" lon="55.39937">
        <ele>939.6</ele>
        <time>2013-09-15T06:31:47Z</time>
      </trkpt>
      <trkpt lat="-20.93761" lon="55.3994">
        <ele>939.7</ele>
        <time>2013-09-15T06:31:48Z</time>
      </trkpt>
      <trkpt lat="-20.93762" lon="55.39956">
        <ele>938.4</ele>
        <time>2013-09-15T06:31:55Z</time>
      </trkpt>
      <trkpt lat="-20.9376" lon="55.39964">
        <ele>937.8</ele>
        <time>2013-09-15T06:31:58Z</time>
      </trkpt>
      <trkpt lat="-20.93755" lon="55.39971">
        <ele>937.2</ele>
        <time>2013-09-15T06:32:01Z</time>
      </trkpt>
      <trkpt lat="-20.93748" lon="55.39976">
        <ele>937.1</ele>
        <time>2013-09-15T06:32:04Z</time>
      </trkpt>
      <trkpt lat="-20.93742" lon="55.39981">
        <ele>936.4</ele>
        <time>2013-09-15T06:32:07Z</time>
      </trkpt>
      <trkpt lat="-20.93737" lon="55.39987">
        <ele>935.8</ele>
        <time>2013-09-15T06:32:10Z</time>
      </trkpt>
      <trkpt lat="-20.93734" lon="55.39996">
        <ele>935</ele>
        <time>2013-09-15T06:32:13Z</time>
      </trkpt>
      <trkpt lat="-20.93734" lon="55.40004">
        <ele>935</ele>
        <time>2013-09-15T06:32:16Z</time>
      </trkpt>
      <trkpt lat="-20.93735" lon="55.40012">
        <ele>934.7</ele>
        <time>2013-09-15T06:32:19Z</time>
      </trkpt>
      <trkpt lat="-20.93736" lon="55.40019">
        <ele>934.2</ele>
        <time>2013-09-15T06:32:22Z</time>
      </trkpt>
      <trkpt lat="-20.93737" lon="55.40028">
        <ele>933.4</ele>
        <time>2013-09-15T06:32:26Z</time>
      </trkpt>
      <trkpt lat="-20.93736" lon="55.40035">
        <ele>932.9</ele>
        <time>2013-09-15T06:32:29Z</time>
      </trkpt>
      <trkpt lat="-20.93737" lon="55.40043">
        <ele>932.2</ele>
        <time>2013-09-15T06:32:32Z</time>
      </trkpt>
      <trkpt lat="-20.93739" lon="55.40051">
        <ele>932.5</ele>
        <time>2013-09-15T06:32:35Z</time>
      </trkpt>
      <trkpt lat="-20.93742" lon="55.40059">
        <ele>932.1</ele>
        <time>2013-09-15T06:32:38Z</time>
      </trkpt>
      <trkpt lat="-20.93745" lon="55.40066">
        <ele>932</ele>
        <time>2013-09-15T06:32:41Z</time>
      </trkpt>
      <trkpt lat="-20.9375" lon="55.40072">
        <ele>931.5</ele>
        <time>2013-09-15T06:32:44Z</time>
      </trkpt>
      <trkpt lat="-20.93755" lon="55.40077">
        <ele>931.8</ele>
        <time>2013-09-15T06:32:47Z</time>
      </trkpt>
      <trkpt lat="-20.93759" lon="55.40082">
        <ele>932</ele>
        <time>2013-09-15T06:32:50Z</time>
      </trkpt>
      <trkpt lat="-20.93761" lon="55.40084">
        <ele>931.7</ele>
        <time>2013-09-15T06:32:51Z</time>
      </trkpt>
      <trkpt lat="-20.93771" lon="55.40095">
        <ele>929.8</ele>
        <time>2013-09-15T06:32:56Z</time>
      </trkpt>
      <trkpt lat="-20.93775" lon="55.40103">
        <ele>929.3</ele>
        <time>2013-09-15T06:32:59Z</time>
      </trkpt>
      <trkpt lat="-20.93779" lon="55.40109">
        <ele>928.3</ele>
        <time>2013-09-15T06:33:02Z</time>
      </trkpt>
      <trkpt lat="-20.93782" lon="55.40117">
        <ele>928.5</ele>
        <time>2013-09-15T06:33:05Z</time>
      </trkpt>
      <trkpt lat="-20.93785" lon="55.40124">
        <ele>928.1</ele>
        <time>2013-09-15T06:33:08Z</time>
      </trkpt>
      <trkpt lat="-20.93787" lon="55.40132">
        <ele>927.2</ele>
        <time>2013-09-15T06:33:11Z</time>
      </trkpt>
      <trkpt lat="-20.93787" lon="55.4014">
        <ele>926.7</ele>
        <time>2013-09-15T06:33:14Z</time>
      </trkpt>
      <trkpt lat="-20.93785" lon="55.40148">
        <ele>926</ele>
        <time>2013-09-15T06:33:17Z</time>
      </trkpt>
      <trkpt lat="-20.93778" lon="55.4015">
        <ele>925.2</ele>
        <time>2013-09-15T06:33:21Z</time>
      </trkpt>
      <trkpt lat="-20.93773" lon="55.40145">
        <ele>924.9</ele>
        <time>2013-09-15T06:33:25Z</time>
      </trkpt>
      <trkpt lat="-20.93769" lon="55.40139">
        <ele>924.5</ele>
        <time>2013-09-15T06:33:28Z</time>
      </trkpt>
      <trkpt lat="-20.93762" lon="55.40132">
        <ele>924.1</ele>
        <time>2013-09-15T06:33:32Z</time>
      </trkpt>
      <trkpt lat="-20.93754" lon="55.40128">
        <ele>923.7</ele>
        <time>2013-09-15T06:33:36Z</time>
      </trkpt>
      <trkpt lat="-20.93747" lon="55.40129">
        <ele>923.7</ele>
        <time>2013-09-15T06:33:39Z</time>
      </trkpt>
      <trkpt lat="-20.93739" lon="55.4013">
        <ele>922.9</ele>
        <time>2013-09-15T06:33:42Z</time>
      </trkpt>
      <trkpt lat="-20.93733" lon="55.4013">
        <ele>923.1</ele>
        <time>2013-09-15T06:33:44Z</time>
      </trkpt>
      <trkpt lat="-20.93725" lon="55.4013">
        <ele>922</ele>
        <time>2013-09-15T06:33:47Z</time>
      </trkpt>
      <trkpt lat="-20.93717" lon="55.40128">
        <ele>921.9</ele>
        <time>2013-09-15T06:33:50Z</time>
      </trkpt>
      <trkpt lat="-20.9371" lon="55.40126">
        <ele>921.4</ele>
        <time>2013-09-15T06:33:53Z</time>
      </trkpt>
      <trkpt lat="-20.93708" lon="55.40125">
        <ele>921.1</ele>
        <time>2013-09-15T06:33:54Z</time>
      </trkpt>
      <trkpt lat="-20.93696" lon="55.40121">
        <ele>920</ele>
        <time>2013-09-15T06:33:59Z</time>
      </trkpt>
      <trkpt lat="-20.93688" lon="55.40119">
        <ele>920.7</ele>
        <time>2013-09-15T06:34:02Z</time>
      </trkpt>
      <trkpt lat="-20.93681" lon="55.40115">
        <ele>920.7</ele>
        <time>2013-09-15T06:34:05Z</time>
      </trkpt>
      <trkpt lat="-20.93675" lon="55.40111">
        <ele>920.1</ele>
        <time>2013-09-15T06:34:08Z</time>
      </trkpt>
      <trkpt lat="-20.93668" lon="55.40106">
        <ele>919.9</ele>
        <time>2013-09-15T06:34:11Z</time>
      </trkpt>
      <trkpt lat="-20.93661" lon="55.40101">
        <ele>919.3</ele>
        <time>2013-09-15T06:34:14Z</time>
      </trkpt>
      <trkpt lat="-20.93654" lon="55.40095">
        <ele>919</ele>
        <time>2013-09-15T06:34:17Z</time>
      </trkpt>
      <trkpt lat="-20.93649" lon="55.4009">
        <ele>918.4</ele>
        <time>2013-09-15T06:34:20Z</time>
      </trkpt>
      <trkpt lat="-20.93645" lon="55.40083">
        <ele>917.8</ele>
        <time>2013-09-15T06:34:23Z</time>
      </trkpt>
      <trkpt lat="-20.93641" lon="55.40077">
        <ele>917.5</ele>
        <time>2013-09-15T06:34:26Z</time>
      </trkpt>
      <trkpt lat="-20.93635" lon="55.40071">
        <ele>917.3</ele>
        <time>2013-09-15T06:34:30Z</time>
      </trkpt>
      <trkpt lat="-20.93628" lon="55.40069">
        <ele>916.6</ele>
        <time>2013-09-15T06:34:33Z</time>
      </trkpt>
      <trkpt lat="-20.93621" lon="55.40071">
        <ele>915.8</ele>
        <time>2013-09-15T06:34:36Z</time>
      </trkpt>
      <trkpt lat="-20.93614" lon="55.40073">
        <ele>915.5</ele>
        <time>2013-09-15T06:34:39Z</time>
      </trkpt>
      <trkpt lat="-20.93605" lon="55.40074">
        <ele>915.4</ele>
        <time>2013-09-15T06:34:43Z</time>
      </trkpt>
      <trkpt lat="-20.93596" lon="55.40073">
        <ele>915.4</ele>
        <time>2013-09-15T06:34:46Z</time>
      </trkpt>
      <trkpt lat="-20.9359" lon="55.4007">
        <ele>914.3</ele>
        <time>2013-09-15T06:34:49Z</time>
      </trkpt>
      <trkpt lat="-20.93584" lon="55.40067">
        <ele>914.6</ele>
        <time>2013-09-15T06:34:52Z</time>
      </trkpt>
      <trkpt lat="-20.93576" lon="55.40068">
        <ele>914.1</ele>
        <time>2013-09-15T06:34:56Z</time>
      </trkpt>
      <trkpt lat="-20.93574" lon="55.40069">
        <ele>914.1</ele>
        <time>2013-09-15T06:34:57Z</time>
      </trkpt>
      <trkpt lat="-20.93562" lon="55.40072">
        <ele>912.9</ele>
        <time>2013-09-15T06:35:02Z</time>
      </trkpt>
      <trkpt lat="-20.93554" lon="55.40069">
        <ele>912.4</ele>
        <time>2013-09-15T06:35:06Z</time>
      </trkpt>
      <trkpt lat="-20.93549" lon="55.40062">
        <ele>912.5</ele>
        <time>2013-09-15T06:35:10Z</time>
      </trkpt>
      <trkpt lat="-20.93547" lon="55.40054">
        <ele>911.1</ele>
        <time>2013-09-15T06:35:13Z</time>
      </trkpt>
      <trkpt lat="-20.93546" lon="55.40045">
        <ele>910.6</ele>
        <time>2013-09-15T06:35:16Z</time>
      </trkpt>
      <trkpt lat="-20.93544" lon="55.40037">
        <ele>910.9</ele>
        <time>2013-09-15T06:35:19Z</time>
      </trkpt>
      <trkpt lat="-20.93543" lon="55.40028">
        <ele>911</ele>
        <time>2013-09-15T06:35:22Z</time>
      </trkpt>
      <trkpt lat="-20.93541" lon="55.40021">
        <ele>910.4</ele>
        <time>2013-09-15T06:35:25Z</time>
      </trkpt>
      <trkpt lat="-20.93536" lon="55.40015">
        <ele>910.4</ele>
        <time>2013-09-15T06:35:28Z</time>
      </trkpt>
      <trkpt lat="-20.93528" lon="55.40012">
        <ele>909.8</ele>
        <time>2013-09-15T06:35:32Z</time>
      </trkpt>
      <trkpt lat="-20.93519" lon="55.40012">
        <ele>909</ele>
        <time>2013-09-15T06:35:36Z</time>
      </trkpt>
      <trkpt lat="-20.93513" lon="55.4001">
        <ele>907.8</ele>
        <time>2013-09-15T06:35:39Z</time>
      </trkpt>
      <trkpt lat="-20.93504" lon="55.40008">
        <ele>907.6</ele>
        <time>2013-09-15T06:35:43Z</time>
      </trkpt>
      <trkpt lat="-20.93497" lon="55.40006">
        <ele>906.7</ele>
        <time>2013-09-15T06:35:46Z</time>
      </trkpt>
      <trkpt lat="-20.93491" lon="55.40003">
        <ele>906.9</ele>
        <time>2013-09-15T06:35:49Z</time>
      </trkpt>
      <trkpt lat="-20.93483" lon="55.40001">
        <ele>905.9</ele>
        <time>2013-09-15T06:35:52Z</time>
      </trkpt>
      <trkpt lat="-20.93476" lon="55.40001">
        <ele>905.1</ele>
        <time>2013-09-15T06:35:55Z</time>
      </trkpt>
      <trkpt lat="-20.93469" lon="55.40002">
        <ele>905</ele>
        <time>2013-09-15T06:35:58Z</time>
      </trkpt>
      <trkpt lat="-20.93466" lon="55.40003">
        <ele>904.9</ele>
        <time>2013-09-15T06:35:59Z</time>
      </trkpt>
      <trkpt lat="-20.93458" lon="55.40014">
        <ele>903.5</ele>
        <time>2013-09-15T06:36:04Z</time>
      </trkpt>
      <trkpt lat="-20.93457" lon="55.40022">
        <ele>904</ele>
        <time>2013-09-15T06:36:07Z</time>
      </trkpt>
      <trkpt lat="-20.93456" lon="55.4003">
        <ele>902.8</ele>
        <time>2013-09-15T06:36:11Z</time>
      </trkpt>
      <trkpt lat="-20.93454" lon="55.40039">
        <ele>901.8</ele>
        <time>2013-09-15T06:36:16Z</time>
      </trkpt>
      <trkpt lat="-20.93447" lon="55.40042">
        <ele>901.9</ele>
        <time>2013-09-15T06:36:21Z</time>
      </trkpt>
      <trkpt lat="-20.9344" lon="55.4004">
        <ele>901.2</ele>
        <time>2013-09-15T06:36:24Z</time>
      </trkpt>
      <trkpt lat="-20.93432" lon="55.40038">
        <ele>901.3</ele>
        <time>2013-09-15T06:36:27Z</time>
      </trkpt>
      <trkpt lat="-20.93424" lon="55.40037">
        <ele>900.7</ele>
        <time>2013-09-15T06:36:30Z</time>
      </trkpt>
      <trkpt lat="-20.93415" lon="55.40036">
        <ele>899.9</ele>
        <time>2013-09-15T06:36:34Z</time>
      </trkpt>
      <trkpt lat="-20.93407" lon="55.40034">
        <ele>899.4</ele>
        <time>2013-09-15T06:36:38Z</time>
      </trkpt>
      <trkpt lat="-20.934" lon="55.40032">
        <ele>899.1</ele>
        <time>2013-09-15T06:36:41Z</time>
      </trkpt>
      <trkpt lat="-20.93391" lon="55.40033">
        <ele>898.7</ele>
        <time>2013-09-15T06:36:45Z</time>
      </trkpt>
      <trkpt lat="-20.93383" lon="55.40036">
        <ele>898.7</ele>
        <time>2013-09-15T06:36:49Z</time>
      </trkpt>
      <trkpt lat="-20.93377" lon="55.40041">
        <ele>898.6</ele>
        <time>2013-09-15T06:36:52Z</time>
      </trkpt>
      <trkpt lat="-20.93372" lon="55.40047">
        <ele>898</ele>
        <time>2013-09-15T06:36:55Z</time>
      </trkpt>
      <trkpt lat="-20.93367" lon="55.40053">
        <ele>897.7</ele>
        <time>2013-09-15T06:36:58Z</time>
      </trkpt>
      <trkpt lat="-20.93361" lon="55.40058">
        <ele>897.4</ele>
        <time>2013-09-15T06:37:01Z</time>
      </trkpt>
      <trkpt lat="-20.93358" lon="55.40059">
        <ele>896.9</ele>
        <time>2013-09-15T06:37:02Z</time>
      </trkpt>
      <trkpt lat="-20.93347" lon="55.40061">
        <ele>895.9</ele>
        <time>2013-09-15T06:37:07Z</time>
      </trkpt>
      <trkpt lat="-20.9334" lon="55.40063">
        <ele>895.4</ele>
        <time>2013-09-15T06:37:10Z</time>
      </trkpt>
      <trkpt lat="-20.93333" lon="55.40065">
        <ele>894.7</ele>
        <time>2013-09-15T06:37:13Z</time>
      </trkpt>
      <trkpt lat="-20.93326" lon="55.40067">
        <ele>894.2</ele>
        <time>2013-09-15T06:37:16Z</time>
      </trkpt>
      <trkpt lat="-20.93319" lon="55.40072">
        <ele>894.1</ele>
        <time>2013-09-15T06:37:19Z</time>
      </trkpt>
      <trkpt lat="-20.93314" lon="55.40078">
        <ele>893.8</ele>
        <time>2013-09-15T06:37:22Z</time>
      </trkpt>
      <trkpt lat="-20.93311" lon="55.40085">
        <ele>893.2</ele>
        <time>2013-09-15T06:37:25Z</time>
      </trkpt>
      <trkpt lat="-20.93311" lon="55.40093">
        <ele>893</ele>
        <time>2013-09-15T06:37:28Z</time>
      </trkpt>
      <trkpt lat="-20.93313" lon="55.40101">
        <ele>893</ele>
        <time>2013-09-15T06:37:31Z</time>
      </trkpt>
      <trkpt lat="-20.93313" lon="55.40109">
        <ele>892.2</ele>
        <time>2013-09-15T06:37:34Z</time>
      </trkpt>
      <trkpt lat="-20.9331" lon="55.40117">
        <ele>891.9</ele>
        <time>2013-09-15T06:37:38Z</time>
      </trkpt>
      <trkpt lat="-20.93302" lon="55.40119">
        <ele>891.8</ele>
        <time>2013-09-15T06:37:42Z</time>
      </trkpt>
      <trkpt lat="-20.93296" lon="55.40113">
        <ele>890.5</ele>
        <time>2013-09-15T06:37:45Z</time>
      </trkpt>
      <trkpt lat="-20.93296" lon="55.40105">
        <ele>889.9</ele>
        <time>2013-09-15T06:37:48Z</time>
      </trkpt>
      <trkpt lat="-20.93295" lon="55.40097">
        <ele>889.2</ele>
        <time>2013-09-15T06:37:51Z</time>
      </trkpt>
      <trkpt lat="-20.93294" lon="55.40089">
        <ele>889.5</ele>
        <time>2013-09-15T06:37:54Z</time>
      </trkpt>
      <trkpt lat="-20.93294" lon="55.40081">
        <ele>889</ele>
        <time>2013-09-15T06:37:57Z</time>
      </trkpt>
      <trkpt lat="-20.93294" lon="55.40073">
        <ele>888.1</ele>
        <time>2013-09-15T06:38:00Z</time>
      </trkpt>
      <trkpt lat="-20.93296" lon="55.40065">
        <ele>888.1</ele>
        <time>2013-09-15T06:38:03Z</time>
      </trkpt>
      <trkpt lat="-20.93297" lon="55.40063">
        <ele>887.9</ele>
        <time>2013-09-15T06:38:04Z</time>
      </trkpt>
      <trkpt lat="-20.93304" lon="55.40054">
        <ele>886.9</ele>
        <time>2013-09-15T06:38:09Z</time>
      </trkpt>
      <trkpt lat="-20.93312" lon="55.40051">
        <ele>886.5</ele>
        <time>2013-09-15T06:38:12Z</time>
      </trkpt>
      <trkpt lat="-20.93319" lon="55.40049">
        <ele>885.8</ele>
        <time>2013-09-15T06:38:15Z</time>
      </trkpt>
      <trkpt lat="-20.93325" lon="55.40047">
        <ele>885.1</ele>
        <time>2013-09-15T06:38:18Z</time>
      </trkpt>
      <trkpt lat="-20.93332" lon="55.40043">
        <ele>884.6</ele>
        <time>2013-09-15T06:38:21Z</time>
      </trkpt>
      <trkpt lat="-20.93338" lon="55.4004">
        <ele>884.1</ele>
        <time>2013-09-15T06:38:24Z</time>
      </trkpt>
      <trkpt lat="-20.93344" lon="55.40033">
        <ele>884</ele>
        <time>2013-09-15T06:38:28Z</time>
      </trkpt>
      <trkpt lat="-20.93345" lon="55.40024">
        <ele>884</ele>
        <time>2013-09-15T06:38:33Z</time>
      </trkpt>
      <trkpt lat="-20.93349" lon="55.40017">
        <ele>883.1</ele>
        <time>2013-09-15T06:38:37Z</time>
      </trkpt>
      <trkpt lat="-20.93356" lon="55.40011">
        <ele>882.3</ele>
        <time>2013-09-15T06:38:41Z</time>
      </trkpt>
      <trkpt lat="-20.93364" lon="55.40008">
        <ele>882.2</ele>
        <time>2013-09-15T06:38:45Z</time>
      </trkpt>
      <trkpt lat="-20.93372" lon="55.40006">
        <ele>881.8</ele>
        <time>2013-09-15T06:38:50Z</time>
      </trkpt>
      <trkpt lat="-20.93381" lon="55.40004">
        <ele>881.1</ele>
        <time>2013-09-15T06:38:56Z</time>
      </trkpt>
      <trkpt lat="-20.93385" lon="55.39997">
        <ele>880.5</ele>
        <time>2013-09-15T06:39:00Z</time>
      </trkpt>
      <trkpt lat="-20.93386" lon="55.39988">
        <ele>880.7</ele>
        <time>2013-09-15T06:39:04Z</time>
      </trkpt>
      <trkpt lat="-20.93386" lon="55.39986">
        <ele>880.9</ele>
        <time>2013-09-15T06:39:05Z</time>
      </trkpt>
      <trkpt lat="-20.93381" lon="55.39974">
        <ele>880.2</ele>
        <time>2013-09-15T06:39:12Z</time>
      </trkpt>
      <trkpt lat="-20.93378" lon="55.39966">
        <ele>880</ele>
        <time>2013-09-15T06:39:16Z</time>
      </trkpt>
      <trkpt lat="-20.93375" lon="55.3996">
        <ele>879.9</ele>
        <time>2013-09-15T06:39:19Z</time>
      </trkpt>
      <trkpt lat="-20.93371" lon="55.39954">
        <ele>878.8</ele>
        <time>2013-09-15T06:39:22Z</time>
      </trkpt>
      <trkpt lat="-20.93366" lon="55.39947">
        <ele>877.8</ele>
        <time>2013-09-15T06:39:25Z</time>
      </trkpt>
      <trkpt lat="-20.93362" lon="55.39941">
        <ele>877.4</ele>
        <time>2013-09-15T06:39:28Z</time>
      </trkpt>
      <trkpt lat="-20.93357" lon="55.39935">
        <ele>877.2</ele>
        <time>2013-09-15T06:39:31Z</time>
      </trkpt>
      <trkpt lat="-20.93351" lon="55.39928">
        <ele>876.3</ele>
        <time>2013-09-15T06:39:35Z</time>
      </trkpt>
      <trkpt lat="-20.93346" lon="55.39923">
        <ele>876.5</ele>
        <time>2013-09-15T06:39:38Z</time>
      </trkpt>
      <trkpt lat="-20.93341" lon="55.39917">
        <ele>876.4</ele>
        <time>2013-09-15T06:39:41Z</time>
      </trkpt>
      <trkpt lat="-20.93335" lon="55.39912">
        <ele>875.8</ele>
        <time>2013-09-15T06:39:44Z</time>
      </trkpt>
      <trkpt lat="-20.9333" lon="55.39908">
        <ele>875.8</ele>
        <time>2013-09-15T06:39:47Z</time>
      </trkpt>
      <trkpt lat="-20.93323" lon="55.39902">
        <ele>875.1</ele>
        <time>2013-09-15T06:39:51Z</time>
      </trkpt>
      <trkpt lat="-20.93317" lon="55.39898">
        <ele>874.1</ele>
        <time>2013-09-15T06:39:54Z</time>
      </trkpt>
      <trkpt lat="-20.93311" lon="55.39893">
        <ele>874</ele>
        <time>2013-09-15T06:39:57Z</time>
      </trkpt>
      <trkpt lat="-20.93305" lon="55.39887">
        <ele>873.1</ele>
        <time>2013-09-15T06:40:01Z</time>
      </trkpt>
      <trkpt lat="-20.933" lon="55.3988">
        <ele>872.9</ele>
        <time>2013-09-15T06:40:05Z</time>
      </trkpt>
      <trkpt lat="-20.933" lon="55.39877">
        <ele>873.2</ele>
        <time>2013-09-15T06:40:06Z</time>
      </trkpt>
      <trkpt lat="-20.933" lon="55.39865">
        <ele>871.8</ele>
        <time>2013-09-15T06:40:11Z</time>
      </trkpt>
      <trkpt lat="-20.93302" lon="55.39858">
        <ele>871.6</ele>
        <time>2013-09-15T06:40:14Z</time>
      </trkpt>
      <trkpt lat="-20.93303" lon="55.39849">
        <ele>871.6</ele>
        <time>2013-09-15T06:40:18Z</time>
      </trkpt>
      <trkpt lat="-20.93304" lon="55.39839">
        <ele>870.9</ele>
        <time>2013-09-15T06:40:22Z</time>
      </trkpt>
      <trkpt lat="-20.93308" lon="55.39832">
        <ele>869.9</ele>
        <time>2013-09-15T06:40:26Z</time>
      </trkpt>
      <trkpt lat="-20.93314" lon="55.39827">
        <ele>869.2</ele>
        <time>2013-09-15T06:40:31Z</time>
      </trkpt>
      <trkpt lat="-20.93321" lon="55.39825">
        <ele>869.4</ele>
        <time>2013-09-15T06:40:36Z</time>
      </trkpt>
      <trkpt lat="-20.9333" lon="55.39824">
        <ele>870</ele>
        <time>2013-09-15T06:40:42Z</time>
      </trkpt>
      <trkpt lat="-20.93338" lon="55.39823">
        <ele>869.9</ele>
        <time>2013-09-15T06:40:48Z</time>
      </trkpt>
      <trkpt lat="-20.93346" lon="55.39824">
        <ele>870</ele>
        <time>2013-09-15T06:40:53Z</time>
      </trkpt>
      <trkpt lat="-20.93355" lon="55.39822">
        <ele>870</ele>
        <time>2013-09-15T06:40:59Z</time>
      </trkpt>
      <trkpt lat="-20.93361" lon="55.39817">
        <ele>869.5</ele>
        <time>2013-09-15T06:41:04Z</time>
      </trkpt>
      <trkpt lat="-20.93365" lon="55.39809">
        <ele>869.5</ele>
        <time>2013-09-15T06:41:08Z</time>
      </trkpt>
      <trkpt lat="-20.93365" lon="55.39807">
        <ele>869.2</ele>
        <time>2013-09-15T06:41:09Z</time>
      </trkpt>
      <trkpt lat="-20.93358" lon="55.39794">
        <ele>868.4</ele>
        <time>2013-09-15T06:41:15Z</time>
      </trkpt>
      <trkpt lat="-20.9335" lon="55.39793">
        <ele>868.2</ele>
        <time>2013-09-15T06:41:18Z</time>
      </trkpt>
      <trkpt lat="-20.93344" lon="55.39793">
        <ele>867.7</ele>
        <time>2013-09-15T06:41:21Z</time>
      </trkpt>
      <trkpt lat="-20.93337" lon="55.39795">
        <ele>867.2</ele>
        <time>2013-09-15T06:41:24Z</time>
      </trkpt>
      <trkpt lat="-20.93331" lon="55.39799">
        <ele>867.3</ele>
        <time>2013-09-15T06:41:27Z</time>
      </trkpt>
      <trkpt lat="-20.93325" lon="55.39804">
        <ele>866.4</ele>
        <time>2013-09-15T06:41:30Z</time>
      </trkpt>
      <trkpt lat="-20.93317" lon="55.39808">
        <ele>866.5</ele>
        <time>2013-09-15T06:41:33Z</time>
      </trkpt>
      <trkpt lat="-20.93311" lon="55.39812">
        <ele>866.1</ele>
        <time>2013-09-15T06:41:36Z</time>
      </trkpt>
      <trkpt lat="-20.93305" lon="55.39816">
        <ele>865.7</ele>
        <time>2013-09-15T06:41:39Z</time>
      </trkpt>
      <trkpt lat="-20.93298" lon="55.39821">
        <ele>865.3</ele>
        <time>2013-09-15T06:41:42Z</time>
      </trkpt>
      <trkpt lat="-20.93292" lon="55.39826">
        <ele>865</ele>
        <time>2013-09-15T06:41:45Z</time>
      </trkpt>
      <trkpt lat="-20.93288" lon="55.39832">
        <ele>863.7</ele>
        <time>2013-09-15T06:41:48Z</time>
      </trkpt>
      <trkpt lat="-20.93284" lon="55.3984">
        <ele>863.9</ele>
        <time>2013-09-15T06:41:51Z</time>
      </trkpt>
      <trkpt lat="-20.93282" lon="55.39847">
        <ele>864.2</ele>
        <time>2013-09-15T06:41:54Z</time>
      </trkpt>
      <trkpt lat="-20.93281" lon="55.39854">
        <ele>864.7</ele>
        <time>2013-09-15T06:41:57Z</time>
      </trkpt>
      <trkpt lat="-20.9328" lon="55.39861">
        <ele>864</ele>
        <time>2013-09-15T06:42:00Z</time>
      </trkpt>
      <trkpt lat="-20.93279" lon="55.39868">
        <ele>863.5</ele>
        <time>2013-09-15T06:42:03Z</time>
      </trkpt>
      <trkpt lat="-20.93279" lon="55.39876">
        <ele>863.2</ele>
        <time>2013-09-15T06:42:06Z</time>
      </trkpt>
      <trkpt lat="-20.93279" lon="55.39883">
        <ele>862.4</ele>
        <time>2013-09-15T06:42:09Z</time>
      </trkpt>
      <trkpt lat="-20.93278" lon="55.39886">
        <ele>862.2</ele>
        <time>2013-09-15T06:42:10Z</time>
      </trkpt>
      <trkpt lat="-20.9328" lon="55.399">
        <ele>862.3</ele>
        <time>2013-09-15T06:42:16Z</time>
      </trkpt>
      <trkpt lat="-20.93282" lon="55.39907">
        <ele>862.5</ele>
        <time>2013-09-15T06:42:19Z</time>
      </trkpt>
      <trkpt lat="-20.93285" lon="55.39914">
        <ele>861.7</ele>
        <time>2013-09-15T06:42:22Z</time>
      </trkpt>
      <trkpt lat="-20.93289" lon="55.39923">
        <ele>861.3</ele>
        <time>2013-09-15T06:42:26Z</time>
      </trkpt>
      <trkpt lat="-20.93294" lon="55.3993">
        <ele>861.1</ele>
        <time>2013-09-15T06:42:30Z</time>
      </trkpt>
      <trkpt lat="-20.93299" lon="55.39938">
        <ele>859.9</ele>
        <time>2013-09-15T06:42:34Z</time>
      </trkpt>
      <trkpt lat="-20.93305" lon="55.39945">
        <ele>859.3</ele>
        <time>2013-09-15T06:42:38Z</time>
      </trkpt>
      <trkpt lat="-20.9331" lon="55.39951">
        <ele>858.7</ele>
        <time>2013-09-15T06:42:41Z</time>
      </trkpt>
      <trkpt lat="-20.93313" lon="55.39958">
        <ele>857.8</ele>
        <time>2013-09-15T06:42:45Z</time>
      </trkpt>
      <trkpt lat="-20.9331" lon="55.39966">
        <ele>857.5</ele>
        <time>2013-09-15T06:42:50Z</time>
      </trkpt>
      <trkpt lat="-20.93302" lon="55.39971">
        <ele>856.9</ele>
        <time>2013-09-15T06:42:56Z</time>
      </trkpt>
      <trkpt lat="-20.93294" lon="55.39975">
        <ele>856</ele>
        <time>2013-09-15T06:43:01Z</time>
      </trkpt>
      <trkpt lat="-20.93287" lon="55.39976">
        <ele>855.4</ele>
        <time>2013-09-15T06:43:04Z</time>
      </trkpt>
      <trkpt lat="-20.93279" lon="55.39975">
        <ele>856.2</ele>
        <time>2013-09-15T06:43:07Z</time>
      </trkpt>
      <trkpt lat="-20.9327" lon="55.39975">
        <ele>855.8</ele>
        <time>2013-09-15T06:43:10Z</time>
      </trkpt>
      <trkpt lat="-20.93268" lon="55.39976">
        <ele>855.6</ele>
        <time>2013-09-15T06:43:11Z</time>
      </trkpt>
      <trkpt lat="-20.93255" lon="55.39975">
        <ele>853.9</ele>
        <time>2013-09-15T06:43:17Z</time>
      </trkpt>
      <trkpt lat="-20.93249" lon="55.39971">
        <ele>853.5</ele>
        <time>2013-09-15T06:43:20Z</time>
      </trkpt>
      <trkpt lat="-20.93241" lon="55.39966">
        <ele>853.6</ele>
        <time>2013-09-15T06:43:24Z</time>
      </trkpt>
      <trkpt lat="-20.93234" lon="55.39964">
        <ele>853.8</ele>
        <time>2013-09-15T06:43:27Z</time>
      </trkpt>
      <trkpt lat="-20.93225" lon="55.39966">
        <ele>852.5</ele>
        <time>2013-09-15T06:43:31Z</time>
      </trkpt>
      <trkpt lat="-20.93217" lon="55.39968">
        <ele>851.9</ele>
        <time>2013-09-15T06:43:36Z</time>
      </trkpt>
      <trkpt lat="-20.93209" lon="55.39973">
        <ele>851.5</ele>
        <time>2013-09-15T06:43:42Z</time>
      </trkpt>
      <trkpt lat="-20.93202" lon="55.39977">
        <ele>850.7</ele>
        <time>2013-09-15T06:43:47Z</time>
      </trkpt>
      <trkpt lat="-20.93195" lon="55.39981">
        <ele>850.7</ele>
        <time>2013-09-15T06:43:52Z</time>
      </trkpt>
      <trkpt lat="-20.93188" lon="55.39983">
        <ele>850.7</ele>
        <time>2013-09-15T06:43:57Z</time>
      </trkpt>
      <trkpt lat="-20.93181" lon="55.39986">
        <ele>849.7</ele>
        <time>2013-09-15T06:44:01Z</time>
      </trkpt>
      <trkpt lat="-20.93177" lon="55.39992">
        <ele>848.9</ele>
        <time>2013-09-15T06:44:04Z</time>
      </trkpt>
      <trkpt lat="-20.9317" lon="55.39998">
        <ele>848.7</ele>
        <time>2013-09-15T06:44:08Z</time>
      </trkpt>
      <trkpt lat="-20.93163" lon="55.40004">
        <ele>848.1</ele>
        <time>2013-09-15T06:44:12Z</time>
      </trkpt>
      <trkpt lat="-20.93161" lon="55.40004">
        <ele>847.8</ele>
        <time>2013-09-15T06:44:13Z</time>
      </trkpt>
      <trkpt lat="-20.9315" lon="55.40016">
        <ele>846.5</ele>
        <time>2013-09-15T06:44:20Z</time>
      </trkpt>
      <trkpt lat="-20.93142" lon="55.40019">
        <ele>845.7</ele>
        <time>2013-09-15T06:44:24Z</time>
      </trkpt>
      <trkpt lat="-20.93135" lon="55.40022">
        <ele>845.3</ele>
        <time>2013-09-15T06:44:28Z</time>
      </trkpt>
      <trkpt lat="-20.93128" lon="55.40027">
        <ele>845.3</ele>
        <time>2013-09-15T06:44:32Z</time>
      </trkpt>
      <trkpt lat="-20.93121" lon="55.40031">
        <ele>844.6</ele>
        <time>2013-09-15T06:44:35Z</time>
      </trkpt>
      <trkpt lat="-20.93114" lon="55.40034">
        <ele>843.4</ele>
        <time>2013-09-15T06:44:38Z</time>
      </trkpt>
      <trkpt lat="-20.93108" lon="55.40038">
        <ele>843.7</ele>
        <time>2013-09-15T06:44:41Z</time>
      </trkpt>
      <trkpt lat="-20.93101" lon="55.40044">
        <ele>843.7</ele>
        <time>2013-09-15T06:44:45Z</time>
      </trkpt>
      <trkpt lat="-20.93097" lon="55.40052">
        <ele>842.8</ele>
        <time>2013-09-15T06:44:49Z</time>
      </trkpt>
      <trkpt lat="-20.93095" lon="55.40061">
        <ele>842.5</ele>
        <time>2013-09-15T06:44:53Z</time>
      </trkpt>
      <trkpt lat="-20.93095" lon="55.4007">
        <ele>842.5</ele>
        <time>2013-09-15T06:44:57Z</time>
      </trkpt>
      <trkpt lat="-20.93095" lon="55.40079">
        <ele>841.8</ele>
        <time>2013-09-15T06:45:01Z</time>
      </trkpt>
      <trkpt lat="-20.93095" lon="55.40087">
        <ele>841.1</ele>
        <time>2013-09-15T06:45:04Z</time>
      </trkpt>
      <trkpt lat="-20.93096" lon="55.40095">
        <ele>840.7</ele>
        <time>2013-09-15T06:45:07Z</time>
      </trkpt>
      <trkpt lat="-20.93096" lon="55.40103">
        <ele>840.9</ele>
        <time>2013-09-15T06:45:10Z</time>
      </trkpt>
      <trkpt lat="-20.93096" lon="55.40111">
        <ele>840.1</ele>
        <time>2013-09-15T06:45:13Z</time>
      </trkpt>
      <trkpt lat="-20.93095" lon="55.40113">
        <ele>840.1</ele>
        <time>2013-09-15T06:45:14Z</time>
      </trkpt>
      <trkpt lat="-20.93088" lon="55.40125">
        <ele>839.7</ele>
        <time>2013-09-15T06:45:19Z</time>
      </trkpt>
      <trkpt lat="-20.93079" lon="55.40126">
        <ele>839</ele>
        <time>2013-09-15T06:45:23Z</time>
      </trkpt>
      <trkpt lat="-20.93074" lon="55.40119">
        <ele>838</ele>
        <time>2013-09-15T06:45:27Z</time>
      </trkpt>
      <trkpt lat="-20.93073" lon="55.4011">
        <ele>837.6</ele>
        <time>2013-09-15T06:45:32Z</time>
      </trkpt>
      <trkpt lat="-20.93075" lon="55.40101">
        <ele>837</ele>
        <time>2013-09-15T06:45:38Z</time>
      </trkpt>
      <trkpt lat="-20.93078" lon="55.40094">
        <ele>836.7</ele>
        <time>2013-09-15T06:45:43Z</time>
      </trkpt>
      <trkpt lat="-20.93081" lon="55.40085">
        <ele>835.9</ele>
        <time>2013-09-15T06:45:48Z</time>
      </trkpt>
      <trkpt lat="-20.93081" lon="55.40078">
        <ele>835.4</ele>
        <time>2013-09-15T06:45:51Z</time>
      </trkpt>
      <trkpt lat="-20.93081" lon="55.4007">
        <ele>835.4</ele>
        <time>2013-09-15T06:45:54Z</time>
      </trkpt>
      <trkpt lat="-20.93079" lon="55.40063">
        <ele>835.2</ele>
        <time>2013-09-15T06:45:57Z</time>
      </trkpt>
      <trkpt lat="-20.93076" lon="55.40055">
        <ele>835.2</ele>
        <time>2013-09-15T06:46:00Z</time>
      </trkpt>
      <trkpt lat="-20.93072" lon="55.40048">
        <ele>835</ele>
        <time>2013-09-15T06:46:03Z</time>
      </trkpt>
      <trkpt lat="-20.93068" lon="55.40041">
        <ele>835.1</ele>
        <time>2013-09-15T06:46:06Z</time>
      </trkpt>
      <trkpt lat="-20.93065" lon="55.40032">
        <ele>834.3</ele>
        <time>2013-09-15T06:46:10Z</time>
      </trkpt>
      <trkpt lat="-20.93068" lon="55.40024">
        <ele>832.9</ele>
        <time>2013-09-15T06:46:15Z</time>
      </trkpt>
      <trkpt lat="-20.9307" lon="55.40022">
        <ele>832.8</ele>
        <time>2013-09-15T06:46:16Z</time>
      </trkpt>
      <trkpt lat="-20.93082" lon="55.40014">
        <ele>832.2</ele>
        <time>2013-09-15T06:46:22Z</time>
      </trkpt>
      <trkpt lat="-20.93089" lon="55.40009">
        <ele>831.2</ele>
        <time>2013-09-15T06:46:26Z</time>
      </trkpt>
      <trkpt lat="-20.93097" lon="55.40005">
        <ele>830.7</ele>
        <time>2013-09-15T06:46:30Z</time>
      </trkpt>
      <trkpt lat="-20.93104" lon="55.40001">
        <ele>830.8</ele>
        <time>2013-09-15T06:46:34Z</time>
      </trkpt>
      <trkpt lat="-20.93111" lon="55.39996">
        <ele>829.7</ele>
        <time>2013-09-15T06:46:38Z</time>
      </trkpt>
      <trkpt lat="-20.93115" lon="55.3999">
        <ele>829.3</ele>
        <time>2013-09-15T06:46:42Z</time>
      </trkpt>
      <trkpt lat="-20.93119" lon="55.39983">
        <ele>828.8</ele>
        <time>2013-09-15T06:46:46Z</time>
      </trkpt>
      <trkpt lat="-20.93121" lon="55.39975">
        <ele>828</ele>
        <time>2013-09-15T06:46:50Z</time>
      </trkpt>
      <trkpt lat="-20.9312" lon="55.39967">
        <ele>828</ele>
        <time>2013-09-15T06:46:54Z</time>
      </trkpt>
      <trkpt lat="-20.93119" lon="55.39957">
        <ele>827.9</ele>
        <time>2013-09-15T06:46:59Z</time>
      </trkpt>
      <trkpt lat="-20.93116" lon="55.3995">
        <ele>827.9</ele>
        <time>2013-09-15T06:47:02Z</time>
      </trkpt>
      <trkpt lat="-20.93112" lon="55.39942">
        <ele>827</ele>
        <time>2013-09-15T06:47:05Z</time>
      </trkpt>
      <trkpt lat="-20.93108" lon="55.39934">
        <ele>826.5</ele>
        <time>2013-09-15T06:47:08Z</time>
      </trkpt>
      <trkpt lat="-20.93106" lon="55.39925">
        <ele>825.8</ele>
        <time>2013-09-15T06:47:11Z</time>
      </trkpt>
      <trkpt lat="-20.93103" lon="55.39918">
        <ele>824.6</ele>
        <time>2013-09-15T06:47:14Z</time>
      </trkpt>
      <trkpt lat="-20.931" lon="55.3991">
        <ele>824.4</ele>
        <time>2013-09-15T06:47:17Z</time>
      </trkpt>
      <trkpt lat="-20.931" lon="55.39907">
        <ele>824.5</ele>
        <time>2013-09-15T06:47:18Z</time>
      </trkpt>
      <trkpt lat="-20.93098" lon="55.39894">
        <ele>824</ele>
        <time>2013-09-15T06:47:23Z</time>
      </trkpt>
      <trkpt lat="-20.93097" lon="55.39886">
        <ele>823.7</ele>
        <time>2013-09-15T06:47:26Z</time>
      </trkpt>
      <trkpt lat="-20.93095" lon="55.39879">
        <ele>823.9</ele>
        <time>2013-09-15T06:47:29Z</time>
      </trkpt>
      <trkpt lat="-20.93093" lon="55.39872">
        <ele>823.3</ele>
        <time>2013-09-15T06:47:32Z</time>
      </trkpt>
      <trkpt lat="-20.93086" lon="55.39869">
        <ele>823.3</ele>
        <time>2013-09-15T06:47:35Z</time>
      </trkpt>
      <trkpt lat="-20.93079" lon="55.3987">
        <ele>822.3</ele>
        <time>2013-09-15T06:47:39Z</time>
      </trkpt>
      <trkpt lat="-20.93074" lon="55.39876">
        <ele>821.8</ele>
        <time>2013-09-15T06:47:43Z</time>
      </trkpt>
      <trkpt lat="-20.93072" lon="55.39884">
        <ele>821.9</ele>
        <time>2013-09-15T06:47:47Z</time>
      </trkpt>
      <trkpt lat="-20.93073" lon="55.39892">
        <ele>821.3</ele>
        <time>2013-09-15T06:47:50Z</time>
      </trkpt>
      <trkpt lat="-20.93075" lon="55.39899">
        <ele>820.4</ele>
        <time>2013-09-15T06:47:53Z</time>
      </trkpt>
      <trkpt lat="-20.93078" lon="55.39906">
        <ele>820</ele>
        <time>2013-09-15T06:47:56Z</time>
      </trkpt>
      <trkpt lat="-20.93081" lon="55.39913">
        <ele>819.7</ele>
        <time>2013-09-15T06:47:59Z</time>
      </trkpt>
      <trkpt lat="-20.93084" lon="55.39921">
        <ele>819.2</ele>
        <time>2013-09-15T06:48:03Z</time>
      </trkpt>
      <trkpt lat="-20.93086" lon="55.39931">
        <ele>818.9</ele>
        <time>2013-09-15T06:48:07Z</time>
      </trkpt>
      <trkpt lat="-20.93087" lon="55.39938">
        <ele>818.5</ele>
        <time>2013-09-15T06:48:10Z</time>
      </trkpt>
      <trkpt lat="-20.93087" lon="55.39946">
        <ele>818.4</ele>
        <time>2013-09-15T06:48:13Z</time>
      </trkpt>
      <trkpt lat="-20.93086" lon="55.39953">
        <ele>817.7</ele>
        <time>2013-09-15T06:48:16Z</time>
      </trkpt>
      <trkpt lat="-20.93084" lon="55.39961">
        <ele>816.6</ele>
        <time>2013-09-15T06:48:20Z</time>
      </trkpt>
      <trkpt lat="-20.93083" lon="55.39963">
        <ele>816.7</ele>
        <time>2013-09-15T06:48:21Z</time>
      </trkpt>
      <trkpt lat="-20.93073" lon="55.39975">
        <ele>816.3</ele>
        <time>2013-09-15T06:48:35Z</time>
      </trkpt>
      <trkpt lat="-20.93065" lon="55.39976">
        <ele>816.4</ele>
        <time>2013-09-15T06:48:42Z</time>
      </trkpt>
      <trkpt lat="-20.93057" lon="55.39974">
        <ele>815.3</ele>
        <time>2013-09-15T06:48:47Z</time>
      </trkpt>
      <trkpt lat="-20.9305" lon="55.39972">
        <ele>814</ele>
        <time>2013-09-15T06:48:52Z</time>
      </trkpt>
      <trkpt lat="-20.93043" lon="55.39969">
        <ele>814.2</ele>
        <time>2013-09-15T06:48:56Z</time>
      </trkpt>
      <trkpt lat="-20.93035" lon="55.39967">
        <ele>814.2</ele>
        <time>2013-09-15T06:49:02Z</time>
      </trkpt>
      <trkpt lat="-20.93027" lon="55.39965">
        <ele>812.6</ele>
        <time>2013-09-15T06:49:10Z</time>
      </trkpt>
      <trkpt lat="-20.93019" lon="55.39962">
        <ele>812.5</ele>
        <time>2013-09-15T06:49:16Z</time>
      </trkpt>
      <trkpt lat="-20.93011" lon="55.39961">
        <ele>811.3</ele>
        <time>2013-09-15T06:49:21Z</time>
      </trkpt>
      <trkpt lat="-20.93009" lon="55.3996">
        <ele>811.2</ele>
        <time>2013-09-15T06:49:22Z</time>
      </trkpt>
      <trkpt lat="-20.92995" lon="55.39961">
        <ele>810.9</ele>
        <time>2013-09-15T06:49:31Z</time>
      </trkpt>
      <trkpt lat="-20.92987" lon="55.39964">
        <ele>810.5</ele>
        <time>2013-09-15T06:49:36Z</time>
      </trkpt>
      <trkpt lat="-20.92982" lon="55.39971">
        <ele>809.1</ele>
        <time>2013-09-15T06:49:41Z</time>
      </trkpt>
      <trkpt lat="-20.9298" lon="55.3998">
        <ele>809.3</ele>
        <time>2013-09-15T06:49:46Z</time>
      </trkpt>
      <trkpt lat="-20.9298" lon="55.39989">
        <ele>809.6</ele>
        <time>2013-09-15T06:49:51Z</time>
      </trkpt>
      <trkpt lat="-20.9298" lon="55.39998">
        <ele>808.3</ele>
        <time>2013-09-15T06:49:55Z</time>
      </trkpt>
      <trkpt lat="-20.92981" lon="55.40006">
        <ele>808.5</ele>
        <time>2013-09-15T06:49:58Z</time>
      </trkpt>
      <trkpt lat="-20.92983" lon="55.40013">
        <ele>808.2</ele>
        <time>2013-09-15T06:50:01Z</time>
      </trkpt>
      <trkpt lat="-20.92985" lon="55.4002">
        <ele>808.1</ele>
        <time>2013-09-15T06:50:04Z</time>
      </trkpt>
      <trkpt lat="-20.92986" lon="55.40027">
        <ele>807.5</ele>
        <time>2013-09-15T06:50:07Z</time>
      </trkpt>
      <trkpt lat="-20.92987" lon="55.40036">
        <ele>807</ele>
        <time>2013-09-15T06:50:11Z</time>
      </trkpt>
      <trkpt lat="-20.92987" lon="55.40046">
        <ele>806.3</ele>
        <time>2013-09-15T06:50:15Z</time>
      </trkpt>
      <trkpt lat="-20.92985" lon="55.40055">
        <ele>805.3</ele>
        <time>2013-09-15T06:50:20Z</time>
      </trkpt>
      <trkpt lat="-20.92977" lon="55.40059">
        <ele>804.4</ele>
        <time>2013-09-15T06:50:25Z</time>
      </trkpt>
      <trkpt lat="-20.92976" lon="55.40059">
        <ele>804.1</ele>
        <time>2013-09-15T06:50:26Z</time>
      </trkpt>
      <trkpt lat="-20.92962" lon="55.40057">
        <ele>803.5</ele>
        <time>2013-09-15T06:50:33Z</time>
      </trkpt>
      <trkpt lat="-20.92953" lon="55.40055">
        <ele>803.3</ele>
        <time>2013-09-15T06:50:37Z</time>
      </trkpt>
      <trkpt lat="-20.92945" lon="55.40056">
        <ele>803.6</ele>
        <time>2013-09-15T06:50:41Z</time>
      </trkpt>
      <trkpt lat="-20.92937" lon="55.40057">
        <ele>802.8</ele>
        <time>2013-09-15T06:50:46Z</time>
      </trkpt>
      <trkpt lat="-20.92929" lon="55.40059">
        <ele>802.8</ele>
        <time>2013-09-15T06:50:51Z</time>
      </trkpt>
      <trkpt lat="-20.9292" lon="55.40059">
        <ele>802.4</ele>
        <time>2013-09-15T06:50:57Z</time>
      </trkpt>
      <trkpt lat="-20.92913" lon="55.40056">
        <ele>801.4</ele>
        <time>2013-09-15T06:51:02Z</time>
      </trkpt>
      <trkpt lat="-20.92913" lon="55.40046">
        <ele>801.1</ele>
        <time>2013-09-15T06:51:08Z</time>
      </trkpt>
      <trkpt lat="-20.9292" lon="55.40042">
        <ele>799.7</ele>
        <time>2013-09-15T06:51:12Z</time>
      </trkpt>
      <trkpt lat="-20.92927" lon="55.4004">
        <ele>799.4</ele>
        <time>2013-09-15T06:51:15Z</time>
      </trkpt>
      <trkpt lat="-20.92935" lon="55.40037">
        <ele>799.2</ele>
        <time>2013-09-15T06:51:19Z</time>
      </trkpt>
      <trkpt lat="-20.92942" lon="55.40032">
        <ele>798.5</ele>
        <time>2013-09-15T06:51:23Z</time>
      </trkpt>
      <trkpt lat="-20.92946" lon="55.40025">
        <ele>797.4</ele>
        <time>2013-09-15T06:51:27Z</time>
      </trkpt>
      <trkpt lat="-20.92947" lon="55.40023">
        <ele>797.5</ele>
        <time>2013-09-15T06:51:28Z</time>
      </trkpt>
      <trkpt lat="-20.92945" lon="55.40009">
        <ele>797.3</ele>
        <time>2013-09-15T06:51:34Z</time>
      </trkpt>
      <trkpt lat="-20.92943" lon="55.40002">
        <ele>796.8</ele>
        <time>2013-09-15T06:51:37Z</time>
      </trkpt>
      <trkpt lat="-20.92938" lon="55.39994">
        <ele>796.3</ele>
        <time>2013-09-15T06:51:41Z</time>
      </trkpt>
      <trkpt lat="-20.92933" lon="55.39988">
        <ele>795.3</ele>
        <time>2013-09-15T06:51:45Z</time>
      </trkpt>
      <trkpt lat="-20.92927" lon="55.39982">
        <ele>794.9</ele>
        <time>2013-09-15T06:51:49Z</time>
      </trkpt>
      <trkpt lat="-20.92922" lon="55.39976">
        <ele>795</ele>
        <time>2013-09-15T06:51:52Z</time>
      </trkpt>
      <trkpt lat="-20.92919" lon="55.3997">
        <ele>794.4</ele>
        <time>2013-09-15T06:51:55Z</time>
      </trkpt>
      <trkpt lat="-20.92914" lon="55.39964">
        <ele>793.7</ele>
        <time>2013-09-15T06:51:58Z</time>
      </trkpt>
      <trkpt lat="-20.92909" lon="55.39958">
        <ele>792.4</ele>
        <time>2013-09-15T06:52:01Z</time>
      </trkpt>
      <trkpt lat="-20.92905" lon="55.39952">
        <ele>792.5</ele>
        <time>2013-09-15T06:52:04Z</time>
      </trkpt>
      <trkpt lat="-20.92899" lon="55.39946">
        <ele>793.2</ele>
        <time>2013-09-15T06:52:07Z</time>
      </trkpt>
      <trkpt lat="-20.92894" lon="55.3994">
        <ele>792.8</ele>
        <time>2013-09-15T06:52:10Z</time>
      </trkpt>
      <trkpt lat="-20.92887" lon="55.39934">
        <ele>790.8</ele>
        <time>2013-09-15T06:52:14Z</time>
      </trkpt>
      <trkpt lat="-20.92882" lon="55.39928">
        <ele>790.1</ele>
        <time>2013-09-15T06:52:18Z</time>
      </trkpt>
      <trkpt lat="-20.92878" lon="55.39921">
        <ele>789.2</ele>
        <time>2013-09-15T06:52:22Z</time>
      </trkpt>
      <trkpt lat="-20.92875" lon="55.39913">
        <ele>788.5</ele>
        <time>2013-09-15T06:52:26Z</time>
      </trkpt>
      <trkpt lat="-20.92873" lon="55.39905">
        <ele>788.4</ele>
        <time>2013-09-15T06:52:30Z</time>
      </trkpt>
      <trkpt lat="-20.92873" lon="55.39902">
        <ele>788.8</ele>
        <time>2013-09-15T06:52:31Z</time>
      </trkpt>
      <trkpt lat="-20.92878" lon="55.39889">
        <ele>787.2</ele>
        <time>2013-09-15T06:52:38Z</time>
      </trkpt>
      <trkpt lat="-20.92883" lon="55.39881">
        <ele>787.8</ele>
        <time>2013-09-15T06:52:42Z</time>
      </trkpt>
      <trkpt lat="-20.92885" lon="55.39873">
        <ele>788</ele>
        <time>2013-09-15T06:52:45Z</time>
      </trkpt>
      <trkpt lat="-20.92885" lon="55.39865">
        <ele>787.4</ele>
        <time>2013-09-15T06:52:48Z</time>
      </trkpt>
      <trkpt lat="-20.92882" lon="55.39858">
        <ele>787.4</ele>
        <time>2013-09-15T06:52:51Z</time>
      </trkpt>
      <trkpt lat="-20.92875" lon="55.39856">
        <ele>787</ele>
        <time>2013-09-15T06:52:55Z</time>
      </trkpt>
      <trkpt lat="-20.92867" lon="55.39857">
        <ele>786.1</ele>
        <time>2013-09-15T06:52:59Z</time>
      </trkpt>
      <trkpt lat="-20.92861" lon="55.39861">
        <ele>784.8</ele>
        <time>2013-09-15T06:53:02Z</time>
      </trkpt>
      <trkpt lat="-20.92856" lon="55.39865">
        <ele>785.4</ele>
        <time>2013-09-15T06:53:05Z</time>
      </trkpt>
      <trkpt lat="-20.92849" lon="55.39869">
        <ele>784.7</ele>
        <time>2013-09-15T06:53:08Z</time>
      </trkpt>
      <trkpt lat="-20.92845" lon="55.39875">
        <ele>783.5</ele>
        <time>2013-09-15T06:53:11Z</time>
      </trkpt>
      <trkpt lat="-20.9284" lon="55.39883">
        <ele>783.1</ele>
        <time>2013-09-15T06:53:15Z</time>
      </trkpt>
      <trkpt lat="-20.92837" lon="55.39891">
        <ele>783</ele>
        <time>2013-09-15T06:53:19Z</time>
      </trkpt>
      <trkpt lat="-20.92838" lon="55.39898">
        <ele>782.4</ele>
        <time>2013-09-15T06:53:22Z</time>
      </trkpt>
      <trkpt lat="-20.92841" lon="55.39906">
        <ele>781.8</ele>
        <time>2013-09-15T06:53:26Z</time>
      </trkpt>
      <trkpt lat="-20.92844" lon="55.39913">
        <ele>781.4</ele>
        <time>2013-09-15T06:53:29Z</time>
      </trkpt>
      <trkpt lat="-20.92847" lon="55.39922">
        <ele>781.1</ele>
        <time>2013-09-15T06:53:33Z</time>
      </trkpt>
      <trkpt lat="-20.92848" lon="55.39924">
        <ele>780.9</ele>
        <time>2013-09-15T06:53:34Z</time>
      </trkpt>
      <trkpt lat="-20.92853" lon="55.39938">
        <ele>780.2</ele>
        <time>2013-09-15T06:53:40Z</time>
      </trkpt>
      <trkpt lat="-20.92855" lon="55.39945">
        <ele>779.6</ele>
        <time>2013-09-15T06:53:43Z</time>
      </trkpt>
      <trkpt lat="-20.92858" lon="55.39952">
        <ele>778.7</ele>
        <time>2013-09-15T06:53:46Z</time>
      </trkpt>
      <trkpt lat="-20.9286" lon="55.39959">
        <ele>778.4</ele>
        <time>2013-09-15T06:53:49Z</time>
      </trkpt>
      <trkpt lat="-20.92861" lon="55.39967">
        <ele>778</ele>
        <time>2013-09-15T06:53:52Z</time>
      </trkpt>
      <trkpt lat="-20.92862" lon="55.39975">
        <ele>777.7</ele>
        <time>2013-09-15T06:53:55Z</time>
      </trkpt>
      <trkpt lat="-20.9286" lon="55.39984">
        <ele>777.6</ele>
        <time>2013-09-15T06:53:59Z</time>
      </trkpt>
      <trkpt lat="-20.92854" lon="55.3999">
        <ele>777.4</ele>
        <time>2013-09-15T06:54:03Z</time>
      </trkpt>
      <trkpt lat="-20.92846" lon="55.39992">
        <ele>776.7</ele>
        <time>2013-09-15T06:54:07Z</time>
      </trkpt>
      <trkpt lat="-20.92838" lon="55.39993">
        <ele>775.7</ele>
        <time>2013-09-15T06:54:11Z</time>
      </trkpt>
      <trkpt lat="-20.9283" lon="55.39995">
        <ele>776.1</ele>
        <time>2013-09-15T06:54:15Z</time>
      </trkpt>
      <trkpt lat="-20.92824" lon="55.39998">
        <ele>776.2</ele>
        <time>2013-09-15T06:54:18Z</time>
      </trkpt>
      <trkpt lat="-20.92816" lon="55.40001">
        <ele>775.5</ele>
        <time>2013-09-15T06:54:21Z</time>
      </trkpt>
      <trkpt lat="-20.92808" lon="55.40003">
        <ele>774.4</ele>
        <time>2013-09-15T06:54:24Z</time>
      </trkpt>
      <trkpt lat="-20.92801" lon="55.4">
        <ele>774.1</ele>
        <time>2013-09-15T06:54:27Z</time>
      </trkpt>
      <trkpt lat="-20.92799" lon="55.39992">
        <ele>773.4</ele>
        <time>2013-09-15T06:54:30Z</time>
      </trkpt>
      <trkpt lat="-20.92804" lon="55.39985">
        <ele>772.5</ele>
        <time>2013-09-15T06:54:34Z</time>
      </trkpt>
      <trkpt lat="-20.92806" lon="55.39984">
        <ele>772.3</ele>
        <time>2013-09-15T06:54:35Z</time>
      </trkpt>
      <trkpt lat="-20.92816" lon="55.39977">
        <ele>772.5</ele>
        <time>2013-09-15T06:54:40Z</time>
      </trkpt>
      <trkpt lat="-20.92822" lon="55.39973">
        <ele>771.7</ele>
        <time>2013-09-15T06:54:43Z</time>
      </trkpt>
      <trkpt lat="-20.92829" lon="55.39967">
        <ele>770.8</ele>
        <time>2013-09-15T06:54:47Z</time>
      </trkpt>
      <trkpt lat="-20.92831" lon="55.39959">
        <ele>769.5</ele>
        <time>2013-09-15T06:54:51Z</time>
      </trkpt>
      <trkpt lat="-20.92827" lon="55.39952">
        <ele>768.9</ele>
        <time>2013-09-15T06:54:55Z</time>
      </trkpt>
      <trkpt lat="-20.9282" lon="55.39947">
        <ele>768</ele>
        <time>2013-09-15T06:55:00Z</time>
      </trkpt>
      <trkpt lat="-20.92813" lon="55.39944">
        <ele>768.2</ele>
        <time>2013-09-15T06:55:04Z</time>
      </trkpt>
      <trkpt lat="-20.92805" lon="55.3994">
        <ele>767.6</ele>
        <time>2013-09-15T06:55:08Z</time>
      </trkpt>
      <trkpt lat="-20.928" lon="55.39934">
        <ele>766.3</ele>
        <time>2013-09-15T06:55:11Z</time>
      </trkpt>
      <trkpt lat="-20.92795" lon="55.39927">
        <ele>765.8</ele>
        <time>2013-09-15T06:55:14Z</time>
      </trkpt>
      <trkpt lat="-20.92792" lon="55.3992">
        <ele>766.3</ele>
        <time>2013-09-15T06:55:17Z</time>
      </trkpt>
      <trkpt lat="-20.9279" lon="55.39912">
        <ele>765.6</ele>
        <time>2013-09-15T06:55:20Z</time>
      </trkpt>
      <trkpt lat="-20.92787" lon="55.39904">
        <ele>764.5</ele>
        <time>2013-09-15T06:55:24Z</time>
      </trkpt>
      <trkpt lat="-20.92784" lon="55.39897">
        <ele>764.7</ele>
        <time>2013-09-15T06:55:27Z</time>
      </trkpt>
      <trkpt lat="-20.9278" lon="55.3989">
        <ele>764.3</ele>
        <time>2013-09-15T06:55:30Z</time>
      </trkpt>
      <trkpt lat="-20.92777" lon="55.39883">
        <ele>763.3</ele>
        <time>2013-09-15T06:55:34Z</time>
      </trkpt>
      <trkpt lat="-20.92773" lon="55.39877">
        <ele>763.4</ele>
        <time>2013-09-15T06:55:38Z</time>
      </trkpt>
      <trkpt lat="-20.92772" lon="55.39875">
        <ele>763.4</ele>
        <time>2013-09-15T06:55:39Z</time>
      </trkpt>
      <trkpt lat="-20.92766" lon="55.39861">
        <ele>761.8</ele>
        <time>2013-09-15T06:55:46Z</time>
      </trkpt>
      <trkpt lat="-20.92764" lon="55.39854">
        <ele>761.6</ele>
        <time>2013-09-15T06:55:49Z</time>
      </trkpt>
      <trkpt lat="-20.92762" lon="55.39846">
        <ele>761.7</ele>
        <time>2013-09-15T06:55:52Z</time>
      </trkpt>
      <trkpt lat="-20.9276" lon="55.39839">
        <ele>760.9</ele>
        <time>2013-09-15T06:55:55Z</time>
      </trkpt>
      <trkpt lat="-20.9276" lon="55.39831">
        <ele>760.4</ele>
        <time>2013-09-15T06:55:58Z</time>
      </trkpt>
      <trkpt lat="-20.92759" lon="55.39821">
        <ele>759.7</ele>
        <time>2013-09-15T06:56:02Z</time>
      </trkpt>
      <trkpt lat="-20.92763" lon="55.39815">
        <ele>758.8</ele>
        <time>2013-09-15T06:56:06Z</time>
      </trkpt>
      <trkpt lat="-20.92771" lon="55.3981">
        <ele>758.9</ele>
        <time>2013-09-15T06:56:10Z</time>
      </trkpt>
      <trkpt lat="-20.92777" lon="55.39805">
        <ele>758.5</ele>
        <time>2013-09-15T06:56:14Z</time>
      </trkpt>
      <trkpt lat="-20.92784" lon="55.39802">
        <ele>757.7</ele>
        <time>2013-09-15T06:56:18Z</time>
      </trkpt>
      <trkpt lat="-20.92792" lon="55.39799">
        <ele>757.9</ele>
        <time>2013-09-15T06:56:22Z</time>
      </trkpt>
      <trkpt lat="-20.92798" lon="55.39793">
        <ele>756.7</ele>
        <time>2013-09-15T06:56:26Z</time>
      </trkpt>
      <trkpt lat="-20.92803" lon="55.39788">
        <ele>756.6</ele>
        <time>2013-09-15T06:56:29Z</time>
      </trkpt>
      <trkpt lat="-20.92809" lon="55.39783">
        <ele>756</ele>
        <time>2013-09-15T06:56:32Z</time>
      </trkpt>
      <trkpt lat="-20.92814" lon="55.39778">
        <ele>755.4</ele>
        <time>2013-09-15T06:56:35Z</time>
      </trkpt>
      <trkpt lat="-20.92821" lon="55.39775">
        <ele>755.4</ele>
        <time>2013-09-15T06:56:38Z</time>
      </trkpt>
      <trkpt lat="-20.92828" lon="55.39772">
        <ele>754.9</ele>
        <time>2013-09-15T06:56:41Z</time>
      </trkpt>
      <trkpt lat="-20.9283" lon="55.39772">
        <ele>754.7</ele>
        <time>2013-09-15T06:56:42Z</time>
      </trkpt>
      <trkpt lat="-20.92844" lon="55.39772">
        <ele>754.6</ele>
        <time>2013-09-15T06:56:50Z</time>
      </trkpt>
      <trkpt lat="-20.92851" lon="55.39773">
        <ele>754.6</ele>
        <time>2013-09-15T06:56:53Z</time>
      </trkpt>
      <trkpt lat="-20.9286" lon="55.39772">
        <ele>752.9</ele>
        <time>2013-09-15T06:56:57Z</time>
      </trkpt>
      <trkpt lat="-20.92867" lon="55.3977">
        <ele>752.7</ele>
        <time>2013-09-15T06:57:00Z</time>
      </trkpt>
      <trkpt lat="-20.92871" lon="55.39762">
        <ele>751.9</ele>
        <time>2013-09-15T06:57:05Z</time>
      </trkpt>
      <trkpt lat="-20.92867" lon="55.39754">
        <ele>751.7</ele>
        <time>2013-09-15T06:57:12Z</time>
      </trkpt>
      <trkpt lat="-20.92862" lon="55.39747">
        <ele>751.3</ele>
        <time>2013-09-15T06:57:19Z</time>
      </trkpt>
      <trkpt lat="-20.92857" lon="55.39741">
        <ele>750.1</ele>
        <time>2013-09-15T06:57:25Z</time>
      </trkpt>
      <trkpt lat="-20.92853" lon="55.39733">
        <ele>749.2</ele>
        <time>2013-09-15T06:57:30Z</time>
      </trkpt>
      <trkpt lat="-20.92847" lon="55.39726">
        <ele>748.9</ele>
        <time>2013-09-15T06:57:34Z</time>
      </trkpt>
      <trkpt lat="-20.92841" lon="55.39719">
        <ele>749</ele>
        <time>2013-09-15T06:57:38Z</time>
      </trkpt>
      <trkpt lat="-20.92834" lon="55.39713">
        <ele>748.2</ele>
        <time>2013-09-15T06:57:42Z</time>
      </trkpt>
      <trkpt lat="-20.92833" lon="55.39712">
        <ele>748.2</ele>
        <time>2013-09-15T06:57:43Z</time>
      </trkpt>
      <trkpt lat="-20.92821" lon="55.39705">
        <ele>747.6</ele>
        <time>2013-09-15T06:57:49Z</time>
      </trkpt>
      <trkpt lat="-20.92813" lon="55.39702">
        <ele>746.4</ele>
        <time>2013-09-15T06:57:53Z</time>
      </trkpt>
      <trkpt lat="-20.92807" lon="55.39699">
        <ele>745.8</ele>
        <time>2013-09-15T06:57:56Z</time>
      </trkpt>
      <trkpt lat="-20.92802" lon="55.39694">
        <ele>745.4</ele>
        <time>2013-09-15T06:57:59Z</time>
      </trkpt>
      <trkpt lat="-20.92797" lon="55.39688">
        <ele>745.6</ele>
        <time>2013-09-15T06:58:02Z</time>
      </trkpt>
      <trkpt lat="-20.92794" lon="55.39681">
        <ele>745.6</ele>
        <time>2013-09-15T06:58:05Z</time>
      </trkpt>
      <trkpt lat="-20.92792" lon="55.39673">
        <ele>745.3</ele>
        <time>2013-09-15T06:58:08Z</time>
      </trkpt>
      <trkpt lat="-20.92789" lon="55.39665">
        <ele>744.9</ele>
        <time>2013-09-15T06:58:11Z</time>
      </trkpt>
      <trkpt lat="-20.92785" lon="55.39658">
        <ele>743.8</ele>
        <time>2013-09-15T06:58:14Z</time>
      </trkpt>
      <trkpt lat="-20.92778" lon="55.39655">
        <ele>743.3</ele>
        <time>2013-09-15T06:58:17Z</time>
      </trkpt>
      <trkpt lat="-20.92772" lon="55.39653">
        <ele>743.5</ele>
        <time>2013-09-15T06:58:20Z</time>
      </trkpt>
      <trkpt lat="-20.92763" lon="55.39656">
        <ele>742.8</ele>
        <time>2013-09-15T06:58:24Z</time>
      </trkpt>
      <trkpt lat="-20.92759" lon="55.39663">
        <ele>742.4</ele>
        <time>2013-09-15T06:58:28Z</time>
      </trkpt>
      <trkpt lat="-20.92759" lon="55.3967">
        <ele>741.9</ele>
        <time>2013-09-15T06:58:31Z</time>
      </trkpt>
      <trkpt lat="-20.92761" lon="55.39678">
        <ele>741.5</ele>
        <time>2013-09-15T06:58:34Z</time>
      </trkpt>
      <trkpt lat="-20.92764" lon="55.39685">
        <ele>740.7</ele>
        <time>2013-09-15T06:58:37Z</time>
      </trkpt>
      <trkpt lat="-20.92767" lon="55.39694">
        <ele>739.6</ele>
        <time>2013-09-15T06:58:41Z</time>
      </trkpt>
      <trkpt lat="-20.92771" lon="55.39701">
        <ele>739</ele>
        <time>2013-09-15T06:58:44Z</time>
      </trkpt>
      <trkpt lat="-20.92772" lon="55.39703">
        <ele>739.3</ele>
        <time>2013-09-15T06:58:45Z</time>
      </trkpt>
      <trkpt lat="-20.92783" lon="55.39713">
        <ele>738.9</ele>
        <time>2013-09-15T06:58:51Z</time>
      </trkpt>
      <trkpt lat="-20.92789" lon="55.39715">
        <ele>738.5</ele>
        <time>2013-09-15T06:58:54Z</time>
      </trkpt>
      <trkpt lat="-20.92788" lon="55.39724">
        <ele>737.3</ele>
        <time>2013-09-15T06:59:04Z</time>
      </trkpt>
      <trkpt lat="-20.92781" lon="55.39726">
        <ele>737.6</ele>
        <time>2013-09-15T06:59:07Z</time>
      </trkpt>
      <trkpt lat="-20.92774" lon="55.39727">
        <ele>736.9</ele>
        <time>2013-09-15T06:59:10Z</time>
      </trkpt>
      <trkpt lat="-20.92767" lon="55.39728">
        <ele>736.9</ele>
        <time>2013-09-15T06:59:13Z</time>
      </trkpt>
      <trkpt lat="-20.92759" lon="55.3973">
        <ele>736</ele>
        <time>2013-09-15T06:59:17Z</time>
      </trkpt>
      <trkpt lat="-20.9275" lon="55.39731">
        <ele>735.4</ele>
        <time>2013-09-15T06:59:21Z</time>
      </trkpt>
      <trkpt lat="-20.92742" lon="55.39732">
        <ele>735.6</ele>
        <time>2013-09-15T06:59:25Z</time>
      </trkpt>
      <trkpt lat="-20.92734" lon="55.39733">
        <ele>735</ele>
        <time>2013-09-15T06:59:29Z</time>
      </trkpt>
      <trkpt lat="-20.92727" lon="55.39736">
        <ele>734.2</ele>
        <time>2013-09-15T06:59:32Z</time>
      </trkpt>
      <trkpt lat="-20.92721" lon="55.39741">
        <ele>733.6</ele>
        <time>2013-09-15T06:59:35Z</time>
      </trkpt>
      <trkpt lat="-20.92715" lon="55.39746">
        <ele>733</ele>
        <time>2013-09-15T06:59:38Z</time>
      </trkpt>
      <trkpt lat="-20.92711" lon="55.39752">
        <ele>732.9</ele>
        <time>2013-09-15T06:59:41Z</time>
      </trkpt>
      <trkpt lat="-20.92706" lon="55.39757">
        <ele>732.1</ele>
        <time>2013-09-15T06:59:44Z</time>
      </trkpt>
      <trkpt lat="-20.92701" lon="55.39762">
        <ele>732</ele>
        <time>2013-09-15T06:59:47Z</time>
      </trkpt>
      <trkpt lat="-20.92699" lon="55.39764">
        <ele>732.1</ele>
        <time>2013-09-15T06:59:48Z</time>
      </trkpt>
      <trkpt lat="-20.92689" lon="55.39774">
        <ele>730.2</ele>
        <time>2013-09-15T06:59:55Z</time>
      </trkpt>
      <trkpt lat="-20.92685" lon="55.39782">
        <ele>730.3</ele>
        <time>2013-09-15T06:59:58Z</time>
      </trkpt>
      <trkpt lat="-20.92683" lon="55.39789">
        <ele>729.4</ele>
        <time>2013-09-15T07:00:01Z</time>
      </trkpt>
      <trkpt lat="-20.92682" lon="55.39797">
        <ele>729</ele>
        <time>2013-09-15T07:00:04Z</time>
      </trkpt>
      <trkpt lat="-20.92681" lon="55.39806">
        <ele>728.5</ele>
        <time>2013-09-15T07:00:08Z</time>
      </trkpt>
      <trkpt lat="-20.92683" lon="55.39815">
        <ele>728</ele>
        <time>2013-09-15T07:00:12Z</time>
      </trkpt>
      <trkpt lat="-20.92684" lon="55.39825">
        <ele>727.7</ele>
        <time>2013-09-15T07:00:16Z</time>
      </trkpt>
      <trkpt lat="-20.92683" lon="55.39834">
        <ele>727.1</ele>
        <time>2013-09-15T07:00:20Z</time>
      </trkpt>
      <trkpt lat="-20.9268" lon="55.39843">
        <ele>726</ele>
        <time>2013-09-15T07:00:24Z</time>
      </trkpt>
      <trkpt lat="-20.92674" lon="55.3985">
        <ele>725.7</ele>
        <time>2013-09-15T07:00:30Z</time>
      </trkpt>
      <trkpt lat="-20.92665" lon="55.39851">
        <ele>724.6</ele>
        <time>2013-09-15T07:00:36Z</time>
      </trkpt>
      <trkpt lat="-20.92658" lon="55.3985">
        <ele>724.8</ele>
        <time>2013-09-15T07:00:40Z</time>
      </trkpt>
      <trkpt lat="-20.92651" lon="55.39848">
        <ele>724.4</ele>
        <time>2013-09-15T07:00:44Z</time>
      </trkpt>
      <trkpt lat="-20.92642" lon="55.39847">
        <ele>723.9</ele>
        <time>2013-09-15T07:00:48Z</time>
      </trkpt>
      <trkpt lat="-20.92641" lon="55.39847">
        <ele>723.7</ele>
        <time>2013-09-15T07:00:49Z</time>
      </trkpt>
      <trkpt lat="-20.92628" lon="55.39846">
        <ele>722.8</ele>
        <time>2013-09-15T07:00:55Z</time>
      </trkpt>
      <trkpt lat="-20.92621" lon="55.39844">
        <ele>722.8</ele>
        <time>2013-09-15T07:00:58Z</time>
      </trkpt>
      <trkpt lat="-20.92612" lon="55.39845">
        <ele>722.2</ele>
        <time>2013-09-15T07:01:02Z</time>
      </trkpt>
      <trkpt lat="-20.92605" lon="55.39847">
        <ele>721.6</ele>
        <time>2013-09-15T07:01:05Z</time>
      </trkpt>
      <trkpt lat="-20.92598" lon="55.39851">
        <ele>721.5</ele>
        <time>2013-09-15T07:01:08Z</time>
      </trkpt>
      <trkpt lat="-20.92593" lon="55.39858">
        <ele>721.4</ele>
        <time>2013-09-15T07:01:11Z</time>
      </trkpt>
      <trkpt lat="-20.9259" lon="55.39866">
        <ele>721.2</ele>
        <time>2013-09-15T07:01:14Z</time>
      </trkpt>
      <trkpt lat="-20.92589" lon="55.39873">
        <ele>720.4</ele>
        <time>2013-09-15T07:01:17Z</time>
      </trkpt>
      <trkpt lat="-20.92587" lon="55.39882">
        <ele>720</ele>
        <time>2013-09-15T07:01:20Z</time>
      </trkpt>
      <trkpt lat="-20.92585" lon="55.3989">
        <ele>718.9</ele>
        <time>2013-09-15T07:01:23Z</time>
      </trkpt>
      <trkpt lat="-20.92584" lon="55.39897">
        <ele>718.8</ele>
        <time>2013-09-15T07:01:26Z</time>
      </trkpt>
      <trkpt lat="-20.92583" lon="55.39905">
        <ele>717.9</ele>
        <time>2013-09-15T07:01:29Z</time>
      </trkpt>
      <trkpt lat="-20.92583" lon="55.39914">
        <ele>717.6</ele>
        <time>2013-09-15T07:01:32Z</time>
      </trkpt>
      <trkpt lat="-20.92583" lon="55.39922">
        <ele>717.5</ele>
        <time>2013-09-15T07:01:35Z</time>
      </trkpt>
      <trkpt lat="-20.92585" lon="55.3993">
        <ele>716.9</ele>
        <time>2013-09-15T07:01:38Z</time>
      </trkpt>
      <trkpt lat="-20.92587" lon="55.39938">
        <ele>716.6</ele>
        <time>2013-09-15T07:01:41Z</time>
      </trkpt>
      <trkpt lat="-20.9259" lon="55.39945">
        <ele>716.6</ele>
        <time>2013-09-15T07:01:44Z</time>
      </trkpt>
      <trkpt lat="-20.92595" lon="55.39952">
        <ele>716.7</ele>
        <time>2013-09-15T07:01:48Z</time>
      </trkpt>
      <trkpt lat="-20.92599" lon="55.39959">
        <ele>716.2</ele>
        <time>2013-09-15T07:01:51Z</time>
      </trkpt>
      <trkpt lat="-20.926" lon="55.39961">
        <ele>716</ele>
        <time>2013-09-15T07:01:52Z</time>
      </trkpt>
      <trkpt lat="-20.92608" lon="55.39971">
        <ele>716.4</ele>
        <time>2013-09-15T07:01:57Z</time>
      </trkpt>
      <trkpt lat="-20.92613" lon="55.39977">
        <ele>715.7</ele>
        <time>2013-09-15T07:02:01Z</time>
      </trkpt>
      <trkpt lat="-20.92619" lon="55.39984">
        <ele>714.8</ele>
        <time>2013-09-15T07:02:05Z</time>
      </trkpt>
      <trkpt lat="-20.92623" lon="55.39991">
        <ele>714.5</ele>
        <time>2013-09-15T07:02:08Z</time>
      </trkpt>
      <trkpt lat="-20.9263" lon="55.39996">
        <ele>714.1</ele>
        <time>2013-09-15T07:02:12Z</time>
      </trkpt>
      <trkpt lat="-20.92636" lon="55.40002">
        <ele>713.7</ele>
        <time>2013-09-15T07:02:16Z</time>
      </trkpt>
      <trkpt lat="-20.92641" lon="55.40009">
        <ele>713.3</ele>
        <time>2013-09-15T07:02:20Z</time>
      </trkpt>
      <trkpt lat="-20.92643" lon="55.40018">
        <ele>713.3</ele>
        <time>2013-09-15T07:02:24Z</time>
      </trkpt>
      <trkpt lat="-20.92641" lon="55.40026">
        <ele>712.4</ele>
        <time>2013-09-15T07:02:28Z</time>
      </trkpt>
      <trkpt lat="-20.92633" lon="55.40028">
        <ele>711.7</ele>
        <time>2013-09-15T07:02:33Z</time>
      </trkpt>
      <trkpt lat="-20.92628" lon="55.40022">
        <ele>710.9</ele>
        <time>2013-09-15T07:02:37Z</time>
      </trkpt>
      <trkpt lat="-20.92623" lon="55.40015">
        <ele>710.8</ele>
        <time>2013-09-15T07:02:41Z</time>
      </trkpt>
      <trkpt lat="-20.92617" lon="55.40008">
        <ele>710.9</ele>
        <time>2013-09-15T07:02:45Z</time>
      </trkpt>
      <trkpt lat="-20.92612" lon="55.40002">
        <ele>710.2</ele>
        <time>2013-09-15T07:02:49Z</time>
      </trkpt>
      <trkpt lat="-20.92605" lon="55.39996">
        <ele>709.7</ele>
        <time>2013-09-15T07:02:53Z</time>
      </trkpt>
      <trkpt lat="-20.92604" lon="55.39993">
        <ele>709.5</ele>
        <time>2013-09-15T07:02:54Z</time>
      </trkpt>
      <trkpt lat="-20.92597" lon="55.39983">
        <ele>708.3</ele>
        <time>2013-09-15T07:02:59Z</time>
      </trkpt>
      <trkpt lat="-20.92592" lon="55.39976">
        <ele>707.7</ele>
        <time>2013-09-15T07:03:02Z</time>
      </trkpt>
      <trkpt lat="-20.92588" lon="55.3997">
        <ele>707.8</ele>
        <time>2013-09-15T07:03:05Z</time>
      </trkpt>
      <trkpt lat="-20.92583" lon="55.39963">
        <ele>708.1</ele>
        <time>2013-09-15T07:03:09Z</time>
      </trkpt>
      <trkpt lat="-20.92577" lon="55.39956">
        <ele>706.9</ele>
        <time>2013-09-15T07:03:13Z</time>
      </trkpt>
      <trkpt lat="-20.92572" lon="55.39951">
        <ele>706.1</ele>
        <time>2013-09-15T07:03:16Z</time>
      </trkpt>
      <trkpt lat="-20.92567" lon="55.39946">
        <ele>705.8</ele>
        <time>2013-09-15T07:03:19Z</time>
      </trkpt>
      <trkpt lat="-20.92561" lon="55.39942">
        <ele>705.3</ele>
        <time>2013-09-15T07:03:22Z</time>
      </trkpt>
      <trkpt lat="-20.92554" lon="55.39936">
        <ele>704.7</ele>
        <time>2013-09-15T07:03:26Z</time>
      </trkpt>
      <trkpt lat="-20.92549" lon="55.39928">
        <ele>704.3</ele>
        <time>2013-09-15T07:03:30Z</time>
      </trkpt>
      <trkpt lat="-20.92548" lon="55.39921">
        <ele>704</ele>
        <time>2013-09-15T07:03:33Z</time>
      </trkpt>
      <trkpt lat="-20.92547" lon="55.39911">
        <ele>702.6</ele>
        <time>2013-09-15T07:03:38Z</time>
      </trkpt>
      <trkpt lat="-20.92548" lon="55.39903">
        <ele>703</ele>
        <time>2013-09-15T07:03:44Z</time>
      </trkpt>
      <trkpt lat="-20.9255" lon="55.39895">
        <ele>703.2</ele>
        <time>2013-09-15T07:03:49Z</time>
      </trkpt>
      <trkpt lat="-20.92552" lon="55.39886">
        <ele>702.6</ele>
        <time>2013-09-15T07:03:55Z</time>
      </trkpt>
      <trkpt lat="-20.92552" lon="55.39885">
        <ele>702.6</ele>
        <time>2013-09-15T07:03:56Z</time>
      </trkpt>
      <trkpt lat="-20.92549" lon="55.39872">
        <ele>702.4</ele>
        <time>2013-09-15T07:04:02Z</time>
      </trkpt>
      <trkpt lat="-20.92546" lon="55.39865">
        <ele>701.9</ele>
        <time>2013-09-15T07:04:05Z</time>
      </trkpt>
      <trkpt lat="-20.92541" lon="55.3986">
        <ele>701.9</ele>
        <time>2013-09-15T07:04:08Z</time>
      </trkpt>
      <trkpt lat="-20.92536" lon="55.39855">
        <ele>701.6</ele>
        <time>2013-09-15T07:04:11Z</time>
      </trkpt>
      <trkpt lat="-20.92531" lon="55.39849">
        <ele>700.8</ele>
        <time>2013-09-15T07:04:14Z</time>
      </trkpt>
      <trkpt lat="-20.92526" lon="55.39843">
        <ele>700.4</ele>
        <time>2013-09-15T07:04:17Z</time>
      </trkpt>
      <trkpt lat="-20.92524" lon="55.39834">
        <ele>699.7</ele>
        <time>2013-09-15T07:04:21Z</time>
      </trkpt>
      <trkpt lat="-20.92529" lon="55.39827">
        <ele>700.4</ele>
        <time>2013-09-15T07:04:26Z</time>
      </trkpt>
      <trkpt lat="-20.92537" lon="55.39823">
        <ele>698.8</ele>
        <time>2013-09-15T07:04:30Z</time>
      </trkpt>
      <trkpt lat="-20.92544" lon="55.39821">
        <ele>699.1</ele>
        <time>2013-09-15T07:04:33Z</time>
      </trkpt>
      <trkpt lat="-20.92551" lon="55.39817">
        <ele>698.4</ele>
        <time>2013-09-15T07:04:37Z</time>
      </trkpt>
      <trkpt lat="-20.92559" lon="55.39813">
        <ele>698.1</ele>
        <time>2013-09-15T07:04:41Z</time>
      </trkpt>
      <trkpt lat="-20.92565" lon="55.3981">
        <ele>697.2</ele>
        <time>2013-09-15T07:04:44Z</time>
      </trkpt>
      <trkpt lat="-20.92573" lon="55.39807">
        <ele>697</ele>
        <time>2013-09-15T07:04:47Z</time>
      </trkpt>
      <trkpt lat="-20.92579" lon="55.39803">
        <ele>696.3</ele>
        <time>2013-09-15T07:04:50Z</time>
      </trkpt>
      <trkpt lat="-20.92585" lon="55.39797">
        <ele>695.1</ele>
        <time>2013-09-15T07:04:54Z</time>
      </trkpt>
      <trkpt lat="-20.92582" lon="55.3979">
        <ele>694.7</ele>
        <time>2013-09-15T07:05:05Z</time>
      </trkpt>
      <trkpt lat="-20.9258" lon="55.39788">
        <ele>694.6</ele>
        <time>2013-09-15T07:05:06Z</time>
      </trkpt>
      <trkpt lat="-20.92572" lon="55.39778">
        <ele>694.2</ele>
        <time>2013-09-15T07:05:11Z</time>
      </trkpt>
      <trkpt lat="-20.92567" lon="55.39772">
        <ele>693.5</ele>
        <time>2013-09-15T07:05:14Z</time>
      </trkpt>
      <trkpt lat="-20.92562" lon="55.39766">
        <ele>692.4</ele>
        <time>2013-09-15T07:05:17Z</time>
      </trkpt>
      <trkpt lat="-20.92555" lon="55.39761">
        <ele>691.8</ele>
        <time>2013-09-15T07:05:20Z</time>
      </trkpt>
      <trkpt lat="-20.92547" lon="55.39756">
        <ele>691.3</ele>
        <time>2013-09-15T07:05:24Z</time>
      </trkpt>
      <trkpt lat="-20.92541" lon="55.39752">
        <ele>690</ele>
        <time>2013-09-15T07:05:28Z</time>
      </trkpt>
      <trkpt lat="-20.92535" lon="55.39747">
        <ele>689.3</ele>
        <time>2013-09-15T07:05:31Z</time>
      </trkpt>
      <trkpt lat="-20.9253" lon="55.39741">
        <ele>688.3</ele>
        <time>2013-09-15T07:05:34Z</time>
      </trkpt>
      <trkpt lat="-20.92525" lon="55.39736">
        <ele>688.2</ele>
        <time>2013-09-15T07:05:37Z</time>
      </trkpt>
      <trkpt lat="-20.92519" lon="55.39732">
        <ele>687.5</ele>
        <time>2013-09-15T07:05:40Z</time>
      </trkpt>
      <trkpt lat="-20.92512" lon="55.39728">
        <ele>687.4</ele>
        <time>2013-09-15T07:05:43Z</time>
      </trkpt>
      <trkpt lat="-20.92505" lon="55.39727">
        <ele>687.4</ele>
        <time>2013-09-15T07:05:46Z</time>
      </trkpt>
      <trkpt lat="-20.92497" lon="55.39728">
        <ele>687.1</ele>
        <time>2013-09-15T07:05:49Z</time>
      </trkpt>
      <trkpt lat="-20.9249" lon="55.39729">
        <ele>686.1</ele>
        <time>2013-09-15T07:05:52Z</time>
      </trkpt>
      <trkpt lat="-20.92481" lon="55.39729">
        <ele>685.9</ele>
        <time>2013-09-15T07:05:56Z</time>
      </trkpt>
      <trkpt lat="-20.92473" lon="55.39725">
        <ele>684.5</ele>
        <time>2013-09-15T07:06:00Z</time>
      </trkpt>
      <trkpt lat="-20.92466" lon="55.39719">
        <ele>684</ele>
        <time>2013-09-15T07:06:04Z</time>
      </trkpt>
      <trkpt lat="-20.92461" lon="55.39715">
        <ele>683.8</ele>
        <time>2013-09-15T07:06:07Z</time>
      </trkpt>
      <trkpt lat="-20.92459" lon="55.39713">
        <ele>683.8</ele>
        <time>2013-09-15T07:06:08Z</time>
      </trkpt>
      <trkpt lat="-20.9245" lon="55.39703">
        <ele>682.4</ele>
        <time>2013-09-15T07:06:13Z</time>
      </trkpt>
      <trkpt lat="-20.92445" lon="55.39698">
        <ele>681.3</ele>
        <time>2013-09-15T07:06:16Z</time>
      </trkpt>
      <trkpt lat="-20.92441" lon="55.39692">
        <ele>680.6</ele>
        <time>2013-09-15T07:06:19Z</time>
      </trkpt>
      <trkpt lat="-20.92436" lon="55.39686">
        <ele>679.5</ele>
        <time>2013-09-15T07:06:22Z</time>
      </trkpt>
      <trkpt lat="-20.92431" lon="55.3968">
        <ele>679.5</ele>
        <time>2013-09-15T07:06:25Z</time>
      </trkpt>
      <trkpt lat="-20.92426" lon="55.39672">
        <ele>679</ele>
        <time>2013-09-15T07:06:29Z</time>
      </trkpt>
      <trkpt lat="-20.92421" lon="55.39667">
        <ele>679.2</ele>
        <time>2013-09-15T07:06:32Z</time>
      </trkpt>
      <trkpt lat="-20.92417" lon="55.39659">
        <ele>678</ele>
        <time>2013-09-15T07:06:36Z</time>
      </trkpt>
      <trkpt lat="-20.9241" lon="55.39653">
        <ele>677.2</ele>
        <time>2013-09-15T07:06:40Z</time>
      </trkpt>
      <trkpt lat="-20.92404" lon="55.39646">
        <ele>676.2</ele>
        <time>2013-09-15T07:06:44Z</time>
      </trkpt>
      <trkpt lat="-20.92399" lon="55.3964">
        <ele>675.9</ele>
        <time>2013-09-15T07:06:47Z</time>
      </trkpt>
      <trkpt lat="-20.92394" lon="55.39634">
        <ele>675</ele>
        <time>2013-09-15T07:06:50Z</time>
      </trkpt>
      <trkpt lat="-20.92389" lon="55.39629">
        <ele>674.9</ele>
        <time>2013-09-15T07:06:53Z</time>
      </trkpt>
      <trkpt lat="-20.92383" lon="55.39625">
        <ele>674</ele>
        <time>2013-09-15T07:06:56Z</time>
      </trkpt>
      <trkpt lat="-20.92376" lon="55.39621">
        <ele>673.4</ele>
        <time>2013-09-15T07:06:59Z</time>
      </trkpt>
      <trkpt lat="-20.9237" lon="55.39617">
        <ele>673.5</ele>
        <time>2013-09-15T07:07:02Z</time>
      </trkpt>
      <trkpt lat="-20.92363" lon="55.39613">
        <ele>672.5</ele>
        <time>2013-09-15T07:07:06Z</time>
      </trkpt>
      <trkpt lat="-20.92355" lon="55.39612">
        <ele>672.5</ele>
        <time>2013-09-15T07:07:10Z</time>
      </trkpt>
      <trkpt lat="-20.92353" lon="55.39612">
        <ele>672.4</ele>
        <time>2013-09-15T07:07:11Z</time>
      </trkpt>
      <trkpt lat="-20.9234" lon="55.39611">
        <ele>671.7</ele>
        <time>2013-09-15T07:07:18Z</time>
      </trkpt>
      <trkpt lat="-20.92332" lon="55.39612">
        <ele>670.4</ele>
        <time>2013-09-15T07:07:22Z</time>
      </trkpt>
      <trkpt lat="-20.92325" lon="55.39607">
        <ele>670.2</ele>
        <time>2013-09-15T07:07:26Z</time>
      </trkpt>
      <trkpt lat="-20.92322" lon="55.396">
        <ele>669.7</ele>
        <time>2013-09-15T07:07:29Z</time>
      </trkpt>
      <trkpt lat="-20.92323" lon="55.39593">
        <ele>669.2</ele>
        <time>2013-09-15T07:07:32Z</time>
      </trkpt>
      <trkpt lat="-20.92326" lon="55.39584">
        <ele>668.5</ele>
        <time>2013-09-15T07:07:36Z</time>
      </trkpt>
      <trkpt lat="-20.92329" lon="55.39576">
        <ele>668.4</ele>
        <time>2013-09-15T07:07:40Z</time>
      </trkpt>
      <trkpt lat="-20.92327" lon="55.39568">
        <ele>668</ele>
        <time>2013-09-15T07:07:44Z</time>
      </trkpt>
      <trkpt lat="-20.92321" lon="55.39563">
        <ele>667.6</ele>
        <time>2013-09-15T07:07:47Z</time>
      </trkpt>
      <trkpt lat="-20.92314" lon="55.3956">
        <ele>666.7</ele>
        <time>2013-09-15T07:07:50Z</time>
      </trkpt>
      <trkpt lat="-20.92307" lon="55.39556">
        <ele>667</ele>
        <time>2013-09-15T07:07:53Z</time>
      </trkpt>
      <trkpt lat="-20.92301" lon="55.39552">
        <ele>667.1</ele>
        <time>2013-09-15T07:07:56Z</time>
      </trkpt>
      <trkpt lat="-20.92295" lon="55.39547">
        <ele>666.3</ele>
        <time>2013-09-15T07:07:59Z</time>
      </trkpt>
      <trkpt lat="-20.9229" lon="55.39541">
        <ele>666</ele>
        <time>2013-09-15T07:08:02Z</time>
      </trkpt>
      <trkpt lat="-20.92286" lon="55.39534">
        <ele>665.3</ele>
        <time>2013-09-15T07:08:05Z</time>
      </trkpt>
      <trkpt lat="-20.92283" lon="55.39528">
        <ele>664.6</ele>
        <time>2013-09-15T07:08:08Z</time>
      </trkpt>
      <trkpt lat="-20.92279" lon="55.39519">
        <ele>664.1</ele>
        <time>2013-09-15T07:08:12Z</time>
      </trkpt>
      <trkpt lat="-20.92279" lon="55.39517">
        <ele>664.2</ele>
        <time>2013-09-15T07:08:13Z</time>
      </trkpt>
      <trkpt lat="-20.92271" lon="55.39504">
        <ele>663</ele>
        <time>2013-09-15T07:08:21Z</time>
      </trkpt>
      <trkpt lat="-20.92264" lon="55.39506">
        <ele>662.2</ele>
        <time>2013-09-15T07:08:25Z</time>
      </trkpt>
      <trkpt lat="-20.92256" lon="55.39509">
        <ele>662</ele>
        <time>2013-09-15T07:08:29Z</time>
      </trkpt>
      <trkpt lat="-20.92248" lon="55.39512">
        <ele>661.4</ele>
        <time>2013-09-15T07:08:33Z</time>
      </trkpt>
      <trkpt lat="-20.92241" lon="55.39514">
        <ele>660.3</ele>
        <time>2013-09-15T07:08:37Z</time>
      </trkpt>
      <trkpt lat="-20.92232" lon="55.39512">
        <ele>660.5</ele>
        <time>2013-09-15T07:08:41Z</time>
      </trkpt>
      <trkpt lat="-20.92224" lon="55.39509">
        <ele>660.5</ele>
        <time>2013-09-15T07:08:45Z</time>
      </trkpt>
      <trkpt lat="-20.92217" lon="55.39505">
        <ele>659.7</ele>
        <time>2013-09-15T07:08:49Z</time>
      </trkpt>
      <trkpt lat="-20.92209" lon="55.39502">
        <ele>659.2</ele>
        <time>2013-09-15T07:08:53Z</time>
      </trkpt>
      <trkpt lat="-20.92201" lon="55.395">
        <ele>658.7</ele>
        <time>2013-09-15T07:08:56Z</time>
      </trkpt>
      <trkpt lat="-20.92194" lon="55.39498">
        <ele>657.9</ele>
        <time>2013-09-15T07:08:59Z</time>
      </trkpt>
      <trkpt lat="-20.92187" lon="55.39496">
        <ele>657.5</ele>
        <time>2013-09-15T07:09:02Z</time>
      </trkpt>
      <trkpt lat="-20.92181" lon="55.39492">
        <ele>656.4</ele>
        <time>2013-09-15T07:09:05Z</time>
      </trkpt>
      <trkpt lat="-20.92176" lon="55.39486">
        <ele>655.8</ele>
        <time>2013-09-15T07:09:08Z</time>
      </trkpt>
      <trkpt lat="-20.92173" lon="55.39479">
        <ele>655.4</ele>
        <time>2013-09-15T07:09:11Z</time>
      </trkpt>
      <trkpt lat="-20.92173" lon="55.39472">
        <ele>655.8</ele>
        <time>2013-09-15T07:09:14Z</time>
      </trkpt>
      <trkpt lat="-20.92173" lon="55.39469">
        <ele>656.1</ele>
        <time>2013-09-15T07:09:15Z</time>
      </trkpt>
      <trkpt lat="-20.92174" lon="55.39457">
        <ele>654.7</ele>
        <time>2013-09-15T07:09:20Z</time>
      </trkpt>
      <trkpt lat="-20.92174" lon="55.39449">
        <ele>654.4</ele>
        <time>2013-09-15T07:09:23Z</time>
      </trkpt>
      <trkpt lat="-20.92173" lon="55.3944">
        <ele>653.8</ele>
        <time>2013-09-15T07:09:27Z</time>
      </trkpt>
      <trkpt lat="-20.92174" lon="55.39431">
        <ele>653.3</ele>
        <time>2013-09-15T07:09:31Z</time>
      </trkpt>
      <trkpt lat="-20.92173" lon="55.39423">
        <ele>652.9</ele>
        <time>2013-09-15T07:09:34Z</time>
      </trkpt>
      <trkpt lat="-20.92169" lon="55.39415">
        <ele>652</ele>
        <time>2013-09-15T07:09:39Z</time>
      </trkpt>
      <trkpt lat="-20.92162" lon="55.39409">
        <ele>651.4</ele>
        <time>2013-09-15T07:10:46Z</time>
      </trkpt>
      <trkpt lat="-20.92161" lon="55.39409">
        <ele>651.4</ele>
        <time>2013-09-15T07:10:47Z</time>
      </trkpt>
      <trkpt lat="-20.9215" lon="55.39418">
        <ele>652.4</ele>
        <time>2013-09-15T07:11:12Z</time>
      </trkpt>
      <trkpt lat="-20.92147" lon="55.39425">
        <ele>652.4</ele>
        <time>2013-09-15T07:11:15Z</time>
      </trkpt>
      <trkpt lat="-20.92148" lon="55.39434">
        <ele>651.7</ele>
        <time>2013-09-15T07:11:18Z</time>
      </trkpt>
      <trkpt lat="-20.9215" lon="55.39441">
        <ele>650.8</ele>
        <time>2013-09-15T07:11:21Z</time>
      </trkpt>
      <trkpt lat="-20.92152" lon="55.3945">
        <ele>650.6</ele>
        <time>2013-09-15T07:11:25Z</time>
      </trkpt>
      <trkpt lat="-20.92151" lon="55.39458">
        <ele>651</ele>
        <time>2013-09-15T07:11:28Z</time>
      </trkpt>
      <trkpt lat="-20.92148" lon="55.39466">
        <ele>651</ele>
        <time>2013-09-15T07:11:32Z</time>
      </trkpt>
      <trkpt lat="-20.92145" lon="55.39472">
        <ele>650.7</ele>
        <time>2013-09-15T07:11:35Z</time>
      </trkpt>
      <trkpt lat="-20.92144" lon="55.3948">
        <ele>650.1</ele>
        <time>2013-09-15T07:11:38Z</time>
      </trkpt>
      <trkpt lat="-20.92143" lon="55.39488">
        <ele>649.8</ele>
        <time>2013-09-15T07:11:41Z</time>
      </trkpt>
      <trkpt lat="-20.92146" lon="55.39497">
        <ele>649.5</ele>
        <time>2013-09-15T07:11:45Z</time>
      </trkpt>
      <trkpt lat="-20.9215" lon="55.39504">
        <ele>649.1</ele>
        <time>2013-09-15T07:11:49Z</time>
      </trkpt>
      <trkpt lat="-20.92151" lon="55.39506">
        <ele>649.3</ele>
        <time>2013-09-15T07:11:50Z</time>
      </trkpt>
      <trkpt lat="-20.92161" lon="55.39516">
        <ele>649.3</ele>
        <time>2013-09-15T07:11:57Z</time>
      </trkpt>
      <trkpt lat="-20.92168" lon="55.3952">
        <ele>649.1</ele>
        <time>2013-09-15T07:12:00Z</time>
      </trkpt>
      <trkpt lat="-20.92174" lon="55.39524">
        <ele>649</ele>
        <time>2013-09-15T07:12:03Z</time>
      </trkpt>
      <trkpt lat="-20.92181" lon="55.39528">
        <ele>648.9</ele>
        <time>2013-09-15T07:12:06Z</time>
      </trkpt>
      <trkpt lat="-20.92188" lon="55.39531">
        <ele>648.6</ele>
        <time>2013-09-15T07:12:09Z</time>
      </trkpt>
      <trkpt lat="-20.92194" lon="55.39534">
        <ele>648.5</ele>
        <time>2013-09-15T07:12:12Z</time>
      </trkpt>
      <trkpt lat="-20.92187" lon="55.39537">
        <ele>646.8</ele>
        <time>2013-09-15T07:12:25Z</time>
      </trkpt>
      <trkpt lat="-20.92179" lon="55.39534">
        <ele>646.4</ele>
        <time>2013-09-15T07:12:29Z</time>
      </trkpt>
      <trkpt lat="-20.92172" lon="55.39532">
        <ele>646.5</ele>
        <time>2013-09-15T07:12:36Z</time>
      </trkpt>
      <trkpt lat="-20.92164" lon="55.39528">
        <ele>645.6</ele>
        <time>2013-09-15T07:12:42Z</time>
      </trkpt>
      <trkpt lat="-20.92157" lon="55.39524">
        <ele>644.8</ele>
        <time>2013-09-15T07:12:47Z</time>
      </trkpt>
      <trkpt lat="-20.92151" lon="55.39519">
        <ele>644.3</ele>
        <time>2013-09-15T07:12:51Z</time>
      </trkpt>
      <trkpt lat="-20.92149" lon="55.39517">
        <ele>644.4</ele>
        <time>2013-09-15T07:12:52Z</time>
      </trkpt>
      <trkpt lat="-20.92141" lon="55.39506">
        <ele>643.8</ele>
        <time>2013-09-15T07:12:58Z</time>
      </trkpt>
      <trkpt lat="-20.92137" lon="55.395">
        <ele>643.1</ele>
        <time>2013-09-15T07:13:01Z</time>
      </trkpt>
      <trkpt lat="-20.92133" lon="55.39493">
        <ele>643.2</ele>
        <time>2013-09-15T07:13:04Z</time>
      </trkpt>
      <trkpt lat="-20.92131" lon="55.39486">
        <ele>642.9</ele>
        <time>2013-09-15T07:13:07Z</time>
      </trkpt>
      <trkpt lat="-20.9213" lon="55.39478">
        <ele>642.5</ele>
        <time>2013-09-15T07:13:10Z</time>
      </trkpt>
      <trkpt lat="-20.9213" lon="55.3947">
        <ele>642.7</ele>
        <time>2013-09-15T07:13:13Z</time>
      </trkpt>
      <trkpt lat="-20.92127" lon="55.39462">
        <ele>643</ele>
        <time>2013-09-15T07:13:16Z</time>
      </trkpt>
      <trkpt lat="-20.92121" lon="55.39458">
        <ele>641.9</ele>
        <time>2013-09-15T07:13:19Z</time>
      </trkpt>
      <trkpt lat="-20.92114" lon="55.39456">
        <ele>640.6</ele>
        <time>2013-09-15T07:13:22Z</time>
      </trkpt>
      <trkpt lat="-20.92106" lon="55.39455">
        <ele>640.3</ele>
        <time>2013-09-15T07:13:25Z</time>
      </trkpt>
      <trkpt lat="-20.92099" lon="55.39454">
        <ele>639.6</ele>
        <time>2013-09-15T07:13:28Z</time>
      </trkpt>
      <trkpt lat="-20.92091" lon="55.39451">
        <ele>638.6</ele>
        <time>2013-09-15T07:13:31Z</time>
      </trkpt>
      <trkpt lat="-20.92083" lon="55.39449">
        <ele>639.1</ele>
        <time>2013-09-15T07:13:34Z</time>
      </trkpt>
      <trkpt lat="-20.92075" lon="55.39447">
        <ele>638.6</ele>
        <time>2013-09-15T07:13:37Z</time>
      </trkpt>
      <trkpt lat="-20.92069" lon="55.39444">
        <ele>638</ele>
        <time>2013-09-15T07:13:40Z</time>
      </trkpt>
      <trkpt lat="-20.92062" lon="55.39441">
        <ele>637.8</ele>
        <time>2013-09-15T07:13:43Z</time>
      </trkpt>
      <trkpt lat="-20.92055" lon="55.39437">
        <ele>637.7</ele>
        <time>2013-09-15T07:13:47Z</time>
      </trkpt>
      <trkpt lat="-20.9205" lon="55.39432">
        <ele>636.7</ele>
        <time>2013-09-15T07:13:50Z</time>
      </trkpt>
      <trkpt lat="-20.92044" lon="55.39427">
        <ele>636.6</ele>
        <time>2013-09-15T07:13:53Z</time>
      </trkpt>
      <trkpt lat="-20.92043" lon="55.39425">
        <ele>636.7</ele>
        <time>2013-09-15T07:13:54Z</time>
      </trkpt>
      <trkpt lat="-20.92031" lon="55.39419">
        <ele>635.9</ele>
        <time>2013-09-15T07:13:59Z</time>
      </trkpt>
      <trkpt lat="-20.92024" lon="55.39416">
        <ele>636.1</ele>
        <time>2013-09-15T07:14:02Z</time>
      </trkpt>
      <trkpt lat="-20.92018" lon="55.39411">
        <ele>636</ele>
        <time>2013-09-15T07:14:05Z</time>
      </trkpt>
      <trkpt lat="-20.92013" lon="55.39406">
        <ele>636.2</ele>
        <time>2013-09-15T07:14:08Z</time>
      </trkpt>
      <trkpt lat="-20.92009" lon="55.39397">
        <ele>635.8</ele>
        <time>2013-09-15T07:14:12Z</time>
      </trkpt>
      <trkpt lat="-20.92006" lon="55.39389">
        <ele>635.8</ele>
        <time>2013-09-15T07:14:16Z</time>
      </trkpt>
      <trkpt lat="-20.92004" lon="55.3938">
        <ele>634.5</ele>
        <time>2013-09-15T07:14:20Z</time>
      </trkpt>
      <trkpt lat="-20.92" lon="55.39373">
        <ele>634.6</ele>
        <time>2013-09-15T07:14:24Z</time>
      </trkpt>
      <trkpt lat="-20.91993" lon="55.39368">
        <ele>634.1</ele>
        <time>2013-09-15T07:14:28Z</time>
      </trkpt>
      <trkpt lat="-20.91984" lon="55.39368">
        <ele>633.9</ele>
        <time>2013-09-15T07:14:32Z</time>
      </trkpt>
      <trkpt lat="-20.91977" lon="55.3937">
        <ele>633.1</ele>
        <time>2013-09-15T07:14:36Z</time>
      </trkpt>
      <trkpt lat="-20.91971" lon="55.39376">
        <ele>632.5</ele>
        <time>2013-09-15T07:14:40Z</time>
      </trkpt>
      <trkpt lat="-20.91963" lon="55.39381">
        <ele>632.4</ele>
        <time>2013-09-15T07:14:44Z</time>
      </trkpt>
      <trkpt lat="-20.91958" lon="55.39385">
        <ele>633</ele>
        <time>2013-09-15T07:14:47Z</time>
      </trkpt>
      <trkpt lat="-20.91951" lon="55.39388">
        <ele>632</ele>
        <time>2013-09-15T07:14:50Z</time>
      </trkpt>
      <trkpt lat="-20.91943" lon="55.39391">
        <ele>632.8</ele>
        <time>2013-09-15T07:14:54Z</time>
      </trkpt>
      <trkpt lat="-20.91936" lon="55.39394">
        <ele>631.7</ele>
        <time>2013-09-15T07:14:57Z</time>
      </trkpt>
      <trkpt lat="-20.91934" lon="55.39396">
        <ele>631.4</ele>
        <time>2013-09-15T07:14:58Z</time>
      </trkpt>
      <trkpt lat="-20.9192" lon="55.39398">
        <ele>630.5</ele>
        <time>2013-09-15T07:15:05Z</time>
      </trkpt>
      <trkpt lat="-20.91911" lon="55.39398">
        <ele>630.5</ele>
        <time>2013-09-15T07:15:09Z</time>
      </trkpt>
      <trkpt lat="-20.91903" lon="55.39399">
        <ele>630.2</ele>
        <time>2013-09-15T07:15:15Z</time>
      </trkpt>
      <trkpt lat="-20.91897" lon="55.39398">
        <ele>629.8</ele>
        <time>2013-09-15T07:15:19Z</time>
      </trkpt>
      <trkpt lat="-20.91889" lon="55.39397">
        <ele>629.6</ele>
        <time>2013-09-15T07:15:22Z</time>
      </trkpt>
      <trkpt lat="-20.91881" lon="55.39396">
        <ele>628.4</ele>
        <time>2013-09-15T07:15:26Z</time>
      </trkpt>
      <trkpt lat="-20.91874" lon="55.39395">
        <ele>628</ele>
        <time>2013-09-15T07:15:29Z</time>
      </trkpt>
      <trkpt lat="-20.91867" lon="55.39393">
        <ele>627.5</ele>
        <time>2013-09-15T07:15:32Z</time>
      </trkpt>
      <trkpt lat="-20.91861" lon="55.3939">
        <ele>627.3</ele>
        <time>2013-09-15T07:15:35Z</time>
      </trkpt>
      <trkpt lat="-20.91855" lon="55.39387">
        <ele>626.5</ele>
        <time>2013-09-15T07:15:38Z</time>
      </trkpt>
      <trkpt lat="-20.91848" lon="55.39381">
        <ele>625.8</ele>
        <time>2013-09-15T07:15:42Z</time>
      </trkpt>
      <trkpt lat="-20.91844" lon="55.39373">
        <ele>625.1</ele>
        <time>2013-09-15T07:15:46Z</time>
      </trkpt>
      <trkpt lat="-20.91844" lon="55.39363">
        <ele>624.9</ele>
        <time>2013-09-15T07:15:50Z</time>
      </trkpt>
      <trkpt lat="-20.91848" lon="55.39355">
        <ele>624.8</ele>
        <time>2013-09-15T07:15:54Z</time>
      </trkpt>
      <trkpt lat="-20.9185" lon="55.39348">
        <ele>624.5</ele>
        <time>2013-09-15T07:15:58Z</time>
      </trkpt>
      <trkpt lat="-20.91851" lon="55.39339">
        <ele>624.1</ele>
        <time>2013-09-15T07:16:03Z</time>
      </trkpt>
      <trkpt lat="-20.91851" lon="55.39337">
        <ele>623.7</ele>
        <time>2013-09-15T07:16:04Z</time>
      </trkpt>
      <trkpt lat="-20.91849" lon="55.39323">
        <ele>623.7</ele>
        <time>2013-09-15T07:16:11Z</time>
      </trkpt>
      <trkpt lat="-20.91848" lon="55.39314">
        <ele>623.3</ele>
        <time>2013-09-15T07:16:15Z</time>
      </trkpt>
      <trkpt lat="-20.91848" lon="55.39305">
        <ele>623.2</ele>
        <time>2013-09-15T07:16:19Z</time>
      </trkpt>
      <trkpt lat="-20.91849" lon="55.39296">
        <ele>623.3</ele>
        <time>2013-09-15T07:16:23Z</time>
      </trkpt>
      <trkpt lat="-20.91851" lon="55.39287">
        <ele>623.3</ele>
        <time>2013-09-15T07:16:27Z</time>
      </trkpt>
      <trkpt lat="-20.91853" lon="55.39278">
        <ele>622.7</ele>
        <time>2013-09-15T07:16:31Z</time>
      </trkpt>
      <trkpt lat="-20.91852" lon="55.39269">
        <ele>621.2</ele>
        <time>2013-09-15T07:16:35Z</time>
      </trkpt>
      <trkpt lat="-20.91846" lon="55.39264">
        <ele>620.2</ele>
        <time>2013-09-15T07:16:39Z</time>
      </trkpt>
      <trkpt lat="-20.9184" lon="55.3927">
        <ele>619.7</ele>
        <time>2013-09-15T07:16:43Z</time>
      </trkpt>
      <trkpt lat="-20.91837" lon="55.39277">
        <ele>619.7</ele>
        <time>2013-09-15T07:16:47Z</time>
      </trkpt>
      <trkpt lat="-20.91834" lon="55.39286">
        <ele>618.6</ele>
        <time>2013-09-15T07:16:51Z</time>
      </trkpt>
      <trkpt lat="-20.91832" lon="55.39295">
        <ele>617.7</ele>
        <time>2013-09-15T07:16:55Z</time>
      </trkpt>
      <trkpt lat="-20.91829" lon="55.39302">
        <ele>617</ele>
        <time>2013-09-15T07:16:58Z</time>
      </trkpt>
      <trkpt lat="-20.91828" lon="55.3931">
        <ele>616.4</ele>
        <time>2013-09-15T07:17:01Z</time>
      </trkpt>
      <trkpt lat="-20.91826" lon="55.39317">
        <ele>616.3</ele>
        <time>2013-09-15T07:17:04Z</time>
      </trkpt>
      <trkpt lat="-20.91824" lon="55.39325">
        <ele>615.9</ele>
        <time>2013-09-15T07:17:07Z</time>
      </trkpt>
      <trkpt lat="-20.91824" lon="55.39327">
        <ele>615.6</ele>
        <time>2013-09-15T07:17:08Z</time>
      </trkpt>
      <trkpt lat="-20.9182" lon="55.39342">
        <ele>614.5</ele>
        <time>2013-09-15T07:17:15Z</time>
      </trkpt>
      <trkpt lat="-20.91817" lon="55.3935">
        <ele>613.5</ele>
        <time>2013-09-15T07:17:19Z</time>
      </trkpt>
      <trkpt lat="-20.91813" lon="55.39356">
        <ele>613.4</ele>
        <time>2013-09-15T07:17:22Z</time>
      </trkpt>
      <trkpt lat="-20.91808" lon="55.39362">
        <ele>612.9</ele>
        <time>2013-09-15T07:17:25Z</time>
      </trkpt>
      <trkpt lat="-20.91803" lon="55.39368">
        <ele>613.3</ele>
        <time>2013-09-15T07:17:28Z</time>
      </trkpt>
      <trkpt lat="-20.91797" lon="55.39374">
        <ele>612.8</ele>
        <time>2013-09-15T07:17:32Z</time>
      </trkpt>
      <trkpt lat="-20.91794" lon="55.39382">
        <ele>612.3</ele>
        <time>2013-09-15T07:17:37Z</time>
      </trkpt>
      <trkpt lat="-20.91797" lon="55.39391">
        <ele>612.1</ele>
        <time>2013-09-15T07:17:43Z</time>
      </trkpt>
      <trkpt lat="-20.91803" lon="55.39397">
        <ele>612</ele>
        <time>2013-09-15T07:17:49Z</time>
      </trkpt>
      <trkpt lat="-20.91811" lon="55.394">
        <ele>612</ele>
        <time>2013-09-15T07:17:56Z</time>
      </trkpt>
      <trkpt lat="-20.91818" lon="55.39404">
        <ele>612.2</ele>
        <time>2013-09-15T07:18:03Z</time>
      </trkpt>
      <trkpt lat="-20.91824" lon="55.39409">
        <ele>612</ele>
        <time>2013-09-15T07:18:07Z</time>
      </trkpt>
      <trkpt lat="-20.91816" lon="55.39413">
        <ele>608.8</ele>
        <time>2013-09-15T07:18:19Z</time>
      </trkpt>
      <trkpt lat="-20.91814" lon="55.39412">
        <ele>608.4</ele>
        <time>2013-09-15T07:18:20Z</time>
      </trkpt>
      <trkpt lat="-20.91799" lon="55.39412">
        <ele>606.5</ele>
        <time>2013-09-15T07:18:28Z</time>
      </trkpt>
      <trkpt lat="-20.91791" lon="55.39414">
        <ele>604.7</ele>
        <time>2013-09-15T07:18:32Z</time>
      </trkpt>
      <trkpt lat="-20.91783" lon="55.39415">
        <ele>603.9</ele>
        <time>2013-09-15T07:18:35Z</time>
      </trkpt>
      <trkpt lat="-20.91776" lon="55.39417">
        <ele>602.9</ele>
        <time>2013-09-15T07:18:38Z</time>
      </trkpt>
      <trkpt lat="-20.9177" lon="55.3942">
        <ele>601.2</ele>
        <time>2013-09-15T07:18:41Z</time>
      </trkpt>
      <trkpt lat="-20.91763" lon="55.39424">
        <ele>601.1</ele>
        <time>2013-09-15T07:18:44Z</time>
      </trkpt>
      <trkpt lat="-20.91755" lon="55.39427">
        <ele>600.2</ele>
        <time>2013-09-15T07:18:47Z</time>
      </trkpt>
      <trkpt lat="-20.91748" lon="55.39428">
        <ele>599.3</ele>
        <time>2013-09-15T07:18:50Z</time>
      </trkpt>
      <trkpt lat="-20.91741" lon="55.39427">
        <ele>598.4</ele>
        <time>2013-09-15T07:18:53Z</time>
      </trkpt>
      <trkpt lat="-20.91734" lon="55.39424">
        <ele>597.2</ele>
        <time>2013-09-15T07:18:56Z</time>
      </trkpt>
      <trkpt lat="-20.91727" lon="55.3942">
        <ele>596.1</ele>
        <time>2013-09-15T07:19:00Z</time>
      </trkpt>
      <trkpt lat="-20.91719" lon="55.39417">
        <ele>595.3</ele>
        <time>2013-09-15T07:19:04Z</time>
      </trkpt>
      <trkpt lat="-20.91714" lon="55.3941">
        <ele>594.7</ele>
        <time>2013-09-15T07:19:08Z</time>
      </trkpt>
      <trkpt lat="-20.91712" lon="55.39402">
        <ele>593.4</ele>
        <time>2013-09-15T07:19:13Z</time>
      </trkpt>
      <trkpt lat="-20.91712" lon="55.39393">
        <ele>592.7</ele>
        <time>2013-09-15T07:19:18Z</time>
      </trkpt>
      <trkpt lat="-20.91715" lon="55.39384">
        <ele>592.7</ele>
        <time>2013-09-15T07:19:23Z</time>
      </trkpt>
      <trkpt lat="-20.91716" lon="55.39382">
        <ele>592.6</ele>
        <time>2013-09-15T07:19:24Z</time>
      </trkpt>
      <trkpt lat="-20.91708" lon="55.3937">
        <ele>588.9</ele>
        <time>2013-09-15T07:19:31Z</time>
      </trkpt>
      <trkpt lat="-20.91702" lon="55.39362">
        <ele>586.5</ele>
        <time>2013-09-15T07:19:35Z</time>
      </trkpt>
      <trkpt lat="-20.91699" lon="55.39354">
        <ele>584.1</ele>
        <time>2013-09-15T07:19:39Z</time>
      </trkpt>
      <trkpt lat="-20.91693" lon="55.39346">
        <ele>581.6</ele>
        <time>2013-09-15T07:19:44Z</time>
      </trkpt>
      <trkpt lat="-20.91688" lon="55.39339">
        <ele>579.4</ele>
        <time>2013-09-15T07:19:48Z</time>
      </trkpt>
      <trkpt lat="-20.91682" lon="55.39333">
        <ele>578.6</ele>
        <time>2013-09-15T07:19:52Z</time>
      </trkpt>
      <trkpt lat="-20.91677" lon="55.39328">
        <ele>577.8</ele>
        <time>2013-09-15T07:19:55Z</time>
      </trkpt>
      <trkpt lat="-20.91669" lon="55.39324">
        <ele>577.1</ele>
        <time>2013-09-15T07:19:59Z</time>
      </trkpt>
      <trkpt lat="-20.9166" lon="55.39322">
        <ele>575.8</ele>
        <time>2013-09-15T07:20:03Z</time>
      </trkpt>
      <trkpt lat="-20.91653" lon="55.39323">
        <ele>573.9</ele>
        <time>2013-09-15T07:20:07Z</time>
      </trkpt>
      <trkpt lat="-20.91645" lon="55.3932">
        <ele>571.2</ele>
        <time>2013-09-15T07:20:12Z</time>
      </trkpt>
      <trkpt lat="-20.91637" lon="55.39316">
        <ele>569</ele>
        <time>2013-09-15T07:20:18Z</time>
      </trkpt>
      <trkpt lat="-20.91632" lon="55.39311">
        <ele>567</ele>
        <time>2013-09-15T07:20:22Z</time>
      </trkpt>
      <trkpt lat="-20.91629" lon="55.39302">
        <ele>564.9</ele>
        <time>2013-09-15T07:20:26Z</time>
      </trkpt>
      <trkpt lat="-20.91628" lon="55.393">
        <ele>564.6</ele>
        <time>2013-09-15T07:20:27Z</time>
      </trkpt>
      <trkpt lat="-20.91619" lon="55.3929">
        <ele>565.5</ele>
        <time>2013-09-15T07:20:34Z</time>
      </trkpt>
      <trkpt lat="-20.91615" lon="55.39281">
        <ele>565.8</ele>
        <time>2013-09-15T07:20:39Z</time>
      </trkpt>
      <trkpt lat="-20.91614" lon="55.39274">
        <ele>566</ele>
        <time>2013-09-15T07:20:42Z</time>
      </trkpt>
      <trkpt lat="-20.91613" lon="55.39265">
        <ele>566.1</ele>
        <time>2013-09-15T07:20:46Z</time>
      </trkpt>
      <trkpt lat="-20.91612" lon="55.39256">
        <ele>565.5</ele>
        <time>2013-09-15T07:20:50Z</time>
      </trkpt>
      <trkpt lat="-20.91612" lon="55.39247">
        <ele>564.7</ele>
        <time>2013-09-15T07:20:54Z</time>
      </trkpt>
      <trkpt lat="-20.91615" lon="55.39238">
        <ele>565.4</ele>
        <time>2013-09-15T07:20:58Z</time>
      </trkpt>
      <trkpt lat="-20.91617" lon="55.39231">
        <ele>564.1</ele>
        <time>2013-09-15T07:21:01Z</time>
      </trkpt>
      <trkpt lat="-20.91619" lon="55.39221">
        <ele>564.3</ele>
        <time>2013-09-15T07:21:06Z</time>
      </trkpt>
      <trkpt lat="-20.91619" lon="55.39214">
        <ele>564.6</ele>
        <time>2013-09-15T07:21:09Z</time>
      </trkpt>
      <trkpt lat="-20.91618" lon="55.39206">
        <ele>564.4</ele>
        <time>2013-09-15T07:21:13Z</time>
      </trkpt>
      <trkpt lat="-20.91616" lon="55.39198">
        <ele>564.3</ele>
        <time>2013-09-15T07:21:17Z</time>
      </trkpt>
      <trkpt lat="-20.91611" lon="55.3919">
        <ele>564</ele>
        <time>2013-09-15T07:21:22Z</time>
      </trkpt>
      <trkpt lat="-20.91609" lon="55.39182">
        <ele>564</ele>
        <time>2013-09-15T07:21:26Z</time>
      </trkpt>
      <trkpt lat="-20.9161" lon="55.39173">
        <ele>564.4</ele>
        <time>2013-09-15T07:21:32Z</time>
      </trkpt>
      <trkpt lat="-20.9161" lon="55.39172">
        <ele>564.2</ele>
        <time>2013-09-15T07:21:33Z</time>
      </trkpt>
      <trkpt lat="-20.91607" lon="55.39155">
        <ele>564.2</ele>
        <time>2013-09-15T07:21:44Z</time>
      </trkpt>
      <trkpt lat="-20.91607" lon="55.39146">
        <ele>564.1</ele>
        <time>2013-09-15T07:21:51Z</time>
      </trkpt>
      <trkpt lat="-20.91604" lon="55.39137">
        <ele>563.1</ele>
        <time>2013-09-15T07:21:57Z</time>
      </trkpt>
      <trkpt lat="-20.91597" lon="55.39132">
        <ele>561.1</ele>
        <time>2013-09-15T07:22:02Z</time>
      </trkpt>
      <trkpt lat="-20.9159" lon="55.39129">
        <ele>560.2</ele>
        <time>2013-09-15T07:22:06Z</time>
      </trkpt>
      <trkpt lat="-20.91581" lon="55.39128">
        <ele>558.3</ele>
        <time>2013-09-15T07:22:11Z</time>
      </trkpt>
      <trkpt lat="-20.91573" lon="55.39125">
        <ele>556.3</ele>
        <time>2013-09-15T07:22:16Z</time>
      </trkpt>
      <trkpt lat="-20.91565" lon="55.39122">
        <ele>554.9</ele>
        <time>2013-09-15T07:22:22Z</time>
      </trkpt>
      <trkpt lat="-20.91557" lon="55.39123">
        <ele>553.4</ele>
        <time>2013-09-15T07:22:27Z</time>
      </trkpt>
      <trkpt lat="-20.91548" lon="55.39122">
        <ele>551.4</ele>
        <time>2013-09-15T07:22:33Z</time>
      </trkpt>
      <trkpt lat="-20.91547" lon="55.39122">
        <ele>551.3</ele>
        <time>2013-09-15T07:22:34Z</time>
      </trkpt>
      <trkpt lat="-20.91531" lon="55.39118">
        <ele>547.9</ele>
        <time>2013-09-15T07:22:45Z</time>
      </trkpt>
      <trkpt lat="-20.91522" lon="55.39118">
        <ele>546.1</ele>
        <time>2013-09-15T07:22:51Z</time>
      </trkpt>
      <trkpt lat="-20.91515" lon="55.39117">
        <ele>543.5</ele>
        <time>2013-09-15T07:22:56Z</time>
      </trkpt>
      <trkpt lat="-20.91507" lon="55.39113">
        <ele>541.7</ele>
        <time>2013-09-15T07:23:00Z</time>
      </trkpt>
      <trkpt lat="-20.91503" lon="55.39106">
        <ele>539.8</ele>
        <time>2013-09-15T07:23:06Z</time>
      </trkpt>
      <trkpt lat="-20.915" lon="55.39098">
        <ele>537.7</ele>
        <time>2013-09-15T07:23:11Z</time>
      </trkpt>
      <trkpt lat="-20.915" lon="55.39089">
        <ele>534.3</ele>
        <time>2013-09-15T07:23:18Z</time>
      </trkpt>
      <trkpt lat="-20.91493" lon="55.39083">
        <ele>531.3</ele>
        <time>2013-09-15T07:23:26Z</time>
      </trkpt>
      <trkpt lat="-20.91491" lon="55.39073">
        <ele>527.2</ele>
        <time>2013-09-15T07:23:34Z</time>
      </trkpt>
      <trkpt lat="-20.91491" lon="55.39072">
        <ele>526.5</ele>
        <time>2013-09-15T07:23:35Z</time>
      </trkpt>
      <trkpt lat="-20.91482" lon="55.3906">
        <ele>520.9</ele>
        <time>2013-09-15T07:23:47Z</time>
      </trkpt>
      <trkpt lat="-20.91473" lon="55.39058">
        <ele>517.5</ele>
        <time>2013-09-15T07:23:54Z</time>
      </trkpt>
      <trkpt lat="-20.91465" lon="55.39059">
        <ele>516</ele>
        <time>2013-09-15T07:23:59Z</time>
      </trkpt>
      <trkpt lat="-20.91456" lon="55.39058">
        <ele>513.2</ele>
        <time>2013-09-15T07:24:04Z</time>
      </trkpt>
      <trkpt lat="-20.9145" lon="55.39052">
        <ele>512.7</ele>
        <time>2013-09-15T07:24:10Z</time>
      </trkpt>
      <trkpt lat="-20.91445" lon="55.39044">
        <ele>511.2</ele>
        <time>2013-09-15T07:24:14Z</time>
      </trkpt>
      <trkpt lat="-20.9144" lon="55.39036">
        <ele>510.2</ele>
        <time>2013-09-15T07:24:18Z</time>
      </trkpt>
      <trkpt lat="-20.91437" lon="55.39029">
        <ele>509.8</ele>
        <time>2013-09-15T07:24:22Z</time>
      </trkpt>
      <trkpt lat="-20.91432" lon="55.39021">
        <ele>507.4</ele>
        <time>2013-09-15T07:24:26Z</time>
      </trkpt>
      <trkpt lat="-20.91426" lon="55.39016">
        <ele>506.1</ele>
        <time>2013-09-15T07:24:29Z</time>
      </trkpt>
      <trkpt lat="-20.91421" lon="55.3901">
        <ele>505.9</ele>
        <time>2013-09-15T07:24:33Z</time>
      </trkpt>
      <trkpt lat="-20.91415" lon="55.39004">
        <ele>504.1</ele>
        <time>2013-09-15T07:24:37Z</time>
      </trkpt>
      <trkpt lat="-20.91414" lon="55.39003">
        <ele>503.8</ele>
        <time>2013-09-15T07:24:38Z</time>
      </trkpt>
      <trkpt lat="-20.91404" lon="55.38993">
        <ele>501</ele>
        <time>2013-09-15T07:24:46Z</time>
      </trkpt>
      <trkpt lat="-20.91398" lon="55.38987">
        <ele>500.5</ele>
        <time>2013-09-15T07:24:51Z</time>
      </trkpt>
      <trkpt lat="-20.91393" lon="55.38981">
        <ele>499.8</ele>
        <time>2013-09-15T07:24:56Z</time>
      </trkpt>
      <trkpt lat="-20.91388" lon="55.38975">
        <ele>497.6</ele>
        <time>2013-09-15T07:25:01Z</time>
      </trkpt>
      <trkpt lat="-20.91381" lon="55.3897">
        <ele>497.4</ele>
        <time>2013-09-15T07:25:06Z</time>
      </trkpt>
      <trkpt lat="-20.91377" lon="55.38962">
        <ele>498.6</ele>
        <time>2013-09-15T07:25:23Z</time>
      </trkpt>
      <trkpt lat="-20.91378" lon="55.38952">
        <ele>500.6</ele>
        <time>2013-09-15T07:25:29Z</time>
      </trkpt>
      <trkpt lat="-20.91375" lon="55.38943">
        <ele>502.1</ele>
        <time>2013-09-15T07:25:34Z</time>
      </trkpt>
      <trkpt lat="-20.91372" lon="55.38936">
        <ele>502.2</ele>
        <time>2013-09-15T07:25:38Z</time>
      </trkpt>
      <trkpt lat="-20.91372" lon="55.38934">
        <ele>502.1</ele>
        <time>2013-09-15T07:25:39Z</time>
      </trkpt>
      <trkpt lat="-20.91368" lon="55.3892">
        <ele>502.2</ele>
        <time>2013-09-15T07:25:47Z</time>
      </trkpt>
      <trkpt lat="-20.91366" lon="55.38912">
        <ele>502.2</ele>
        <time>2013-09-15T07:25:52Z</time>
      </trkpt>
      <trkpt lat="-20.91365" lon="55.38902">
        <ele>502.6</ele>
        <time>2013-09-15T07:25:57Z</time>
      </trkpt>
      <trkpt lat="-20.91364" lon="55.38894">
        <ele>501.9</ele>
        <time>2013-09-15T07:26:01Z</time>
      </trkpt>
      <trkpt lat="-20.91362" lon="55.38887">
        <ele>502.7</ele>
        <time>2013-09-15T07:26:05Z</time>
      </trkpt>
      <trkpt lat="-20.91361" lon="55.38877">
        <ele>503</ele>
        <time>2013-09-15T07:26:10Z</time>
      </trkpt>
      <trkpt lat="-20.91361" lon="55.38868">
        <ele>502.6</ele>
        <time>2013-09-15T07:26:16Z</time>
      </trkpt>
      <trkpt lat="-20.91361" lon="55.3886">
        <ele>503.7</ele>
        <time>2013-09-15T07:26:22Z</time>
      </trkpt>
      <trkpt lat="-20.91362" lon="55.3885">
        <ele>504.1</ele>
        <time>2013-09-15T07:26:29Z</time>
      </trkpt>
      <trkpt lat="-20.91357" lon="55.38845">
        <ele>504.7</ele>
        <time>2013-09-15T07:26:35Z</time>
      </trkpt>
      <trkpt lat="-20.9135" lon="55.3884">
        <ele>504.8</ele>
        <time>2013-09-15T07:26:41Z</time>
      </trkpt>
      <trkpt lat="-20.91348" lon="55.38839">
        <ele>504.8</ele>
        <time>2013-09-15T07:26:42Z</time>
      </trkpt>
      <trkpt lat="-20.91337" lon="55.38832">
        <ele>505.5</ele>
        <time>2013-09-15T07:26:49Z</time>
      </trkpt>
      <trkpt lat="-20.9133" lon="55.38826">
        <ele>505.5</ele>
        <time>2013-09-15T07:26:54Z</time>
      </trkpt>
      <trkpt lat="-20.91324" lon="55.3882">
        <ele>506.2</ele>
        <time>2013-09-15T07:26:58Z</time>
      </trkpt>
      <trkpt lat="-20.91319" lon="55.38815">
        <ele>506.1</ele>
        <time>2013-09-15T07:27:02Z</time>
      </trkpt>
      <trkpt lat="-20.91314" lon="55.38807">
        <ele>505.7</ele>
        <time>2013-09-15T07:27:07Z</time>
      </trkpt>
      <trkpt lat="-20.91311" lon="55.38799">
        <ele>505.7</ele>
        <time>2013-09-15T07:27:11Z</time>
      </trkpt>
      <trkpt lat="-20.91307" lon="55.38791">
        <ele>505.4</ele>
        <time>2013-09-15T07:27:16Z</time>
      </trkpt>
      <trkpt lat="-20.91304" lon="55.38784">
        <ele>505.7</ele>
        <time>2013-09-15T07:27:21Z</time>
      </trkpt>
      <trkpt lat="-20.91298" lon="55.38778">
        <ele>506</ele>
        <time>2013-09-15T07:27:25Z</time>
      </trkpt>
      <trkpt lat="-20.91291" lon="55.38773">
        <ele>505.8</ele>
        <time>2013-09-15T07:27:29Z</time>
      </trkpt>
      <trkpt lat="-20.91285" lon="55.3877">
        <ele>504.4</ele>
        <time>2013-09-15T07:27:33Z</time>
      </trkpt>
      <trkpt lat="-20.91278" lon="55.38768">
        <ele>503.8</ele>
        <time>2013-09-15T07:27:37Z</time>
      </trkpt>
      <trkpt lat="-20.91271" lon="55.38764">
        <ele>502.7</ele>
        <time>2013-09-15T07:27:41Z</time>
      </trkpt>
      <trkpt lat="-20.91264" lon="55.38762">
        <ele>502</ele>
        <time>2013-09-15T07:27:45Z</time>
      </trkpt>
      <trkpt lat="-20.91262" lon="55.38761">
        <ele>501.7</ele>
        <time>2013-09-15T07:27:46Z</time>
      </trkpt>
      <trkpt lat="-20.91248" lon="55.38756">
        <ele>499.2</ele>
        <time>2013-09-15T07:27:53Z</time>
      </trkpt>
      <trkpt lat="-20.91242" lon="55.38753">
        <ele>499</ele>
        <time>2013-09-15T07:27:56Z</time>
      </trkpt>
      <trkpt lat="-20.91235" lon="55.3875">
        <ele>498.6</ele>
        <time>2013-09-15T07:27:59Z</time>
      </trkpt>
      <trkpt lat="-20.91228" lon="55.38745">
        <ele>498</ele>
        <time>2013-09-15T07:28:03Z</time>
      </trkpt>
      <trkpt lat="-20.9122" lon="55.38743">
        <ele>497.5</ele>
        <time>2013-09-15T07:28:07Z</time>
      </trkpt>
      <trkpt lat="-20.91211" lon="55.38742">
        <ele>496</ele>
        <time>2013-09-15T07:28:11Z</time>
      </trkpt>
      <trkpt lat="-20.91203" lon="55.3874">
        <ele>495</ele>
        <time>2013-09-15T07:28:15Z</time>
      </trkpt>
      <trkpt lat="-20.91196" lon="55.38739">
        <ele>493.4</ele>
        <time>2013-09-15T07:28:19Z</time>
      </trkpt>
      <trkpt lat="-20.91188" lon="55.3874">
        <ele>492.2</ele>
        <time>2013-09-15T07:28:23Z</time>
      </trkpt>
      <trkpt lat="-20.91181" lon="55.38742">
        <ele>492.2</ele>
        <time>2013-09-15T07:28:26Z</time>
      </trkpt>
      <trkpt lat="-20.91173" lon="55.38744">
        <ele>491</ele>
        <time>2013-09-15T07:28:30Z</time>
      </trkpt>
      <trkpt lat="-20.91164" lon="55.38744">
        <ele>489.2</ele>
        <time>2013-09-15T07:28:34Z</time>
      </trkpt>
      <trkpt lat="-20.91156" lon="55.38743">
        <ele>487.9</ele>
        <time>2013-09-15T07:28:38Z</time>
      </trkpt>
      <trkpt lat="-20.91148" lon="55.38742">
        <ele>487.1</ele>
        <time>2013-09-15T07:28:42Z</time>
      </trkpt>
      <trkpt lat="-20.9114" lon="55.38743">
        <ele>486.2</ele>
        <time>2013-09-15T07:28:46Z</time>
      </trkpt>
      <trkpt lat="-20.91138" lon="55.38743">
        <ele>486.1</ele>
        <time>2013-09-15T07:28:47Z</time>
      </trkpt>
      <trkpt lat="-20.91123" lon="55.38742">
        <ele>484.9</ele>
        <time>2013-09-15T07:28:54Z</time>
      </trkpt>
      <trkpt lat="-20.91115" lon="55.38742">
        <ele>484.8</ele>
        <time>2013-09-15T07:28:57Z</time>
      </trkpt>
      <trkpt lat="-20.91107" lon="55.38738">
        <ele>484</ele>
        <time>2013-09-15T07:29:01Z</time>
      </trkpt>
      <trkpt lat="-20.91102" lon="55.38733">
        <ele>482.8</ele>
        <time>2013-09-15T07:29:04Z</time>
      </trkpt>
      <trkpt lat="-20.91096" lon="55.38726">
        <ele>482.5</ele>
        <time>2013-09-15T07:29:08Z</time>
      </trkpt>
      <trkpt lat="-20.9109" lon="55.3872">
        <ele>481.4</ele>
        <time>2013-09-15T07:29:12Z</time>
      </trkpt>
      <trkpt lat="-20.91084" lon="55.38716">
        <ele>480.7</ele>
        <time>2013-09-15T07:29:15Z</time>
      </trkpt>
      <trkpt lat="-20.91077" lon="55.38712">
        <ele>480.7</ele>
        <time>2013-09-15T07:29:19Z</time>
      </trkpt>
      <trkpt lat="-20.91069" lon="55.38707">
        <ele>480.1</ele>
        <time>2013-09-15T07:29:23Z</time>
      </trkpt>
      <trkpt lat="-20.91062" lon="55.38701">
        <ele>479.4</ele>
        <time>2013-09-15T07:29:27Z</time>
      </trkpt>
      <trkpt lat="-20.91055" lon="55.38697">
        <ele>478.3</ele>
        <time>2013-09-15T07:29:31Z</time>
      </trkpt>
      <trkpt lat="-20.91047" lon="55.38692">
        <ele>477.5</ele>
        <time>2013-09-15T07:29:35Z</time>
      </trkpt>
      <trkpt lat="-20.9104" lon="55.38688">
        <ele>477.1</ele>
        <time>2013-09-15T07:29:39Z</time>
      </trkpt>
      <trkpt lat="-20.91032" lon="55.38684">
        <ele>476.1</ele>
        <time>2013-09-15T07:29:43Z</time>
      </trkpt>
      <trkpt lat="-20.91024" lon="55.38681">
        <ele>475.8</ele>
        <time>2013-09-15T07:29:47Z</time>
      </trkpt>
      <trkpt lat="-20.91022" lon="55.3868">
        <ele>476.3</ele>
        <time>2013-09-15T07:29:48Z</time>
      </trkpt>
      <trkpt lat="-20.9101" lon="55.38674">
        <ele>475.4</ele>
        <time>2013-09-15T07:29:54Z</time>
      </trkpt>
      <trkpt lat="-20.91004" lon="55.38668">
        <ele>475</ele>
        <time>2013-09-15T07:29:59Z</time>
      </trkpt>
      <trkpt lat="-20.91002" lon="55.3866">
        <ele>474.7</ele>
        <time>2013-09-15T07:30:03Z</time>
      </trkpt>
      <trkpt lat="-20.91002" lon="55.38651">
        <ele>473.7</ele>
        <time>2013-09-15T07:30:07Z</time>
      </trkpt>
      <trkpt lat="-20.91002" lon="55.38644">
        <ele>473.5</ele>
        <time>2013-09-15T07:30:10Z</time>
      </trkpt>
      <trkpt lat="-20.91003" lon="55.38636">
        <ele>472.1</ele>
        <time>2013-09-15T07:30:13Z</time>
      </trkpt>
      <trkpt lat="-20.91002" lon="55.38629">
        <ele>471.7</ele>
        <time>2013-09-15T07:30:16Z</time>
      </trkpt>
      <trkpt lat="-20.90995" lon="55.38623">
        <ele>471.7</ele>
        <time>2013-09-15T07:30:21Z</time>
      </trkpt>
      <trkpt lat="-20.9099" lon="55.3863">
        <ele>469.9</ele>
        <time>2013-09-15T07:30:25Z</time>
      </trkpt>
      <trkpt lat="-20.90986" lon="55.38637">
        <ele>470.6</ele>
        <time>2013-09-15T07:30:28Z</time>
      </trkpt>
      <trkpt lat="-20.90982" lon="55.38645">
        <ele>470.1</ele>
        <time>2013-09-15T07:30:32Z</time>
      </trkpt>
      <trkpt lat="-20.90979" lon="55.38652">
        <ele>469.9</ele>
        <time>2013-09-15T07:30:35Z</time>
      </trkpt>
      <trkpt lat="-20.90976" lon="55.3866">
        <ele>469.4</ele>
        <time>2013-09-15T07:30:38Z</time>
      </trkpt>
      <trkpt lat="-20.90973" lon="55.38668">
        <ele>468.6</ele>
        <time>2013-09-15T07:30:41Z</time>
      </trkpt>
      <trkpt lat="-20.90972" lon="55.38675">
        <ele>468.7</ele>
        <time>2013-09-15T07:30:44Z</time>
      </trkpt>
      <trkpt lat="-20.9097" lon="55.38684">
        <ele>467.3</ele>
        <time>2013-09-15T07:30:48Z</time>
      </trkpt>
      <trkpt lat="-20.9097" lon="55.38687">
        <ele>467.5</ele>
        <time>2013-09-15T07:30:49Z</time>
      </trkpt>
      <trkpt lat="-20.90963" lon="55.38699">
        <ele>467</ele>
        <time>2013-09-15T07:30:56Z</time>
      </trkpt>
      <trkpt lat="-20.90956" lon="55.38705">
        <ele>466.1</ele>
        <time>2013-09-15T07:31:00Z</time>
      </trkpt>
      <trkpt lat="-20.9095" lon="55.3871">
        <ele>465.3</ele>
        <time>2013-09-15T07:31:03Z</time>
      </trkpt>
      <trkpt lat="-20.90947" lon="55.38718">
        <ele>465.3</ele>
        <time>2013-09-15T07:31:07Z</time>
      </trkpt>
      <trkpt lat="-20.9094" lon="55.38716">
        <ele>464</ele>
        <time>2013-09-15T07:31:12Z</time>
      </trkpt>
      <trkpt lat="-20.90936" lon="55.38708">
        <ele>463.2</ele>
        <time>2013-09-15T07:31:16Z</time>
      </trkpt>
      <trkpt lat="-20.9093" lon="55.38702">
        <ele>463.2</ele>
        <time>2013-09-15T07:31:21Z</time>
      </trkpt>
      <trkpt lat="-20.90922" lon="55.38698">
        <ele>462.9</ele>
        <time>2013-09-15T07:31:27Z</time>
      </trkpt>
      <trkpt lat="-20.90915" lon="55.38694">
        <ele>463.5</ele>
        <time>2013-09-15T07:31:31Z</time>
      </trkpt>
      <trkpt lat="-20.90909" lon="55.38688">
        <ele>463.4</ele>
        <time>2013-09-15T07:31:34Z</time>
      </trkpt>
      <trkpt lat="-20.90905" lon="55.38683">
        <ele>463.7</ele>
        <time>2013-09-15T07:31:37Z</time>
      </trkpt>
      <trkpt lat="-20.90901" lon="55.38677">
        <ele>464.2</ele>
        <time>2013-09-15T07:31:40Z</time>
      </trkpt>
      <trkpt lat="-20.90893" lon="55.38674">
        <ele>463.2</ele>
        <time>2013-09-15T07:31:44Z</time>
      </trkpt>
      <trkpt lat="-20.90886" lon="55.38677">
        <ele>462.4</ele>
        <time>2013-09-15T07:31:48Z</time>
      </trkpt>
      <trkpt lat="-20.9088" lon="55.38681">
        <ele>462</ele>
        <time>2013-09-15T07:31:51Z</time>
      </trkpt>
      <trkpt lat="-20.90878" lon="55.38683">
        <ele>461.9</ele>
        <time>2013-09-15T07:31:52Z</time>
      </trkpt>
      <trkpt lat="-20.90865" lon="55.38691">
        <ele>461.3</ele>
        <time>2013-09-15T07:31:59Z</time>
      </trkpt>
      <trkpt lat="-20.90859" lon="55.38695">
        <ele>460.7</ele>
        <time>2013-09-15T07:32:02Z</time>
      </trkpt>
      <trkpt lat="-20.90851" lon="55.38699">
        <ele>460.7</ele>
        <time>2013-09-15T07:32:06Z</time>
      </trkpt>
      <trkpt lat="-20.90844" lon="55.38704">
        <ele>460</ele>
        <time>2013-09-15T07:32:10Z</time>
      </trkpt>
      <trkpt lat="-20.90837" lon="55.38709">
        <ele>458.9</ele>
        <time>2013-09-15T07:32:14Z</time>
      </trkpt>
      <trkpt lat="-20.90831" lon="55.38714">
        <ele>459</ele>
        <time>2013-09-15T07:32:18Z</time>
      </trkpt>
      <trkpt lat="-20.90838" lon="55.38718">
        <ele>458.4</ele>
        <time>2013-09-15T07:32:26Z</time>
      </trkpt>
      <trkpt lat="-20.90846" lon="55.38716">
        <ele>458.1</ele>
        <time>2013-09-15T07:32:30Z</time>
      </trkpt>
      <trkpt lat="-20.90853" lon="55.38716">
        <ele>458.4</ele>
        <time>2013-09-15T07:32:33Z</time>
      </trkpt>
      <trkpt lat="-20.90862" lon="55.38716">
        <ele>457.9</ele>
        <time>2013-09-15T07:32:37Z</time>
      </trkpt>
      <trkpt lat="-20.9087" lon="55.38719">
        <ele>457.7</ele>
        <time>2013-09-15T07:32:41Z</time>
      </trkpt>
      <trkpt lat="-20.90877" lon="55.38722">
        <ele>458.1</ele>
        <time>2013-09-15T07:32:44Z</time>
      </trkpt>
      <trkpt lat="-20.90885" lon="55.38723">
        <ele>458.3</ele>
        <time>2013-09-15T07:32:47Z</time>
      </trkpt>
      <trkpt lat="-20.90892" lon="55.38721">
        <ele>458.2</ele>
        <time>2013-09-15T07:32:50Z</time>
      </trkpt>
      <trkpt lat="-20.909" lon="55.38723">
        <ele>458.3</ele>
        <time>2013-09-15T07:32:54Z</time>
      </trkpt>
      <trkpt lat="-20.90902" lon="55.38725">
        <ele>457.9</ele>
        <time>2013-09-15T07:32:55Z</time>
      </trkpt>
      <trkpt lat="-20.9091" lon="55.38738">
        <ele>457.2</ele>
        <time>2013-09-15T07:33:02Z</time>
      </trkpt>
      <trkpt lat="-20.90912" lon="55.38747">
        <ele>456.5</ele>
        <time>2013-09-15T07:33:06Z</time>
      </trkpt>
      <trkpt lat="-20.9091" lon="55.38755">
        <ele>455.3</ele>
        <time>2013-09-15T07:33:10Z</time>
      </trkpt>
      <trkpt lat="-20.90904" lon="55.38761">
        <ele>454.5</ele>
        <time>2013-09-15T07:33:14Z</time>
      </trkpt>
      <trkpt lat="-20.90896" lon="55.38764">
        <ele>454.7</ele>
        <time>2013-09-15T07:33:18Z</time>
      </trkpt>
      <trkpt lat="-20.90888" lon="55.38767">
        <ele>454.2</ele>
        <time>2013-09-15T07:33:22Z</time>
      </trkpt>
      <trkpt lat="-20.90881" lon="55.38771">
        <ele>453.5</ele>
        <time>2013-09-15T07:33:25Z</time>
      </trkpt>
      <trkpt lat="-20.90877" lon="55.38778">
        <ele>452.2</ele>
        <time>2013-09-15T07:33:29Z</time>
      </trkpt>
      <trkpt lat="-20.9088" lon="55.38786">
        <ele>451.7</ele>
        <time>2013-09-15T07:33:33Z</time>
      </trkpt>
      <trkpt lat="-20.90887" lon="55.38791">
        <ele>451.5</ele>
        <time>2013-09-15T07:33:37Z</time>
      </trkpt>
      <trkpt lat="-20.90894" lon="55.3879">
        <ele>450.9</ele>
        <time>2013-09-15T07:33:40Z</time>
      </trkpt>
      <trkpt lat="-20.90902" lon="55.38788">
        <ele>450.8</ele>
        <time>2013-09-15T07:33:44Z</time>
      </trkpt>
      <trkpt lat="-20.90911" lon="55.38787">
        <ele>450.6</ele>
        <time>2013-09-15T07:33:48Z</time>
      </trkpt>
      <trkpt lat="-20.90919" lon="55.38786">
        <ele>450.2</ele>
        <time>2013-09-15T07:33:52Z</time>
      </trkpt>
      <trkpt lat="-20.90928" lon="55.38788">
        <ele>450.3</ele>
        <time>2013-09-15T07:33:56Z</time>
      </trkpt>
      <trkpt lat="-20.9093" lon="55.3879">
        <ele>450.7</ele>
        <time>2013-09-15T07:33:57Z</time>
      </trkpt>
      <trkpt lat="-20.90938" lon="55.388">
        <ele>449.7</ele>
        <time>2013-09-15T07:34:03Z</time>
      </trkpt>
      <trkpt lat="-20.9094" lon="55.38809">
        <ele>450.2</ele>
        <time>2013-09-15T07:34:07Z</time>
      </trkpt>
      <trkpt lat="-20.9094" lon="55.38816">
        <ele>450.4</ele>
        <time>2013-09-15T07:34:10Z</time>
      </trkpt>
      <trkpt lat="-20.90939" lon="55.38824">
        <ele>449.4</ele>
        <time>2013-09-15T07:34:13Z</time>
      </trkpt>
      <trkpt lat="-20.90938" lon="55.38831">
        <ele>448.5</ele>
        <time>2013-09-15T07:34:16Z</time>
      </trkpt>
      <trkpt lat="-20.90937" lon="55.38839">
        <ele>448</ele>
        <time>2013-09-15T07:34:19Z</time>
      </trkpt>
      <trkpt lat="-20.90937" lon="55.38847">
        <ele>447.9</ele>
        <time>2013-09-15T07:34:22Z</time>
      </trkpt>
      <trkpt lat="-20.90941" lon="55.38855">
        <ele>446.8</ele>
        <time>2013-09-15T07:34:26Z</time>
      </trkpt>
      <trkpt lat="-20.90945" lon="55.38864">
        <ele>445.9</ele>
        <time>2013-09-15T07:34:30Z</time>
      </trkpt>
      <trkpt lat="-20.90948" lon="55.38873">
        <ele>446.7</ele>
        <time>2013-09-15T07:34:34Z</time>
      </trkpt>
      <trkpt lat="-20.90949" lon="55.38881">
        <ele>445.1</ele>
        <time>2013-09-15T07:34:38Z</time>
      </trkpt>
      <trkpt lat="-20.90942" lon="55.38887">
        <ele>442.7</ele>
        <time>2013-09-15T07:34:46Z</time>
      </trkpt>
      <trkpt lat="-20.90934" lon="55.38885">
        <ele>441</ele>
        <time>2013-09-15T07:34:51Z</time>
      </trkpt>
      <trkpt lat="-20.90927" lon="55.3889">
        <ele>440.1</ele>
        <time>2013-09-15T07:34:57Z</time>
      </trkpt>
      <trkpt lat="-20.90926" lon="55.3889">
        <ele>439.7</ele>
        <time>2013-09-15T07:34:58Z</time>
      </trkpt>
      <trkpt lat="-20.90925" lon="55.38906">
        <ele>437.3</ele>
        <time>2013-09-15T07:35:06Z</time>
      </trkpt>
      <trkpt lat="-20.90928" lon="55.38914">
        <ele>437.3</ele>
        <time>2013-09-15T07:35:10Z</time>
      </trkpt>
      <trkpt lat="-20.90929" lon="55.38922">
        <ele>436.7</ele>
        <time>2013-09-15T07:35:14Z</time>
      </trkpt>
      <trkpt lat="-20.90928" lon="55.3893">
        <ele>435.8</ele>
        <time>2013-09-15T07:35:18Z</time>
      </trkpt>
      <trkpt lat="-20.90927" lon="55.38939">
        <ele>433.7</ele>
        <time>2013-09-15T07:35:23Z</time>
      </trkpt>
      <trkpt lat="-20.90924" lon="55.38948">
        <ele>430.8</ele>
        <time>2013-09-15T07:35:30Z</time>
      </trkpt>
      <trkpt lat="-20.9092" lon="55.38954">
        <ele>428.9</ele>
        <time>2013-09-15T07:35:36Z</time>
      </trkpt>
      <trkpt lat="-20.90918" lon="55.38963">
        <ele>429.1</ele>
        <time>2013-09-15T07:35:42Z</time>
      </trkpt>
      <trkpt lat="-20.90915" lon="55.3897">
        <ele>430.7</ele>
        <time>2013-09-15T07:35:49Z</time>
      </trkpt>
      <trkpt lat="-20.90913" lon="55.3898">
        <ele>432.7</ele>
        <time>2013-09-15T07:35:56Z</time>
      </trkpt>
      <trkpt lat="-20.90908" lon="55.38986">
        <ele>432.8</ele>
        <time>2013-09-15T07:36:04Z</time>
      </trkpt>
      <trkpt lat="-20.90907" lon="55.38988">
        <ele>432.6</ele>
        <time>2013-09-15T07:36:05Z</time>
      </trkpt>
      <trkpt lat="-20.90899" lon="55.39001">
        <ele>433.2</ele>
        <time>2013-09-15T07:36:14Z</time>
      </trkpt>
      <trkpt lat="-20.90892" lon="55.39006">
        <ele>432.8</ele>
        <time>2013-09-15T07:36:19Z</time>
      </trkpt>
      <trkpt lat="-20.90888" lon="55.39014">
        <ele>432.4</ele>
        <time>2013-09-15T07:36:23Z</time>
      </trkpt>
      <trkpt lat="-20.90886" lon="55.39022">
        <ele>432.7</ele>
        <time>2013-09-15T07:36:27Z</time>
      </trkpt>
      <trkpt lat="-20.90882" lon="55.39029">
        <ele>432.2</ele>
        <time>2013-09-15T07:36:31Z</time>
      </trkpt>
      <trkpt lat="-20.90881" lon="55.39037">
        <ele>432.1</ele>
        <time>2013-09-15T07:36:35Z</time>
      </trkpt>
      <trkpt lat="-20.90883" lon="55.39046">
        <ele>432.3</ele>
        <time>2013-09-15T07:36:40Z</time>
      </trkpt>
      <trkpt lat="-20.90878" lon="55.39052">
        <ele>432.3</ele>
        <time>2013-09-15T07:36:45Z</time>
      </trkpt>
      <trkpt lat="-20.90872" lon="55.39059">
        <ele>432</ele>
        <time>2013-09-15T07:36:51Z</time>
      </trkpt>
      <trkpt lat="-20.90866" lon="55.39064">
        <ele>431.6</ele>
        <time>2013-09-15T07:36:56Z</time>
      </trkpt>
      <trkpt lat="-20.90859" lon="55.3907">
        <ele>432.2</ele>
        <time>2013-09-15T07:37:01Z</time>
      </trkpt>
      <trkpt lat="-20.90854" lon="55.39076">
        <ele>432.4</ele>
        <time>2013-09-15T07:37:08Z</time>
      </trkpt>
      <trkpt lat="-20.90853" lon="55.39078">
        <ele>432.7</ele>
        <time>2013-09-15T07:37:09Z</time>
      </trkpt>
      <trkpt lat="-20.90839" lon="55.39085">
        <ele>436.8</ele>
        <time>2013-09-15T07:37:25Z</time>
      </trkpt>
      <trkpt lat="-20.90834" lon="55.39091">
        <ele>438.1</ele>
        <time>2013-09-15T07:37:35Z</time>
      </trkpt>
      <trkpt lat="-20.90828" lon="55.39098">
        <ele>440.1</ele>
        <time>2013-09-15T07:37:43Z</time>
      </trkpt>
      <trkpt lat="-20.90823" lon="55.39105">
        <ele>442.8</ele>
        <time>2013-09-15T07:37:53Z</time>
      </trkpt>
      <trkpt lat="-20.9082" lon="55.39113">
        <ele>444.8</ele>
        <time>2013-09-15T07:38:03Z</time>
      </trkpt>
      <trkpt lat="-20.90817" lon="55.39121">
        <ele>446.7</ele>
        <time>2013-09-15T07:38:11Z</time>
      </trkpt>
      <trkpt lat="-20.90816" lon="55.39123">
        <ele>446.8</ele>
        <time>2013-09-15T07:38:12Z</time>
      </trkpt>
      <trkpt lat="-20.90814" lon="55.3914">
        <ele>449</ele>
        <time>2013-09-15T07:38:29Z</time>
      </trkpt>
      <trkpt lat="-20.90812" lon="55.39148">
        <ele>449.2</ele>
        <time>2013-09-15T07:38:36Z</time>
      </trkpt>
      <trkpt lat="-20.90809" lon="55.39157">
        <ele>450.8</ele>
        <time>2013-09-15T07:38:44Z</time>
      </trkpt>
      <trkpt lat="-20.90806" lon="55.39166">
        <ele>451.7</ele>
        <time>2013-09-15T07:38:51Z</time>
      </trkpt>
      <trkpt lat="-20.90804" lon="55.39175">
        <ele>452.8</ele>
        <time>2013-09-15T07:38:58Z</time>
      </trkpt>
      <trkpt lat="-20.908" lon="55.39183">
        <ele>453.8</ele>
        <time>2013-09-15T07:39:05Z</time>
      </trkpt>
      <trkpt lat="-20.90793" lon="55.39189">
        <ele>455.4</ele>
        <time>2013-09-15T07:39:13Z</time>
      </trkpt>
      <trkpt lat="-20.90792" lon="55.3919">
        <ele>455.5</ele>
        <time>2013-09-15T07:39:14Z</time>
      </trkpt>
      <trkpt lat="-20.90784" lon="55.39199">
        <ele>457.5</ele>
        <time>2013-09-15T07:39:25Z</time>
      </trkpt>
      <trkpt lat="-20.90777" lon="55.39202">
        <ele>458.4</ele>
        <time>2013-09-15T07:39:32Z</time>
      </trkpt>
      <trkpt lat="-20.90771" lon="55.39209">
        <ele>459.9</ele>
        <time>2013-09-15T07:39:38Z</time>
      </trkpt>
      <trkpt lat="-20.90765" lon="55.39215">
        <ele>460.3</ele>
        <time>2013-09-15T07:39:44Z</time>
      </trkpt>
      <trkpt lat="-20.9076" lon="55.39222">
        <ele>459.8</ele>
        <time>2013-09-15T07:39:49Z</time>
      </trkpt>
      <trkpt lat="-20.90756" lon="55.39228">
        <ele>460.1</ele>
        <time>2013-09-15T07:39:53Z</time>
      </trkpt>
      <trkpt lat="-20.90752" lon="55.39235">
        <ele>459.2</ele>
        <time>2013-09-15T07:39:57Z</time>
      </trkpt>
      <trkpt lat="-20.9075" lon="55.39243">
        <ele>458.2</ele>
        <time>2013-09-15T07:40:01Z</time>
      </trkpt>
      <trkpt lat="-20.90747" lon="55.39252">
        <ele>459.4</ele>
        <time>2013-09-15T07:40:06Z</time>
      </trkpt>
      <trkpt lat="-20.90746" lon="55.39261">
        <ele>458.8</ele>
        <time>2013-09-15T07:40:10Z</time>
      </trkpt>
      <trkpt lat="-20.90749" lon="55.39269">
        <ele>459.1</ele>
        <time>2013-09-15T07:40:15Z</time>
      </trkpt>
      <trkpt lat="-20.9075" lon="55.3927">
        <ele>459.3</ele>
        <time>2013-09-15T07:40:16Z</time>
      </trkpt>
      <trkpt lat="-20.9074" lon="55.39284">
        <ele>459.9</ele>
        <time>2013-09-15T07:40:28Z</time>
      </trkpt>
      <trkpt lat="-20.90734" lon="55.39291">
        <ele>460</ele>
        <time>2013-09-15T07:40:34Z</time>
      </trkpt>
      <trkpt lat="-20.90726" lon="55.39292">
        <ele>460.2</ele>
        <time>2013-09-15T07:40:40Z</time>
      </trkpt>
      <trkpt lat="-20.90719" lon="55.39288">
        <ele>459.9</ele>
        <time>2013-09-15T07:40:45Z</time>
      </trkpt>
      <trkpt lat="-20.9071" lon="55.39287">
        <ele>459</ele>
        <time>2013-09-15T07:40:49Z</time>
      </trkpt>
      <trkpt lat="-20.90702" lon="55.39284">
        <ele>457.4</ele>
        <time>2013-09-15T07:40:53Z</time>
      </trkpt>
      <trkpt lat="-20.90694" lon="55.3928">
        <ele>455.6</ele>
        <time>2013-09-15T07:40:57Z</time>
      </trkpt>
      <trkpt lat="-20.90687" lon="55.39279">
        <ele>454.6</ele>
        <time>2013-09-15T07:41:00Z</time>
      </trkpt>
      <trkpt lat="-20.90679" lon="55.3928">
        <ele>453.1</ele>
        <time>2013-09-15T07:41:03Z</time>
      </trkpt>
      <trkpt lat="-20.9067" lon="55.3928">
        <ele>452.6</ele>
        <time>2013-09-15T07:41:07Z</time>
      </trkpt>
      <trkpt lat="-20.90662" lon="55.39281">
        <ele>451.4</ele>
        <time>2013-09-15T07:41:11Z</time>
      </trkpt>
      <trkpt lat="-20.90653" lon="55.39278">
        <ele>450.2</ele>
        <time>2013-09-15T07:41:15Z</time>
      </trkpt>
      <trkpt lat="-20.90646" lon="55.39279">
        <ele>449.8</ele>
        <time>2013-09-15T07:41:18Z</time>
      </trkpt>
      <trkpt lat="-20.90644" lon="55.3928">
        <ele>449.5</ele>
        <time>2013-09-15T07:41:19Z</time>
      </trkpt>
      <trkpt lat="-20.9063" lon="55.39276">
        <ele>447.8</ele>
        <time>2013-09-15T07:41:25Z</time>
      </trkpt>
      <trkpt lat="-20.90622" lon="55.39274">
        <ele>446.7</ele>
        <time>2013-09-15T07:41:29Z</time>
      </trkpt>
      <trkpt lat="-20.90614" lon="55.39272">
        <ele>444.1</ele>
        <time>2013-09-15T07:41:34Z</time>
      </trkpt>
      <trkpt lat="-20.90606" lon="55.3927">
        <ele>442.3</ele>
        <time>2013-09-15T07:41:39Z</time>
      </trkpt>
      <trkpt lat="-20.906" lon="55.39268">
        <ele>440.7</ele>
        <time>2013-09-15T07:41:43Z</time>
      </trkpt>
      <trkpt lat="-20.90592" lon="55.39264">
        <ele>439.4</ele>
        <time>2013-09-15T07:41:47Z</time>
      </trkpt>
      <trkpt lat="-20.90584" lon="55.39264">
        <ele>439.6</ele>
        <time>2013-09-15T07:41:51Z</time>
      </trkpt>
      <trkpt lat="-20.90576" lon="55.39259">
        <ele>439</ele>
        <time>2013-09-15T07:41:56Z</time>
      </trkpt>
      <trkpt lat="-20.90568" lon="55.39257">
        <ele>438.1</ele>
        <time>2013-09-15T07:42:00Z</time>
      </trkpt>
      <trkpt lat="-20.90559" lon="55.39255">
        <ele>438.1</ele>
        <time>2013-09-15T07:42:04Z</time>
      </trkpt>
      <trkpt lat="-20.90553" lon="55.39254">
        <ele>437.3</ele>
        <time>2013-09-15T07:42:07Z</time>
      </trkpt>
      <trkpt lat="-20.90546" lon="55.39253">
        <ele>436.4</ele>
        <time>2013-09-15T07:42:10Z</time>
      </trkpt>
      <trkpt lat="-20.90539" lon="55.39254">
        <ele>435.5</ele>
        <time>2013-09-15T07:42:13Z</time>
      </trkpt>
      <trkpt lat="-20.90533" lon="55.3925">
        <ele>434.5</ele>
        <time>2013-09-15T07:42:16Z</time>
      </trkpt>
      <trkpt lat="-20.90528" lon="55.39245">
        <ele>434.1</ele>
        <time>2013-09-15T07:42:19Z</time>
      </trkpt>
      <trkpt lat="-20.90526" lon="55.39244">
        <ele>434.1</ele>
        <time>2013-09-15T07:42:20Z</time>
      </trkpt>
      <trkpt lat="-20.90513" lon="55.39239">
        <ele>432.8</ele>
        <time>2013-09-15T07:42:27Z</time>
      </trkpt>
      <trkpt lat="-20.90505" lon="55.39235">
        <ele>432.2</ele>
        <time>2013-09-15T07:42:32Z</time>
      </trkpt>
      <trkpt lat="-20.90502" lon="55.39244">
        <ele>429.7</ele>
        <time>2013-09-15T07:42:42Z</time>
      </trkpt>
      <trkpt lat="-20.90504" lon="55.39251">
        <ele>429.1</ele>
        <time>2013-09-15T07:42:45Z</time>
      </trkpt>
      <trkpt lat="-20.90509" lon="55.39259">
        <ele>429</ele>
        <time>2013-09-15T07:42:49Z</time>
      </trkpt>
      <trkpt lat="-20.90513" lon="55.39267">
        <ele>429.2</ele>
        <time>2013-09-15T07:42:53Z</time>
      </trkpt>
      <trkpt lat="-20.90516" lon="55.39274">
        <ele>429.3</ele>
        <time>2013-09-15T07:42:57Z</time>
      </trkpt>
      <trkpt lat="-20.90517" lon="55.39282">
        <ele>429.2</ele>
        <time>2013-09-15T07:43:01Z</time>
      </trkpt>
      <trkpt lat="-20.90513" lon="55.3929">
        <ele>428.7</ele>
        <time>2013-09-15T07:43:05Z</time>
      </trkpt>
      <trkpt lat="-20.90508" lon="55.39296">
        <ele>428.7</ele>
        <time>2013-09-15T07:43:09Z</time>
      </trkpt>
      <trkpt lat="-20.90502" lon="55.39303">
        <ele>429.8</ele>
        <time>2013-09-15T07:43:13Z</time>
      </trkpt>
      <trkpt lat="-20.90497" lon="55.39309">
        <ele>428.9</ele>
        <time>2013-09-15T07:43:17Z</time>
      </trkpt>
      <trkpt lat="-20.90492" lon="55.39316">
        <ele>430.1</ele>
        <time>2013-09-15T07:43:23Z</time>
      </trkpt>
      <trkpt lat="-20.90492" lon="55.39317">
        <ele>430.3</ele>
        <time>2013-09-15T07:43:24Z</time>
      </trkpt>
      <trkpt lat="-20.90494" lon="55.39333">
        <ele>430.9</ele>
        <time>2013-09-15T07:43:34Z</time>
      </trkpt>
      <trkpt lat="-20.90498" lon="55.3934">
        <ele>432.6</ele>
        <time>2013-09-15T07:43:41Z</time>
      </trkpt>
      <trkpt lat="-20.905" lon="55.39348">
        <ele>433.8</ele>
        <time>2013-09-15T07:43:46Z</time>
      </trkpt>
      <trkpt lat="-20.90499" lon="55.39357">
        <ele>435.1</ele>
        <time>2013-09-15T07:43:56Z</time>
      </trkpt>
      <trkpt lat="-20.90499" lon="55.39367">
        <ele>436.1</ele>
        <time>2013-09-15T07:44:01Z</time>
      </trkpt>
      <trkpt lat="-20.90498" lon="55.39376">
        <ele>435.9</ele>
        <time>2013-09-15T07:44:07Z</time>
      </trkpt>
      <trkpt lat="-20.90497" lon="55.39384">
        <ele>435.8</ele>
        <time>2013-09-15T07:44:12Z</time>
      </trkpt>
      <trkpt lat="-20.9049" lon="55.39389">
        <ele>437</ele>
        <time>2013-09-15T07:44:19Z</time>
      </trkpt>
      <trkpt lat="-20.90481" lon="55.39392">
        <ele>437.7</ele>
        <time>2013-09-15T07:44:26Z</time>
      </trkpt>
      <trkpt lat="-20.9048" lon="55.39393">
        <ele>437.5</ele>
        <time>2013-09-15T07:44:27Z</time>
      </trkpt>
      <trkpt lat="-20.90473" lon="55.39409">
        <ele>440.5</ele>
        <time>2013-09-15T07:44:42Z</time>
      </trkpt>
      <trkpt lat="-20.90465" lon="55.3941">
        <ele>441.7</ele>
        <time>2013-09-15T07:44:50Z</time>
      </trkpt>
      <trkpt lat="-20.90459" lon="55.39417">
        <ele>442.4</ele>
        <time>2013-09-15T07:44:54Z</time>
      </trkpt>
      <trkpt lat="-20.90455" lon="55.39423">
        <ele>442.8</ele>
        <time>2013-09-15T07:44:56Z</time>
      </trkpt>
      <trkpt lat="-20.90449" lon="55.3943">
        <ele>443.4</ele>
        <time>2013-09-15T07:45:00Z</time>
      </trkpt>
      <trkpt lat="-20.90443" lon="55.39433">
        <ele>444.3</ele>
        <time>2013-09-15T07:45:06Z</time>
      </trkpt>
      <trkpt lat="-20.90438" lon="55.39441">
        <ele>445.7</ele>
        <time>2013-09-15T07:45:12Z</time>
      </trkpt>
      <trkpt lat="-20.90437" lon="55.39448">
        <ele>446</ele>
        <time>2013-09-15T07:45:17Z</time>
      </trkpt>
      <trkpt lat="-20.90436" lon="55.39457">
        <ele>445.6</ele>
        <time>2013-09-15T07:45:21Z</time>
      </trkpt>
      <trkpt lat="-20.90436" lon="55.39465">
        <ele>446.1</ele>
        <time>2013-09-15T07:45:26Z</time>
      </trkpt>
      <trkpt lat="-20.90435" lon="55.39473">
        <ele>447</ele>
        <time>2013-09-15T07:45:30Z</time>
      </trkpt>
      <trkpt lat="-20.90435" lon="55.39474">
        <ele>447.1</ele>
        <time>2013-09-15T07:45:31Z</time>
      </trkpt>
      <trkpt lat="-20.90438" lon="55.3949">
        <ele>447.8</ele>
        <time>2013-09-15T07:45:41Z</time>
      </trkpt>
      <trkpt lat="-20.9044" lon="55.39499">
        <ele>448.1</ele>
        <time>2013-09-15T07:45:46Z</time>
      </trkpt>
      <trkpt lat="-20.90444" lon="55.39507">
        <ele>448.2</ele>
        <time>2013-09-15T07:45:52Z</time>
      </trkpt>
      <trkpt lat="-20.90447" lon="55.39515">
        <ele>448.8</ele>
        <time>2013-09-15T07:45:58Z</time>
      </trkpt>
      <trkpt lat="-20.9045" lon="55.39523">
        <ele>448.8</ele>
        <time>2013-09-15T07:46:03Z</time>
      </trkpt>
      <trkpt lat="-20.90453" lon="55.39532">
        <ele>448.8</ele>
        <time>2013-09-15T07:46:08Z</time>
      </trkpt>
      <trkpt lat="-20.90455" lon="55.3954">
        <ele>449.2</ele>
        <time>2013-09-15T07:46:13Z</time>
      </trkpt>
      <trkpt lat="-20.90456" lon="55.39549">
        <ele>449.6</ele>
        <time>2013-09-15T07:46:19Z</time>
      </trkpt>
      <trkpt lat="-20.90458" lon="55.39558">
        <ele>449.6</ele>
        <time>2013-09-15T07:46:26Z</time>
      </trkpt>
      <trkpt lat="-20.90461" lon="55.39565">
        <ele>450.2</ele>
        <time>2013-09-15T07:46:31Z</time>
      </trkpt>
      <trkpt lat="-20.90462" lon="55.39567">
        <ele>450.4</ele>
        <time>2013-09-15T07:46:32Z</time>
      </trkpt>
      <trkpt lat="-20.90469" lon="55.39579">
        <ele>450.2</ele>
        <time>2013-09-15T07:46:39Z</time>
      </trkpt>
      <trkpt lat="-20.90474" lon="55.39586">
        <ele>450.4</ele>
        <time>2013-09-15T07:46:43Z</time>
      </trkpt>
      <trkpt lat="-20.90479" lon="55.39593">
        <ele>450.2</ele>
        <time>2013-09-15T07:46:47Z</time>
      </trkpt>
      <trkpt lat="-20.90483" lon="55.39601">
        <ele>449</ele>
        <time>2013-09-15T07:46:51Z</time>
      </trkpt>
      <trkpt lat="-20.90487" lon="55.39607">
        <ele>449.4</ele>
        <time>2013-09-15T07:46:56Z</time>
      </trkpt>
      <trkpt lat="-20.9049" lon="55.39615">
        <ele>448.7</ele>
        <time>2013-09-15T07:47:00Z</time>
      </trkpt>
      <trkpt lat="-20.90492" lon="55.39624">
        <ele>447.7</ele>
        <time>2013-09-15T07:47:04Z</time>
      </trkpt>
      <trkpt lat="-20.90493" lon="55.39633">
        <ele>447</ele>
        <time>2013-09-15T07:47:07Z</time>
      </trkpt>
      <trkpt lat="-20.90494" lon="55.39641">
        <ele>446.4</ele>
        <time>2013-09-15T07:47:10Z</time>
      </trkpt>
      <trkpt lat="-20.90494" lon="55.39649">
        <ele>446</ele>
        <time>2013-09-15T07:47:13Z</time>
      </trkpt>
      <trkpt lat="-20.90493" lon="55.39657">
        <ele>445</ele>
        <time>2013-09-15T07:47:16Z</time>
      </trkpt>
      <trkpt lat="-20.90492" lon="55.39666">
        <ele>444.7</ele>
        <time>2013-09-15T07:47:19Z</time>
      </trkpt>
      <trkpt lat="-20.90491" lon="55.39674">
        <ele>444.2</ele>
        <time>2013-09-15T07:47:22Z</time>
      </trkpt>
      <trkpt lat="-20.9049" lon="55.39682">
        <ele>443.4</ele>
        <time>2013-09-15T07:47:25Z</time>
      </trkpt>
      <trkpt lat="-20.90489" lon="55.39692">
        <ele>442</ele>
        <time>2013-09-15T07:47:29Z</time>
      </trkpt>
      <trkpt lat="-20.90489" lon="55.39699">
        <ele>441.3</ele>
        <time>2013-09-15T07:47:32Z</time>
      </trkpt>
      <trkpt lat="-20.90489" lon="55.39702">
        <ele>441.3</ele>
        <time>2013-09-15T07:47:33Z</time>
      </trkpt>
      <trkpt lat="-20.90494" lon="55.39713">
        <ele>440.4</ele>
        <time>2013-09-15T07:47:38Z</time>
      </trkpt>
      <trkpt lat="-20.90499" lon="55.39719">
        <ele>439.3</ele>
        <time>2013-09-15T07:47:41Z</time>
      </trkpt>
      <trkpt lat="-20.90504" lon="55.39726">
        <ele>438.9</ele>
        <time>2013-09-15T07:47:45Z</time>
      </trkpt>
      <trkpt lat="-20.90506" lon="55.39733">
        <ele>438.4</ele>
        <time>2013-09-15T07:47:49Z</time>
      </trkpt>
      <trkpt lat="-20.90511" lon="55.39741">
        <ele>437.9</ele>
        <time>2013-09-15T07:47:53Z</time>
      </trkpt>
      <trkpt lat="-20.90516" lon="55.39746">
        <ele>437.5</ele>
        <time>2013-09-15T07:47:56Z</time>
      </trkpt>
      <trkpt lat="-20.90521" lon="55.39751">
        <ele>437.5</ele>
        <time>2013-09-15T07:47:59Z</time>
      </trkpt>
      <trkpt lat="-20.90527" lon="55.39757">
        <ele>437.3</ele>
        <time>2013-09-15T07:48:02Z</time>
      </trkpt>
      <trkpt lat="-20.90532" lon="55.39764">
        <ele>437</ele>
        <time>2013-09-15T07:48:07Z</time>
      </trkpt>
      <trkpt lat="-20.90537" lon="55.39771">
        <ele>436.7</ele>
        <time>2013-09-15T07:48:13Z</time>
      </trkpt>
      <trkpt lat="-20.90538" lon="55.3978">
        <ele>435.3</ele>
        <time>2013-09-15T07:48:18Z</time>
      </trkpt>
      <trkpt lat="-20.90531" lon="55.39785">
        <ele>434.2</ele>
        <time>2013-09-15T07:48:22Z</time>
      </trkpt>
      <trkpt lat="-20.90523" lon="55.3979">
        <ele>432.2</ele>
        <time>2013-09-15T07:48:26Z</time>
      </trkpt>
      <trkpt lat="-20.90517" lon="55.39794">
        <ele>431.5</ele>
        <time>2013-09-15T07:48:29Z</time>
      </trkpt>
      <trkpt lat="-20.90509" lon="55.39798">
        <ele>431.2</ele>
        <time>2013-09-15T07:48:33Z</time>
      </trkpt>
      <trkpt lat="-20.90508" lon="55.39799">
        <ele>431.1</ele>
        <time>2013-09-15T07:48:34Z</time>
      </trkpt>
      <trkpt lat="-20.90496" lon="55.39809">
        <ele>429.5</ele>
        <time>2013-09-15T07:48:42Z</time>
      </trkpt>
      <trkpt lat="-20.9049" lon="55.39814">
        <ele>430</ele>
        <time>2013-09-15T07:48:46Z</time>
      </trkpt>
      <trkpt lat="-20.90482" lon="55.39819">
        <ele>430.8</ele>
        <time>2013-09-15T07:48:50Z</time>
      </trkpt>
      <trkpt lat="-20.90475" lon="55.39823">
        <ele>430.2</ele>
        <time>2013-09-15T07:48:54Z</time>
      </trkpt>
      <trkpt lat="-20.90469" lon="55.3983">
        <ele>430.9</ele>
        <time>2013-09-15T07:48:58Z</time>
      </trkpt>
      <trkpt lat="-20.90464" lon="55.39836">
        <ele>431.1</ele>
        <time>2013-09-15T07:49:03Z</time>
      </trkpt>
      <trkpt lat="-20.90455" lon="55.39838">
        <ele>430.7</ele>
        <time>2013-09-15T07:49:09Z</time>
      </trkpt>
      <trkpt lat="-20.90447" lon="55.39836">
        <ele>431</ele>
        <time>2013-09-15T07:49:17Z</time>
      </trkpt>
      <trkpt lat="-20.90444" lon="55.39825">
        <ele>433</ele>
        <time>2013-09-15T07:49:33Z</time>
      </trkpt>
      <trkpt lat="-20.90443" lon="55.39823">
        <ele>434.5</ele>
        <time>2013-09-15T07:49:35Z</time>
      </trkpt>
      <trkpt lat="-20.90408" lon="55.39822">
        <ele>440</ele>
        <time>2013-09-15T07:50:06Z</time>
      </trkpt>
      <trkpt lat="-20.90402" lon="55.39816">
        <ele>442.7</ele>
        <time>2013-09-15T07:50:20Z</time>
      </trkpt>
      <trkpt lat="-20.90394" lon="55.3981">
        <ele>444</ele>
        <time>2013-09-15T07:50:32Z</time>
      </trkpt>
      <trkpt lat="-20.90389" lon="55.39803">
        <ele>445.6</ele>
        <time>2013-09-15T07:50:39Z</time>
      </trkpt>
      <trkpt lat="-20.90388" lon="55.39802">
        <ele>446.1</ele>
        <time>2013-09-15T07:50:40Z</time>
      </trkpt>
      <trkpt lat="-20.90374" lon="55.39798">
        <ele>449.1</ele>
        <time>2013-09-15T07:50:56Z</time>
      </trkpt>
      <trkpt lat="-20.90366" lon="55.39801">
        <ele>451.2</ele>
        <time>2013-09-15T07:51:05Z</time>
      </trkpt>
      <trkpt lat="-20.90358" lon="55.39801">
        <ele>451.7</ele>
        <time>2013-09-15T07:51:11Z</time>
      </trkpt>
      <trkpt lat="-20.90349" lon="55.39802">
        <ele>453.6</ele>
        <time>2013-09-15T07:51:18Z</time>
      </trkpt>
      <trkpt lat="-20.90341" lon="55.39799">
        <ele>455.2</ele>
        <time>2013-09-15T07:51:28Z</time>
      </trkpt>
      <trkpt lat="-20.90333" lon="55.39801">
        <ele>456.8</ele>
        <time>2013-09-15T07:51:39Z</time>
      </trkpt>
      <trkpt lat="-20.90328" lon="55.39808">
        <ele>457.8</ele>
        <time>2013-09-15T07:51:46Z</time>
      </trkpt>
      <trkpt lat="-20.90327" lon="55.39809">
        <ele>457.8</ele>
        <time>2013-09-15T07:51:47Z</time>
      </trkpt>
      <trkpt lat="-20.90313" lon="55.39814">
        <ele>459.5</ele>
        <time>2013-09-15T07:52:00Z</time>
      </trkpt>
      <trkpt lat="-20.90305" lon="55.39817">
        <ele>461.9</ele>
        <time>2013-09-15T07:52:09Z</time>
      </trkpt>
      <trkpt lat="-20.90297" lon="55.39816">
        <ele>462.8</ele>
        <time>2013-09-15T07:52:15Z</time>
      </trkpt>
      <trkpt lat="-20.9029" lon="55.39812">
        <ele>463.6</ele>
        <time>2013-09-15T07:52:20Z</time>
      </trkpt>
      <trkpt lat="-20.90283" lon="55.39808">
        <ele>464.3</ele>
        <time>2013-09-15T07:52:25Z</time>
      </trkpt>
      <trkpt lat="-20.90276" lon="55.39805">
        <ele>464.9</ele>
        <time>2013-09-15T07:52:30Z</time>
      </trkpt>
      <trkpt lat="-20.9027" lon="55.39799">
        <ele>465.2</ele>
        <time>2013-09-15T07:52:34Z</time>
      </trkpt>
      <trkpt lat="-20.90264" lon="55.39794">
        <ele>465.9</ele>
        <time>2013-09-15T07:52:39Z</time>
      </trkpt>
      <trkpt lat="-20.90256" lon="55.39792">
        <ele>466.2</ele>
        <time>2013-09-15T07:52:44Z</time>
      </trkpt>
      <trkpt lat="-20.90248" lon="55.39789">
        <ele>466.4</ele>
        <time>2013-09-15T07:52:50Z</time>
      </trkpt>
      <trkpt lat="-20.90246" lon="55.39788">
        <ele>466.5</ele>
        <time>2013-09-15T07:52:51Z</time>
      </trkpt>
      <trkpt lat="-20.90232" lon="55.39782">
        <ele>466.3</ele>
        <time>2013-09-15T07:52:58Z</time>
      </trkpt>
      <trkpt lat="-20.90225" lon="55.39781">
        <ele>466.3</ele>
        <time>2013-09-15T07:53:01Z</time>
      </trkpt>
      <trkpt lat="-20.90218" lon="55.39777">
        <ele>466.9</ele>
        <time>2013-09-15T07:53:04Z</time>
      </trkpt>
      <trkpt lat="-20.90211" lon="55.39774">
        <ele>466.1</ele>
        <time>2013-09-15T07:53:07Z</time>
      </trkpt>
      <trkpt lat="-20.90204" lon="55.39771">
        <ele>465.6</ele>
        <time>2013-09-15T07:53:10Z</time>
      </trkpt>
      <trkpt lat="-20.90198" lon="55.39767">
        <ele>464.5</ele>
        <time>2013-09-15T07:53:13Z</time>
      </trkpt>
      <trkpt lat="-20.90191" lon="55.39764">
        <ele>463.8</ele>
        <time>2013-09-15T07:53:16Z</time>
      </trkpt>
      <trkpt lat="-20.90184" lon="55.39759">
        <ele>463.6</ele>
        <time>2013-09-15T07:53:20Z</time>
      </trkpt>
      <trkpt lat="-20.90181" lon="55.39752">
        <ele>462.7</ele>
        <time>2013-09-15T07:53:23Z</time>
      </trkpt>
      <trkpt lat="-20.90177" lon="55.39746">
        <ele>462.3</ele>
        <time>2013-09-15T07:53:26Z</time>
      </trkpt>
      <trkpt lat="-20.90171" lon="55.39741">
        <ele>461.1</ele>
        <time>2013-09-15T07:53:29Z</time>
      </trkpt>
      <trkpt lat="-20.90166" lon="55.39735">
        <ele>460.7</ele>
        <time>2013-09-15T07:53:32Z</time>
      </trkpt>
      <trkpt lat="-20.9016" lon="55.39728">
        <ele>459.6</ele>
        <time>2013-09-15T07:53:36Z</time>
      </trkpt>
      <trkpt lat="-20.90156" lon="55.39722">
        <ele>458.9</ele>
        <time>2013-09-15T07:53:39Z</time>
      </trkpt>
      <trkpt lat="-20.90151" lon="55.39716">
        <ele>458.1</ele>
        <time>2013-09-15T07:53:42Z</time>
      </trkpt>
      <trkpt lat="-20.90145" lon="55.39709">
        <ele>457.8</ele>
        <time>2013-09-15T07:53:45Z</time>
      </trkpt>
      <trkpt lat="-20.90139" lon="55.39702">
        <ele>455.8</ele>
        <time>2013-09-15T07:53:48Z</time>
      </trkpt>
      <trkpt lat="-20.90134" lon="55.39695">
        <ele>455.6</ele>
        <time>2013-09-15T07:53:51Z</time>
      </trkpt>
      <trkpt lat="-20.90132" lon="55.39693">
        <ele>455.6</ele>
        <time>2013-09-15T07:53:52Z</time>
      </trkpt>
      <trkpt lat="-20.90122" lon="55.39681">
        <ele>454.1</ele>
        <time>2013-09-15T07:53:57Z</time>
      </trkpt>
      <trkpt lat="-20.90117" lon="55.39674">
        <ele>453</ele>
        <time>2013-09-15T07:54:00Z</time>
      </trkpt>
      <trkpt lat="-20.90111" lon="55.39668">
        <ele>451.1</ele>
        <time>2013-09-15T07:54:03Z</time>
      </trkpt>
      <trkpt lat="-20.90106" lon="55.39662">
        <ele>451.4</ele>
        <time>2013-09-15T07:54:06Z</time>
      </trkpt>
      <trkpt lat="-20.90102" lon="55.39654">
        <ele>449.5</ele>
        <time>2013-09-15T07:54:09Z</time>
      </trkpt>
      <trkpt lat="-20.90096" lon="55.39648">
        <ele>448.2</ele>
        <time>2013-09-15T07:54:12Z</time>
      </trkpt>
      <trkpt lat="-20.90091" lon="55.39643">
        <ele>447.3</ele>
        <time>2013-09-15T07:54:15Z</time>
      </trkpt>
      <trkpt lat="-20.90084" lon="55.39637">
        <ele>445.3</ele>
        <time>2013-09-15T07:54:19Z</time>
      </trkpt>
      <trkpt lat="-20.90079" lon="55.39632">
        <ele>444.5</ele>
        <time>2013-09-15T07:54:22Z</time>
      </trkpt>
      <trkpt lat="-20.90072" lon="55.39626">
        <ele>443.1</ele>
        <time>2013-09-15T07:54:26Z</time>
      </trkpt>
      <trkpt lat="-20.90066" lon="55.39621">
        <ele>440.9</ele>
        <time>2013-09-15T07:54:30Z</time>
      </trkpt>
      <trkpt lat="-20.9006" lon="55.39615">
        <ele>439.9</ele>
        <time>2013-09-15T07:54:33Z</time>
      </trkpt>
      <trkpt lat="-20.90054" lon="55.39611">
        <ele>438.7</ele>
        <time>2013-09-15T07:54:36Z</time>
      </trkpt>
      <trkpt lat="-20.90046" lon="55.39615">
        <ele>437.3</ele>
        <time>2013-09-15T07:54:43Z</time>
      </trkpt>
      <trkpt lat="-20.90048" lon="55.39624">
        <ele>437.6</ele>
        <time>2013-09-15T07:54:49Z</time>
      </trkpt>
      <trkpt lat="-20.90047" lon="55.39633">
        <ele>437.5</ele>
        <time>2013-09-15T07:54:55Z</time>
      </trkpt>
      <trkpt lat="-20.90047" lon="55.39635">
        <ele>437.3</ele>
        <time>2013-09-15T07:54:56Z</time>
      </trkpt>
      <trkpt lat="-20.90042" lon="55.39649">
        <ele>439.2</ele>
        <time>2013-09-15T07:55:03Z</time>
      </trkpt>
      <trkpt lat="-20.9004" lon="55.39658">
        <ele>440.4</ele>
        <time>2013-09-15T07:55:15Z</time>
      </trkpt>
      <trkpt lat="-20.90048" lon="55.39662">
        <ele>440.6</ele>
        <time>2013-09-15T07:55:54Z</time>
      </trkpt>
      <trkpt lat="-20.90045" lon="55.39658">
        <ele>440.5</ele>
        <time>2013-09-15T07:57:01Z</time>
      </trkpt>
      <trkpt lat="-20.90046" lon="55.39658">
        <ele>440.3</ele>
        <time>2013-09-15T07:57:02Z</time>
      </trkpt>
      <trkpt lat="-20.90046" lon="55.39658">
        <ele>440.3</ele>
        <time>2013-09-15T07:57:02Z</time>
      </trkpt>
      <trkpt lat="-20.90045" lon="55.39659">
        <ele>440.3</ele>
        <time>2013-09-15T07:57:05Z</time>
      </trkpt>
    </trkseg>
  </trk>
</gpx>